<?xml version="1.0" encoding="UTF-8" standalone="no" ?>
<gpx xmlns="http://www.topografix.com/GPX/1/1" xmlns:xsi="http://www.w3.org/2001/XMLSchema-instance" xsi:schemaLocation="http://www.topografix.com/GPX/1/1 http://www.topografix.com/GPX/1/1/gpx.xsd" version="1.1" creator="VisuGPX - https://www.visugpx.com">
  <metadata>
    <name>2010-05-29 Les Cernets</name>
    <desc><![CDATA[2010-05-29 Les Cernets]]></desc>
  </metadata>
  <trk>
    <name><![CDATA[2010-05-29 Les Cernets_1]]></name>
    <trkseg>
      <trkpt lat="46.81939" lon="6.50098">
        <ele>1062.1154785156</ele>
        <time>2010-05-29T07:50:21Z</time>
      </trkpt>
      <trkpt lat="46.81943" lon="6.50121">
        <ele>1063.2467041016</ele>
        <time>2010-05-29T07:51:03Z</time>
      </trkpt>
      <trkpt lat="46.81947" lon="6.50133">
        <ele>1063.876953125</ele>
        <time>2010-05-29T07:51:08Z</time>
      </trkpt>
      <trkpt lat="46.81947" lon="6.50152">
        <ele>1064.5505371094</ele>
        <time>2010-05-29T07:51:14Z</time>
      </trkpt>
      <trkpt lat="46.8195" lon="6.50171">
        <ele>1065.3419189453</ele>
        <time>2010-05-29T07:51:19Z</time>
      </trkpt>
      <trkpt lat="46.81963" lon="6.50179">
        <ele>1066.0869140625</ele>
        <time>2010-05-29T07:51:24Z</time>
      </trkpt>
      <trkpt lat="46.81978" lon="6.50188">
        <ele>1067.2008056641</ele>
        <time>2010-05-29T07:51:30Z</time>
      </trkpt>
      <trkpt lat="46.81993" lon="6.50205">
        <ele>1068.8591308594</ele>
        <time>2010-05-29T07:51:36Z</time>
      </trkpt>
      <trkpt lat="46.82002" lon="6.50218">
        <ele>1069.9399414062</ele>
        <time>2010-05-29T07:51:40Z</time>
      </trkpt>
      <trkpt lat="46.82023" lon="6.50248">
        <ele>1070.8366699219</ele>
        <time>2010-05-29T07:51:49Z</time>
      </trkpt>
      <trkpt lat="46.82039" lon="6.50268">
        <ele>1071.0130615234</ele>
        <time>2010-05-29T07:51:55Z</time>
      </trkpt>
      <trkpt lat="46.82049" lon="6.50281">
        <ele>1071.4317626953</ele>
        <time>2010-05-29T07:51:59Z</time>
      </trkpt>
      <trkpt lat="46.82069" lon="6.5031">
        <ele>1071.8471679688</ele>
        <time>2010-05-29T07:52:08Z</time>
      </trkpt>
      <trkpt lat="46.82085" lon="6.50341">
        <ele>1071.8029785156</ele>
        <time>2010-05-29T07:52:16Z</time>
      </trkpt>
      <trkpt lat="46.82109" lon="6.50381">
        <ele>1071.9401855469</ele>
        <time>2010-05-29T07:52:27Z</time>
      </trkpt>
      <trkpt lat="46.82125" lon="6.50391">
        <ele>1072.9721679688</ele>
        <time>2010-05-29T07:52:33Z</time>
      </trkpt>
      <trkpt lat="46.82134" lon="6.50396">
        <ele>1073.6254882812</ele>
        <time>2010-05-29T07:52:38Z</time>
      </trkpt>
      <trkpt lat="46.82135" lon="6.50396">
        <ele>1073.6517333984</ele>
        <time>2010-05-29T07:52:40Z</time>
      </trkpt>
      <trkpt lat="46.8214" lon="6.50397">
        <ele>1074.1424560547</ele>
        <time>2010-05-29T07:52:59Z</time>
      </trkpt>
      <trkpt lat="46.82145" lon="6.50397">
        <ele>1074.5513916016</ele>
        <time>2010-05-29T07:53:01Z</time>
      </trkpt>
      <trkpt lat="46.82148" lon="6.50381">
        <ele>1075.1661376953</ele>
        <time>2010-05-29T07:53:05Z</time>
      </trkpt>
      <trkpt lat="46.82149" lon="6.50376">
        <ele>1075.3594970703</ele>
        <time>2010-05-29T07:53:06Z</time>
      </trkpt>
      <trkpt lat="46.82156" lon="6.50347">
        <ele>1076.7532958984</ele>
        <time>2010-05-29T07:53:12Z</time>
      </trkpt>
      <trkpt lat="46.82162" lon="6.50321">
        <ele>1077.6982421875</ele>
        <time>2010-05-29T07:53:17Z</time>
      </trkpt>
      <trkpt lat="46.82171" lon="6.5028">
        <ele>1079.0953369141</ele>
        <time>2010-05-29T07:53:26Z</time>
      </trkpt>
      <trkpt lat="46.82179" lon="6.50247">
        <ele>1080</ele>
        <time>2010-05-29T07:53:33Z</time>
      </trkpt>
      <trkpt lat="46.82187" lon="6.50223">
        <ele>1080</ele>
        <time>2010-05-29T07:53:38Z</time>
      </trkpt>
      <trkpt lat="46.82198" lon="6.50191">
        <ele>1079.9892578125</ele>
        <time>2010-05-29T07:53:44Z</time>
      </trkpt>
      <trkpt lat="46.82209" lon="6.50169">
        <ele>1079.6116943359</ele>
        <time>2010-05-29T07:53:48Z</time>
      </trkpt>
      <trkpt lat="46.82227" lon="6.5015">
        <ele>1080.0754394531</ele>
        <time>2010-05-29T07:53:53Z</time>
      </trkpt>
      <trkpt lat="46.82232" lon="6.50148">
        <ele>1080.1090087891</ele>
        <time>2010-05-29T07:53:54Z</time>
      </trkpt>
      <trkpt lat="46.8227" lon="6.50132">
        <ele>1081.275390625</ele>
        <time>2010-05-29T07:54:02Z</time>
      </trkpt>
      <trkpt lat="46.82302" lon="6.5013">
        <ele>1083.4508056641</ele>
        <time>2010-05-29T07:54:09Z</time>
      </trkpt>
      <trkpt lat="46.82315" lon="6.50127">
        <ele>1083.7453613281</ele>
        <time>2010-05-29T07:54:13Z</time>
      </trkpt>
      <trkpt lat="46.82318" lon="6.50126">
        <ele>1083.77734375</ele>
        <time>2010-05-29T07:54:14Z</time>
      </trkpt>
      <trkpt lat="46.82354" lon="6.50124">
        <ele>1085.4124755859</ele>
        <time>2010-05-29T07:54:22Z</time>
      </trkpt>
      <trkpt lat="46.8238" lon="6.50118">
        <ele>1087.4798583984</ele>
        <time>2010-05-29T07:54:28Z</time>
      </trkpt>
      <trkpt lat="46.824" lon="6.50114">
        <ele>1088.6066894531</ele>
        <time>2010-05-29T07:54:34Z</time>
      </trkpt>
      <trkpt lat="46.82429" lon="6.50108">
        <ele>1089.2434082031</ele>
        <time>2010-05-29T07:54:41Z</time>
      </trkpt>
      <trkpt lat="46.82444" lon="6.50093">
        <ele>1089.3139648438</ele>
        <time>2010-05-29T07:54:46Z</time>
      </trkpt>
      <trkpt lat="46.8246" lon="6.50081">
        <ele>1089.46875</ele>
        <time>2010-05-29T07:54:52Z</time>
      </trkpt>
      <trkpt lat="46.8248" lon="6.50078">
        <ele>1090.0832519531</ele>
        <time>2010-05-29T07:54:58Z</time>
      </trkpt>
      <trkpt lat="46.82499" lon="6.50071">
        <ele>1090.4969482422</ele>
        <time>2010-05-29T07:55:04Z</time>
      </trkpt>
      <trkpt lat="46.82517" lon="6.50073">
        <ele>1091.8798828125</ele>
        <time>2010-05-29T07:55:10Z</time>
      </trkpt>
      <trkpt lat="46.82531" lon="6.50085">
        <ele>1093.1689453125</ele>
        <time>2010-05-29T07:55:16Z</time>
      </trkpt>
      <trkpt lat="46.82546" lon="6.50094">
        <ele>1094.0461425781</ele>
        <time>2010-05-29T07:55:22Z</time>
      </trkpt>
      <trkpt lat="46.82557" lon="6.501">
        <ele>1094.6384277344</ele>
        <time>2010-05-29T07:55:27Z</time>
      </trkpt>
      <trkpt lat="46.8256" lon="6.50094">
        <ele>1094.55078125</ele>
        <time>2010-05-29T07:55:31Z</time>
      </trkpt>
      <trkpt lat="46.82555" lon="6.50092">
        <ele>1094.2744140625</ele>
        <time>2010-05-29T07:55:33Z</time>
      </trkpt>
      <trkpt lat="46.82532" lon="6.50082">
        <ele>1093.0865478516</ele>
        <time>2010-05-29T07:55:40Z</time>
      </trkpt>
      <trkpt lat="46.8252" lon="6.50075">
        <ele>1092.1442871094</ele>
        <time>2010-05-29T07:55:43Z</time>
      </trkpt>
      <trkpt lat="46.82498" lon="6.50066">
        <ele>1090.3201904297</ele>
        <time>2010-05-29T07:55:48Z</time>
      </trkpt>
      <trkpt lat="46.82493" lon="6.50067">
        <ele>1090.1536865234</ele>
        <time>2010-05-29T07:55:49Z</time>
      </trkpt>
      <trkpt lat="46.82473" lon="6.50072">
        <ele>1089.6163330078</ele>
        <time>2010-05-29T07:55:54Z</time>
      </trkpt>
      <trkpt lat="46.82453" lon="6.50081">
        <ele>1089.2369384766</ele>
        <time>2010-05-29T07:56:00Z</time>
      </trkpt>
      <trkpt lat="46.82449" lon="6.50084">
        <ele>1089.1734619141</ele>
        <time>2010-05-29T07:56:02Z</time>
      </trkpt>
      <trkpt lat="46.82442" lon="6.50098">
        <ele>1089.3865966797</ele>
        <time>2010-05-29T07:56:06Z</time>
      </trkpt>
      <trkpt lat="46.82434" lon="6.50109">
        <ele>1089.5322265625</ele>
        <time>2010-05-29T07:56:10Z</time>
      </trkpt>
      <trkpt lat="46.8243" lon="6.50114">
        <ele>1089.6676025391</ele>
        <time>2010-05-29T07:56:12Z</time>
      </trkpt>
      <trkpt lat="46.82428" lon="6.50115">
        <ele>1089.7293701172</ele>
        <time>2010-05-29T07:56:13Z</time>
      </trkpt>
      <trkpt lat="46.82407" lon="6.50132">
        <ele>1090.1997070312</ele>
        <time>2010-05-29T07:56:21Z</time>
      </trkpt>
      <trkpt lat="46.82395" lon="6.50139">
        <ele>1090.2065429688</ele>
        <time>2010-05-29T07:56:25Z</time>
      </trkpt>
      <trkpt lat="46.82374" lon="6.50157">
        <ele>1089.0534667969</ele>
        <time>2010-05-29T07:56:32Z</time>
      </trkpt>
      <trkpt lat="46.82364" lon="6.5017">
        <ele>1088.4206542969</ele>
        <time>2010-05-29T07:56:37Z</time>
      </trkpt>
      <trkpt lat="46.82352" lon="6.50181">
        <ele>1087.8994140625</ele>
        <time>2010-05-29T07:56:41Z</time>
      </trkpt>
      <trkpt lat="46.82327" lon="6.50203">
        <ele>1087.0482177734</ele>
        <time>2010-05-29T07:56:50Z</time>
      </trkpt>
      <trkpt lat="46.8231" lon="6.50211">
        <ele>1086.7495117188</ele>
        <time>2010-05-29T07:56:55Z</time>
      </trkpt>
      <trkpt lat="46.82302" lon="6.50217">
        <ele>1086.4201660156</ele>
        <time>2010-05-29T07:56:58Z</time>
      </trkpt>
      <trkpt lat="46.82292" lon="6.50231">
        <ele>1085.8564453125</ele>
        <time>2010-05-29T07:57:03Z</time>
      </trkpt>
      <trkpt lat="46.82282" lon="6.50247">
        <ele>1085.3688964844</ele>
        <time>2010-05-29T07:57:08Z</time>
      </trkpt>
      <trkpt lat="46.82272" lon="6.50267">
        <ele>1085.1647949219</ele>
        <time>2010-05-29T07:57:14Z</time>
      </trkpt>
      <trkpt lat="46.82264" lon="6.50292">
        <ele>1085.5303955078</ele>
        <time>2010-05-29T07:57:20Z</time>
      </trkpt>
      <trkpt lat="46.82258" lon="6.50308">
        <ele>1085.6832275391</ele>
        <time>2010-05-29T07:57:23Z</time>
      </trkpt>
      <trkpt lat="46.82253" lon="6.50326">
        <ele>1085.9613037109</ele>
        <time>2010-05-29T07:57:26Z</time>
      </trkpt>
      <trkpt lat="46.82253" lon="6.50346">
        <ele>1086.6564941406</ele>
        <time>2010-05-29T07:57:29Z</time>
      </trkpt>
      <trkpt lat="46.82256" lon="6.50356">
        <ele>1087.25390625</ele>
        <time>2010-05-29T07:57:31Z</time>
      </trkpt>
      <trkpt lat="46.82259" lon="6.50364">
        <ele>1087.6745605469</ele>
        <time>2010-05-29T07:57:33Z</time>
      </trkpt>
      <trkpt lat="46.82273" lon="6.50391">
        <ele>1088.7515869141</ele>
        <time>2010-05-29T07:57:40Z</time>
      </trkpt>
      <trkpt lat="46.8228" lon="6.50402">
        <ele>1089.7281494141</ele>
        <time>2010-05-29T07:57:43Z</time>
      </trkpt>
      <trkpt lat="46.82292" lon="6.5042">
        <ele>1092.1519775391</ele>
        <time>2010-05-29T07:57:48Z</time>
      </trkpt>
      <trkpt lat="46.82307" lon="6.50446">
        <ele>1095.1508789062</ele>
        <time>2010-05-29T07:57:56Z</time>
      </trkpt>
      <trkpt lat="46.8231" lon="6.50448">
        <ele>1095.4083251953</ele>
        <time>2010-05-29T07:57:57Z</time>
      </trkpt>
      <trkpt lat="46.82313" lon="6.50438">
        <ele>1095.5931396484</ele>
        <time>2010-05-29T07:58:01Z</time>
      </trkpt>
      <trkpt lat="46.82302" lon="6.50414">
        <ele>1093.453125</ele>
        <time>2010-05-29T07:58:08Z</time>
      </trkpt>
      <trkpt lat="46.8229" lon="6.50378">
        <ele>1090.6206054688</ele>
        <time>2010-05-29T07:58:18Z</time>
      </trkpt>
      <trkpt lat="46.82282" lon="6.50346">
        <ele>1088.9085693359</ele>
        <time>2010-05-29T07:58:25Z</time>
      </trkpt>
      <trkpt lat="46.82283" lon="6.50335">
        <ele>1088.5842285156</ele>
        <time>2010-05-29T07:58:27Z</time>
      </trkpt>
      <trkpt lat="46.82293" lon="6.50315">
        <ele>1089.0184326172</ele>
        <time>2010-05-29T07:58:32Z</time>
      </trkpt>
      <trkpt lat="46.82304" lon="6.50293">
        <ele>1089.4252929688</ele>
        <time>2010-05-29T07:58:38Z</time>
      </trkpt>
      <trkpt lat="46.8232" lon="6.50267">
        <ele>1089.6923828125</ele>
        <time>2010-05-29T07:58:46Z</time>
      </trkpt>
      <trkpt lat="46.82336" lon="6.50263">
        <ele>1090.6828613281</ele>
        <time>2010-05-29T07:58:52Z</time>
      </trkpt>
      <trkpt lat="46.82356" lon="6.50266">
        <ele>1092.2313232422</ele>
        <time>2010-05-29T07:59:00Z</time>
      </trkpt>
      <trkpt lat="46.82367" lon="6.50268">
        <ele>1093.6147460938</ele>
        <time>2010-05-29T07:59:04Z</time>
      </trkpt>
      <trkpt lat="46.8239" lon="6.5027">
        <ele>1097.7707519531</ele>
        <time>2010-05-29T07:59:14Z</time>
      </trkpt>
      <trkpt lat="46.82408" lon="6.50272">
        <ele>1099.044921875</ele>
        <time>2010-05-29T07:59:22Z</time>
      </trkpt>
      <trkpt lat="46.82428" lon="6.50273">
        <ele>1100.7268066406</ele>
        <time>2010-05-29T07:59:30Z</time>
      </trkpt>
      <trkpt lat="46.82447" lon="6.50271">
        <ele>1102.6892089844</ele>
        <time>2010-05-29T07:59:38Z</time>
      </trkpt>
      <trkpt lat="46.82452" lon="6.50272">
        <ele>1103.8194580078</ele>
        <time>2010-05-29T07:59:40Z</time>
      </trkpt>
      <trkpt lat="46.82451" lon="6.50281">
        <ele>1105.9982910156</ele>
        <time>2010-05-29T07:59:44Z</time>
      </trkpt>
      <trkpt lat="46.82449" lon="6.50283">
        <ele>1105.8891601562</ele>
        <time>2010-05-29T07:59:45Z</time>
      </trkpt>
      <trkpt lat="46.82424" lon="6.50291">
        <ele>1104.1397705078</ele>
        <time>2010-05-29T07:59:54Z</time>
      </trkpt>
      <trkpt lat="46.82393" lon="6.50299">
        <ele>1100.9056396484</ele>
        <time>2010-05-29T08:00:03Z</time>
      </trkpt>
      <trkpt lat="46.82374" lon="6.5031">
        <ele>1098.1353759766</ele>
        <time>2010-05-29T08:00:09Z</time>
      </trkpt>
      <trkpt lat="46.82359" lon="6.50341">
        <ele>1096.1065673828</ele>
        <time>2010-05-29T08:00:16Z</time>
      </trkpt>
      <trkpt lat="46.8235" lon="6.50367">
        <ele>1096.4310302734</ele>
        <time>2010-05-29T08:00:21Z</time>
      </trkpt>
      <trkpt lat="46.82347" lon="6.50378">
        <ele>1096.611328125</ele>
        <time>2010-05-29T08:00:23Z</time>
      </trkpt>
      <trkpt lat="46.82348" lon="6.50395">
        <ele>1097.4085693359</ele>
        <time>2010-05-29T08:00:26Z</time>
      </trkpt>
      <trkpt lat="46.82351" lon="6.50404">
        <ele>1098.1435546875</ele>
        <time>2010-05-29T08:00:28Z</time>
      </trkpt>
      <trkpt lat="46.82368" lon="6.5043">
        <ele>1102.7760009766</ele>
        <time>2010-05-29T08:00:37Z</time>
      </trkpt>
      <trkpt lat="46.82381" lon="6.50447">
        <ele>1106.7478027344</ele>
        <time>2010-05-29T08:00:44Z</time>
      </trkpt>
      <trkpt lat="46.82388" lon="6.50458">
        <ele>1107.8819580078</ele>
        <time>2010-05-29T08:00:48Z</time>
      </trkpt>
      <trkpt lat="46.82407" lon="6.50486">
        <ele>1112.8400878906</ele>
        <time>2010-05-29T08:00:58Z</time>
      </trkpt>
      <trkpt lat="46.82421" lon="6.5051">
        <ele>1115.7060546875</ele>
        <time>2010-05-29T08:01:07Z</time>
      </trkpt>
      <trkpt lat="46.82433" lon="6.50536">
        <ele>1116.2425537109</ele>
        <time>2010-05-29T08:01:16Z</time>
      </trkpt>
      <trkpt lat="46.82446" lon="6.50566">
        <ele>1118.0791015625</ele>
        <time>2010-05-29T08:01:26Z</time>
      </trkpt>
      <trkpt lat="46.82455" lon="6.50591">
        <ele>1117.8817138672</ele>
        <time>2010-05-29T08:01:34Z</time>
      </trkpt>
      <trkpt lat="46.82466" lon="6.50618">
        <ele>1118.8404541016</ele>
        <time>2010-05-29T08:01:43Z</time>
      </trkpt>
      <trkpt lat="46.82469" lon="6.5063">
        <ele>1118.6322021484</ele>
        <time>2010-05-29T08:01:47Z</time>
      </trkpt>
      <trkpt lat="46.82471" lon="6.50644">
        <ele>1118.3314208984</ele>
        <time>2010-05-29T08:01:53Z</time>
      </trkpt>
      <trkpt lat="46.8248" lon="6.50665">
        <ele>1118.8382568359</ele>
        <time>2010-05-29T08:02:00Z</time>
      </trkpt>
      <trkpt lat="46.82493" lon="6.50693">
        <ele>1117.892578125</ele>
        <time>2010-05-29T08:02:09Z</time>
      </trkpt>
      <trkpt lat="46.82501" lon="6.50721">
        <ele>1117.3629150391</ele>
        <time>2010-05-29T08:02:17Z</time>
      </trkpt>
      <trkpt lat="46.82513" lon="6.50753">
        <ele>1117.5123291016</ele>
        <time>2010-05-29T08:02:26Z</time>
      </trkpt>
      <trkpt lat="46.82528" lon="6.50781">
        <ele>1120.0617675781</ele>
        <time>2010-05-29T08:02:35Z</time>
      </trkpt>
      <trkpt lat="46.82543" lon="6.50798">
        <ele>1125.8439941406</ele>
        <time>2010-05-29T08:02:43Z</time>
      </trkpt>
      <trkpt lat="46.82556" lon="6.5081">
        <ele>1129.7325439453</ele>
        <time>2010-05-29T08:02:49Z</time>
      </trkpt>
      <trkpt lat="46.82573" lon="6.50834">
        <ele>1131.1740722656</ele>
        <time>2010-05-29T08:02:59Z</time>
      </trkpt>
      <trkpt lat="46.82588" lon="6.50851">
        <ele>1132.9716796875</ele>
        <time>2010-05-29T08:03:07Z</time>
      </trkpt>
      <trkpt lat="46.826" lon="6.50867">
        <ele>1135.623046875</ele>
        <time>2010-05-29T08:03:15Z</time>
      </trkpt>
      <trkpt lat="46.82616" lon="6.5089">
        <ele>1140.4450683594</ele>
        <time>2010-05-29T08:03:24Z</time>
      </trkpt>
      <trkpt lat="46.82628" lon="6.50914">
        <ele>1145.7478027344</ele>
        <time>2010-05-29T08:03:31Z</time>
      </trkpt>
      <trkpt lat="46.82636" lon="6.5093">
        <ele>1149.2308349609</ele>
        <time>2010-05-29T08:03:36Z</time>
      </trkpt>
      <trkpt lat="46.82644" lon="6.50947">
        <ele>1151.2749023438</ele>
        <time>2010-05-29T08:03:41Z</time>
      </trkpt>
      <trkpt lat="46.8265" lon="6.50973">
        <ele>1151.6759033203</ele>
        <time>2010-05-29T08:03:47Z</time>
      </trkpt>
      <trkpt lat="46.82655" lon="6.50993">
        <ele>1152.7281494141</ele>
        <time>2010-05-29T08:03:51Z</time>
      </trkpt>
      <trkpt lat="46.82661" lon="6.51015">
        <ele>1153.8513183594</ele>
        <time>2010-05-29T08:03:56Z</time>
      </trkpt>
      <trkpt lat="46.82664" lon="6.51039">
        <ele>1154.3408203125</ele>
        <time>2010-05-29T08:04:01Z</time>
      </trkpt>
      <trkpt lat="46.8267" lon="6.51063">
        <ele>1156.2132568359</ele>
        <time>2010-05-29T08:04:07Z</time>
      </trkpt>
      <trkpt lat="46.82678" lon="6.51086">
        <ele>1158.5419921875</ele>
        <time>2010-05-29T08:04:13Z</time>
      </trkpt>
      <trkpt lat="46.82684" lon="6.51103">
        <ele>1160.2630615234</ele>
        <time>2010-05-29T08:04:18Z</time>
      </trkpt>
      <trkpt lat="46.82691" lon="6.51129">
        <ele>1162.0340576172</ele>
        <time>2010-05-29T08:04:26Z</time>
      </trkpt>
      <trkpt lat="46.82694" lon="6.51142">
        <ele>1162.6733398438</ele>
        <time>2010-05-29T08:04:30Z</time>
      </trkpt>
      <trkpt lat="46.82701" lon="6.51168">
        <ele>1165.4041748047</ele>
        <time>2010-05-29T08:04:38Z</time>
      </trkpt>
      <trkpt lat="46.82706" lon="6.5119">
        <ele>1165.828125</ele>
        <time>2010-05-29T08:04:45Z</time>
      </trkpt>
      <trkpt lat="46.82708" lon="6.51205">
        <ele>1166.5119628906</ele>
        <time>2010-05-29T08:04:50Z</time>
      </trkpt>
      <trkpt lat="46.82712" lon="6.51226">
        <ele>1168.2082519531</ele>
        <time>2010-05-29T08:04:57Z</time>
      </trkpt>
      <trkpt lat="46.82714" lon="6.51251">
        <ele>1168.6831054688</ele>
        <time>2010-05-29T08:05:04Z</time>
      </trkpt>
      <trkpt lat="46.82716" lon="6.51279">
        <ele>1170.4270019531</ele>
        <time>2010-05-29T08:05:11Z</time>
      </trkpt>
      <trkpt lat="46.8271" lon="6.51299">
        <ele>1170.9949951172</ele>
        <time>2010-05-29T08:05:16Z</time>
      </trkpt>
      <trkpt lat="46.82694" lon="6.51313">
        <ele>1167.7906494141</ele>
        <time>2010-05-29T08:05:22Z</time>
      </trkpt>
      <trkpt lat="46.82683" lon="6.51316">
        <ele>1164.244140625</ele>
        <time>2010-05-29T08:05:25Z</time>
      </trkpt>
      <trkpt lat="46.82665" lon="6.51318">
        <ele>1159.1237792969</ele>
        <time>2010-05-29T08:05:30Z</time>
      </trkpt>
      <trkpt lat="46.82661" lon="6.51317">
        <ele>1159.5413818359</ele>
        <time>2010-05-29T08:05:31Z</time>
      </trkpt>
      <trkpt lat="46.82653" lon="6.51313">
        <ele>1160.0858154297</ele>
        <time>2010-05-29T08:05:33Z</time>
      </trkpt>
      <trkpt lat="46.82643" lon="6.51307">
        <ele>1159.9700927734</ele>
        <time>2010-05-29T08:05:35Z</time>
      </trkpt>
      <trkpt lat="46.82619" lon="6.51295">
        <ele>1159.1326904297</ele>
        <time>2010-05-29T08:05:39Z</time>
      </trkpt>
      <trkpt lat="46.82614" lon="6.51292">
        <ele>1158.3572998047</ele>
        <time>2010-05-29T08:05:40Z</time>
      </trkpt>
      <trkpt lat="46.8259" lon="6.51275">
        <ele>1154.2557373047</ele>
        <time>2010-05-29T08:05:45Z</time>
      </trkpt>
      <trkpt lat="46.82575" lon="6.51263">
        <ele>1152.8376464844</ele>
        <time>2010-05-29T08:05:48Z</time>
      </trkpt>
      <trkpt lat="46.82558" lon="6.51254">
        <ele>1152.5819091797</ele>
        <time>2010-05-29T08:05:51Z</time>
      </trkpt>
      <trkpt lat="46.82552" lon="6.51252">
        <ele>1152.3937988281</ele>
        <time>2010-05-29T08:05:52Z</time>
      </trkpt>
      <trkpt lat="46.82524" lon="6.51232">
        <ele>1148.5130615234</ele>
        <time>2010-05-29T08:05:56Z</time>
      </trkpt>
      <trkpt lat="46.82495" lon="6.51217">
        <ele>1145.5834960938</ele>
        <time>2010-05-29T08:05:59Z</time>
      </trkpt>
      <trkpt lat="46.82453" lon="6.51213">
        <ele>1145.4903564453</ele>
        <time>2010-05-29T08:06:03Z</time>
      </trkpt>
      <trkpt lat="46.82446" lon="6.51214">
        <ele>1145.2126464844</ele>
        <time>2010-05-29T08:06:04Z</time>
      </trkpt>
      <trkpt lat="46.82421" lon="6.51217">
        <ele>1143.0672607422</ele>
        <time>2010-05-29T08:06:09Z</time>
      </trkpt>
      <trkpt lat="46.8241" lon="6.51229">
        <ele>1143.25390625</ele>
        <time>2010-05-29T08:06:13Z</time>
      </trkpt>
      <trkpt lat="46.82407" lon="6.51241">
        <ele>1144.1538085938</ele>
        <time>2010-05-29T08:06:16Z</time>
      </trkpt>
      <trkpt lat="46.82405" lon="6.51245">
        <ele>1144.3813476562</ele>
        <time>2010-05-29T08:06:17Z</time>
      </trkpt>
      <trkpt lat="46.82404" lon="6.51255">
        <ele>1144.9212646484</ele>
        <time>2010-05-29T08:06:19Z</time>
      </trkpt>
      <trkpt lat="46.82403" lon="6.51303">
        <ele>1148.7209472656</ele>
        <time>2010-05-29T08:06:26Z</time>
      </trkpt>
      <trkpt lat="46.82403" lon="6.51309">
        <ele>1149.3181152344</ele>
        <time>2010-05-29T08:06:27Z</time>
      </trkpt>
      <trkpt lat="46.82411" lon="6.51348">
        <ele>1153.6954345703</ele>
        <time>2010-05-29T08:06:33Z</time>
      </trkpt>
      <trkpt lat="46.82414" lon="6.51361">
        <ele>1154.3021240234</ele>
        <time>2010-05-29T08:06:35Z</time>
      </trkpt>
      <trkpt lat="46.82426" lon="6.51415">
        <ele>1156.8328857422</ele>
        <time>2010-05-29T08:06:43Z</time>
      </trkpt>
      <trkpt lat="46.82431" lon="6.51432">
        <ele>1157.2946777344</ele>
        <time>2010-05-29T08:06:46Z</time>
      </trkpt>
      <trkpt lat="46.82441" lon="6.51476">
        <ele>1158.8536376953</ele>
        <time>2010-05-29T08:06:53Z</time>
      </trkpt>
      <trkpt lat="46.82451" lon="6.5152">
        <ele>1160.4696044922</ele>
        <time>2010-05-29T08:07:00Z</time>
      </trkpt>
      <trkpt lat="46.8246" lon="6.5157">
        <ele>1160.0075683594</ele>
        <time>2010-05-29T08:07:08Z</time>
      </trkpt>
      <trkpt lat="46.8247" lon="6.5162">
        <ele>1160.1491699219</ele>
        <time>2010-05-29T08:07:16Z</time>
      </trkpt>
      <trkpt lat="46.82472" lon="6.51632">
        <ele>1160.23828125</ele>
        <time>2010-05-29T08:07:18Z</time>
      </trkpt>
      <trkpt lat="46.82479" lon="6.51658">
        <ele>1161.2449951172</ele>
        <time>2010-05-29T08:07:22Z</time>
      </trkpt>
      <trkpt lat="46.82488" lon="6.51711">
        <ele>1161.7160644531</ele>
        <time>2010-05-29T08:07:30Z</time>
      </trkpt>
      <trkpt lat="46.82489" lon="6.51739">
        <ele>1160.8148193359</ele>
        <time>2010-05-29T08:07:34Z</time>
      </trkpt>
      <trkpt lat="46.82493" lon="6.51813">
        <ele>1159.1975097656</ele>
        <time>2010-05-29T08:07:45Z</time>
      </trkpt>
      <trkpt lat="46.82495" lon="6.51827">
        <ele>1159.3369140625</ele>
        <time>2010-05-29T08:07:47Z</time>
      </trkpt>
      <trkpt lat="46.82494" lon="6.51855">
        <ele>1158.900390625</ele>
        <time>2010-05-29T08:07:51Z</time>
      </trkpt>
      <trkpt lat="46.82477" lon="6.51915">
        <ele>1154.990234375</ele>
        <time>2010-05-29T08:08:01Z</time>
      </trkpt>
      <trkpt lat="46.82473" lon="6.51927">
        <ele>1153.8774414062</ele>
        <time>2010-05-29T08:08:05Z</time>
      </trkpt>
      <trkpt lat="46.82473" lon="6.5193">
        <ele>1153.7095947266</ele>
        <time>2010-05-29T08:08:06Z</time>
      </trkpt>
      <trkpt lat="46.82479" lon="6.51943">
        <ele>1154.8725585938</ele>
        <time>2010-05-29T08:08:12Z</time>
      </trkpt>
      <trkpt lat="46.82484" lon="6.51951">
        <ele>1155.8526611328</ele>
        <time>2010-05-29T08:08:16Z</time>
      </trkpt>
      <trkpt lat="46.82487" lon="6.51965">
        <ele>1156.5074462891</ele>
        <time>2010-05-29T08:08:23Z</time>
      </trkpt>
      <trkpt lat="46.82492" lon="6.51975">
        <ele>1157.5191650391</ele>
        <time>2010-05-29T08:08:28Z</time>
      </trkpt>
      <trkpt lat="46.82494" lon="6.5198">
        <ele>1157.7912597656</ele>
        <time>2010-05-29T08:08:30Z</time>
      </trkpt>
      <trkpt lat="46.82495" lon="6.51982">
        <ele>1158.0836181641</ele>
        <time>2010-05-29T08:08:31Z</time>
      </trkpt>
      <trkpt lat="46.82501" lon="6.51995">
        <ele>1158.6350097656</ele>
        <time>2010-05-29T08:08:38Z</time>
      </trkpt>
      <trkpt lat="46.82504" lon="6.52002">
        <ele>1159.3842773438</ele>
        <time>2010-05-29T08:08:42Z</time>
      </trkpt>
      <trkpt lat="46.82508" lon="6.52008">
        <ele>1160.4965820312</ele>
        <time>2010-05-29T08:08:46Z</time>
      </trkpt>
      <trkpt lat="46.82511" lon="6.52017">
        <ele>1161.6090087891</ele>
        <time>2010-05-29T08:08:51Z</time>
      </trkpt>
      <trkpt lat="46.82518" lon="6.52029">
        <ele>1163.8692626953</ele>
        <time>2010-05-29T08:08:58Z</time>
      </trkpt>
      <trkpt lat="46.82524" lon="6.52041">
        <ele>1165.8275146484</ele>
        <time>2010-05-29T08:09:06Z</time>
      </trkpt>
      <trkpt lat="46.82524" lon="6.52043">
        <ele>1165.9543457031</ele>
        <time>2010-05-29T08:09:07Z</time>
      </trkpt>
      <trkpt lat="46.82527" lon="6.52049">
        <ele>1166.8342285156</ele>
        <time>2010-05-29T08:09:11Z</time>
      </trkpt>
      <trkpt lat="46.82535" lon="6.52064">
        <ele>1169.01953125</ele>
        <time>2010-05-29T08:09:20Z</time>
      </trkpt>
      <trkpt lat="46.8254" lon="6.52077">
        <ele>1170.5576171875</ele>
        <time>2010-05-29T08:09:27Z</time>
      </trkpt>
      <trkpt lat="46.82547" lon="6.52093">
        <ele>1172.6450195312</ele>
        <time>2010-05-29T08:09:36Z</time>
      </trkpt>
      <trkpt lat="46.82552" lon="6.52109">
        <ele>1173.853515625</ele>
        <time>2010-05-29T08:09:44Z</time>
      </trkpt>
      <trkpt lat="46.82555" lon="6.52124">
        <ele>1174.9521484375</ele>
        <time>2010-05-29T08:09:51Z</time>
      </trkpt>
      <trkpt lat="46.82559" lon="6.5214">
        <ele>1175.6690673828</ele>
        <time>2010-05-29T08:10:00Z</time>
      </trkpt>
      <trkpt lat="46.82563" lon="6.52154">
        <ele>1176.6359863281</ele>
        <time>2010-05-29T08:10:07Z</time>
      </trkpt>
      <trkpt lat="46.82566" lon="6.52167">
        <ele>1177.5419921875</ele>
        <time>2010-05-29T08:10:13Z</time>
      </trkpt>
      <trkpt lat="46.82568" lon="6.52184">
        <ele>1177.6785888672</ele>
        <time>2010-05-29T08:10:21Z</time>
      </trkpt>
      <trkpt lat="46.8257" lon="6.52206">
        <ele>1177.6031494141</ele>
        <time>2010-05-29T08:10:30Z</time>
      </trkpt>
      <trkpt lat="46.82573" lon="6.52225">
        <ele>1178.1721191406</ele>
        <time>2010-05-29T08:10:38Z</time>
      </trkpt>
      <trkpt lat="46.82575" lon="6.5225">
        <ele>1178.0880126953</ele>
        <time>2010-05-29T08:10:48Z</time>
      </trkpt>
      <trkpt lat="46.82576" lon="6.5226">
        <ele>1178.3201904297</ele>
        <time>2010-05-29T08:10:52Z</time>
      </trkpt>
      <trkpt lat="46.8258" lon="6.52275">
        <ele>1179.5023193359</ele>
        <time>2010-05-29T08:10:58Z</time>
      </trkpt>
      <trkpt lat="46.82585" lon="6.52294">
        <ele>1181.3911132812</ele>
        <time>2010-05-29T08:11:06Z</time>
      </trkpt>
      <trkpt lat="46.82591" lon="6.52314">
        <ele>1182.2277832031</ele>
        <time>2010-05-29T08:11:15Z</time>
      </trkpt>
      <trkpt lat="46.82595" lon="6.52328">
        <ele>1182.4647216797</ele>
        <time>2010-05-29T08:11:21Z</time>
      </trkpt>
      <trkpt lat="46.82601" lon="6.52349">
        <ele>1183.1411132812</ele>
        <time>2010-05-29T08:11:29Z</time>
      </trkpt>
      <trkpt lat="46.82606" lon="6.5236">
        <ele>1184.1025390625</ele>
        <time>2010-05-29T08:11:35Z</time>
      </trkpt>
      <trkpt lat="46.82612" lon="6.52373">
        <ele>1185.0959472656</ele>
        <time>2010-05-29T08:11:42Z</time>
      </trkpt>
      <trkpt lat="46.82619" lon="6.52388">
        <ele>1187.6650390625</ele>
        <time>2010-05-29T08:11:50Z</time>
      </trkpt>
      <trkpt lat="46.82626" lon="6.52401">
        <ele>1189.7584228516</ele>
        <time>2010-05-29T08:11:57Z</time>
      </trkpt>
      <trkpt lat="46.82634" lon="6.52411">
        <ele>1192.4259033203</ele>
        <time>2010-05-29T08:12:04Z</time>
      </trkpt>
      <trkpt lat="46.82641" lon="6.52419">
        <ele>1194.3792724609</ele>
        <time>2010-05-29T08:12:10Z</time>
      </trkpt>
      <trkpt lat="46.82652" lon="6.52428">
        <ele>1196.3366699219</ele>
        <time>2010-05-29T08:12:17Z</time>
      </trkpt>
      <trkpt lat="46.82662" lon="6.52437">
        <ele>1198.9063720703</ele>
        <time>2010-05-29T08:12:25Z</time>
      </trkpt>
      <trkpt lat="46.82672" lon="6.52449">
        <ele>1200.7663574219</ele>
        <time>2010-05-29T08:12:32Z</time>
      </trkpt>
      <trkpt lat="46.82682" lon="6.52463">
        <ele>1202.033203125</ele>
        <time>2010-05-29T08:12:41Z</time>
      </trkpt>
      <trkpt lat="46.82689" lon="6.52472">
        <ele>1203.0906982422</ele>
        <time>2010-05-29T08:12:47Z</time>
      </trkpt>
      <trkpt lat="46.82698" lon="6.52484">
        <ele>1204.0366210938</ele>
        <time>2010-05-29T08:12:55Z</time>
      </trkpt>
      <trkpt lat="46.82708" lon="6.52494">
        <ele>1205.2863769531</ele>
        <time>2010-05-29T08:13:02Z</time>
      </trkpt>
      <trkpt lat="46.82716" lon="6.52501">
        <ele>1206.6492919922</ele>
        <time>2010-05-29T08:13:08Z</time>
      </trkpt>
      <trkpt lat="46.82726" lon="6.5251">
        <ele>1207.7847900391</ele>
        <time>2010-05-29T08:13:15Z</time>
      </trkpt>
      <trkpt lat="46.82735" lon="6.52518">
        <ele>1208.6157226562</ele>
        <time>2010-05-29T08:13:22Z</time>
      </trkpt>
      <trkpt lat="46.82745" lon="6.52528">
        <ele>1209.3435058594</ele>
        <time>2010-05-29T08:13:29Z</time>
      </trkpt>
      <trkpt lat="46.82754" lon="6.52537">
        <ele>1210.0447998047</ele>
        <time>2010-05-29T08:13:35Z</time>
      </trkpt>
      <trkpt lat="46.82761" lon="6.52544">
        <ele>1210.9665527344</ele>
        <time>2010-05-29T08:13:40Z</time>
      </trkpt>
      <trkpt lat="46.8278" lon="6.52559">
        <ele>1214.1594238281</ele>
        <time>2010-05-29T08:13:49Z</time>
      </trkpt>
      <trkpt lat="46.82791" lon="6.5257">
        <ele>1215.8107910156</ele>
        <time>2010-05-29T08:13:56Z</time>
      </trkpt>
      <trkpt lat="46.82795" lon="6.52575">
        <ele>1216.2947998047</ele>
        <time>2010-05-29T08:13:59Z</time>
      </trkpt>
      <trkpt lat="46.82808" lon="6.52588">
        <ele>1218.0852050781</ele>
        <time>2010-05-29T08:14:07Z</time>
      </trkpt>
      <trkpt lat="46.82822" lon="6.526">
        <ele>1219.2680664062</ele>
        <time>2010-05-29T08:14:15Z</time>
      </trkpt>
      <trkpt lat="46.82831" lon="6.52616">
        <ele>1219.4370117188</ele>
        <time>2010-05-29T08:14:22Z</time>
      </trkpt>
      <trkpt lat="46.82841" lon="6.52631">
        <ele>1221.7471923828</ele>
        <time>2010-05-29T08:14:29Z</time>
      </trkpt>
      <trkpt lat="46.82848" lon="6.52642">
        <ele>1223.4091796875</ele>
        <time>2010-05-29T08:14:34Z</time>
      </trkpt>
      <trkpt lat="46.82858" lon="6.52663">
        <ele>1223.44921875</ele>
        <time>2010-05-29T08:14:41Z</time>
      </trkpt>
      <trkpt lat="46.82869" lon="6.5268">
        <ele>1225.0596923828</ele>
        <time>2010-05-29T08:14:48Z</time>
      </trkpt>
      <trkpt lat="46.82879" lon="6.52701">
        <ele>1225.7928466797</ele>
        <time>2010-05-29T08:14:56Z</time>
      </trkpt>
      <trkpt lat="46.82889" lon="6.52722">
        <ele>1225.0318603516</ele>
        <time>2010-05-29T08:15:01Z</time>
      </trkpt>
      <trkpt lat="46.82897" lon="6.52743">
        <ele>1227.3524169922</ele>
        <time>2010-05-29T08:15:06Z</time>
      </trkpt>
      <trkpt lat="46.82908" lon="6.52766">
        <ele>1230.7585449219</ele>
        <time>2010-05-29T08:15:13Z</time>
      </trkpt>
      <trkpt lat="46.82911" lon="6.5277">
        <ele>1231.7139892578</ele>
        <time>2010-05-29T08:15:15Z</time>
      </trkpt>
      <trkpt lat="46.82918" lon="6.52784">
        <ele>1234.0196533203</ele>
        <time>2010-05-29T08:15:22Z</time>
      </trkpt>
      <trkpt lat="46.82928" lon="6.52799">
        <ele>1235.9342041016</ele>
        <time>2010-05-29T08:15:29Z</time>
      </trkpt>
      <trkpt lat="46.82935" lon="6.52813">
        <ele>1237.2330322266</ele>
        <time>2010-05-29T08:15:35Z</time>
      </trkpt>
      <trkpt lat="46.8294" lon="6.52824">
        <ele>1238.4067382812</ele>
        <time>2010-05-29T08:15:41Z</time>
      </trkpt>
      <trkpt lat="46.82947" lon="6.52839">
        <ele>1240.3875732422</ele>
        <time>2010-05-29T08:15:48Z</time>
      </trkpt>
      <trkpt lat="46.82951" lon="6.52847">
        <ele>1241.1463623047</ele>
        <time>2010-05-29T08:15:52Z</time>
      </trkpt>
      <trkpt lat="46.82957" lon="6.52857">
        <ele>1242.4423828125</ele>
        <time>2010-05-29T08:15:58Z</time>
      </trkpt>
      <trkpt lat="46.82962" lon="6.52862">
        <ele>1243.2326660156</ele>
        <time>2010-05-29T08:16:02Z</time>
      </trkpt>
      <trkpt lat="46.82966" lon="6.52868">
        <ele>1243.8151855469</ele>
        <time>2010-05-29T08:16:07Z</time>
      </trkpt>
      <trkpt lat="46.82972" lon="6.52875">
        <ele>1244.3502197266</ele>
        <time>2010-05-29T08:16:12Z</time>
      </trkpt>
      <trkpt lat="46.82973" lon="6.52878">
        <ele>1244.779296875</ele>
        <time>2010-05-29T08:16:14Z</time>
      </trkpt>
      <trkpt lat="46.82976" lon="6.52884">
        <ele>1245.1846923828</ele>
        <time>2010-05-29T08:16:18Z</time>
      </trkpt>
      <trkpt lat="46.82978" lon="6.5289">
        <ele>1245.8376464844</ele>
        <time>2010-05-29T08:16:21Z</time>
      </trkpt>
      <trkpt lat="46.82983" lon="6.52901">
        <ele>1247.1602783203</ele>
        <time>2010-05-29T08:16:26Z</time>
      </trkpt>
      <trkpt lat="46.82989" lon="6.52919">
        <ele>1249.4256591797</ele>
        <time>2010-05-29T08:16:34Z</time>
      </trkpt>
      <trkpt lat="46.82996" lon="6.52939">
        <ele>1251.9816894531</ele>
        <time>2010-05-29T08:16:43Z</time>
      </trkpt>
      <trkpt lat="46.83004" lon="6.52961">
        <ele>1254.3410644531</ele>
        <time>2010-05-29T08:16:53Z</time>
      </trkpt>
      <trkpt lat="46.83011" lon="6.52976">
        <ele>1255.6055908203</ele>
        <time>2010-05-29T08:17:00Z</time>
      </trkpt>
      <trkpt lat="46.83022" lon="6.52996">
        <ele>1257.7770996094</ele>
        <time>2010-05-29T08:17:10Z</time>
      </trkpt>
      <trkpt lat="46.83031" lon="6.5301">
        <ele>1260.5720214844</ele>
        <time>2010-05-29T08:17:18Z</time>
      </trkpt>
      <trkpt lat="46.83031" lon="6.53009">
        <ele>1260.5667724609</ele>
        <time>2010-05-29T08:17:19Z</time>
      </trkpt>
      <trkpt lat="46.8303" lon="6.53014">
        <ele>1260.1524658203</ele>
        <time>2010-05-29T08:20:37Z</time>
      </trkpt>
      <trkpt lat="46.83034" lon="6.5302">
        <ele>1261.9150390625</ele>
        <time>2010-05-29T08:20:41Z</time>
      </trkpt>
      <trkpt lat="46.83045" lon="6.53037">
        <ele>1265.3159179688</ele>
        <time>2010-05-29T08:20:49Z</time>
      </trkpt>
      <trkpt lat="46.83051" lon="6.53053">
        <ele>1266.7355957031</ele>
        <time>2010-05-29T08:20:56Z</time>
      </trkpt>
      <trkpt lat="46.83058" lon="6.53062">
        <ele>1268.1586914062</ele>
        <time>2010-05-29T08:21:01Z</time>
      </trkpt>
      <trkpt lat="46.8306" lon="6.53074">
        <ele>1268.2290039062</ele>
        <time>2010-05-29T08:21:06Z</time>
      </trkpt>
      <trkpt lat="46.83063" lon="6.53086">
        <ele>1268.3625488281</ele>
        <time>2010-05-29T08:21:11Z</time>
      </trkpt>
      <trkpt lat="46.83067" lon="6.53097">
        <ele>1269.0493164062</ele>
        <time>2010-05-29T08:21:16Z</time>
      </trkpt>
      <trkpt lat="46.8307" lon="6.53105">
        <ele>1269.6672363281</ele>
        <time>2010-05-29T08:21:20Z</time>
      </trkpt>
      <trkpt lat="46.83073" lon="6.5311">
        <ele>1270.0792236328</ele>
        <time>2010-05-29T08:21:22Z</time>
      </trkpt>
      <trkpt lat="46.83076" lon="6.53117">
        <ele>1270.4700927734</ele>
        <time>2010-05-29T08:21:26Z</time>
      </trkpt>
      <trkpt lat="46.83082" lon="6.53125">
        <ele>1271.2443847656</ele>
        <time>2010-05-29T08:21:31Z</time>
      </trkpt>
      <trkpt lat="46.83083" lon="6.53135">
        <ele>1271.0108642578</ele>
        <time>2010-05-29T08:21:36Z</time>
      </trkpt>
      <trkpt lat="46.83085" lon="6.53152">
        <ele>1271.2895507812</ele>
        <time>2010-05-29T08:21:44Z</time>
      </trkpt>
      <trkpt lat="46.83089" lon="6.53165">
        <ele>1273.1306152344</ele>
        <time>2010-05-29T08:21:52Z</time>
      </trkpt>
      <trkpt lat="46.83093" lon="6.53176">
        <ele>1274.6722412109</ele>
        <time>2010-05-29T08:21:58Z</time>
      </trkpt>
      <trkpt lat="46.83097" lon="6.53183">
        <ele>1276.1383056641</ele>
        <time>2010-05-29T08:22:02Z</time>
      </trkpt>
      <trkpt lat="46.83104" lon="6.53201">
        <ele>1279.4086914062</ele>
        <time>2010-05-29T08:22:12Z</time>
      </trkpt>
      <trkpt lat="46.83105" lon="6.53208">
        <ele>1279.7791748047</ele>
        <time>2010-05-29T08:22:17Z</time>
      </trkpt>
      <trkpt lat="46.83106" lon="6.5321">
        <ele>1279.8940429688</ele>
        <time>2010-05-29T08:22:21Z</time>
      </trkpt>
      <trkpt lat="46.83106" lon="6.53212">
        <ele>1280.0078125</ele>
        <time>2010-05-29T08:22:24Z</time>
      </trkpt>
      <trkpt lat="46.83105" lon="6.53221">
        <ele>1279.2291259766</ele>
        <time>2010-05-29T08:22:29Z</time>
      </trkpt>
      <trkpt lat="46.83107" lon="6.53229">
        <ele>1280.0114746094</ele>
        <time>2010-05-29T08:22:35Z</time>
      </trkpt>
      <trkpt lat="46.8311" lon="6.53237">
        <ele>1280.9625244141</ele>
        <time>2010-05-29T08:22:41Z</time>
      </trkpt>
      <trkpt lat="46.8311" lon="6.53258">
        <ele>1280.0389404297</ele>
        <time>2010-05-29T08:22:51Z</time>
      </trkpt>
      <trkpt lat="46.83107" lon="6.53264">
        <ele>1278.5695800781</ele>
        <time>2010-05-29T08:22:56Z</time>
      </trkpt>
      <trkpt lat="46.83107" lon="6.53264">
        <ele>1278.7584228516</ele>
        <time>2010-05-29T08:22:57Z</time>
      </trkpt>
      <trkpt lat="46.83109" lon="6.53272">
        <ele>1278.9849853516</ele>
        <time>2010-05-29T08:23:13Z</time>
      </trkpt>
      <trkpt lat="46.83108" lon="6.53278">
        <ele>1278.4282226562</ele>
        <time>2010-05-29T08:23:23Z</time>
      </trkpt>
      <trkpt lat="46.83107" lon="6.53286">
        <ele>1278.2116699219</ele>
        <time>2010-05-29T08:23:30Z</time>
      </trkpt>
      <trkpt lat="46.83108" lon="6.5329">
        <ele>1278.3756103516</ele>
        <time>2010-05-29T08:23:32Z</time>
      </trkpt>
      <trkpt lat="46.83109" lon="6.53299">
        <ele>1279.0953369141</ele>
        <time>2010-05-29T08:23:36Z</time>
      </trkpt>
      <trkpt lat="46.83114" lon="6.53312">
        <ele>1280.5378417969</ele>
        <time>2010-05-29T08:23:43Z</time>
      </trkpt>
      <trkpt lat="46.83118" lon="6.53325">
        <ele>1281.1312255859</ele>
        <time>2010-05-29T08:23:50Z</time>
      </trkpt>
      <trkpt lat="46.83121" lon="6.53337">
        <ele>1281.2799072266</ele>
        <time>2010-05-29T08:23:56Z</time>
      </trkpt>
      <trkpt lat="46.83123" lon="6.5334">
        <ele>1281.3099365234</ele>
        <time>2010-05-29T08:23:58Z</time>
      </trkpt>
      <trkpt lat="46.83124" lon="6.53344">
        <ele>1281.2307128906</ele>
        <time>2010-05-29T08:24:00Z</time>
      </trkpt>
      <trkpt lat="46.83129" lon="6.53357">
        <ele>1281.3641357422</ele>
        <time>2010-05-29T08:24:07Z</time>
      </trkpt>
      <trkpt lat="46.83134" lon="6.53374">
        <ele>1281.7456054688</ele>
        <time>2010-05-29T08:24:15Z</time>
      </trkpt>
      <trkpt lat="46.83141" lon="6.53385">
        <ele>1283.3875732422</ele>
        <time>2010-05-29T08:24:21Z</time>
      </trkpt>
      <trkpt lat="46.83143" lon="6.53392">
        <ele>1284.53125</ele>
        <time>2010-05-29T08:24:25Z</time>
      </trkpt>
      <trkpt lat="46.83143" lon="6.53392">
        <ele>1284.5131835938</ele>
        <time>2010-05-29T08:24:26Z</time>
      </trkpt>
      <trkpt lat="46.83145" lon="6.53408">
        <ele>1284.8287353516</ele>
        <time>2010-05-29T08:24:42Z</time>
      </trkpt>
      <trkpt lat="46.83152" lon="6.53422">
        <ele>1287.8957519531</ele>
        <time>2010-05-29T08:24:48Z</time>
      </trkpt>
      <trkpt lat="46.83158" lon="6.53441">
        <ele>1290.0091552734</ele>
        <time>2010-05-29T08:24:54Z</time>
      </trkpt>
      <trkpt lat="46.8316" lon="6.53445">
        <ele>1290.6771240234</ele>
        <time>2010-05-29T08:24:58Z</time>
      </trkpt>
      <trkpt lat="46.83163" lon="6.5345">
        <ele>1291.9406738281</ele>
        <time>2010-05-29T08:25:41Z</time>
      </trkpt>
      <trkpt lat="46.83171" lon="6.53466">
        <ele>1293.4348144531</ele>
        <time>2010-05-29T08:25:46Z</time>
      </trkpt>
      <trkpt lat="46.83175" lon="6.53473">
        <ele>1294.0423583984</ele>
        <time>2010-05-29T08:25:48Z</time>
      </trkpt>
      <trkpt lat="46.83185" lon="6.53494">
        <ele>1297.1248779297</ele>
        <time>2010-05-29T08:25:54Z</time>
      </trkpt>
      <trkpt lat="46.83196" lon="6.53514">
        <ele>1300.7967529297</ele>
        <time>2010-05-29T08:25:59Z</time>
      </trkpt>
      <trkpt lat="46.83203" lon="6.53526">
        <ele>1301.2839355469</ele>
        <time>2010-05-29T08:26:02Z</time>
      </trkpt>
      <trkpt lat="46.83212" lon="6.53544">
        <ele>1301.7661132812</ele>
        <time>2010-05-29T08:26:07Z</time>
      </trkpt>
      <trkpt lat="46.83218" lon="6.53549">
        <ele>1302.5002441406</ele>
        <time>2010-05-29T08:26:09Z</time>
      </trkpt>
      <trkpt lat="46.83233" lon="6.53569">
        <ele>1304.3985595703</ele>
        <time>2010-05-29T08:26:14Z</time>
      </trkpt>
      <trkpt lat="46.83248" lon="6.53589">
        <ele>1307.0633544922</ele>
        <time>2010-05-29T08:26:18Z</time>
      </trkpt>
      <trkpt lat="46.83263" lon="6.5362">
        <ele>1307.0502929688</ele>
        <time>2010-05-29T08:26:24Z</time>
      </trkpt>
      <trkpt lat="46.83277" lon="6.53654">
        <ele>1306.3067626953</ele>
        <time>2010-05-29T08:26:31Z</time>
      </trkpt>
      <trkpt lat="46.83279" lon="6.53661">
        <ele>1306.4371337891</ele>
        <time>2010-05-29T08:26:32Z</time>
      </trkpt>
      <trkpt lat="46.83277" lon="6.53691">
        <ele>1303.3087158203</ele>
        <time>2010-05-29T08:26:36Z</time>
      </trkpt>
      <trkpt lat="46.83275" lon="6.53697">
        <ele>1302.4664306641</ele>
        <time>2010-05-29T08:26:37Z</time>
      </trkpt>
      <trkpt lat="46.83266" lon="6.53731">
        <ele>1298.6126708984</ele>
        <time>2010-05-29T08:26:43Z</time>
      </trkpt>
      <trkpt lat="46.83267" lon="6.53749">
        <ele>1297.328125</ele>
        <time>2010-05-29T08:26:47Z</time>
      </trkpt>
      <trkpt lat="46.8327" lon="6.53765">
        <ele>1296.4440917969</ele>
        <time>2010-05-29T08:26:50Z</time>
      </trkpt>
      <trkpt lat="46.8328" lon="6.53787">
        <ele>1295.7764892578</ele>
        <time>2010-05-29T08:26:54Z</time>
      </trkpt>
      <trkpt lat="46.83293" lon="6.53804">
        <ele>1296.6033935547</ele>
        <time>2010-05-29T08:26:57Z</time>
      </trkpt>
      <trkpt lat="46.83322" lon="6.5384">
        <ele>1299.7758789062</ele>
        <time>2010-05-29T08:27:03Z</time>
      </trkpt>
      <trkpt lat="46.8333" lon="6.53849">
        <ele>1300.5321044922</ele>
        <time>2010-05-29T08:27:05Z</time>
      </trkpt>
      <trkpt lat="46.83349" lon="6.53878">
        <ele>1300.7768554688</ele>
        <time>2010-05-29T08:27:12Z</time>
      </trkpt>
      <trkpt lat="46.83359" lon="6.53898">
        <ele>1300.5234375</ele>
        <time>2010-05-29T08:27:17Z</time>
      </trkpt>
      <trkpt lat="46.83373" lon="6.53924">
        <ele>1300.4302978516</ele>
        <time>2010-05-29T08:27:23Z</time>
      </trkpt>
      <trkpt lat="46.83389" lon="6.53951">
        <ele>1301.1616210938</ele>
        <time>2010-05-29T08:27:28Z</time>
      </trkpt>
      <trkpt lat="46.83393" lon="6.53959">
        <ele>1301.2966308594</ele>
        <time>2010-05-29T08:27:29Z</time>
      </trkpt>
      <trkpt lat="46.83408" lon="6.54001">
        <ele>1300.0809326172</ele>
        <time>2010-05-29T08:27:33Z</time>
      </trkpt>
      <trkpt lat="46.83414" lon="6.54032">
        <ele>1298.6751708984</ele>
        <time>2010-05-29T08:27:36Z</time>
      </trkpt>
      <trkpt lat="46.83421" lon="6.54059">
        <ele>1297.3923339844</ele>
        <time>2010-05-29T08:27:40Z</time>
      </trkpt>
      <trkpt lat="46.83423" lon="6.54064">
        <ele>1297.0394287109</ele>
        <time>2010-05-29T08:27:41Z</time>
      </trkpt>
      <trkpt lat="46.83437" lon="6.54071">
        <ele>1298.7602539062</ele>
        <time>2010-05-29T08:27:46Z</time>
      </trkpt>
      <trkpt lat="46.83448" lon="6.54079">
        <ele>1300.1607666016</ele>
        <time>2010-05-29T08:27:51Z</time>
      </trkpt>
      <trkpt lat="46.83452" lon="6.54084">
        <ele>1300.6231689453</ele>
        <time>2010-05-29T08:27:54Z</time>
      </trkpt>
      <trkpt lat="46.83469" lon="6.54102">
        <ele>1302.7603759766</ele>
        <time>2010-05-29T08:28:03Z</time>
      </trkpt>
      <trkpt lat="46.83484" lon="6.54121">
        <ele>1304.1281738281</ele>
        <time>2010-05-29T08:28:12Z</time>
      </trkpt>
      <trkpt lat="46.83491" lon="6.54133">
        <ele>1304.5938720703</ele>
        <time>2010-05-29T08:28:18Z</time>
      </trkpt>
      <trkpt lat="46.83499" lon="6.54146">
        <ele>1305.3032226562</ele>
        <time>2010-05-29T08:28:24Z</time>
      </trkpt>
      <trkpt lat="46.83506" lon="6.54158">
        <ele>1305.2512207031</ele>
        <time>2010-05-29T08:28:30Z</time>
      </trkpt>
      <trkpt lat="46.83519" lon="6.54177">
        <ele>1305.1501464844</ele>
        <time>2010-05-29T08:28:39Z</time>
      </trkpt>
      <trkpt lat="46.83528" lon="6.54192">
        <ele>1305.1646728516</ele>
        <time>2010-05-29T08:28:46Z</time>
      </trkpt>
      <trkpt lat="46.83537" lon="6.54211">
        <ele>1305.4453125</ele>
        <time>2010-05-29T08:28:54Z</time>
      </trkpt>
      <trkpt lat="46.83548" lon="6.5423">
        <ele>1305.9166259766</ele>
        <time>2010-05-29T08:29:02Z</time>
      </trkpt>
      <trkpt lat="46.83557" lon="6.5425">
        <ele>1306.2196044922</ele>
        <time>2010-05-29T08:29:10Z</time>
      </trkpt>
      <trkpt lat="46.83571" lon="6.54269">
        <ele>1306.8443603516</ele>
        <time>2010-05-29T08:29:19Z</time>
      </trkpt>
      <trkpt lat="46.83584" lon="6.54279">
        <ele>1308.0168457031</ele>
        <time>2010-05-29T08:29:27Z</time>
      </trkpt>
      <trkpt lat="46.83596" lon="6.54284">
        <ele>1309.2188720703</ele>
        <time>2010-05-29T08:29:34Z</time>
      </trkpt>
      <trkpt lat="46.83605" lon="6.54288">
        <ele>1310.1147460938</ele>
        <time>2010-05-29T08:29:39Z</time>
      </trkpt>
      <trkpt lat="46.83615" lon="6.54286">
        <ele>1311.6221923828</ele>
        <time>2010-05-29T08:29:45Z</time>
      </trkpt>
      <trkpt lat="46.83615" lon="6.54286">
        <ele>1311.7894287109</ele>
        <time>2010-05-29T08:29:46Z</time>
      </trkpt>
      <trkpt lat="46.83618" lon="6.54283">
        <ele>1312.5089111328</ele>
        <time>2010-05-29T08:29:49Z</time>
      </trkpt>
      <trkpt lat="46.83623" lon="6.54279">
        <ele>1313.5795898438</ele>
        <time>2010-05-29T08:29:53Z</time>
      </trkpt>
      <trkpt lat="46.83629" lon="6.5427">
        <ele>1315.1390380859</ele>
        <time>2010-05-29T08:29:58Z</time>
      </trkpt>
      <trkpt lat="46.83627" lon="6.54253">
        <ele>1316.1243896484</ele>
        <time>2010-05-29T08:30:05Z</time>
      </trkpt>
      <trkpt lat="46.83629" lon="6.54251">
        <ele>1316.5570068359</ele>
        <time>2010-05-29T08:30:07Z</time>
      </trkpt>
      <trkpt lat="46.83627" lon="6.5424">
        <ele>1316.9449462891</ele>
        <time>2010-05-29T08:30:13Z</time>
      </trkpt>
      <trkpt lat="46.83624" lon="6.54227">
        <ele>1317.5251464844</ele>
        <time>2010-05-29T08:30:19Z</time>
      </trkpt>
      <trkpt lat="46.83622" lon="6.54216">
        <ele>1317.9920654297</ele>
        <time>2010-05-29T08:30:24Z</time>
      </trkpt>
      <trkpt lat="46.83619" lon="6.54196">
        <ele>1319.0427246094</ele>
        <time>2010-05-29T08:30:32Z</time>
      </trkpt>
      <trkpt lat="46.83618" lon="6.54181">
        <ele>1320.0906982422</ele>
        <time>2010-05-29T08:30:38Z</time>
      </trkpt>
      <trkpt lat="46.83618" lon="6.54161">
        <ele>1321.5263671875</ele>
        <time>2010-05-29T08:30:46Z</time>
      </trkpt>
      <trkpt lat="46.83625" lon="6.5413">
        <ele>1324.8861083984</ele>
        <time>2010-05-29T08:30:57Z</time>
      </trkpt>
      <trkpt lat="46.83631" lon="6.54103">
        <ele>1328.6336669922</ele>
        <time>2010-05-29T08:31:07Z</time>
      </trkpt>
      <trkpt lat="46.83636" lon="6.5408">
        <ele>1330.970703125</ele>
        <time>2010-05-29T08:31:16Z</time>
      </trkpt>
      <trkpt lat="46.83643" lon="6.54055">
        <ele>1334.5867919922</ele>
        <time>2010-05-29T08:31:25Z</time>
      </trkpt>
      <trkpt lat="46.83646" lon="6.54042">
        <ele>1336.0150146484</ele>
        <time>2010-05-29T08:31:30Z</time>
      </trkpt>
      <trkpt lat="46.83647" lon="6.54027">
        <ele>1337.2222900391</ele>
        <time>2010-05-29T08:31:35Z</time>
      </trkpt>
      <trkpt lat="46.83648" lon="6.54014">
        <ele>1338.6097412109</ele>
        <time>2010-05-29T08:31:40Z</time>
      </trkpt>
      <trkpt lat="46.83648" lon="6.53992">
        <ele>1340.3802490234</ele>
        <time>2010-05-29T08:31:48Z</time>
      </trkpt>
      <trkpt lat="46.83647" lon="6.53972">
        <ele>1341.2161865234</ele>
        <time>2010-05-29T08:31:55Z</time>
      </trkpt>
      <trkpt lat="46.83647" lon="6.53951">
        <ele>1342.8469238281</ele>
        <time>2010-05-29T08:32:02Z</time>
      </trkpt>
      <trkpt lat="46.83645" lon="6.5393">
        <ele>1344.0888671875</ele>
        <time>2010-05-29T08:32:09Z</time>
      </trkpt>
      <trkpt lat="46.83638" lon="6.5391">
        <ele>1344.5456542969</ele>
        <time>2010-05-29T08:32:17Z</time>
      </trkpt>
      <trkpt lat="46.83628" lon="6.53888">
        <ele>1345.4831542969</ele>
        <time>2010-05-29T08:32:26Z</time>
      </trkpt>
      <trkpt lat="46.83623" lon="6.53859">
        <ele>1345.8424072266</ele>
        <time>2010-05-29T08:32:36Z</time>
      </trkpt>
      <trkpt lat="46.8362" lon="6.53836">
        <ele>1347.3492431641</ele>
        <time>2010-05-29T08:32:44Z</time>
      </trkpt>
      <trkpt lat="46.83619" lon="6.53814">
        <ele>1348.7692871094</ele>
        <time>2010-05-29T08:32:51Z</time>
      </trkpt>
      <trkpt lat="46.83626" lon="6.53806">
        <ele>1350.6094970703</ele>
        <time>2010-05-29T08:32:56Z</time>
      </trkpt>
      <trkpt lat="46.83636" lon="6.53808">
        <ele>1352.2504882812</ele>
        <time>2010-05-29T08:33:02Z</time>
      </trkpt>
      <trkpt lat="46.83646" lon="6.53813">
        <ele>1354.0622558594</ele>
        <time>2010-05-29T08:33:08Z</time>
      </trkpt>
      <trkpt lat="46.83664" lon="6.53823">
        <ele>1357.1350097656</ele>
        <time>2010-05-29T08:33:17Z</time>
      </trkpt>
      <trkpt lat="46.83675" lon="6.53831">
        <ele>1358.4504394531</ele>
        <time>2010-05-29T08:33:23Z</time>
      </trkpt>
      <trkpt lat="46.83686" lon="6.53832">
        <ele>1359.9095458984</ele>
        <time>2010-05-29T08:33:28Z</time>
      </trkpt>
      <trkpt lat="46.83699" lon="6.53839">
        <ele>1361.0577392578</ele>
        <time>2010-05-29T08:33:36Z</time>
      </trkpt>
      <trkpt lat="46.83707" lon="6.53842">
        <ele>1361.8370361328</ele>
        <time>2010-05-29T08:33:41Z</time>
      </trkpt>
      <trkpt lat="46.83716" lon="6.53846">
        <ele>1362.7227783203</ele>
        <time>2010-05-29T08:33:47Z</time>
      </trkpt>
      <trkpt lat="46.8373" lon="6.53851">
        <ele>1364.462890625</ele>
        <time>2010-05-29T08:33:55Z</time>
      </trkpt>
      <trkpt lat="46.83743" lon="6.53859">
        <ele>1365.9853515625</ele>
        <time>2010-05-29T08:34:02Z</time>
      </trkpt>
      <trkpt lat="46.83755" lon="6.53868">
        <ele>1367.3012695312</ele>
        <time>2010-05-29T08:34:09Z</time>
      </trkpt>
      <trkpt lat="46.83776" lon="6.53886">
        <ele>1368.9046630859</ele>
        <time>2010-05-29T08:34:21Z</time>
      </trkpt>
      <trkpt lat="46.83791" lon="6.53896">
        <ele>1370.7269287109</ele>
        <time>2010-05-29T08:34:29Z</time>
      </trkpt>
      <trkpt lat="46.83805" lon="6.53903">
        <ele>1372.3388671875</ele>
        <time>2010-05-29T08:34:35Z</time>
      </trkpt>
      <trkpt lat="46.83818" lon="6.53911">
        <ele>1373.3548583984</ele>
        <time>2010-05-29T08:34:40Z</time>
      </trkpt>
      <trkpt lat="46.83827" lon="6.5392">
        <ele>1373.8485107422</ele>
        <time>2010-05-29T08:34:47Z</time>
      </trkpt>
      <trkpt lat="46.83835" lon="6.53928">
        <ele>1374.5172119141</ele>
        <time>2010-05-29T08:34:53Z</time>
      </trkpt>
      <trkpt lat="46.83846" lon="6.5394">
        <ele>1375.5747070312</ele>
        <time>2010-05-29T08:35:01Z</time>
      </trkpt>
      <trkpt lat="46.83847" lon="6.53943">
        <ele>1375.6707763672</ele>
        <time>2010-05-29T08:35:04Z</time>
      </trkpt>
      <trkpt lat="46.83848" lon="6.53948">
        <ele>1375.2570800781</ele>
        <time>2010-05-29T08:35:32Z</time>
      </trkpt>
      <trkpt lat="46.8385" lon="6.53952">
        <ele>1375.1455078125</ele>
        <time>2010-05-29T08:35:33Z</time>
      </trkpt>
      <trkpt lat="46.83865" lon="6.53977">
        <ele>1375.2819824219</ele>
        <time>2010-05-29T08:35:39Z</time>
      </trkpt>
      <trkpt lat="46.8387" lon="6.53988">
        <ele>1375.4432373047</ele>
        <time>2010-05-29T08:35:41Z</time>
      </trkpt>
      <trkpt lat="46.83886" lon="6.54021">
        <ele>1375.2957763672</ele>
        <time>2010-05-29T08:35:47Z</time>
      </trkpt>
      <trkpt lat="46.83892" lon="6.54029">
        <ele>1375.4194335938</ele>
        <time>2010-05-29T08:35:51Z</time>
      </trkpt>
      <trkpt lat="46.83894" lon="6.5403">
        <ele>1375.6032714844</ele>
        <time>2010-05-29T08:35:52Z</time>
      </trkpt>
      <trkpt lat="46.83897" lon="6.54034">
        <ele>1375.8813476562</ele>
        <time>2010-05-29T08:35:56Z</time>
      </trkpt>
      <trkpt lat="46.83904" lon="6.54044">
        <ele>1376.3226318359</ele>
        <time>2010-05-29T08:36:04Z</time>
      </trkpt>
      <trkpt lat="46.83912" lon="6.5405">
        <ele>1376.7991943359</ele>
        <time>2010-05-29T08:36:10Z</time>
      </trkpt>
      <trkpt lat="46.83921" lon="6.54057">
        <ele>1377.8345947266</ele>
        <time>2010-05-29T08:36:17Z</time>
      </trkpt>
      <trkpt lat="46.83931" lon="6.5406">
        <ele>1379.66796875</ele>
        <time>2010-05-29T08:36:23Z</time>
      </trkpt>
      <trkpt lat="46.83941" lon="6.54061">
        <ele>1381.6351318359</ele>
        <time>2010-05-29T08:36:28Z</time>
      </trkpt>
      <trkpt lat="46.83943" lon="6.54061">
        <ele>1382.1604003906</ele>
        <time>2010-05-29T08:36:29Z</time>
      </trkpt>
      <trkpt lat="46.83956" lon="6.5406">
        <ele>1384.6156005859</ele>
        <time>2010-05-29T08:36:36Z</time>
      </trkpt>
      <trkpt lat="46.83963" lon="6.54061">
        <ele>1385.9738769531</ele>
        <time>2010-05-29T08:36:41Z</time>
      </trkpt>
      <trkpt lat="46.83973" lon="6.5406">
        <ele>1387.7990722656</ele>
        <time>2010-05-29T08:36:47Z</time>
      </trkpt>
      <trkpt lat="46.83978" lon="6.54057">
        <ele>1388.4582519531</ele>
        <time>2010-05-29T08:36:50Z</time>
      </trkpt>
      <trkpt lat="46.83987" lon="6.54046">
        <ele>1390.2537841797</ele>
        <time>2010-05-29T08:36:58Z</time>
      </trkpt>
      <trkpt lat="46.83993" lon="6.54034">
        <ele>1391.7850341797</ele>
        <time>2010-05-29T08:37:04Z</time>
      </trkpt>
      <trkpt lat="46.83995" lon="6.54011">
        <ele>1393.7006835938</ele>
        <time>2010-05-29T08:37:13Z</time>
      </trkpt>
      <trkpt lat="46.83997" lon="6.53988">
        <ele>1395.4722900391</ele>
        <time>2010-05-29T08:37:22Z</time>
      </trkpt>
      <trkpt lat="46.83999" lon="6.53971">
        <ele>1396.9794921875</ele>
        <time>2010-05-29T08:37:29Z</time>
      </trkpt>
      <trkpt lat="46.84001" lon="6.53948">
        <ele>1398.8760986328</ele>
        <time>2010-05-29T08:37:38Z</time>
      </trkpt>
      <trkpt lat="46.84002" lon="6.53927">
        <ele>1400.0158691406</ele>
        <time>2010-05-29T08:37:47Z</time>
      </trkpt>
      <trkpt lat="46.84005" lon="6.53899">
        <ele>1403.2258300781</ele>
        <time>2010-05-29T08:37:58Z</time>
      </trkpt>
      <trkpt lat="46.84006" lon="6.53879">
        <ele>1405.5021972656</ele>
        <time>2010-05-29T08:38:07Z</time>
      </trkpt>
      <trkpt lat="46.84008" lon="6.53857">
        <ele>1407.62109375</ele>
        <time>2010-05-29T08:38:17Z</time>
      </trkpt>
      <trkpt lat="46.8401" lon="6.53839">
        <ele>1409.8270263672</ele>
        <time>2010-05-29T08:38:25Z</time>
      </trkpt>
      <trkpt lat="46.84016" lon="6.53828">
        <ele>1411.6589355469</ele>
        <time>2010-05-29T08:38:32Z</time>
      </trkpt>
      <trkpt lat="46.84023" lon="6.53831">
        <ele>1412.4313964844</ele>
        <time>2010-05-29T08:38:38Z</time>
      </trkpt>
      <trkpt lat="46.84038" lon="6.53843">
        <ele>1413.9426269531</ele>
        <time>2010-05-29T08:38:49Z</time>
      </trkpt>
      <trkpt lat="46.84053" lon="6.53859">
        <ele>1414.8314208984</ele>
        <time>2010-05-29T08:39:01Z</time>
      </trkpt>
      <trkpt lat="46.84067" lon="6.53871">
        <ele>1416.4227294922</ele>
        <time>2010-05-29T08:39:11Z</time>
      </trkpt>
      <trkpt lat="46.84078" lon="6.53885">
        <ele>1418.0013427734</ele>
        <time>2010-05-29T08:39:19Z</time>
      </trkpt>
      <trkpt lat="46.84094" lon="6.539">
        <ele>1420.0521240234</ele>
        <time>2010-05-29T08:39:29Z</time>
      </trkpt>
      <trkpt lat="46.84108" lon="6.53913">
        <ele>1421.6640625</ele>
        <time>2010-05-29T08:39:38Z</time>
      </trkpt>
      <trkpt lat="46.84119" lon="6.53922">
        <ele>1422.7338867188</ele>
        <time>2010-05-29T08:39:45Z</time>
      </trkpt>
      <trkpt lat="46.8413" lon="6.53931">
        <ele>1423.7637939453</ele>
        <time>2010-05-29T08:39:52Z</time>
      </trkpt>
      <trkpt lat="46.84141" lon="6.53941">
        <ele>1424.7163085938</ele>
        <time>2010-05-29T08:39:59Z</time>
      </trkpt>
      <trkpt lat="46.84151" lon="6.5395">
        <ele>1426.5306396484</ele>
        <time>2010-05-29T08:40:06Z</time>
      </trkpt>
      <trkpt lat="46.84162" lon="6.53961">
        <ele>1428.50390625</ele>
        <time>2010-05-29T08:40:13Z</time>
      </trkpt>
      <trkpt lat="46.84172" lon="6.53973">
        <ele>1429.6374511719</ele>
        <time>2010-05-29T08:40:20Z</time>
      </trkpt>
      <trkpt lat="46.84186" lon="6.53988">
        <ele>1430.6571044922</ele>
        <time>2010-05-29T08:40:30Z</time>
      </trkpt>
      <trkpt lat="46.84198" lon="6.53999">
        <ele>1431.6502685547</ele>
        <time>2010-05-29T08:40:38Z</time>
      </trkpt>
      <trkpt lat="46.8421" lon="6.54012">
        <ele>1432.5755615234</ele>
        <time>2010-05-29T08:40:47Z</time>
      </trkpt>
      <trkpt lat="46.8422" lon="6.54026">
        <ele>1432.7884521484</ele>
        <time>2010-05-29T08:40:55Z</time>
      </trkpt>
      <trkpt lat="46.84227" lon="6.54041">
        <ele>1432.4108886719</ele>
        <time>2010-05-29T08:41:03Z</time>
      </trkpt>
      <trkpt lat="46.84232" lon="6.54055">
        <ele>1431.8699951172</ele>
        <time>2010-05-29T08:41:10Z</time>
      </trkpt>
      <trkpt lat="46.84235" lon="6.54061">
        <ele>1431.7653808594</ele>
        <time>2010-05-29T08:41:13Z</time>
      </trkpt>
      <trkpt lat="46.8424" lon="6.54072">
        <ele>1431.4683837891</ele>
        <time>2010-05-29T08:41:19Z</time>
      </trkpt>
      <trkpt lat="46.84243" lon="6.54077">
        <ele>1431.3876953125</ele>
        <time>2010-05-29T08:41:22Z</time>
      </trkpt>
      <trkpt lat="46.84255" lon="6.54096">
        <ele>1431.5354003906</ele>
        <time>2010-05-29T08:41:33Z</time>
      </trkpt>
      <trkpt lat="46.84262" lon="6.54106">
        <ele>1431.7653808594</ele>
        <time>2010-05-29T08:41:41Z</time>
      </trkpt>
      <trkpt lat="46.84263" lon="6.54108">
        <ele>1431.70703125</ele>
        <time>2010-05-29T08:41:43Z</time>
      </trkpt>
      <trkpt lat="46.8427" lon="6.54109">
        <ele>1432.8039550781</ele>
        <time>2010-05-29T08:41:51Z</time>
      </trkpt>
      <trkpt lat="46.84278" lon="6.541">
        <ele>1435.2216796875</ele>
        <time>2010-05-29T08:41:59Z</time>
      </trkpt>
      <trkpt lat="46.84282" lon="6.54093">
        <ele>1436.2515869141</ele>
        <time>2010-05-29T08:42:03Z</time>
      </trkpt>
      <trkpt lat="46.84293" lon="6.54075">
        <ele>1439.1953125</ele>
        <time>2010-05-29T08:42:13Z</time>
      </trkpt>
      <trkpt lat="46.84304" lon="6.54065">
        <ele>1441.5063476562</ele>
        <time>2010-05-29T08:42:21Z</time>
      </trkpt>
      <trkpt lat="46.84315" lon="6.54071">
        <ele>1442.7575683594</ele>
        <time>2010-05-29T08:42:28Z</time>
      </trkpt>
      <trkpt lat="46.84325" lon="6.54083">
        <ele>1443.2176513672</ele>
        <time>2010-05-29T08:42:36Z</time>
      </trkpt>
      <trkpt lat="46.84336" lon="6.54091">
        <ele>1444.6243896484</ele>
        <time>2010-05-29T08:42:44Z</time>
      </trkpt>
      <trkpt lat="46.84349" lon="6.54097">
        <ele>1446.3306884766</ele>
        <time>2010-05-29T08:42:52Z</time>
      </trkpt>
      <trkpt lat="46.84366" lon="6.54106">
        <ele>1448.1047363281</ele>
        <time>2010-05-29T08:43:02Z</time>
      </trkpt>
      <trkpt lat="46.84378" lon="6.54108">
        <ele>1449.1759033203</ele>
        <time>2010-05-29T08:43:10Z</time>
      </trkpt>
      <trkpt lat="46.84385" lon="6.54108">
        <ele>1449.8557128906</ele>
        <time>2010-05-29T08:43:16Z</time>
      </trkpt>
      <trkpt lat="46.84384" lon="6.54108">
        <ele>1449.814453125</ele>
        <time>2010-05-29T08:43:17Z</time>
      </trkpt>
      <trkpt lat="46.84393" lon="6.5411">
        <ele>1451.0726318359</ele>
        <time>2010-05-29T08:43:25Z</time>
      </trkpt>
      <trkpt lat="46.84403" lon="6.54111">
        <ele>1453.6149902344</ele>
        <time>2010-05-29T08:43:32Z</time>
      </trkpt>
      <trkpt lat="46.84423" lon="6.54115">
        <ele>1457.4328613281</ele>
        <time>2010-05-29T08:43:42Z</time>
      </trkpt>
      <trkpt lat="46.84433" lon="6.54117">
        <ele>1458.8405761719</ele>
        <time>2010-05-29T08:43:47Z</time>
      </trkpt>
      <trkpt lat="46.84443" lon="6.5412">
        <ele>1460.0335693359</ele>
        <time>2010-05-29T08:43:53Z</time>
      </trkpt>
      <trkpt lat="46.84459" lon="6.54122">
        <ele>1461.9553222656</ele>
        <time>2010-05-29T08:44:02Z</time>
      </trkpt>
      <trkpt lat="46.84473" lon="6.54121">
        <ele>1463.9670410156</ele>
        <time>2010-05-29T08:44:09Z</time>
      </trkpt>
      <trkpt lat="46.84485" lon="6.54121">
        <ele>1466.2535400391</ele>
        <time>2010-05-29T08:44:16Z</time>
      </trkpt>
      <trkpt lat="46.84498" lon="6.5412">
        <ele>1468.6276855469</ele>
        <time>2010-05-29T08:44:23Z</time>
      </trkpt>
      <trkpt lat="46.84511" lon="6.54119">
        <ele>1471.0909423828</ele>
        <time>2010-05-29T08:44:31Z</time>
      </trkpt>
      <trkpt lat="46.84524" lon="6.54119">
        <ele>1473.3843994141</ele>
        <time>2010-05-29T08:44:39Z</time>
      </trkpt>
      <trkpt lat="46.8454" lon="6.54124">
        <ele>1475.2368164062</ele>
        <time>2010-05-29T08:44:49Z</time>
      </trkpt>
      <trkpt lat="46.84551" lon="6.54127">
        <ele>1476.2087402344</ele>
        <time>2010-05-29T08:44:56Z</time>
      </trkpt>
      <trkpt lat="46.84566" lon="6.54135">
        <ele>1477.4763183594</ele>
        <time>2010-05-29T08:45:06Z</time>
      </trkpt>
      <trkpt lat="46.84577" lon="6.54146">
        <ele>1478.3936767578</ele>
        <time>2010-05-29T08:45:14Z</time>
      </trkpt>
      <trkpt lat="46.84592" lon="6.54159">
        <ele>1479.2882080078</ele>
        <time>2010-05-29T08:45:24Z</time>
      </trkpt>
      <trkpt lat="46.84608" lon="6.54176">
        <ele>1478.8013916016</ele>
        <time>2010-05-29T08:45:35Z</time>
      </trkpt>
      <trkpt lat="46.84623" lon="6.54188">
        <ele>1480.2322998047</ele>
        <time>2010-05-29T08:45:44Z</time>
      </trkpt>
      <trkpt lat="46.84637" lon="6.54197">
        <ele>1482.2432861328</ele>
        <time>2010-05-29T08:45:53Z</time>
      </trkpt>
      <trkpt lat="46.84651" lon="6.5421">
        <ele>1483.3651123047</ele>
        <time>2010-05-29T08:46:02Z</time>
      </trkpt>
      <trkpt lat="46.84663" lon="6.54223">
        <ele>1484.2150878906</ele>
        <time>2010-05-29T08:46:09Z</time>
      </trkpt>
      <trkpt lat="46.84683" lon="6.54249">
        <ele>1483.9479980469</ele>
        <time>2010-05-29T08:46:20Z</time>
      </trkpt>
      <trkpt lat="46.84703" lon="6.54262">
        <ele>1485.3381347656</ele>
        <time>2010-05-29T08:46:29Z</time>
      </trkpt>
      <trkpt lat="46.84719" lon="6.5427">
        <ele>1487.0787353516</ele>
        <time>2010-05-29T08:46:38Z</time>
      </trkpt>
      <trkpt lat="46.84738" lon="6.54283">
        <ele>1489.2360839844</ele>
        <time>2010-05-29T08:46:49Z</time>
      </trkpt>
      <trkpt lat="46.8474" lon="6.54284">
        <ele>1489.5227050781</ele>
        <time>2010-05-29T08:46:50Z</time>
      </trkpt>
      <trkpt lat="46.84748" lon="6.5429">
        <ele>1490.2746582031</ele>
        <time>2010-05-29T08:46:56Z</time>
      </trkpt>
      <trkpt lat="46.84751" lon="6.54292">
        <ele>1490.6064453125</ele>
        <time>2010-05-29T08:46:58Z</time>
      </trkpt>
      <trkpt lat="46.8517" lon="6.53842">
        <ele>1584.6740722656</ele>
        <time>2010-05-29T09:32:57Z</time>
      </trkpt>
      <trkpt lat="46.8517" lon="6.53842">
        <ele>1584.1506347656</ele>
        <time>2010-05-29T09:32:58Z</time>
      </trkpt>
      <trkpt lat="46.85172" lon="6.5385">
        <ele>1588.0612792969</ele>
        <time>2010-05-29T09:33:06Z</time>
      </trkpt>
      <trkpt lat="46.85173" lon="6.53853">
        <ele>1589.4558105469</ele>
        <time>2010-05-29T09:33:07Z</time>
      </trkpt>
      <trkpt lat="46.8518" lon="6.53865">
        <ele>1593.8548583984</ele>
        <time>2010-05-29T09:33:11Z</time>
      </trkpt>
      <trkpt lat="46.85182" lon="6.53867">
        <ele>1593.4827880859</ele>
        <time>2010-05-29T09:33:12Z</time>
      </trkpt>
      <trkpt lat="46.85189" lon="6.53879">
        <ele>1595.7591552734</ele>
        <time>2010-05-29T09:33:15Z</time>
      </trkpt>
      <trkpt lat="46.85204" lon="6.53899">
        <ele>1589.3703613281</ele>
        <time>2010-05-29T09:33:21Z</time>
      </trkpt>
      <trkpt lat="46.85217" lon="6.53919">
        <ele>1591.0935058594</ele>
        <time>2010-05-29T09:33:24Z</time>
      </trkpt>
      <trkpt lat="46.85225" lon="6.53932">
        <ele>1592.3131103516</ele>
        <time>2010-05-29T09:33:26Z</time>
      </trkpt>
      <trkpt lat="46.85228" lon="6.53939">
        <ele>1591.4808349609</ele>
        <time>2010-05-29T09:33:27Z</time>
      </trkpt>
      <trkpt lat="46.85232" lon="6.53945">
        <ele>1590.5053710938</ele>
        <time>2010-05-29T09:33:28Z</time>
      </trkpt>
      <trkpt lat="46.85235" lon="6.53952">
        <ele>1589.2238769531</ele>
        <time>2010-05-29T09:33:29Z</time>
      </trkpt>
      <trkpt lat="46.85243" lon="6.53963">
        <ele>1588.9503173828</ele>
        <time>2010-05-29T09:33:32Z</time>
      </trkpt>
      <trkpt lat="46.85247" lon="6.53969">
        <ele>1590.4399414062</ele>
        <time>2010-05-29T09:33:34Z</time>
      </trkpt>
      <trkpt lat="46.85249" lon="6.53972">
        <ele>1591.9963378906</ele>
        <time>2010-05-29T09:33:35Z</time>
      </trkpt>
      <trkpt lat="46.8525" lon="6.53976">
        <ele>1591.1477050781</ele>
        <time>2010-05-29T09:33:36Z</time>
      </trkpt>
      <trkpt lat="46.85263" lon="6.53998">
        <ele>1584.7292480469</ele>
        <time>2010-05-29T09:33:41Z</time>
      </trkpt>
      <trkpt lat="46.85264" lon="6.54002">
        <ele>1584.7164306641</ele>
        <time>2010-05-29T09:33:42Z</time>
      </trkpt>
      <trkpt lat="46.8527" lon="6.54029">
        <ele>1580.8125</ele>
        <time>2010-05-29T09:33:46Z</time>
      </trkpt>
      <trkpt lat="46.85277" lon="6.54053">
        <ele>1575.4942626953</ele>
        <time>2010-05-29T09:33:49Z</time>
      </trkpt>
      <trkpt lat="46.85286" lon="6.54075">
        <ele>1566.2052001953</ele>
        <time>2010-05-29T09:33:53Z</time>
      </trkpt>
      <trkpt lat="46.85293" lon="6.54092">
        <ele>1561.5979003906</ele>
        <time>2010-05-29T09:33:57Z</time>
      </trkpt>
      <trkpt lat="46.85294" lon="6.54094">
        <ele>1561.1104736328</ele>
        <time>2010-05-29T09:33:58Z</time>
      </trkpt>
      <trkpt lat="46.85295" lon="6.54096">
        <ele>1560.6511230469</ele>
        <time>2010-05-29T09:33:59Z</time>
      </trkpt>
      <trkpt lat="46.85303" lon="6.54108">
        <ele>1558.4974365234</ele>
        <time>2010-05-29T09:34:03Z</time>
      </trkpt>
      <trkpt lat="46.85304" lon="6.5411">
        <ele>1558.1505126953</ele>
        <time>2010-05-29T09:34:04Z</time>
      </trkpt>
      <trkpt lat="46.85311" lon="6.54116">
        <ele>1557.0765380859</ele>
        <time>2010-05-29T09:34:08Z</time>
      </trkpt>
      <trkpt lat="46.85312" lon="6.54117">
        <ele>1556.9547119141</ele>
        <time>2010-05-29T09:34:10Z</time>
      </trkpt>
      <trkpt lat="46.85311" lon="6.54122">
        <ele>1556.427734375</ele>
        <time>2010-05-29T09:34:16Z</time>
      </trkpt>
      <trkpt lat="46.85314" lon="6.54127">
        <ele>1555.7067871094</ele>
        <time>2010-05-29T09:34:21Z</time>
      </trkpt>
      <trkpt lat="46.85315" lon="6.54127">
        <ele>1555.6793212891</ele>
        <time>2010-05-29T09:34:22Z</time>
      </trkpt>
      <trkpt lat="46.85321" lon="6.54133">
        <ele>1554.4742431641</ele>
        <time>2010-05-29T09:34:29Z</time>
      </trkpt>
      <trkpt lat="46.85324" lon="6.54137">
        <ele>1553.8699951172</ele>
        <time>2010-05-29T09:34:31Z</time>
      </trkpt>
      <trkpt lat="46.85326" lon="6.54139">
        <ele>1553.5678710938</ele>
        <time>2010-05-29T09:34:32Z</time>
      </trkpt>
      <trkpt lat="46.85335" lon="6.54151">
        <ele>1551.9162597656</ele>
        <time>2010-05-29T09:34:37Z</time>
      </trkpt>
      <trkpt lat="46.85344" lon="6.5416">
        <ele>1550.2648925781</ele>
        <time>2010-05-29T09:34:42Z</time>
      </trkpt>
      <trkpt lat="46.85345" lon="6.5416">
        <ele>1550.1756591797</ele>
        <time>2010-05-29T09:34:44Z</time>
      </trkpt>
      <trkpt lat="46.85344" lon="6.54167">
        <ele>1549.8666992188</ele>
        <time>2010-05-29T09:34:55Z</time>
      </trkpt>
      <trkpt lat="46.85344" lon="6.54167">
        <ele>1549.7440185547</ele>
        <time>2010-05-29T09:34:57Z</time>
      </trkpt>
      <trkpt lat="46.85348" lon="6.5419">
        <ele>1547.2941894531</ele>
        <time>2010-05-29T09:35:04Z</time>
      </trkpt>
      <trkpt lat="46.85352" lon="6.54227">
        <ele>1545.375</ele>
        <time>2010-05-29T09:35:12Z</time>
      </trkpt>
      <trkpt lat="46.85357" lon="6.54252">
        <ele>1544.5960693359</ele>
        <time>2010-05-29T09:35:18Z</time>
      </trkpt>
      <trkpt lat="46.85361" lon="6.54272">
        <ele>1544.0454101562</ele>
        <time>2010-05-29T09:35:23Z</time>
      </trkpt>
      <trkpt lat="46.85363" lon="6.54288">
        <ele>1543.7270507812</ele>
        <time>2010-05-29T09:35:28Z</time>
      </trkpt>
      <trkpt lat="46.85369" lon="6.54311">
        <ele>1542.8481445312</ele>
        <time>2010-05-29T09:35:34Z</time>
      </trkpt>
      <trkpt lat="46.85375" lon="6.54335">
        <ele>1541.9959716797</ele>
        <time>2010-05-29T09:35:41Z</time>
      </trkpt>
      <trkpt lat="46.8538" lon="6.54359">
        <ele>1540.9683837891</ele>
        <time>2010-05-29T09:35:48Z</time>
      </trkpt>
      <trkpt lat="46.85383" lon="6.54376">
        <ele>1541.0637207031</ele>
        <time>2010-05-29T09:35:54Z</time>
      </trkpt>
      <trkpt lat="46.85389" lon="6.54392">
        <ele>1540.99609375</ele>
        <time>2010-05-29T09:36:00Z</time>
      </trkpt>
      <trkpt lat="46.85392" lon="6.54405">
        <ele>1540.8238525391</ele>
        <time>2010-05-29T09:36:05Z</time>
      </trkpt>
      <trkpt lat="46.85398" lon="6.54425">
        <ele>1540.6683349609</ele>
        <time>2010-05-29T09:36:12Z</time>
      </trkpt>
      <trkpt lat="46.85403" lon="6.54436">
        <ele>1540.4897460938</ele>
        <time>2010-05-29T09:36:17Z</time>
      </trkpt>
      <trkpt lat="46.85405" lon="6.54442">
        <ele>1540.4074707031</ele>
        <time>2010-05-29T09:36:22Z</time>
      </trkpt>
      <trkpt lat="46.85407" lon="6.54446">
        <ele>1540.3330078125</ele>
        <time>2010-05-29T09:36:50Z</time>
      </trkpt>
      <trkpt lat="46.85407" lon="6.54449">
        <ele>1540.2833251953</ele>
        <time>2010-05-29T09:36:51Z</time>
      </trkpt>
      <trkpt lat="46.85412" lon="6.54467">
        <ele>1540.0352783203</ele>
        <time>2010-05-29T09:36:56Z</time>
      </trkpt>
      <trkpt lat="46.85418" lon="6.5448">
        <ele>1539.8969726562</ele>
        <time>2010-05-29T09:37:02Z</time>
      </trkpt>
      <trkpt lat="46.85421" lon="6.54483">
        <ele>1539.7474365234</ele>
        <time>2010-05-29T09:37:04Z</time>
      </trkpt>
      <trkpt lat="46.85422" lon="6.54495">
        <ele>1539.7845458984</ele>
        <time>2010-05-29T09:37:09Z</time>
      </trkpt>
      <trkpt lat="46.85426" lon="6.54503">
        <ele>1539.7066650391</ele>
        <time>2010-05-29T09:37:12Z</time>
      </trkpt>
      <trkpt lat="46.85438" lon="6.54523">
        <ele>1539.8560791016</ele>
        <time>2010-05-29T09:37:17Z</time>
      </trkpt>
      <trkpt lat="46.85457" lon="6.54546">
        <ele>1539.6934814453</ele>
        <time>2010-05-29T09:37:23Z</time>
      </trkpt>
      <trkpt lat="46.85469" lon="6.54561">
        <ele>1540</ele>
        <time>2010-05-29T09:37:27Z</time>
      </trkpt>
      <trkpt lat="46.85477" lon="6.54572">
        <ele>1539.3918457031</ele>
        <time>2010-05-29T09:37:30Z</time>
      </trkpt>
      <trkpt lat="46.85493" lon="6.54591">
        <ele>1538.9315185547</ele>
        <time>2010-05-29T09:37:36Z</time>
      </trkpt>
      <trkpt lat="46.85502" lon="6.54601">
        <ele>1538.5687255859</ele>
        <time>2010-05-29T09:37:39Z</time>
      </trkpt>
      <trkpt lat="46.85511" lon="6.54613">
        <ele>1536.9114990234</ele>
        <time>2010-05-29T09:37:42Z</time>
      </trkpt>
      <trkpt lat="46.85514" lon="6.54616">
        <ele>1536.3063964844</ele>
        <time>2010-05-29T09:37:43Z</time>
      </trkpt>
      <trkpt lat="46.85522" lon="6.5463">
        <ele>1535.8133544922</ele>
        <time>2010-05-29T09:37:46Z</time>
      </trkpt>
      <trkpt lat="46.85533" lon="6.54649">
        <ele>1535.7860107422</ele>
        <time>2010-05-29T09:37:50Z</time>
      </trkpt>
      <trkpt lat="46.85536" lon="6.54653">
        <ele>1535.5095214844</ele>
        <time>2010-05-29T09:37:51Z</time>
      </trkpt>
      <trkpt lat="46.85551" lon="6.54675">
        <ele>1535.1486816406</ele>
        <time>2010-05-29T09:37:57Z</time>
      </trkpt>
      <trkpt lat="46.85569" lon="6.54698">
        <ele>1531.0875244141</ele>
        <time>2010-05-29T09:38:03Z</time>
      </trkpt>
      <trkpt lat="46.85579" lon="6.54705">
        <ele>1528.259765625</ele>
        <time>2010-05-29T09:38:06Z</time>
      </trkpt>
      <trkpt lat="46.85589" lon="6.54717">
        <ele>1526.9973144531</ele>
        <time>2010-05-29T09:38:09Z</time>
      </trkpt>
      <trkpt lat="46.85605" lon="6.54745">
        <ele>1523.5328369141</ele>
        <time>2010-05-29T09:38:14Z</time>
      </trkpt>
      <trkpt lat="46.85618" lon="6.54772">
        <ele>1522.6604003906</ele>
        <time>2010-05-29T09:38:18Z</time>
      </trkpt>
      <trkpt lat="46.8562" lon="6.54802">
        <ele>1523.8817138672</ele>
        <time>2010-05-29T09:38:22Z</time>
      </trkpt>
      <trkpt lat="46.85617" lon="6.54819">
        <ele>1524.4270019531</ele>
        <time>2010-05-29T09:38:25Z</time>
      </trkpt>
      <trkpt lat="46.85618" lon="6.54822">
        <ele>1524.4194335938</ele>
        <time>2010-05-29T09:38:28Z</time>
      </trkpt>
      <trkpt lat="46.85618" lon="6.54827">
        <ele>1524.4285888672</ele>
        <time>2010-05-29T09:38:38Z</time>
      </trkpt>
      <trkpt lat="46.85621" lon="6.54832">
        <ele>1524.2795410156</ele>
        <time>2010-05-29T09:38:43Z</time>
      </trkpt>
      <trkpt lat="46.85621" lon="6.54832">
        <ele>1524.2501220703</ele>
        <time>2010-05-29T09:38:45Z</time>
      </trkpt>
      <trkpt lat="46.8562" lon="6.54839">
        <ele>1524.4422607422</ele>
        <time>2010-05-29T09:40:08Z</time>
      </trkpt>
      <trkpt lat="46.8562" lon="6.54842">
        <ele>1524.4548339844</ele>
        <time>2010-05-29T09:40:09Z</time>
      </trkpt>
      <trkpt lat="46.85627" lon="6.54869">
        <ele>1524.1314697266</ele>
        <time>2010-05-29T09:40:16Z</time>
      </trkpt>
      <trkpt lat="46.85632" lon="6.54893">
        <ele>1523.236328125</ele>
        <time>2010-05-29T09:40:22Z</time>
      </trkpt>
      <trkpt lat="46.85638" lon="6.54914">
        <ele>1523.0302734375</ele>
        <time>2010-05-29T09:40:27Z</time>
      </trkpt>
      <trkpt lat="46.85641" lon="6.54926">
        <ele>1522.9067382812</ele>
        <time>2010-05-29T09:40:30Z</time>
      </trkpt>
      <trkpt lat="46.85645" lon="6.54937">
        <ele>1522.7694091797</ele>
        <time>2010-05-29T09:40:33Z</time>
      </trkpt>
      <trkpt lat="46.85646" lon="6.54951">
        <ele>1522.5059814453</ele>
        <time>2010-05-29T09:40:36Z</time>
      </trkpt>
      <trkpt lat="46.85647" lon="6.54958">
        <ele>1522.2124023438</ele>
        <time>2010-05-29T09:40:38Z</time>
      </trkpt>
      <trkpt lat="46.85649" lon="6.54961">
        <ele>1522.0424804688</ele>
        <time>2010-05-29T09:40:39Z</time>
      </trkpt>
      <trkpt lat="46.85655" lon="6.54971">
        <ele>1521.4484863281</ele>
        <time>2010-05-29T09:40:43Z</time>
      </trkpt>
      <trkpt lat="46.85662" lon="6.54982">
        <ele>1521.1651611328</ele>
        <time>2010-05-29T09:40:47Z</time>
      </trkpt>
      <trkpt lat="46.85667" lon="6.54991">
        <ele>1520.9729003906</ele>
        <time>2010-05-29T09:40:50Z</time>
      </trkpt>
      <trkpt lat="46.85678" lon="6.55008">
        <ele>1520.6020507812</ele>
        <time>2010-05-29T09:40:55Z</time>
      </trkpt>
      <trkpt lat="46.85681" lon="6.55013">
        <ele>1520.478515625</ele>
        <time>2010-05-29T09:40:58Z</time>
      </trkpt>
      <trkpt lat="46.85685" lon="6.55016">
        <ele>1520.3411865234</ele>
        <time>2010-05-29T09:41:02Z</time>
      </trkpt>
      <trkpt lat="46.85689" lon="6.55027">
        <ele>1520.1901855469</ele>
        <time>2010-05-29T09:41:08Z</time>
      </trkpt>
      <trkpt lat="46.85691" lon="6.5503">
        <ele>1520.1116943359</ele>
        <time>2010-05-29T09:41:09Z</time>
      </trkpt>
      <trkpt lat="46.85694" lon="6.55035">
        <ele>1520.0084228516</ele>
        <time>2010-05-29T09:41:13Z</time>
      </trkpt>
      <trkpt lat="46.85694" lon="6.55036">
        <ele>1520.0080566406</ele>
        <time>2010-05-29T09:41:15Z</time>
      </trkpt>
      <trkpt lat="46.85696" lon="6.55038">
        <ele>1520</ele>
        <time>2010-05-29T09:41:20Z</time>
      </trkpt>
      <trkpt lat="46.85697" lon="6.5504">
        <ele>1520</ele>
        <time>2010-05-29T09:41:23Z</time>
      </trkpt>
      <trkpt lat="46.85702" lon="6.55041">
        <ele>1520</ele>
        <time>2010-05-29T09:41:27Z</time>
      </trkpt>
      <trkpt lat="46.85709" lon="6.55052">
        <ele>1520</ele>
        <time>2010-05-29T09:41:31Z</time>
      </trkpt>
      <trkpt lat="46.8572" lon="6.55063">
        <ele>1520</ele>
        <time>2010-05-29T09:41:34Z</time>
      </trkpt>
      <trkpt lat="46.85725" lon="6.55068">
        <ele>1519.6986083984</ele>
        <time>2010-05-29T09:41:35Z</time>
      </trkpt>
      <trkpt lat="46.85737" lon="6.55082">
        <ele>1517.8708496094</ele>
        <time>2010-05-29T09:41:38Z</time>
      </trkpt>
      <trkpt lat="46.85755" lon="6.55101">
        <ele>1513.0487060547</ele>
        <time>2010-05-29T09:41:43Z</time>
      </trkpt>
      <trkpt lat="46.85758" lon="6.55104">
        <ele>1512.0856933594</ele>
        <time>2010-05-29T09:41:47Z</time>
      </trkpt>
      <trkpt lat="46.85763" lon="6.55109">
        <ele>1510.4891357422</ele>
        <time>2010-05-29T09:41:50Z</time>
      </trkpt>
      <trkpt lat="46.85767" lon="6.55115">
        <ele>1508.9532470703</ele>
        <time>2010-05-29T09:41:52Z</time>
      </trkpt>
      <trkpt lat="46.85769" lon="6.55121">
        <ele>1508.2012939453</ele>
        <time>2010-05-29T09:41:54Z</time>
      </trkpt>
      <trkpt lat="46.8577" lon="6.55126">
        <ele>1507.5318603516</ele>
        <time>2010-05-29T09:41:56Z</time>
      </trkpt>
      <trkpt lat="46.85773" lon="6.55128">
        <ele>1506.8658447266</ele>
        <time>2010-05-29T09:41:58Z</time>
      </trkpt>
      <trkpt lat="46.85781" lon="6.5513">
        <ele>1505.3881835938</ele>
        <time>2010-05-29T09:42:02Z</time>
      </trkpt>
      <trkpt lat="46.85783" lon="6.55136">
        <ele>1504.8464355469</ele>
        <time>2010-05-29T09:42:04Z</time>
      </trkpt>
      <trkpt lat="46.85783" lon="6.55146">
        <ele>1503.9783935547</ele>
        <time>2010-05-29T09:42:06Z</time>
      </trkpt>
      <trkpt lat="46.85789" lon="6.5516">
        <ele>1502.2045898438</ele>
        <time>2010-05-29T09:42:10Z</time>
      </trkpt>
      <trkpt lat="46.858" lon="6.5518">
        <ele>1500.6156005859</ele>
        <time>2010-05-29T09:42:14Z</time>
      </trkpt>
      <trkpt lat="46.85811" lon="6.55196">
        <ele>1499.2407226562</ele>
        <time>2010-05-29T09:42:17Z</time>
      </trkpt>
      <trkpt lat="46.85836" lon="6.55218">
        <ele>1494.0749511719</ele>
        <time>2010-05-29T09:42:22Z</time>
      </trkpt>
      <trkpt lat="46.85849" lon="6.55225">
        <ele>1491.7155761719</ele>
        <time>2010-05-29T09:42:24Z</time>
      </trkpt>
      <trkpt lat="46.85874" lon="6.55253">
        <ele>1486.9781494141</ele>
        <time>2010-05-29T09:42:29Z</time>
      </trkpt>
      <trkpt lat="46.8588" lon="6.55259">
        <ele>1485.4201660156</ele>
        <time>2010-05-29T09:42:31Z</time>
      </trkpt>
      <trkpt lat="46.85888" lon="6.55265">
        <ele>1483.6861572266</ele>
        <time>2010-05-29T09:42:36Z</time>
      </trkpt>
      <trkpt lat="46.85889" lon="6.55268">
        <ele>1483.3253173828</ele>
        <time>2010-05-29T09:42:40Z</time>
      </trkpt>
      <trkpt lat="46.85891" lon="6.55268">
        <ele>1483.1544189453</ele>
        <time>2010-05-29T09:43:28Z</time>
      </trkpt>
      <trkpt lat="46.85895" lon="6.55262">
        <ele>1482.7578125</ele>
        <time>2010-05-29T09:43:31Z</time>
      </trkpt>
      <trkpt lat="46.85902" lon="6.55261">
        <ele>1481.8946533203</ele>
        <time>2010-05-29T09:43:34Z</time>
      </trkpt>
      <trkpt lat="46.85905" lon="6.55262">
        <ele>1481.4825439453</ele>
        <time>2010-05-29T09:43:35Z</time>
      </trkpt>
      <trkpt lat="46.85927" lon="6.55277">
        <ele>1478.8780517578</ele>
        <time>2010-05-29T09:43:43Z</time>
      </trkpt>
      <trkpt lat="46.85945" lon="6.55277">
        <ele>1477.0825195312</ele>
        <time>2010-05-29T09:43:49Z</time>
      </trkpt>
      <trkpt lat="46.85954" lon="6.55264">
        <ele>1478.5399169922</ele>
        <time>2010-05-29T09:43:54Z</time>
      </trkpt>
      <trkpt lat="46.85957" lon="6.55241">
        <ele>1480</ele>
        <time>2010-05-29T09:44:01Z</time>
      </trkpt>
      <trkpt lat="46.85958" lon="6.55226">
        <ele>1480</ele>
        <time>2010-05-29T09:44:05Z</time>
      </trkpt>
      <trkpt lat="46.85957" lon="6.5521">
        <ele>1480</ele>
        <time>2010-05-29T09:44:11Z</time>
      </trkpt>
      <trkpt lat="46.8596" lon="6.55209">
        <ele>1480</ele>
        <time>2010-05-29T09:44:15Z</time>
      </trkpt>
      <trkpt lat="46.85958" lon="6.55219">
        <ele>1480</ele>
        <time>2010-05-29T09:44:19Z</time>
      </trkpt>
      <trkpt lat="46.85958" lon="6.55246">
        <ele>1480</ele>
        <time>2010-05-29T09:44:27Z</time>
      </trkpt>
      <trkpt lat="46.85957" lon="6.55256">
        <ele>1479.3947753906</ele>
        <time>2010-05-29T09:44:30Z</time>
      </trkpt>
      <trkpt lat="46.85955" lon="6.55265">
        <ele>1478.4215087891</ele>
        <time>2010-05-29T09:44:33Z</time>
      </trkpt>
      <trkpt lat="46.85951" lon="6.55274">
        <ele>1477.4378662109</ele>
        <time>2010-05-29T09:44:37Z</time>
      </trkpt>
      <trkpt lat="46.8595" lon="6.55275">
        <ele>1477.2781982422</ele>
        <time>2010-05-29T09:44:38Z</time>
      </trkpt>
      <trkpt lat="46.85949" lon="6.55278">
        <ele>1477.0103759766</ele>
        <time>2010-05-29T09:44:40Z</time>
      </trkpt>
      <trkpt lat="46.8594" lon="6.55281">
        <ele>1477.2637939453</ele>
        <time>2010-05-29T09:44:48Z</time>
      </trkpt>
      <trkpt lat="46.85935" lon="6.55281">
        <ele>1477.7796630859</ele>
        <time>2010-05-29T09:44:51Z</time>
      </trkpt>
      <trkpt lat="46.85932" lon="6.5528">
        <ele>1478.2144775391</ele>
        <time>2010-05-29T09:44:53Z</time>
      </trkpt>
      <trkpt lat="46.85927" lon="6.55278">
        <ele>1478.8410644531</ele>
        <time>2010-05-29T09:44:56Z</time>
      </trkpt>
      <trkpt lat="46.85912" lon="6.55268">
        <ele>1480.6156005859</ele>
        <time>2010-05-29T09:45:02Z</time>
      </trkpt>
      <trkpt lat="46.85895" lon="6.55265">
        <ele>1482.7296142578</ele>
        <time>2010-05-29T09:45:07Z</time>
      </trkpt>
      <trkpt lat="46.85887" lon="6.55279">
        <ele>1483.1235351562</ele>
        <time>2010-05-29T09:45:11Z</time>
      </trkpt>
      <trkpt lat="46.85888" lon="6.5529">
        <ele>1482.2886962891</ele>
        <time>2010-05-29T09:45:13Z</time>
      </trkpt>
      <trkpt lat="46.85901" lon="6.55321">
        <ele>1478.1430664062</ele>
        <time>2010-05-29T09:45:18Z</time>
      </trkpt>
      <trkpt lat="46.8592" lon="6.55362">
        <ele>1471.5034179688</ele>
        <time>2010-05-29T09:45:23Z</time>
      </trkpt>
      <trkpt lat="46.85926" lon="6.5538">
        <ele>1468.4315185547</ele>
        <time>2010-05-29T09:45:25Z</time>
      </trkpt>
      <trkpt lat="46.85935" lon="6.55432">
        <ele>1462.4450683594</ele>
        <time>2010-05-29T09:45:31Z</time>
      </trkpt>
      <trkpt lat="46.85936" lon="6.55448">
        <ele>1460.513671875</ele>
        <time>2010-05-29T09:45:33Z</time>
      </trkpt>
      <trkpt lat="46.85944" lon="6.55484">
        <ele>1459.5791015625</ele>
        <time>2010-05-29T09:45:37Z</time>
      </trkpt>
      <trkpt lat="46.85973" lon="6.55573">
        <ele>1455.0269775391</ele>
        <time>2010-05-29T09:45:45Z</time>
      </trkpt>
      <trkpt lat="46.85987" lon="6.55623">
        <ele>1446.2786865234</ele>
        <time>2010-05-29T09:45:49Z</time>
      </trkpt>
      <trkpt lat="46.8599" lon="6.55635">
        <ele>1444.6221923828</ele>
        <time>2010-05-29T09:45:50Z</time>
      </trkpt>
      <trkpt lat="46.85993" lon="6.55662">
        <ele>1441.1899414062</ele>
        <time>2010-05-29T09:45:53Z</time>
      </trkpt>
      <trkpt lat="46.85994" lon="6.55669">
        <ele>1440.6154785156</ele>
        <time>2010-05-29T09:45:54Z</time>
      </trkpt>
      <trkpt lat="46.85994" lon="6.5568">
        <ele>1439.7811279297</ele>
        <time>2010-05-29T09:45:56Z</time>
      </trkpt>
      <trkpt lat="46.85995" lon="6.55686">
        <ele>1439.1323242188</ele>
        <time>2010-05-29T09:45:57Z</time>
      </trkpt>
      <trkpt lat="46.85997" lon="6.55699">
        <ele>1437.5701904297</ele>
        <time>2010-05-29T09:45:59Z</time>
      </trkpt>
      <trkpt lat="46.86004" lon="6.55758">
        <ele>1432.7387695312</ele>
        <time>2010-05-29T09:46:05Z</time>
      </trkpt>
      <trkpt lat="46.86013" lon="6.55814">
        <ele>1429.466796875</ele>
        <time>2010-05-29T09:46:10Z</time>
      </trkpt>
      <trkpt lat="46.86026" lon="6.55869">
        <ele>1426.1136474609</ele>
        <time>2010-05-29T09:46:15Z</time>
      </trkpt>
      <trkpt lat="46.86035" lon="6.55921">
        <ele>1423.7404785156</ele>
        <time>2010-05-29T09:46:19Z</time>
      </trkpt>
      <trkpt lat="46.86038" lon="6.55964">
        <ele>1422.7530517578</ele>
        <time>2010-05-29T09:46:23Z</time>
      </trkpt>
      <trkpt lat="46.86042" lon="6.56018">
        <ele>1421.8937988281</ele>
        <time>2010-05-29T09:46:28Z</time>
      </trkpt>
      <trkpt lat="46.86046" lon="6.56045">
        <ele>1421.3994140625</ele>
        <time>2010-05-29T09:46:30Z</time>
      </trkpt>
      <trkpt lat="46.86051" lon="6.56076">
        <ele>1420.55859375</ele>
        <time>2010-05-29T09:46:32Z</time>
      </trkpt>
      <trkpt lat="46.86054" lon="6.56092">
        <ele>1420.1843261719</ele>
        <time>2010-05-29T09:46:33Z</time>
      </trkpt>
      <trkpt lat="46.86063" lon="6.5615">
        <ele>1419.4263916016</ele>
        <time>2010-05-29T09:46:37Z</time>
      </trkpt>
      <trkpt lat="46.86065" lon="6.56176">
        <ele>1419.7823486328</ele>
        <time>2010-05-29T09:46:40Z</time>
      </trkpt>
      <trkpt lat="46.86067" lon="6.5619">
        <ele>1420.3358154297</ele>
        <time>2010-05-29T09:46:44Z</time>
      </trkpt>
      <trkpt lat="46.86074" lon="6.562">
        <ele>1420.3336181641</ele>
        <time>2010-05-29T09:46:50Z</time>
      </trkpt>
      <trkpt lat="46.86075" lon="6.56204">
        <ele>1420.2924804688</ele>
        <time>2010-05-29T09:46:52Z</time>
      </trkpt>
      <trkpt lat="46.86075" lon="6.56204">
        <ele>1420.2924804688</ele>
        <time>2010-05-29T09:46:53Z</time>
      </trkpt>
      <trkpt lat="46.86079" lon="6.5621">
        <ele>1420.1688232422</ele>
        <time>2010-05-29T09:47:37Z</time>
      </trkpt>
      <trkpt lat="46.86078" lon="6.56215">
        <ele>1420.1826171875</ele>
        <time>2010-05-29T09:47:39Z</time>
      </trkpt>
      <trkpt lat="46.86078" lon="6.56219">
        <ele>1420.1826171875</ele>
        <time>2010-05-29T09:47:40Z</time>
      </trkpt>
      <trkpt lat="46.86078" lon="6.5623">
        <ele>1420.1962890625</ele>
        <time>2010-05-29T09:47:45Z</time>
      </trkpt>
      <trkpt lat="46.86078" lon="6.5623">
        <ele>1420.1962890625</ele>
        <time>2010-05-29T09:47:47Z</time>
      </trkpt>
      <trkpt lat="46.86078" lon="6.56229">
        <ele>1420.1826171875</ele>
        <time>2010-05-29T09:48:37Z</time>
      </trkpt>
      <trkpt lat="46.86079" lon="6.56227">
        <ele>1420.1550292969</ele>
        <time>2010-05-29T09:48:39Z</time>
      </trkpt>
      <trkpt lat="46.8608" lon="6.56219">
        <ele>1420.1276855469</ele>
        <time>2010-05-29T09:48:43Z</time>
      </trkpt>
      <trkpt lat="46.86079" lon="6.56217">
        <ele>1420.1550292969</ele>
        <time>2010-05-29T09:48:44Z</time>
      </trkpt>
      <trkpt lat="46.86076" lon="6.56196">
        <ele>1420.2648925781</ele>
        <time>2010-05-29T09:48:50Z</time>
      </trkpt>
      <trkpt lat="46.86082" lon="6.56183">
        <ele>1418.4829101562</ele>
        <time>2010-05-29T09:48:55Z</time>
      </trkpt>
      <trkpt lat="46.86086" lon="6.56179">
        <ele>1416.7667236328</ele>
        <time>2010-05-29T09:48:58Z</time>
      </trkpt>
      <trkpt lat="46.86097" lon="6.56186">
        <ele>1412.9696044922</ele>
        <time>2010-05-29T09:49:04Z</time>
      </trkpt>
      <trkpt lat="46.86114" lon="6.56218">
        <ele>1408.5145263672</ele>
        <time>2010-05-29T09:49:11Z</time>
      </trkpt>
      <trkpt lat="46.8613" lon="6.56251">
        <ele>1404.6887207031</ele>
        <time>2010-05-29T09:49:16Z</time>
      </trkpt>
      <trkpt lat="46.86151" lon="6.56289">
        <ele>1401.3347167969</ele>
        <time>2010-05-29T09:49:20Z</time>
      </trkpt>
      <trkpt lat="46.86177" lon="6.56334">
        <ele>1399.6695556641</ele>
        <time>2010-05-29T09:49:24Z</time>
      </trkpt>
      <trkpt lat="46.86209" lon="6.56399">
        <ele>1399.8283691406</ele>
        <time>2010-05-29T09:49:29Z</time>
      </trkpt>
      <trkpt lat="46.86248" lon="6.5644">
        <ele>1398.0576171875</ele>
        <time>2010-05-29T09:49:33Z</time>
      </trkpt>
      <trkpt lat="46.8626" lon="6.56445">
        <ele>1398</ele>
        <time>2010-05-29T09:49:34Z</time>
      </trkpt>
      <trkpt lat="46.86293" lon="6.56453">
        <ele>1398</ele>
        <time>2010-05-29T09:49:37Z</time>
      </trkpt>
      <trkpt lat="46.86337" lon="6.56448">
        <ele>1397.5893554688</ele>
        <time>2010-05-29T09:49:41Z</time>
      </trkpt>
      <trkpt lat="46.86376" lon="6.56432">
        <ele>1393.6967773438</ele>
        <time>2010-05-29T09:49:45Z</time>
      </trkpt>
      <trkpt lat="46.864" lon="6.56433">
        <ele>1391.4191894531</ele>
        <time>2010-05-29T09:49:48Z</time>
      </trkpt>
      <trkpt lat="46.86409" lon="6.56449">
        <ele>1390.8283691406</ele>
        <time>2010-05-29T09:49:50Z</time>
      </trkpt>
      <trkpt lat="46.86419" lon="6.56471">
        <ele>1390.8093261719</ele>
        <time>2010-05-29T09:49:53Z</time>
      </trkpt>
      <trkpt lat="46.86433" lon="6.56509">
        <ele>1396.7668457031</ele>
        <time>2010-05-29T09:49:59Z</time>
      </trkpt>
      <trkpt lat="46.86443" lon="6.56536">
        <ele>1400.53125</ele>
        <time>2010-05-29T09:50:04Z</time>
      </trkpt>
      <trkpt lat="46.86445" lon="6.56541">
        <ele>1401</ele>
        <time>2010-05-29T09:50:05Z</time>
      </trkpt>
      <trkpt lat="46.86457" lon="6.56572">
        <ele>1400.9287109375</ele>
        <time>2010-05-29T09:50:11Z</time>
      </trkpt>
      <trkpt lat="46.86466" lon="6.56598">
        <ele>1401.5676269531</ele>
        <time>2010-05-29T09:50:16Z</time>
      </trkpt>
      <trkpt lat="46.86474" lon="6.56616">
        <ele>1402.0698242188</ele>
        <time>2010-05-29T09:50:20Z</time>
      </trkpt>
      <trkpt lat="46.86481" lon="6.56635">
        <ele>1402.6196289062</ele>
        <time>2010-05-29T09:50:24Z</time>
      </trkpt>
      <trkpt lat="46.8649" lon="6.56653">
        <ele>1403.6248779297</ele>
        <time>2010-05-29T09:50:28Z</time>
      </trkpt>
      <trkpt lat="46.86505" lon="6.56676">
        <ele>1404.9670410156</ele>
        <time>2010-05-29T09:50:35Z</time>
      </trkpt>
      <trkpt lat="46.86517" lon="6.56694">
        <ele>1404.7507324219</ele>
        <time>2010-05-29T09:50:41Z</time>
      </trkpt>
      <trkpt lat="46.86528" lon="6.56717">
        <ele>1404.7653808594</ele>
        <time>2010-05-29T09:50:47Z</time>
      </trkpt>
      <trkpt lat="46.8654" lon="6.56747">
        <ele>1405.0306396484</ele>
        <time>2010-05-29T09:50:54Z</time>
      </trkpt>
      <trkpt lat="46.86552" lon="6.56777">
        <ele>1405.2657470703</ele>
        <time>2010-05-29T09:51:01Z</time>
      </trkpt>
      <trkpt lat="46.8656" lon="6.56799">
        <ele>1405.5909423828</ele>
        <time>2010-05-29T09:51:06Z</time>
      </trkpt>
      <trkpt lat="46.86576" lon="6.56837">
        <ele>1405.6674804688</ele>
        <time>2010-05-29T09:51:15Z</time>
      </trkpt>
      <trkpt lat="46.86594" lon="6.56882">
        <ele>1406.3402099609</ele>
        <time>2010-05-29T09:51:26Z</time>
      </trkpt>
      <trkpt lat="46.86607" lon="6.56921">
        <ele>1407.1556396484</ele>
        <time>2010-05-29T09:51:35Z</time>
      </trkpt>
      <trkpt lat="46.8662" lon="6.56966">
        <ele>1411.6575927734</ele>
        <time>2010-05-29T09:51:45Z</time>
      </trkpt>
      <trkpt lat="46.86625" lon="6.57002">
        <ele>1414.4925537109</ele>
        <time>2010-05-29T09:51:53Z</time>
      </trkpt>
      <trkpt lat="46.86629" lon="6.57017">
        <ele>1416.482421875</ele>
        <time>2010-05-29T09:51:58Z</time>
      </trkpt>
      <trkpt lat="46.86634" lon="6.57023">
        <ele>1418.0946044922</ele>
        <time>2010-05-29T09:52:03Z</time>
      </trkpt>
      <trkpt lat="46.86635" lon="6.57027">
        <ele>1418.5360107422</ele>
        <time>2010-05-29T09:52:05Z</time>
      </trkpt>
      <trkpt lat="46.86642" lon="6.57045">
        <ele>1420</ele>
        <time>2010-05-29T09:52:12Z</time>
      </trkpt>
      <trkpt lat="46.86643" lon="6.57046">
        <ele>1420</ele>
        <time>2010-05-29T09:52:15Z</time>
      </trkpt>
      <trkpt lat="46.86644" lon="6.57046">
        <ele>1420</ele>
        <time>2010-05-29T09:52:21Z</time>
      </trkpt>
      <trkpt lat="46.86645" lon="6.57047">
        <ele>1420</ele>
        <time>2010-05-29T09:52:22Z</time>
      </trkpt>
      <trkpt lat="46.86648" lon="6.57056">
        <ele>1419.9841308594</ele>
        <time>2010-05-29T09:52:27Z</time>
      </trkpt>
      <trkpt lat="46.86649" lon="6.57058">
        <ele>1419.9163818359</ele>
        <time>2010-05-29T09:52:28Z</time>
      </trkpt>
      <trkpt lat="46.86658" lon="6.57076">
        <ele>1420.0246582031</ele>
        <time>2010-05-29T09:52:35Z</time>
      </trkpt>
      <trkpt lat="46.86668" lon="6.57091">
        <ele>1420.7436523438</ele>
        <time>2010-05-29T09:52:42Z</time>
      </trkpt>
      <trkpt lat="46.86677" lon="6.57104">
        <ele>1420.5322265625</ele>
        <time>2010-05-29T09:52:48Z</time>
      </trkpt>
      <trkpt lat="46.86686" lon="6.57128">
        <ele>1420.6939697266</ele>
        <time>2010-05-29T09:52:56Z</time>
      </trkpt>
      <trkpt lat="46.86695" lon="6.57155">
        <ele>1421.2083740234</ele>
        <time>2010-05-29T09:53:05Z</time>
      </trkpt>
      <trkpt lat="46.86705" lon="6.57179">
        <ele>1423.6306152344</ele>
        <time>2010-05-29T09:53:13Z</time>
      </trkpt>
      <trkpt lat="46.86714" lon="6.57199">
        <ele>1425.830078125</ele>
        <time>2010-05-29T09:53:20Z</time>
      </trkpt>
      <trkpt lat="46.86727" lon="6.57231">
        <ele>1426.6354980469</ele>
        <time>2010-05-29T09:53:30Z</time>
      </trkpt>
      <trkpt lat="46.86733" lon="6.57242">
        <ele>1427.3599853516</ele>
        <time>2010-05-29T09:53:35Z</time>
      </trkpt>
      <trkpt lat="46.86733" lon="6.57242">
        <ele>1427.3461914062</ele>
        <time>2010-05-29T09:53:36Z</time>
      </trkpt>
      <trkpt lat="46.86736" lon="6.57255">
        <ele>1427.099609375</ele>
        <time>2010-05-29T09:54:00Z</time>
      </trkpt>
      <trkpt lat="46.86752" lon="6.57289">
        <ele>1428.7611083984</ele>
        <time>2010-05-29T09:54:09Z</time>
      </trkpt>
      <trkpt lat="46.8676" lon="6.57307">
        <ele>1429.8894042969</ele>
        <time>2010-05-29T09:54:14Z</time>
      </trkpt>
      <trkpt lat="46.86773" lon="6.57336">
        <ele>1431.4775390625</ele>
        <time>2010-05-29T09:54:22Z</time>
      </trkpt>
      <trkpt lat="46.86779" lon="6.57344">
        <ele>1432.0646972656</ele>
        <time>2010-05-29T09:54:25Z</time>
      </trkpt>
      <trkpt lat="46.8679" lon="6.57371">
        <ele>1432.5679931641</ele>
        <time>2010-05-29T09:54:33Z</time>
      </trkpt>
      <trkpt lat="46.86797" lon="6.57391">
        <ele>1433.0396728516</ele>
        <time>2010-05-29T09:54:39Z</time>
      </trkpt>
      <trkpt lat="46.86806" lon="6.57415">
        <ele>1432.4090576172</ele>
        <time>2010-05-29T09:54:45Z</time>
      </trkpt>
      <trkpt lat="46.86818" lon="6.57439">
        <ele>1432.1693115234</ele>
        <time>2010-05-29T09:54:51Z</time>
      </trkpt>
      <trkpt lat="46.86825" lon="6.5746">
        <ele>1431.5565185547</ele>
        <time>2010-05-29T09:54:56Z</time>
      </trkpt>
      <trkpt lat="46.86833" lon="6.5748">
        <ele>1431.1304931641</ele>
        <time>2010-05-29T09:55:01Z</time>
      </trkpt>
      <trkpt lat="46.86842" lon="6.57503">
        <ele>1430.0070800781</ele>
        <time>2010-05-29T09:55:07Z</time>
      </trkpt>
      <trkpt lat="46.86851" lon="6.57522">
        <ele>1429.0457763672</ele>
        <time>2010-05-29T09:55:13Z</time>
      </trkpt>
      <trkpt lat="46.86862" lon="6.57544">
        <ele>1428.94140625</ele>
        <time>2010-05-29T09:55:19Z</time>
      </trkpt>
      <trkpt lat="46.86878" lon="6.57577">
        <ele>1427.2058105469</ele>
        <time>2010-05-29T09:55:27Z</time>
      </trkpt>
      <trkpt lat="46.86892" lon="6.57605">
        <ele>1426.0461425781</ele>
        <time>2010-05-29T09:55:33Z</time>
      </trkpt>
      <trkpt lat="46.86896" lon="6.57615">
        <ele>1425.6135253906</ele>
        <time>2010-05-29T09:55:35Z</time>
      </trkpt>
      <trkpt lat="46.869" lon="6.57626">
        <ele>1425.0590820312</ele>
        <time>2010-05-29T09:55:37Z</time>
      </trkpt>
      <trkpt lat="46.86908" lon="6.5764">
        <ele>1424.6365966797</ele>
        <time>2010-05-29T09:55:40Z</time>
      </trkpt>
      <trkpt lat="46.86911" lon="6.57645">
        <ele>1424.7053222656</ele>
        <time>2010-05-29T09:55:41Z</time>
      </trkpt>
      <trkpt lat="46.86921" lon="6.57668">
        <ele>1424.2755126953</ele>
        <time>2010-05-29T09:55:46Z</time>
      </trkpt>
      <trkpt lat="46.86928" lon="6.57684">
        <ele>1423.0559082031</ele>
        <time>2010-05-29T09:55:50Z</time>
      </trkpt>
      <trkpt lat="46.86932" lon="6.57692">
        <ele>1422.6107177734</ele>
        <time>2010-05-29T09:55:52Z</time>
      </trkpt>
      <trkpt lat="46.86942" lon="6.57714">
        <ele>1421.1322021484</ele>
        <time>2010-05-29T09:55:57Z</time>
      </trkpt>
      <trkpt lat="46.86954" lon="6.57737">
        <ele>1420.6134033203</ele>
        <time>2010-05-29T09:56:03Z</time>
      </trkpt>
      <trkpt lat="46.8696" lon="6.57755">
        <ele>1420.0825195312</ele>
        <time>2010-05-29T09:56:08Z</time>
      </trkpt>
      <trkpt lat="46.86966" lon="6.5778">
        <ele>1417.5437011719</ele>
        <time>2010-05-29T09:56:15Z</time>
      </trkpt>
      <trkpt lat="46.86973" lon="6.57801">
        <ele>1415.6556396484</ele>
        <time>2010-05-29T09:56:20Z</time>
      </trkpt>
      <trkpt lat="46.8698" lon="6.57827">
        <ele>1413.1051025391</ele>
        <time>2010-05-29T09:56:25Z</time>
      </trkpt>
      <trkpt lat="46.86982" lon="6.57831">
        <ele>1412.7269287109</ele>
        <time>2010-05-29T09:56:26Z</time>
      </trkpt>
      <trkpt lat="46.86995" lon="6.57859">
        <ele>1409.9436035156</ele>
        <time>2010-05-29T09:56:32Z</time>
      </trkpt>
      <trkpt lat="46.87001" lon="6.57874">
        <ele>1407.0827636719</ele>
        <time>2010-05-29T09:56:35Z</time>
      </trkpt>
      <trkpt lat="46.87012" lon="6.57897">
        <ele>1405.8199462891</ele>
        <time>2010-05-29T09:56:40Z</time>
      </trkpt>
      <trkpt lat="46.87017" lon="6.57908">
        <ele>1405.0161132812</ele>
        <time>2010-05-29T09:56:42Z</time>
      </trkpt>
      <trkpt lat="46.87031" lon="6.57939">
        <ele>1401.759765625</ele>
        <time>2010-05-29T09:56:47Z</time>
      </trkpt>
      <trkpt lat="46.87045" lon="6.57963">
        <ele>1400.1760253906</ele>
        <time>2010-05-29T09:56:51Z</time>
      </trkpt>
      <trkpt lat="46.87057" lon="6.57978">
        <ele>1398.7996826172</ele>
        <time>2010-05-29T09:56:56Z</time>
      </trkpt>
      <trkpt lat="46.8706" lon="6.57983">
        <ele>1399.4650878906</ele>
        <time>2010-05-29T09:57:00Z</time>
      </trkpt>
      <trkpt lat="46.87061" lon="6.57988">
        <ele>1398.9509277344</ele>
        <time>2010-05-29T09:57:21Z</time>
      </trkpt>
      <trkpt lat="46.87062" lon="6.57989">
        <ele>1398.8970947266</ele>
        <time>2010-05-29T09:57:22Z</time>
      </trkpt>
      <trkpt lat="46.87064" lon="6.57991">
        <ele>1399.1687011719</ele>
        <time>2010-05-29T09:57:26Z</time>
      </trkpt>
      <trkpt lat="46.87067" lon="6.57993">
        <ele>1399.3728027344</ele>
        <time>2010-05-29T09:57:30Z</time>
      </trkpt>
      <trkpt lat="46.8707" lon="6.57996">
        <ele>1399.1129150391</ele>
        <time>2010-05-29T09:57:33Z</time>
      </trkpt>
      <trkpt lat="46.87075" lon="6.58002">
        <ele>1398.6060791016</ele>
        <time>2010-05-29T09:57:39Z</time>
      </trkpt>
      <trkpt lat="46.87081" lon="6.58009">
        <ele>1398.1080322266</ele>
        <time>2010-05-29T09:57:45Z</time>
      </trkpt>
      <trkpt lat="46.87089" lon="6.5802">
        <ele>1397.9498291016</ele>
        <time>2010-05-29T09:57:51Z</time>
      </trkpt>
      <trkpt lat="46.8709" lon="6.58022">
        <ele>1397.6296386719</ele>
        <time>2010-05-29T09:57:52Z</time>
      </trkpt>
      <trkpt lat="46.87098" lon="6.58033">
        <ele>1396.3127441406</ele>
        <time>2010-05-29T09:57:58Z</time>
      </trkpt>
      <trkpt lat="46.8711" lon="6.58056">
        <ele>1393.7083740234</ele>
        <time>2010-05-29T09:58:04Z</time>
      </trkpt>
      <trkpt lat="46.87113" lon="6.58061">
        <ele>1393.8049316406</ele>
        <time>2010-05-29T09:58:05Z</time>
      </trkpt>
      <trkpt lat="46.87129" lon="6.58085">
        <ele>1394.7463378906</ele>
        <time>2010-05-29T09:58:11Z</time>
      </trkpt>
      <trkpt lat="46.8714" lon="6.58107">
        <ele>1391.94140625</ele>
        <time>2010-05-29T09:58:16Z</time>
      </trkpt>
      <trkpt lat="46.87152" lon="6.58129">
        <ele>1393.1928710938</ele>
        <time>2010-05-29T09:58:20Z</time>
      </trkpt>
      <trkpt lat="46.87155" lon="6.58135">
        <ele>1393.4916992188</ele>
        <time>2010-05-29T09:58:21Z</time>
      </trkpt>
      <trkpt lat="46.87163" lon="6.58146">
        <ele>1394.3189697266</ele>
        <time>2010-05-29T09:58:23Z</time>
      </trkpt>
      <trkpt lat="46.87184" lon="6.58184">
        <ele>1393.0678710938</ele>
        <time>2010-05-29T09:58:28Z</time>
      </trkpt>
      <trkpt lat="46.87197" lon="6.5821">
        <ele>1390.5727539062</ele>
        <time>2010-05-29T09:58:31Z</time>
      </trkpt>
      <trkpt lat="46.87206" lon="6.58231">
        <ele>1387.8187255859</ele>
        <time>2010-05-29T09:58:33Z</time>
      </trkpt>
      <trkpt lat="46.8722" lon="6.58258">
        <ele>1387.3428955078</ele>
        <time>2010-05-29T09:58:36Z</time>
      </trkpt>
      <trkpt lat="46.8725" lon="6.58317">
        <ele>1388.2758789062</ele>
        <time>2010-05-29T09:58:42Z</time>
      </trkpt>
      <trkpt lat="46.87283" lon="6.5837">
        <ele>1387.6390380859</ele>
        <time>2010-05-29T09:58:48Z</time>
      </trkpt>
      <trkpt lat="46.87301" lon="6.58399">
        <ele>1387.7073974609</ele>
        <time>2010-05-29T09:58:51Z</time>
      </trkpt>
      <trkpt lat="46.87317" lon="6.58434">
        <ele>1387.2139892578</ele>
        <time>2010-05-29T09:58:54Z</time>
      </trkpt>
      <trkpt lat="46.87327" lon="6.58454">
        <ele>1386.798828125</ele>
        <time>2010-05-29T09:58:56Z</time>
      </trkpt>
      <trkpt lat="46.87359" lon="6.58519">
        <ele>1383.8361816406</ele>
        <time>2010-05-29T09:59:02Z</time>
      </trkpt>
      <trkpt lat="46.87389" lon="6.58586">
        <ele>1378.9675292969</ele>
        <time>2010-05-29T09:59:08Z</time>
      </trkpt>
      <trkpt lat="46.87415" lon="6.58643">
        <ele>1379.7330322266</ele>
        <time>2010-05-29T09:59:13Z</time>
      </trkpt>
      <trkpt lat="46.87436" lon="6.58684">
        <ele>1377.1970214844</ele>
        <time>2010-05-29T09:59:17Z</time>
      </trkpt>
      <trkpt lat="46.87449" lon="6.58707">
        <ele>1376.9127197266</ele>
        <time>2010-05-29T09:59:20Z</time>
      </trkpt>
      <trkpt lat="46.87464" lon="6.5873">
        <ele>1379.7094726562</ele>
        <time>2010-05-29T09:59:23Z</time>
      </trkpt>
      <trkpt lat="46.87485" lon="6.58773">
        <ele>1380.8658447266</ele>
        <time>2010-05-29T09:59:27Z</time>
      </trkpt>
      <trkpt lat="46.87502" lon="6.58824">
        <ele>1380.5827636719</ele>
        <time>2010-05-29T09:59:31Z</time>
      </trkpt>
      <trkpt lat="46.87509" lon="6.58841">
        <ele>1379.8054199219</ele>
        <time>2010-05-29T09:59:33Z</time>
      </trkpt>
      <trkpt lat="46.87511" lon="6.58856">
        <ele>1377.5748291016</ele>
        <time>2010-05-29T09:59:37Z</time>
      </trkpt>
      <trkpt lat="46.87511" lon="6.58855">
        <ele>1378.0275878906</ele>
        <time>2010-05-29T09:59:39Z</time>
      </trkpt>
      <trkpt lat="46.875" lon="6.58838">
        <ele>1377.015625</ele>
        <time>2010-05-29T10:00:03Z</time>
      </trkpt>
      <trkpt lat="46.87474" lon="6.588">
        <ele>1366.6651611328</ele>
        <time>2010-05-29T10:00:10Z</time>
      </trkpt>
      <trkpt lat="46.87457" lon="6.58776">
        <ele>1357.3980712891</ele>
        <time>2010-05-29T10:00:13Z</time>
      </trkpt>
      <trkpt lat="46.87444" lon="6.58762">
        <ele>1353.3450927734</ele>
        <time>2010-05-29T10:00:15Z</time>
      </trkpt>
      <trkpt lat="46.87416" lon="6.58737">
        <ele>1343.8874511719</ele>
        <time>2010-05-29T10:00:20Z</time>
      </trkpt>
      <trkpt lat="46.87387" lon="6.58707">
        <ele>1334.7210693359</ele>
        <time>2010-05-29T10:00:28Z</time>
      </trkpt>
      <trkpt lat="46.87366" lon="6.58687">
        <ele>1326.7069091797</ele>
        <time>2010-05-29T10:00:32Z</time>
      </trkpt>
      <trkpt lat="46.87334" lon="6.58642">
        <ele>1327.1365966797</ele>
        <time>2010-05-29T10:00:38Z</time>
      </trkpt>
      <trkpt lat="46.87326" lon="6.58631">
        <ele>1328.6842041016</ele>
        <time>2010-05-29T10:00:41Z</time>
      </trkpt>
      <trkpt lat="46.87325" lon="6.5864">
        <ele>1326.1059570312</ele>
        <time>2010-05-29T10:00:45Z</time>
      </trkpt>
      <trkpt lat="46.87335" lon="6.58664">
        <ele>1319.5189208984</ele>
        <time>2010-05-29T10:00:52Z</time>
      </trkpt>
      <trkpt lat="46.87339" lon="6.5868">
        <ele>1317.5222167969</ele>
        <time>2010-05-29T10:00:55Z</time>
      </trkpt>
      <trkpt lat="46.87343" lon="6.58694">
        <ele>1316.205078125</ele>
        <time>2010-05-29T10:00:57Z</time>
      </trkpt>
      <trkpt lat="46.87352" lon="6.58715">
        <ele>1311.4484863281</ele>
        <time>2010-05-29T10:01:00Z</time>
      </trkpt>
      <trkpt lat="46.87373" lon="6.58753">
        <ele>1307.0471191406</ele>
        <time>2010-05-29T10:01:05Z</time>
      </trkpt>
      <trkpt lat="46.87379" lon="6.58762">
        <ele>1305.0402832031</ele>
        <time>2010-05-29T10:01:06Z</time>
      </trkpt>
      <trkpt lat="46.87402" lon="6.58818">
        <ele>1299.9020996094</ele>
        <time>2010-05-29T10:01:11Z</time>
      </trkpt>
      <trkpt lat="46.87418" lon="6.58866">
        <ele>1298.6004638672</ele>
        <time>2010-05-29T10:01:15Z</time>
      </trkpt>
      <trkpt lat="46.87448" lon="6.58955">
        <ele>1290.9168701172</ele>
        <time>2010-05-29T10:01:22Z</time>
      </trkpt>
      <trkpt lat="46.87472" lon="6.59036">
        <ele>1287.4527587891</ele>
        <time>2010-05-29T10:01:28Z</time>
      </trkpt>
      <trkpt lat="46.87488" lon="6.59093">
        <ele>1283.8032226562</ele>
        <time>2010-05-29T10:01:33Z</time>
      </trkpt>
      <trkpt lat="46.87498" lon="6.59137">
        <ele>1279.8001708984</ele>
        <time>2010-05-29T10:01:37Z</time>
      </trkpt>
      <trkpt lat="46.87513" lon="6.59178">
        <ele>1277.1638183594</ele>
        <time>2010-05-29T10:01:41Z</time>
      </trkpt>
      <trkpt lat="46.8752" lon="6.5921">
        <ele>1274.3793945312</ele>
        <time>2010-05-29T10:01:45Z</time>
      </trkpt>
      <trkpt lat="46.87518" lon="6.59224">
        <ele>1270.8444824219</ele>
        <time>2010-05-29T10:01:49Z</time>
      </trkpt>
      <trkpt lat="46.8751" lon="6.59223">
        <ele>1268.6918945312</ele>
        <time>2010-05-29T10:01:53Z</time>
      </trkpt>
      <trkpt lat="46.87507" lon="6.59221">
        <ele>1268.2772216797</ele>
        <time>2010-05-29T10:01:54Z</time>
      </trkpt>
      <trkpt lat="46.87492" lon="6.59204">
        <ele>1267.27734375</ele>
        <time>2010-05-29T10:02:00Z</time>
      </trkpt>
      <trkpt lat="46.87482" lon="6.59189">
        <ele>1267.1525878906</ele>
        <time>2010-05-29T10:02:04Z</time>
      </trkpt>
      <trkpt lat="46.87468" lon="6.59168">
        <ele>1265.9675292969</ele>
        <time>2010-05-29T10:02:09Z</time>
      </trkpt>
      <trkpt lat="46.87452" lon="6.59158">
        <ele>1264.6672363281</ele>
        <time>2010-05-29T10:02:14Z</time>
      </trkpt>
      <trkpt lat="46.87449" lon="6.59159">
        <ele>1263.9326171875</ele>
        <time>2010-05-29T10:02:15Z</time>
      </trkpt>
      <trkpt lat="46.87442" lon="6.59177">
        <ele>1260.5865478516</ele>
        <time>2010-05-29T10:02:19Z</time>
      </trkpt>
      <trkpt lat="46.87445" lon="6.59195">
        <ele>1259.0992431641</ele>
        <time>2010-05-29T10:02:22Z</time>
      </trkpt>
      <trkpt lat="46.87461" lon="6.59239">
        <ele>1253.7838134766</ele>
        <time>2010-05-29T10:02:29Z</time>
      </trkpt>
      <trkpt lat="46.87476" lon="6.59281">
        <ele>1250.0307617188</ele>
        <time>2010-05-29T10:02:34Z</time>
      </trkpt>
      <trkpt lat="46.8748" lon="6.59306">
        <ele>1245.2279052734</ele>
        <time>2010-05-29T10:02:37Z</time>
      </trkpt>
      <trkpt lat="46.87484" lon="6.5936">
        <ele>1240.0701904297</ele>
        <time>2010-05-29T10:02:44Z</time>
      </trkpt>
      <trkpt lat="46.87489" lon="6.59393">
        <ele>1238.8127441406</ele>
        <time>2010-05-29T10:02:48Z</time>
      </trkpt>
      <trkpt lat="46.87499" lon="6.59449">
        <ele>1235.8975830078</ele>
        <time>2010-05-29T10:02:55Z</time>
      </trkpt>
      <trkpt lat="46.87505" lon="6.59483">
        <ele>1234.0314941406</ele>
        <time>2010-05-29T10:03:00Z</time>
      </trkpt>
      <trkpt lat="46.87505" lon="6.59491">
        <ele>1233.4787597656</ele>
        <time>2010-05-29T10:03:01Z</time>
      </trkpt>
      <trkpt lat="46.8751" lon="6.5952">
        <ele>1231.4534912109</ele>
        <time>2010-05-29T10:03:05Z</time>
      </trkpt>
      <trkpt lat="46.87515" lon="6.59556">
        <ele>1228.8250732422</ele>
        <time>2010-05-29T10:03:10Z</time>
      </trkpt>
      <trkpt lat="46.87517" lon="6.5957">
        <ele>1227.1552734375</ele>
        <time>2010-05-29T10:03:12Z</time>
      </trkpt>
      <trkpt lat="46.87522" lon="6.59614">
        <ele>1223.1275634766</ele>
        <time>2010-05-29T10:03:18Z</time>
      </trkpt>
      <trkpt lat="46.87519" lon="6.59658">
        <ele>1223.4790039062</ele>
        <time>2010-05-29T10:03:24Z</time>
      </trkpt>
      <trkpt lat="46.87511" lon="6.59693">
        <ele>1226.0561523438</ele>
        <time>2010-05-29T10:03:29Z</time>
      </trkpt>
      <trkpt lat="46.87511" lon="6.59729">
        <ele>1227.2425537109</ele>
        <time>2010-05-29T10:03:34Z</time>
      </trkpt>
      <trkpt lat="46.87519" lon="6.5976">
        <ele>1226.7381591797</ele>
        <time>2010-05-29T10:03:40Z</time>
      </trkpt>
      <trkpt lat="46.8752" lon="6.5976">
        <ele>1226.6889648438</ele>
        <time>2010-05-29T10:03:42Z</time>
      </trkpt>
      <trkpt lat="46.87523" lon="6.59789">
        <ele>1227.0493164062</ele>
        <time>2010-05-29T10:04:02Z</time>
      </trkpt>
      <trkpt lat="46.87526" lon="6.59804">
        <ele>1227.1574707031</ele>
        <time>2010-05-29T10:04:04Z</time>
      </trkpt>
      <trkpt lat="46.87542" lon="6.5987">
        <ele>1224.2807617188</ele>
        <time>2010-05-29T10:04:13Z</time>
      </trkpt>
      <trkpt lat="46.87544" lon="6.59877">
        <ele>1223.7863769531</ele>
        <time>2010-05-29T10:04:14Z</time>
      </trkpt>
      <trkpt lat="46.87542" lon="6.59906">
        <ele>1224.5689697266</ele>
        <time>2010-05-29T10:04:18Z</time>
      </trkpt>
      <trkpt lat="46.87529" lon="6.59918">
        <ele>1229.4693603516</ele>
        <time>2010-05-29T10:04:21Z</time>
      </trkpt>
      <trkpt lat="46.87519" lon="6.59918">
        <ele>1231.3527832031</ele>
        <time>2010-05-29T10:04:23Z</time>
      </trkpt>
      <trkpt lat="46.87503" lon="6.59915">
        <ele>1233.552734375</ele>
        <time>2010-05-29T10:04:26Z</time>
      </trkpt>
      <trkpt lat="46.87484" lon="6.59924">
        <ele>1236.3071289062</ele>
        <time>2010-05-29T10:04:30Z</time>
      </trkpt>
      <trkpt lat="46.87473" lon="6.59953">
        <ele>1237.9587402344</ele>
        <time>2010-05-29T10:04:36Z</time>
      </trkpt>
      <trkpt lat="46.87471" lon="6.59981">
        <ele>1238.60546875</ele>
        <time>2010-05-29T10:04:41Z</time>
      </trkpt>
      <trkpt lat="46.87468" lon="6.60001">
        <ele>1239.9449462891</ele>
        <time>2010-05-29T10:04:45Z</time>
      </trkpt>
      <trkpt lat="46.87468" lon="6.60031">
        <ele>1240.5454101562</ele>
        <time>2010-05-29T10:04:50Z</time>
      </trkpt>
      <trkpt lat="46.87474" lon="6.60072">
        <ele>1240.0319824219</ele>
        <time>2010-05-29T10:04:57Z</time>
      </trkpt>
      <trkpt lat="46.87484" lon="6.60104">
        <ele>1241.0378417969</ele>
        <time>2010-05-29T10:05:03Z</time>
      </trkpt>
      <trkpt lat="46.87494" lon="6.60121">
        <ele>1239.8071289062</ele>
        <time>2010-05-29T10:05:07Z</time>
      </trkpt>
      <trkpt lat="46.87508" lon="6.6014">
        <ele>1238.7629394531</ele>
        <time>2010-05-29T10:05:12Z</time>
      </trkpt>
      <trkpt lat="46.87521" lon="6.60164">
        <ele>1238.6892089844</ele>
        <time>2010-05-29T10:05:17Z</time>
      </trkpt>
      <trkpt lat="46.87529" lon="6.60179">
        <ele>1238.6235351562</ele>
        <time>2010-05-29T10:05:20Z</time>
      </trkpt>
      <trkpt lat="46.87557" lon="6.60214">
        <ele>1237.2808837891</ele>
        <time>2010-05-29T10:05:28Z</time>
      </trkpt>
      <trkpt lat="46.87568" lon="6.60233">
        <ele>1238.2165527344</ele>
        <time>2010-05-29T10:05:32Z</time>
      </trkpt>
      <trkpt lat="46.87569" lon="6.60278">
        <ele>1242.0688476562</ele>
        <time>2010-05-29T10:05:39Z</time>
      </trkpt>
      <trkpt lat="46.87577" lon="6.60307">
        <ele>1245.3009033203</ele>
        <time>2010-05-29T10:05:44Z</time>
      </trkpt>
      <trkpt lat="46.87592" lon="6.60343">
        <ele>1247.4482421875</ele>
        <time>2010-05-29T10:05:51Z</time>
      </trkpt>
      <trkpt lat="46.87602" lon="6.60358">
        <ele>1248.333984375</ele>
        <time>2010-05-29T10:05:54Z</time>
      </trkpt>
      <trkpt lat="46.87624" lon="6.6037">
        <ele>1249.138671875</ele>
        <time>2010-05-29T10:05:59Z</time>
      </trkpt>
      <trkpt lat="46.87637" lon="6.6037">
        <ele>1249.5849609375</ele>
        <time>2010-05-29T10:06:02Z</time>
      </trkpt>
      <trkpt lat="46.87654" lon="6.60365">
        <ele>1249.8287353516</ele>
        <time>2010-05-29T10:06:06Z</time>
      </trkpt>
      <trkpt lat="46.87678" lon="6.60355">
        <ele>1249.5046386719</ele>
        <time>2010-05-29T10:06:12Z</time>
      </trkpt>
      <trkpt lat="46.87686" lon="6.60356">
        <ele>1249.5303955078</ele>
        <time>2010-05-29T10:06:14Z</time>
      </trkpt>
      <trkpt lat="46.87708" lon="6.60376">
        <ele>1249.6822509766</ele>
        <time>2010-05-29T10:06:19Z</time>
      </trkpt>
      <trkpt lat="46.87715" lon="6.60388">
        <ele>1249.7062988281</ele>
        <time>2010-05-29T10:06:21Z</time>
      </trkpt>
      <trkpt lat="46.87734" lon="6.60412">
        <ele>1250.1094970703</ele>
        <time>2010-05-29T10:06:26Z</time>
      </trkpt>
      <trkpt lat="46.8776" lon="6.6043">
        <ele>1247.5444335938</ele>
        <time>2010-05-29T10:06:32Z</time>
      </trkpt>
      <trkpt lat="46.87784" lon="6.60444">
        <ele>1241.8826904297</ele>
        <time>2010-05-29T10:06:38Z</time>
      </trkpt>
      <trkpt lat="46.87798" lon="6.60451">
        <ele>1238.9197998047</ele>
        <time>2010-05-29T10:06:41Z</time>
      </trkpt>
      <trkpt lat="46.87818" lon="6.60481">
        <ele>1239.55859375</ele>
        <time>2010-05-29T10:06:48Z</time>
      </trkpt>
      <trkpt lat="46.87843" lon="6.60528">
        <ele>1239.1981201172</ele>
        <time>2010-05-29T10:06:57Z</time>
      </trkpt>
      <trkpt lat="46.87862" lon="6.6056">
        <ele>1236.3830566406</ele>
        <time>2010-05-29T10:07:03Z</time>
      </trkpt>
      <trkpt lat="46.87882" lon="6.60596">
        <ele>1235.0426025391</ele>
        <time>2010-05-29T10:07:09Z</time>
      </trkpt>
      <trkpt lat="46.87907" lon="6.60652">
        <ele>1234.8565673828</ele>
        <time>2010-05-29T10:07:18Z</time>
      </trkpt>
      <trkpt lat="46.87927" lon="6.60701">
        <ele>1233.8507080078</ele>
        <time>2010-05-29T10:07:26Z</time>
      </trkpt>
      <trkpt lat="46.87947" lon="6.60756">
        <ele>1228.2202148438</ele>
        <time>2010-05-29T10:07:35Z</time>
      </trkpt>
      <trkpt lat="46.87965" lon="6.60814">
        <ele>1225.9592285156</ele>
        <time>2010-05-29T10:07:44Z</time>
      </trkpt>
      <trkpt lat="46.87978" lon="6.60874">
        <ele>1226.6563720703</ele>
        <time>2010-05-29T10:07:53Z</time>
      </trkpt>
      <trkpt lat="46.87989" lon="6.60927">
        <ele>1226.1341552734</ele>
        <time>2010-05-29T10:08:00Z</time>
      </trkpt>
      <trkpt lat="46.87995" lon="6.60966">
        <ele>1225.744140625</ele>
        <time>2010-05-29T10:08:05Z</time>
      </trkpt>
      <trkpt lat="46.88002" lon="6.61039">
        <ele>1227.0328369141</ele>
        <time>2010-05-29T10:08:14Z</time>
      </trkpt>
      <trkpt lat="46.88002" lon="6.61047">
        <ele>1227.654296875</ele>
        <time>2010-05-29T10:08:15Z</time>
      </trkpt>
      <trkpt lat="46.87999" lon="6.61098">
        <ele>1233.0433349609</ele>
        <time>2010-05-29T10:08:23Z</time>
      </trkpt>
      <trkpt lat="46.87994" lon="6.61129">
        <ele>1237.5235595703</ele>
        <time>2010-05-29T10:08:28Z</time>
      </trkpt>
      <trkpt lat="46.87981" lon="6.61187">
        <ele>1241.3227539062</ele>
        <time>2010-05-29T10:08:38Z</time>
      </trkpt>
      <trkpt lat="46.87971" lon="6.61242">
        <ele>1242.6953125</ele>
        <time>2010-05-29T10:08:46Z</time>
      </trkpt>
      <trkpt lat="46.87968" lon="6.61267">
        <ele>1243.3916015625</ele>
        <time>2010-05-29T10:08:49Z</time>
      </trkpt>
      <trkpt lat="46.8796" lon="6.61322">
        <ele>1246.2326660156</ele>
        <time>2010-05-29T10:08:54Z</time>
      </trkpt>
      <trkpt lat="46.87958" lon="6.61392">
        <ele>1245.5252685547</ele>
        <time>2010-05-29T10:08:59Z</time>
      </trkpt>
      <trkpt lat="46.87957" lon="6.61419">
        <ele>1245.5068359375</ele>
        <time>2010-05-29T10:09:01Z</time>
      </trkpt>
      <trkpt lat="46.87954" lon="6.61459">
        <ele>1244.6801757812</ele>
        <time>2010-05-29T10:09:04Z</time>
      </trkpt>
      <trkpt lat="46.87952" lon="6.61501">
        <ele>1242.3551025391</ele>
        <time>2010-05-29T10:09:07Z</time>
      </trkpt>
      <trkpt lat="46.87951" lon="6.61515">
        <ele>1242.2641601562</ele>
        <time>2010-05-29T10:09:08Z</time>
      </trkpt>
      <trkpt lat="46.8795" lon="6.61545">
        <ele>1241.2182617188</ele>
        <time>2010-05-29T10:09:10Z</time>
      </trkpt>
      <trkpt lat="46.87949" lon="6.61561">
        <ele>1240.6820068359</ele>
        <time>2010-05-29T10:09:11Z</time>
      </trkpt>
      <trkpt lat="46.87949" lon="6.61576">
        <ele>1240.2889404297</ele>
        <time>2010-05-29T10:09:12Z</time>
      </trkpt>
      <trkpt lat="46.87947" lon="6.61657">
        <ele>1233.2553710938</ele>
        <time>2010-05-29T10:09:17Z</time>
      </trkpt>
      <trkpt lat="46.87946" lon="6.61684">
        <ele>1230.4862060547</ele>
        <time>2010-05-29T10:09:19Z</time>
      </trkpt>
      <trkpt lat="46.87942" lon="6.61713">
        <ele>1227.35546875</ele>
        <time>2010-05-29T10:09:22Z</time>
      </trkpt>
      <trkpt lat="46.87926" lon="6.61742">
        <ele>1228.2392578125</ele>
        <time>2010-05-29T10:09:27Z</time>
      </trkpt>
      <trkpt lat="46.87921" lon="6.61745">
        <ele>1229.4448242188</ele>
        <time>2010-05-29T10:09:28Z</time>
      </trkpt>
      <trkpt lat="46.87878" lon="6.61762">
        <ele>1236.9925537109</ele>
        <time>2010-05-29T10:09:36Z</time>
      </trkpt>
      <trkpt lat="46.87856" lon="6.61776">
        <ele>1238.9366455078</ele>
        <time>2010-05-29T10:09:42Z</time>
      </trkpt>
      <trkpt lat="46.87849" lon="6.61783">
        <ele>1239.3977050781</ele>
        <time>2010-05-29T10:09:44Z</time>
      </trkpt>
      <trkpt lat="46.87828" lon="6.61806">
        <ele>1242.0030517578</ele>
        <time>2010-05-29T10:09:51Z</time>
      </trkpt>
      <trkpt lat="46.87821" lon="6.61816">
        <ele>1242.0177001953</ele>
        <time>2010-05-29T10:09:54Z</time>
      </trkpt>
      <trkpt lat="46.87812" lon="6.61829">
        <ele>1241.6982421875</ele>
        <time>2010-05-29T10:09:58Z</time>
      </trkpt>
      <trkpt lat="46.878" lon="6.61844">
        <ele>1243.38671875</ele>
        <time>2010-05-29T10:10:03Z</time>
      </trkpt>
      <trkpt lat="46.87785" lon="6.61855">
        <ele>1247.9171142578</ele>
        <time>2010-05-29T10:10:08Z</time>
      </trkpt>
      <trkpt lat="46.8777" lon="6.6186">
        <ele>1252.7019042969</ele>
        <time>2010-05-29T10:10:13Z</time>
      </trkpt>
      <trkpt lat="46.8776" lon="6.61871">
        <ele>1254.8316650391</ele>
        <time>2010-05-29T10:10:17Z</time>
      </trkpt>
      <trkpt lat="46.87751" lon="6.61896">
        <ele>1255.0162353516</ele>
        <time>2010-05-29T10:10:23Z</time>
      </trkpt>
      <trkpt lat="46.87749" lon="6.61899">
        <ele>1255.1870117188</ele>
        <time>2010-05-29T10:10:24Z</time>
      </trkpt>
      <trkpt lat="46.87745" lon="6.61914">
        <ele>1254.6771240234</ele>
        <time>2010-05-29T10:10:29Z</time>
      </trkpt>
      <trkpt lat="46.87741" lon="6.61933">
        <ele>1252.6156005859</ele>
        <time>2010-05-29T10:10:35Z</time>
      </trkpt>
      <trkpt lat="46.8773" lon="6.61953">
        <ele>1252.9105224609</ele>
        <time>2010-05-29T10:10:42Z</time>
      </trkpt>
      <trkpt lat="46.87716" lon="6.61969">
        <ele>1256.1530761719</ele>
        <time>2010-05-29T10:10:50Z</time>
      </trkpt>
      <trkpt lat="46.877" lon="6.61994">
        <ele>1258.4265136719</ele>
        <time>2010-05-29T10:10:59Z</time>
      </trkpt>
      <trkpt lat="46.87688" lon="6.62015">
        <ele>1260.763671875</ele>
        <time>2010-05-29T10:11:06Z</time>
      </trkpt>
      <trkpt lat="46.87683" lon="6.62034">
        <ele>1260.6105957031</ele>
        <time>2010-05-29T10:11:11Z</time>
      </trkpt>
      <trkpt lat="46.87674" lon="6.62071">
        <ele>1259.2049560547</ele>
        <time>2010-05-29T10:11:20Z</time>
      </trkpt>
      <trkpt lat="46.8767" lon="6.62097">
        <ele>1258.1888427734</ele>
        <time>2010-05-29T10:11:26Z</time>
      </trkpt>
      <trkpt lat="46.87667" lon="6.62118">
        <ele>1257.6329345703</ele>
        <time>2010-05-29T10:11:32Z</time>
      </trkpt>
      <trkpt lat="46.87669" lon="6.62142">
        <ele>1256.2579345703</ele>
        <time>2010-05-29T10:11:38Z</time>
      </trkpt>
      <trkpt lat="46.87666" lon="6.62167">
        <ele>1255.0400390625</ele>
        <time>2010-05-29T10:11:44Z</time>
      </trkpt>
      <trkpt lat="46.87662" lon="6.62194">
        <ele>1254.0632324219</ele>
        <time>2010-05-29T10:11:51Z</time>
      </trkpt>
      <trkpt lat="46.87652" lon="6.62216">
        <ele>1255.7857666016</ele>
        <time>2010-05-29T10:11:57Z</time>
      </trkpt>
      <trkpt lat="46.87652" lon="6.62241">
        <ele>1257.0153808594</ele>
        <time>2010-05-29T10:12:03Z</time>
      </trkpt>
      <trkpt lat="46.87651" lon="6.62245">
        <ele>1257.3792724609</ele>
        <time>2010-05-29T10:12:04Z</time>
      </trkpt>
      <trkpt lat="46.87659" lon="6.62275">
        <ele>1259.5991210938</ele>
        <time>2010-05-29T10:12:12Z</time>
      </trkpt>
      <trkpt lat="46.87662" lon="6.62298">
        <ele>1261.4775390625</ele>
        <time>2010-05-29T10:12:19Z</time>
      </trkpt>
      <trkpt lat="46.87663" lon="6.62331">
        <ele>1264.7791748047</ele>
        <time>2010-05-29T10:12:27Z</time>
      </trkpt>
      <trkpt lat="46.87666" lon="6.62352">
        <ele>1267.12109375</ele>
        <time>2010-05-29T10:12:32Z</time>
      </trkpt>
      <trkpt lat="46.87667" lon="6.62383">
        <ele>1269.5524902344</ele>
        <time>2010-05-29T10:12:39Z</time>
      </trkpt>
      <trkpt lat="46.87669" lon="6.62413">
        <ele>1272.5526123047</ele>
        <time>2010-05-29T10:12:46Z</time>
      </trkpt>
      <trkpt lat="46.87674" lon="6.62444">
        <ele>1273.5064697266</ele>
        <time>2010-05-29T10:12:54Z</time>
      </trkpt>
      <trkpt lat="46.87676" lon="6.62475">
        <ele>1275.8892822266</ele>
        <time>2010-05-29T10:13:02Z</time>
      </trkpt>
      <trkpt lat="46.87679" lon="6.62497">
        <ele>1275.4543457031</ele>
        <time>2010-05-29T10:13:08Z</time>
      </trkpt>
      <trkpt lat="46.87681" lon="6.62516">
        <ele>1275.4438476562</ele>
        <time>2010-05-29T10:13:14Z</time>
      </trkpt>
      <trkpt lat="46.87681" lon="6.6252">
        <ele>1275.5942382812</ele>
        <time>2010-05-29T10:13:15Z</time>
      </trkpt>
      <trkpt lat="46.87678" lon="6.62537">
        <ele>1276.9802246094</ele>
        <time>2010-05-29T10:13:20Z</time>
      </trkpt>
      <trkpt lat="46.87675" lon="6.62559">
        <ele>1278.0477294922</ele>
        <time>2010-05-29T10:13:25Z</time>
      </trkpt>
      <trkpt lat="46.87668" lon="6.62589">
        <ele>1279.1499023438</ele>
        <time>2010-05-29T10:13:32Z</time>
      </trkpt>
      <trkpt lat="46.87658" lon="6.62627">
        <ele>1278.5543212891</ele>
        <time>2010-05-29T10:13:41Z</time>
      </trkpt>
      <trkpt lat="46.87653" lon="6.6265">
        <ele>1278.4848632812</ele>
        <time>2010-05-29T10:13:46Z</time>
      </trkpt>
      <trkpt lat="46.87649" lon="6.62674">
        <ele>1278.4597167969</ele>
        <time>2010-05-29T10:13:52Z</time>
      </trkpt>
      <trkpt lat="46.87648" lon="6.6268">
        <ele>1278.3375244141</ele>
        <time>2010-05-29T10:13:55Z</time>
      </trkpt>
      <trkpt lat="46.87651" lon="6.62689">
        <ele>1278.1104736328</ele>
        <time>2010-05-29T10:13:59Z</time>
      </trkpt>
      <trkpt lat="46.87655" lon="6.62694">
        <ele>1278.0006103516</ele>
        <time>2010-05-29T10:14:04Z</time>
      </trkpt>
      <trkpt lat="46.87659" lon="6.62704">
        <ele>1278</ele>
        <time>2010-05-29T10:14:09Z</time>
      </trkpt>
      <trkpt lat="46.87666" lon="6.62719">
        <ele>1278</ele>
        <time>2010-05-29T10:14:16Z</time>
      </trkpt>
      <trkpt lat="46.87676" lon="6.62728">
        <ele>1278.5187988281</ele>
        <time>2010-05-29T10:14:22Z</time>
      </trkpt>
      <trkpt lat="46.87684" lon="6.62741">
        <ele>1279.8199462891</ele>
        <time>2010-05-29T10:14:28Z</time>
      </trkpt>
      <trkpt lat="46.87685" lon="6.62746">
        <ele>1280.2891845703</ele>
        <time>2010-05-29T10:14:30Z</time>
      </trkpt>
      <trkpt lat="46.87693" lon="6.62761">
        <ele>1282.5050048828</ele>
        <time>2010-05-29T10:14:36Z</time>
      </trkpt>
      <trkpt lat="46.87696" lon="6.62767">
        <ele>1283.6318359375</ele>
        <time>2010-05-29T10:14:38Z</time>
      </trkpt>
      <trkpt lat="46.87698" lon="6.62778">
        <ele>1285.2463378906</ele>
        <time>2010-05-29T10:14:42Z</time>
      </trkpt>
      <trkpt lat="46.87699" lon="6.6278">
        <ele>1285.7069091797</ele>
        <time>2010-05-29T10:14:43Z</time>
      </trkpt>
      <trkpt lat="46.87703" lon="6.62792">
        <ele>1288.0134277344</ele>
        <time>2010-05-29T10:14:48Z</time>
      </trkpt>
      <trkpt lat="46.87706" lon="6.628">
        <ele>1289.5025634766</ele>
        <time>2010-05-29T10:14:52Z</time>
      </trkpt>
      <trkpt lat="46.87706" lon="6.62802">
        <ele>1289.8570556641</ele>
        <time>2010-05-29T10:14:53Z</time>
      </trkpt>
      <trkpt lat="46.87712" lon="6.62822">
        <ele>1292.4020996094</ele>
        <time>2010-05-29T10:15:00Z</time>
      </trkpt>
      <trkpt lat="46.87711" lon="6.62832">
        <ele>1293.462890625</ele>
        <time>2010-05-29T10:15:04Z</time>
      </trkpt>
      <trkpt lat="46.87713" lon="6.62848">
        <ele>1295.9522705078</ele>
        <time>2010-05-29T10:15:10Z</time>
      </trkpt>
      <trkpt lat="46.87712" lon="6.62865">
        <ele>1298.3020019531</ele>
        <time>2010-05-29T10:15:16Z</time>
      </trkpt>
      <trkpt lat="46.8771" lon="6.62874">
        <ele>1298.9267578125</ele>
        <time>2010-05-29T10:15:19Z</time>
      </trkpt>
      <trkpt lat="46.87709" lon="6.62884">
        <ele>1299.6683349609</ele>
        <time>2010-05-29T10:15:23Z</time>
      </trkpt>
      <trkpt lat="46.8771" lon="6.62896">
        <ele>1300</ele>
        <time>2010-05-29T10:15:27Z</time>
      </trkpt>
      <trkpt lat="46.87712" lon="6.62907">
        <ele>1300</ele>
        <time>2010-05-29T10:15:30Z</time>
      </trkpt>
      <trkpt lat="46.87716" lon="6.62931">
        <ele>1300</ele>
        <time>2010-05-29T10:15:37Z</time>
      </trkpt>
      <trkpt lat="46.8772" lon="6.62956">
        <ele>1300</ele>
        <time>2010-05-29T10:15:44Z</time>
      </trkpt>
      <trkpt lat="46.8772" lon="6.62976">
        <ele>1300</ele>
        <time>2010-05-29T10:15:50Z</time>
      </trkpt>
      <trkpt lat="46.87719" lon="6.62993">
        <ele>1300</ele>
        <time>2010-05-29T10:15:56Z</time>
      </trkpt>
      <trkpt lat="46.87717" lon="6.63">
        <ele>1299.9990234375</ele>
        <time>2010-05-29T10:16:00Z</time>
      </trkpt>
      <trkpt lat="46.87717" lon="6.63015">
        <ele>1298.7049560547</ele>
        <time>2010-05-29T10:16:06Z</time>
      </trkpt>
      <trkpt lat="46.87717" lon="6.63018">
        <ele>1298.4521484375</ele>
        <time>2010-05-29T10:16:09Z</time>
      </trkpt>
      <trkpt lat="46.87717" lon="6.63022">
        <ele>1298.0252685547</ele>
        <time>2010-05-29T10:16:12Z</time>
      </trkpt>
      <trkpt lat="46.87718" lon="6.63026">
        <ele>1297.671875</ele>
        <time>2010-05-29T10:16:13Z</time>
      </trkpt>
      <trkpt lat="46.8772" lon="6.6304">
        <ele>1296.4053955078</ele>
        <time>2010-05-29T10:16:16Z</time>
      </trkpt>
      <trkpt lat="46.87724" lon="6.63066">
        <ele>1293.7670898438</ele>
        <time>2010-05-29T10:16:20Z</time>
      </trkpt>
      <trkpt lat="46.87719" lon="6.63102">
        <ele>1290.9868164062</ele>
        <time>2010-05-29T10:16:25Z</time>
      </trkpt>
      <trkpt lat="46.87719" lon="6.63123">
        <ele>1289.0157470703</ele>
        <time>2010-05-29T10:16:27Z</time>
      </trkpt>
      <trkpt lat="46.87719" lon="6.63174">
        <ele>1284.3935546875</ele>
        <time>2010-05-29T10:16:32Z</time>
      </trkpt>
      <trkpt lat="46.87717" lon="6.6318">
        <ele>1283.9163818359</ele>
        <time>2010-05-29T10:16:34Z</time>
      </trkpt>
      <trkpt lat="46.87712" lon="6.63206">
        <ele>1281.8966064453</ele>
        <time>2010-05-29T10:16:39Z</time>
      </trkpt>
      <trkpt lat="46.87711" lon="6.63234">
        <ele>1278.7025146484</ele>
        <time>2010-05-29T10:16:44Z</time>
      </trkpt>
      <trkpt lat="46.8771" lon="6.63235">
        <ele>1278.6184082031</ele>
        <time>2010-05-29T10:16:46Z</time>
      </trkpt>
      <trkpt lat="46.87708" lon="6.63245">
        <ele>1276.8159179688</ele>
        <time>2010-05-29T10:16:59Z</time>
      </trkpt>
      <trkpt lat="46.87706" lon="6.63272">
        <ele>1273.3254394531</ele>
        <time>2010-05-29T10:17:05Z</time>
      </trkpt>
      <trkpt lat="46.87705" lon="6.63291">
        <ele>1270.2495117188</ele>
        <time>2010-05-29T10:17:08Z</time>
      </trkpt>
      <trkpt lat="46.87702" lon="6.63329">
        <ele>1264.5958251953</ele>
        <time>2010-05-29T10:17:14Z</time>
      </trkpt>
      <trkpt lat="46.87701" lon="6.63336">
        <ele>1263.6173095703</ele>
        <time>2010-05-29T10:17:15Z</time>
      </trkpt>
      <trkpt lat="46.87697" lon="6.63374">
        <ele>1259.0723876953</ele>
        <time>2010-05-29T10:17:20Z</time>
      </trkpt>
      <trkpt lat="46.8769" lon="6.63407">
        <ele>1256.7103271484</ele>
        <time>2010-05-29T10:17:24Z</time>
      </trkpt>
      <trkpt lat="46.87688" lon="6.63453">
        <ele>1253.4144287109</ele>
        <time>2010-05-29T10:17:29Z</time>
      </trkpt>
      <trkpt lat="46.87679" lon="6.63474">
        <ele>1251.8488769531</ele>
        <time>2010-05-29T10:17:33Z</time>
      </trkpt>
      <trkpt lat="46.87677" lon="6.63479">
        <ele>1251.5399169922</ele>
        <time>2010-05-29T10:17:34Z</time>
      </trkpt>
      <trkpt lat="46.87662" lon="6.63509">
        <ele>1249.1756591797</ele>
        <time>2010-05-29T10:17:39Z</time>
      </trkpt>
      <trkpt lat="46.87654" lon="6.63529">
        <ele>1247.458984375</ele>
        <time>2010-05-29T10:17:43Z</time>
      </trkpt>
      <trkpt lat="46.87646" lon="6.63546">
        <ele>1245.9106445312</ele>
        <time>2010-05-29T10:17:49Z</time>
      </trkpt>
      <trkpt lat="46.87644" lon="6.63551">
        <ele>1245.5329589844</ele>
        <time>2010-05-29T10:17:50Z</time>
      </trkpt>
      <trkpt lat="46.87634" lon="6.63567">
        <ele>1243.4439697266</ele>
        <time>2010-05-29T10:17:54Z</time>
      </trkpt>
      <trkpt lat="46.87632" lon="6.63573">
        <ele>1242.8481445312</ele>
        <time>2010-05-29T10:17:55Z</time>
      </trkpt>
      <trkpt lat="46.87628" lon="6.63588">
        <ele>1241.5549316406</ele>
        <time>2010-05-29T10:17:57Z</time>
      </trkpt>
      <trkpt lat="46.87625" lon="6.63604">
        <ele>1240.3413085938</ele>
        <time>2010-05-29T10:17:59Z</time>
      </trkpt>
      <trkpt lat="46.87619" lon="6.63633">
        <ele>1238.8151855469</ele>
        <time>2010-05-29T10:18:04Z</time>
      </trkpt>
      <trkpt lat="46.87611" lon="6.6367">
        <ele>1237.8825683594</ele>
        <time>2010-05-29T10:18:10Z</time>
      </trkpt>
      <trkpt lat="46.87608" lon="6.63694">
        <ele>1236.6306152344</ele>
        <time>2010-05-29T10:18:15Z</time>
      </trkpt>
      <trkpt lat="46.87608" lon="6.63694">
        <ele>1236.6271972656</ele>
        <time>2010-05-29T10:18:16Z</time>
      </trkpt>
      <trkpt lat="46.87607" lon="6.63696">
        <ele>1236.4794921875</ele>
        <time>2010-05-29T10:18:25Z</time>
      </trkpt>
      <trkpt lat="46.87605" lon="6.63699">
        <ele>1236.19140625</ele>
        <time>2010-05-29T10:18:30Z</time>
      </trkpt>
      <trkpt lat="46.87603" lon="6.63701">
        <ele>1235.9490966797</ele>
        <time>2010-05-29T10:18:33Z</time>
      </trkpt>
      <trkpt lat="46.87603" lon="6.63704">
        <ele>1235.8725585938</ele>
        <time>2010-05-29T10:18:37Z</time>
      </trkpt>
      <trkpt lat="46.876" lon="6.63711">
        <ele>1235.4753417969</ele>
        <time>2010-05-29T10:18:49Z</time>
      </trkpt>
      <trkpt lat="46.87595" lon="6.63722">
        <ele>1234.8685302734</ele>
        <time>2010-05-29T10:18:53Z</time>
      </trkpt>
      <trkpt lat="46.87585" lon="6.63724">
        <ele>1234.0954589844</ele>
        <time>2010-05-29T10:18:58Z</time>
      </trkpt>
      <trkpt lat="46.87583" lon="6.63722">
        <ele>1233.9813232422</ele>
        <time>2010-05-29T10:18:59Z</time>
      </trkpt>
      <trkpt lat="46.87574" lon="6.63712">
        <ele>1232.9514160156</ele>
        <time>2010-05-29T10:19:03Z</time>
      </trkpt>
      <trkpt lat="46.87565" lon="6.63708">
        <ele>1232.0037841797</ele>
        <time>2010-05-29T10:19:07Z</time>
      </trkpt>
      <trkpt lat="46.87563" lon="6.63702">
        <ele>1231.7565917969</ele>
        <time>2010-05-29T10:19:11Z</time>
      </trkpt>
      <trkpt lat="46.87566" lon="6.63704">
        <ele>1232.0861816406</ele>
        <time>2010-05-29T10:19:13Z</time>
      </trkpt>
      <trkpt lat="46.87574" lon="6.63713">
        <ele>1232.9925537109</ele>
        <time>2010-05-29T10:19:19Z</time>
      </trkpt>
      <trkpt lat="46.87575" lon="6.63717">
        <ele>1233.0749511719</ele>
        <time>2010-05-29T10:19:23Z</time>
      </trkpt>
      <trkpt lat="46.87574" lon="6.63715">
        <ele>1232.9925537109</ele>
        <time>2010-05-29T10:19:53Z</time>
      </trkpt>
      <trkpt lat="46.87574" lon="6.63715">
        <ele>1232.9925537109</ele>
        <time>2010-05-29T10:19:54Z</time>
      </trkpt>
      <trkpt lat="46.87572" lon="6.63717">
        <ele>1232.8277587891</ele>
        <time>2010-05-29T10:20:25Z</time>
      </trkpt>
      <trkpt lat="46.87572" lon="6.63717">
        <ele>1232.7453613281</ele>
        <time>2010-05-29T10:20:26Z</time>
      </trkpt>
      <trkpt lat="46.87569" lon="6.63722">
        <ele>1232.4549560547</ele>
        <time>2010-05-29T10:20:31Z</time>
      </trkpt>
      <trkpt lat="46.87568" lon="6.63723">
        <ele>1232.3314208984</ele>
        <time>2010-05-29T10:20:34Z</time>
      </trkpt>
      <trkpt lat="46.87567" lon="6.63724">
        <ele>1232.1459960938</ele>
        <time>2010-05-29T10:21:12Z</time>
      </trkpt>
      <trkpt lat="46.87566" lon="6.63725">
        <ele>1231.9794921875</ele>
        <time>2010-05-29T10:21:13Z</time>
      </trkpt>
      <trkpt lat="46.87555" lon="6.63738">
        <ele>1230.3544921875</ele>
        <time>2010-05-29T10:21:21Z</time>
      </trkpt>
      <trkpt lat="46.87551" lon="6.63746">
        <ele>1229.6782226562</ele>
        <time>2010-05-29T10:21:26Z</time>
      </trkpt>
      <trkpt lat="46.87547" lon="6.63756">
        <ele>1228.9595947266</ele>
        <time>2010-05-29T10:21:54Z</time>
      </trkpt>
      <trkpt lat="46.8754" lon="6.63768">
        <ele>1227.9660644531</ele>
        <time>2010-05-29T10:21:58Z</time>
      </trkpt>
      <trkpt lat="46.87524" lon="6.63792">
        <ele>1225.7303466797</ele>
        <time>2010-05-29T10:22:06Z</time>
      </trkpt>
      <trkpt lat="46.87511" lon="6.63816">
        <ele>1224.7965087891</ele>
        <time>2010-05-29T10:22:13Z</time>
      </trkpt>
      <trkpt lat="46.875" lon="6.63835">
        <ele>1224</ele>
        <time>2010-05-29T10:22:19Z</time>
      </trkpt>
      <trkpt lat="46.87491" lon="6.63845">
        <ele>1223.0524902344</ele>
        <time>2010-05-29T10:22:23Z</time>
      </trkpt>
      <trkpt lat="46.87472" lon="6.63867">
        <ele>1221.1915283203</ele>
        <time>2010-05-29T10:22:32Z</time>
      </trkpt>
      <trkpt lat="46.87461" lon="6.63882">
        <ele>1221.4406738281</ele>
        <time>2010-05-29T10:22:38Z</time>
      </trkpt>
      <trkpt lat="46.87453" lon="6.63895">
        <ele>1221.4489746094</ele>
        <time>2010-05-29T10:22:43Z</time>
      </trkpt>
      <trkpt lat="46.87443" lon="6.63912">
        <ele>1221.8358154297</ele>
        <time>2010-05-29T10:22:50Z</time>
      </trkpt>
      <trkpt lat="46.87436" lon="6.63925">
        <ele>1222</ele>
        <time>2010-05-29T10:22:55Z</time>
      </trkpt>
      <trkpt lat="46.87425" lon="6.63941">
        <ele>1222</ele>
        <time>2010-05-29T10:23:02Z</time>
      </trkpt>
      <trkpt lat="46.87411" lon="6.6396">
        <ele>1222.75390625</ele>
        <time>2010-05-29T10:23:12Z</time>
      </trkpt>
      <trkpt lat="46.87401" lon="6.63975">
        <ele>1223.6197509766</ele>
        <time>2010-05-29T10:23:20Z</time>
      </trkpt>
      <trkpt lat="46.87389" lon="6.6399">
        <ele>1224.6483154297</ele>
        <time>2010-05-29T10:23:29Z</time>
      </trkpt>
      <trkpt lat="46.87381" lon="6.64">
        <ele>1225.2740478516</ele>
        <time>2010-05-29T10:23:35Z</time>
      </trkpt>
      <trkpt lat="46.87369" lon="6.64011">
        <ele>1226.0184326172</ele>
        <time>2010-05-29T10:23:43Z</time>
      </trkpt>
      <trkpt lat="46.87352" lon="6.64026">
        <ele>1227.6470947266</ele>
        <time>2010-05-29T10:23:54Z</time>
      </trkpt>
      <trkpt lat="46.87344" lon="6.64036">
        <ele>1228.5324707031</ele>
        <time>2010-05-29T10:24:00Z</time>
      </trkpt>
      <trkpt lat="46.87339" lon="6.64042">
        <ele>1229.0783691406</ele>
        <time>2010-05-29T10:24:05Z</time>
      </trkpt>
      <trkpt lat="46.87335" lon="6.64045">
        <ele>1229.4680175781</ele>
        <time>2010-05-29T10:24:16Z</time>
      </trkpt>
      <trkpt lat="46.87332" lon="6.64051">
        <ele>1229.998046875</ele>
        <time>2010-05-29T10:24:22Z</time>
      </trkpt>
      <trkpt lat="46.87331" lon="6.64051">
        <ele>1230.0461425781</ele>
        <time>2010-05-29T10:24:24Z</time>
      </trkpt>
      <trkpt lat="46.87328" lon="6.64055">
        <ele>1230.5336914062</ele>
        <time>2010-05-29T10:24:34Z</time>
      </trkpt>
      <trkpt lat="46.87326" lon="6.64061">
        <ele>1230.9782714844</ele>
        <time>2010-05-29T10:24:38Z</time>
      </trkpt>
      <trkpt lat="46.87321" lon="6.64074">
        <ele>1231.9962158203</ele>
        <time>2010-05-29T10:24:45Z</time>
      </trkpt>
      <trkpt lat="46.8732" lon="6.64081">
        <ele>1232.4064941406</ele>
        <time>2010-05-29T10:24:48Z</time>
      </trkpt>
      <trkpt lat="46.8732" lon="6.64088">
        <ele>1232.6485595703</ele>
        <time>2010-05-29T10:24:51Z</time>
      </trkpt>
      <trkpt lat="46.87317" lon="6.64105">
        <ele>1233.513671875</ele>
        <time>2010-05-29T10:24:57Z</time>
      </trkpt>
      <trkpt lat="46.87317" lon="6.64125">
        <ele>1233.9425048828</ele>
        <time>2010-05-29T10:25:05Z</time>
      </trkpt>
      <trkpt lat="46.87317" lon="6.64127">
        <ele>1234.0438232422</ele>
        <time>2010-05-29T10:25:06Z</time>
      </trkpt>
      <trkpt lat="46.87312" lon="6.64134">
        <ele>1234.5325927734</ele>
        <time>2010-05-29T10:25:10Z</time>
      </trkpt>
      <trkpt lat="46.87304" lon="6.64139">
        <ele>1235.0899658203</ele>
        <time>2010-05-29T10:25:15Z</time>
      </trkpt>
      <trkpt lat="46.87297" lon="6.64142">
        <ele>1235.6118164062</ele>
        <time>2010-05-29T10:25:21Z</time>
      </trkpt>
      <trkpt lat="46.87289" lon="6.64143">
        <ele>1236.2160644531</ele>
        <time>2010-05-29T10:25:28Z</time>
      </trkpt>
      <trkpt lat="46.87283" lon="6.64151">
        <ele>1236.6555175781</ele>
        <time>2010-05-29T10:25:35Z</time>
      </trkpt>
      <trkpt lat="46.87278" lon="6.6416">
        <ele>1237.0063476562</ele>
        <time>2010-05-29T10:25:41Z</time>
      </trkpt>
      <trkpt lat="46.87275" lon="6.64172">
        <ele>1237.1363525391</ele>
        <time>2010-05-29T10:25:50Z</time>
      </trkpt>
      <trkpt lat="46.87273" lon="6.64178">
        <ele>1237.2595214844</ele>
        <time>2010-05-29T10:25:57Z</time>
      </trkpt>
      <trkpt lat="46.8727" lon="6.64183">
        <ele>1237.4479980469</ele>
        <time>2010-05-29T10:26:03Z</time>
      </trkpt>
      <trkpt lat="46.87268" lon="6.64184">
        <ele>1237.5500488281</ele>
        <time>2010-05-29T10:26:05Z</time>
      </trkpt>
      <trkpt lat="46.87264" lon="6.64192">
        <ele>1237.9378662109</ele>
        <time>2010-05-29T10:26:11Z</time>
      </trkpt>
      <trkpt lat="46.87262" lon="6.64205">
        <ele>1238.3071289062</ele>
        <time>2010-05-29T10:26:19Z</time>
      </trkpt>
      <trkpt lat="46.87259" lon="6.64218">
        <ele>1238.6462402344</ele>
        <time>2010-05-29T10:26:28Z</time>
      </trkpt>
      <trkpt lat="46.87258" lon="6.64229">
        <ele>1238.7066650391</ele>
        <time>2010-05-29T10:26:35Z</time>
      </trkpt>
      <trkpt lat="46.87257" lon="6.64231">
        <ele>1238.7341308594</ele>
        <time>2010-05-29T10:26:37Z</time>
      </trkpt>
      <trkpt lat="46.87254" lon="6.64244">
        <ele>1238.8576660156</ele>
        <time>2010-05-29T10:26:44Z</time>
      </trkpt>
      <trkpt lat="46.87252" lon="6.64256">
        <ele>1239.1169433594</ele>
        <time>2010-05-29T10:26:50Z</time>
      </trkpt>
      <trkpt lat="46.8725" lon="6.64267">
        <ele>1239.7039794922</ele>
        <time>2010-05-29T10:26:56Z</time>
      </trkpt>
      <trkpt lat="46.87247" lon="6.64292">
        <ele>1241.1551513672</ele>
        <time>2010-05-29T10:27:04Z</time>
      </trkpt>
      <trkpt lat="46.87247" lon="6.64305">
        <ele>1241.4200439453</ele>
        <time>2010-05-29T10:27:09Z</time>
      </trkpt>
      <trkpt lat="46.87244" lon="6.64318">
        <ele>1242.9522705078</ele>
        <time>2010-05-29T10:27:16Z</time>
      </trkpt>
      <trkpt lat="46.87241" lon="6.64332">
        <ele>1244.7003173828</ele>
        <time>2010-05-29T10:27:23Z</time>
      </trkpt>
      <trkpt lat="46.87239" lon="6.6434">
        <ele>1245.7097167969</ele>
        <time>2010-05-29T10:27:28Z</time>
      </trkpt>
      <trkpt lat="46.87236" lon="6.64348">
        <ele>1247.6669921875</ele>
        <time>2010-05-29T10:27:33Z</time>
      </trkpt>
      <trkpt lat="46.87233" lon="6.6435">
        <ele>1249.2250976562</ele>
        <time>2010-05-29T10:27:38Z</time>
      </trkpt>
      <trkpt lat="46.87233" lon="6.64345">
        <ele>1249.3269042969</ele>
        <time>2010-05-29T10:27:43Z</time>
      </trkpt>
      <trkpt lat="46.87229" lon="6.64335">
        <ele>1250.7847900391</ele>
        <time>2010-05-29T10:27:52Z</time>
      </trkpt>
      <trkpt lat="46.87227" lon="6.64328">
        <ele>1251.1745605469</ele>
        <time>2010-05-29T10:27:57Z</time>
      </trkpt>
      <trkpt lat="46.87226" lon="6.64325">
        <ele>1251.7110595703</ele>
        <time>2010-05-29T10:28:00Z</time>
      </trkpt>
      <trkpt lat="46.87222" lon="6.64313">
        <ele>1252.7452392578</ele>
        <time>2010-05-29T10:28:07Z</time>
      </trkpt>
      <trkpt lat="46.87219" lon="6.64311">
        <ele>1253.2094726562</ele>
        <time>2010-05-29T10:28:09Z</time>
      </trkpt>
      <trkpt lat="46.87217" lon="6.64302">
        <ele>1253.2979736328</ele>
        <time>2010-05-29T10:28:15Z</time>
      </trkpt>
      <trkpt lat="46.87211" lon="6.64294">
        <ele>1254.3210449219</ele>
        <time>2010-05-29T10:28:22Z</time>
      </trkpt>
      <trkpt lat="46.87209" lon="6.64287">
        <ele>1254.5786132812</ele>
        <time>2010-05-29T10:28:27Z</time>
      </trkpt>
      <trkpt lat="46.87206" lon="6.64276">
        <ele>1254.7456054688</ele>
        <time>2010-05-29T10:28:34Z</time>
      </trkpt>
      <trkpt lat="46.87203" lon="6.64264">
        <ele>1254.9382324219</ele>
        <time>2010-05-29T10:28:39Z</time>
      </trkpt>
      <trkpt lat="46.872" lon="6.64245">
        <ele>1254.9781494141</ele>
        <time>2010-05-29T10:28:45Z</time>
      </trkpt>
      <trkpt lat="46.87198" lon="6.6424">
        <ele>1255.5170898438</ele>
        <time>2010-05-29T10:28:48Z</time>
      </trkpt>
      <trkpt lat="46.87196" lon="6.64235">
        <ele>1256.0938720703</ele>
        <time>2010-05-29T10:28:51Z</time>
      </trkpt>
      <trkpt lat="46.87194" lon="6.64231">
        <ele>1256.4334716797</ele>
        <time>2010-05-29T10:28:55Z</time>
      </trkpt>
      <trkpt lat="46.8719" lon="6.64223">
        <ele>1256.6875</ele>
        <time>2010-05-29T10:29:07Z</time>
      </trkpt>
      <trkpt lat="46.87182" lon="6.64208">
        <ele>1257.0333251953</ele>
        <time>2010-05-29T10:29:14Z</time>
      </trkpt>
      <trkpt lat="46.87175" lon="6.64196">
        <ele>1257.5711669922</ele>
        <time>2010-05-29T10:29:20Z</time>
      </trkpt>
      <trkpt lat="46.87171" lon="6.64191">
        <ele>1258.1182861328</ele>
        <time>2010-05-29T10:29:26Z</time>
      </trkpt>
      <trkpt lat="46.87167" lon="6.64185">
        <ele>1258.6179199219</ele>
        <time>2010-05-29T10:29:30Z</time>
      </trkpt>
      <trkpt lat="46.87162" lon="6.64173">
        <ele>1259.4754638672</ele>
        <time>2010-05-29T10:29:36Z</time>
      </trkpt>
      <trkpt lat="46.87154" lon="6.64157">
        <ele>1261.1448974609</ele>
        <time>2010-05-29T10:29:43Z</time>
      </trkpt>
      <trkpt lat="46.87152" lon="6.64154">
        <ele>1261.3968505859</ele>
        <time>2010-05-29T10:29:46Z</time>
      </trkpt>
      <trkpt lat="46.87147" lon="6.64142">
        <ele>1262.1047363281</ele>
        <time>2010-05-29T10:29:55Z</time>
      </trkpt>
      <trkpt lat="46.87143" lon="6.64136">
        <ele>1262.7772216797</ele>
        <time>2010-05-29T10:30:02Z</time>
      </trkpt>
      <trkpt lat="46.87141" lon="6.64128">
        <ele>1262.98828125</ele>
        <time>2010-05-29T10:30:09Z</time>
      </trkpt>
      <trkpt lat="46.87138" lon="6.64114">
        <ele>1263.2218017578</ele>
        <time>2010-05-29T10:30:18Z</time>
      </trkpt>
      <trkpt lat="46.87135" lon="6.64105">
        <ele>1263.5008544922</ele>
        <time>2010-05-29T10:30:24Z</time>
      </trkpt>
      <trkpt lat="46.87132" lon="6.64095">
        <ele>1263.7653808594</ele>
        <time>2010-05-29T10:30:32Z</time>
      </trkpt>
      <trkpt lat="46.8713" lon="6.64091">
        <ele>1263.9488525391</ele>
        <time>2010-05-29T10:30:37Z</time>
      </trkpt>
      <trkpt lat="46.87128" lon="6.64085">
        <ele>1264.3392333984</ele>
        <time>2010-05-29T10:30:44Z</time>
      </trkpt>
      <trkpt lat="46.87123" lon="6.64079">
        <ele>1265.1871337891</ele>
        <time>2010-05-29T10:30:49Z</time>
      </trkpt>
      <trkpt lat="46.87118" lon="6.64067">
        <ele>1265.9270019531</ele>
        <time>2010-05-29T10:30:58Z</time>
      </trkpt>
      <trkpt lat="46.87111" lon="6.64056">
        <ele>1267.1877441406</ele>
        <time>2010-05-29T10:31:07Z</time>
      </trkpt>
      <trkpt lat="46.87102" lon="6.64052">
        <ele>1268.8198242188</ele>
        <time>2010-05-29T10:31:14Z</time>
      </trkpt>
      <trkpt lat="46.87096" lon="6.64055">
        <ele>1270.3286132812</ele>
        <time>2010-05-29T10:31:21Z</time>
      </trkpt>
      <trkpt lat="46.8709" lon="6.64058">
        <ele>1271.7639160156</ele>
        <time>2010-05-29T10:31:28Z</time>
      </trkpt>
      <trkpt lat="46.87082" lon="6.6406">
        <ele>1273.5113525391</ele>
        <time>2010-05-29T10:31:35Z</time>
      </trkpt>
      <trkpt lat="46.87071" lon="6.6406">
        <ele>1276.1470947266</ele>
        <time>2010-05-29T10:31:41Z</time>
      </trkpt>
      <trkpt lat="46.87061" lon="6.64059">
        <ele>1278.7652587891</ele>
        <time>2010-05-29T10:31:48Z</time>
      </trkpt>
      <trkpt lat="46.87053" lon="6.64059">
        <ele>1280.4270019531</ele>
        <time>2010-05-29T10:31:54Z</time>
      </trkpt>
      <trkpt lat="46.87045" lon="6.64065">
        <ele>1282.0887451172</ele>
        <time>2010-05-29T10:31:59Z</time>
      </trkpt>
      <trkpt lat="46.87041" lon="6.64067">
        <ele>1282.9379882812</ele>
        <time>2010-05-29T10:32:03Z</time>
      </trkpt>
      <trkpt lat="46.8703" lon="6.6407">
        <ele>1285.5368652344</ele>
        <time>2010-05-29T10:32:11Z</time>
      </trkpt>
      <trkpt lat="46.87019" lon="6.64071">
        <ele>1289.9212646484</ele>
        <time>2010-05-29T10:32:17Z</time>
      </trkpt>
      <trkpt lat="46.87018" lon="6.6407">
        <ele>1290.5179443359</ele>
        <time>2010-05-29T10:32:19Z</time>
      </trkpt>
      <trkpt lat="46.87009" lon="6.64068">
        <ele>1294.4216308594</ele>
        <time>2010-05-29T10:32:35Z</time>
      </trkpt>
      <trkpt lat="46.87" lon="6.64062">
        <ele>1297.6083984375</ele>
        <time>2010-05-29T10:32:40Z</time>
      </trkpt>
      <trkpt lat="46.86993" lon="6.64058">
        <ele>1302.5313720703</ele>
        <time>2010-05-29T10:32:46Z</time>
      </trkpt>
      <trkpt lat="46.86985" lon="6.64056">
        <ele>1308.1140136719</ele>
        <time>2010-05-29T10:33:03Z</time>
      </trkpt>
      <trkpt lat="46.86985" lon="6.64056">
        <ele>1308.1270751953</ele>
        <time>2010-05-29T10:33:04Z</time>
      </trkpt>
      <trkpt lat="46.86985" lon="6.64057">
        <ele>1308.1335449219</ele>
        <time>2010-05-29T10:33:05Z</time>
      </trkpt>
      <trkpt lat="46.86984" lon="6.64056">
        <ele>1308.6365966797</ele>
        <time>2010-05-29T10:33:12Z</time>
      </trkpt>
      <trkpt lat="46.86983" lon="6.64056">
        <ele>1308.9482421875</ele>
        <time>2010-05-29T10:33:13Z</time>
      </trkpt>
      <trkpt lat="46.86983" lon="6.64057">
        <ele>1309.5349121094</ele>
        <time>2010-05-29T10:33:14Z</time>
      </trkpt>
      <trkpt lat="46.86987" lon="6.64056">
        <ele>1306.7514648438</ele>
        <time>2010-05-29T10:34:20Z</time>
      </trkpt>
      <trkpt lat="46.86976" lon="6.64046">
        <ele>1313.9638671875</ele>
        <time>2010-05-29T10:34:25Z</time>
      </trkpt>
      <trkpt lat="46.86959" lon="6.64032">
        <ele>1314.5701904297</ele>
        <time>2010-05-29T10:34:30Z</time>
      </trkpt>
      <trkpt lat="46.86948" lon="6.64024">
        <ele>1312.6423339844</ele>
        <time>2010-05-29T10:34:34Z</time>
      </trkpt>
      <trkpt lat="46.8694" lon="6.64021">
        <ele>1311.1229248047</ele>
        <time>2010-05-29T10:34:36Z</time>
      </trkpt>
      <trkpt lat="46.86929" lon="6.64014">
        <ele>1308.5686035156</ele>
        <time>2010-05-29T10:34:39Z</time>
      </trkpt>
      <trkpt lat="46.86921" lon="6.64014">
        <ele>1306.8382568359</ele>
        <time>2010-05-29T10:34:41Z</time>
      </trkpt>
      <trkpt lat="46.86912" lon="6.64017">
        <ele>1304.9431152344</ele>
        <time>2010-05-29T10:34:43Z</time>
      </trkpt>
      <trkpt lat="46.86903" lon="6.64017">
        <ele>1303.1303710938</ele>
        <time>2010-05-29T10:34:45Z</time>
      </trkpt>
      <trkpt lat="46.86885" lon="6.64004">
        <ele>1299.6976318359</ele>
        <time>2010-05-29T10:34:49Z</time>
      </trkpt>
      <trkpt lat="46.86868" lon="6.63986">
        <ele>1298.0971679688</ele>
        <time>2010-05-29T10:34:52Z</time>
      </trkpt>
      <trkpt lat="46.86848" lon="6.63953">
        <ele>1295.08984375</ele>
        <time>2010-05-29T10:34:56Z</time>
      </trkpt>
      <trkpt lat="46.8684" lon="6.63937">
        <ele>1294.1551513672</ele>
        <time>2010-05-29T10:34:58Z</time>
      </trkpt>
      <trkpt lat="46.86822" lon="6.63906">
        <ele>1291.6198730469</ele>
        <time>2010-05-29T10:35:03Z</time>
      </trkpt>
      <trkpt lat="46.86813" lon="6.63888">
        <ele>1291.0267333984</ele>
        <time>2010-05-29T10:35:06Z</time>
      </trkpt>
      <trkpt lat="46.86782" lon="6.63829">
        <ele>1288.1424560547</ele>
        <time>2010-05-29T10:35:16Z</time>
      </trkpt>
      <trkpt lat="46.86761" lon="6.63794">
        <ele>1284.6883544922</ele>
        <time>2010-05-29T10:35:22Z</time>
      </trkpt>
      <trkpt lat="46.86748" lon="6.6377">
        <ele>1281.2984619141</ele>
        <time>2010-05-29T10:35:27Z</time>
      </trkpt>
      <trkpt lat="46.86737" lon="6.63756">
        <ele>1280.3653564453</ele>
        <time>2010-05-29T10:35:30Z</time>
      </trkpt>
      <trkpt lat="46.8671" lon="6.63731">
        <ele>1277.2474365234</ele>
        <time>2010-05-29T10:35:36Z</time>
      </trkpt>
      <trkpt lat="46.86689" lon="6.6372">
        <ele>1273.9805908203</ele>
        <time>2010-05-29T10:35:40Z</time>
      </trkpt>
      <trkpt lat="46.86671" lon="6.63699">
        <ele>1269.3580322266</ele>
        <time>2010-05-29T10:35:44Z</time>
      </trkpt>
      <trkpt lat="46.86663" lon="6.63679">
        <ele>1266.7893066406</ele>
        <time>2010-05-29T10:35:47Z</time>
      </trkpt>
      <trkpt lat="46.86657" lon="6.63648">
        <ele>1266.1643066406</ele>
        <time>2010-05-29T10:35:51Z</time>
      </trkpt>
      <trkpt lat="46.86656" lon="6.63634">
        <ele>1267.2633056641</ele>
        <time>2010-05-29T10:35:53Z</time>
      </trkpt>
      <trkpt lat="46.86647" lon="6.63602">
        <ele>1268.5031738281</ele>
        <time>2010-05-29T10:35:58Z</time>
      </trkpt>
      <trkpt lat="46.86641" lon="6.63591">
        <ele>1267.9093017578</ele>
        <time>2010-05-29T10:36:00Z</time>
      </trkpt>
      <trkpt lat="46.86629" lon="6.63569">
        <ele>1267.494140625</ele>
        <time>2010-05-29T10:36:05Z</time>
      </trkpt>
      <trkpt lat="46.86615" lon="6.63547">
        <ele>1266.6613769531</ele>
        <time>2010-05-29T10:36:10Z</time>
      </trkpt>
      <trkpt lat="46.8661" lon="6.63541">
        <ele>1266.3864746094</ele>
        <time>2010-05-29T10:36:11Z</time>
      </trkpt>
      <trkpt lat="46.86596" lon="6.63524">
        <ele>1263.7944335938</ele>
        <time>2010-05-29T10:36:14Z</time>
      </trkpt>
      <trkpt lat="46.86579" lon="6.63507">
        <ele>1259.4210205078</ele>
        <time>2010-05-29T10:36:17Z</time>
      </trkpt>
      <trkpt lat="46.86557" lon="6.63483">
        <ele>1258.4356689453</ele>
        <time>2010-05-29T10:36:22Z</time>
      </trkpt>
      <trkpt lat="46.86537" lon="6.63449">
        <ele>1256.3529052734</ele>
        <time>2010-05-29T10:36:27Z</time>
      </trkpt>
      <trkpt lat="46.865" lon="6.63377">
        <ele>1253.4573974609</ele>
        <time>2010-05-29T10:36:34Z</time>
      </trkpt>
      <trkpt lat="46.86468" lon="6.63321">
        <ele>1251.0804443359</ele>
        <time>2010-05-29T10:36:39Z</time>
      </trkpt>
      <trkpt lat="46.86439" lon="6.63262">
        <ele>1250.8190917969</ele>
        <time>2010-05-29T10:36:44Z</time>
      </trkpt>
      <trkpt lat="46.8643" lon="6.63241">
        <ele>1250.4822998047</ele>
        <time>2010-05-29T10:36:46Z</time>
      </trkpt>
      <trkpt lat="46.86398" lon="6.63193">
        <ele>1248.7445068359</ele>
        <time>2010-05-29T10:36:51Z</time>
      </trkpt>
      <trkpt lat="46.86361" lon="6.63142">
        <ele>1244.86328125</ele>
        <time>2010-05-29T10:36:56Z</time>
      </trkpt>
      <trkpt lat="46.86334" lon="6.63103">
        <ele>1239.7635498047</ele>
        <time>2010-05-29T10:37:00Z</time>
      </trkpt>
      <trkpt lat="46.86303" lon="6.63067">
        <ele>1235.8532714844</ele>
        <time>2010-05-29T10:37:04Z</time>
      </trkpt>
      <trkpt lat="46.86268" lon="6.63034">
        <ele>1227.5130615234</ele>
        <time>2010-05-29T10:37:09Z</time>
      </trkpt>
      <trkpt lat="46.86228" lon="6.6299">
        <ele>1222.1564941406</ele>
        <time>2010-05-29T10:37:14Z</time>
      </trkpt>
      <trkpt lat="46.86206" lon="6.62966">
        <ele>1219.0649414062</ele>
        <time>2010-05-29T10:37:17Z</time>
      </trkpt>
      <trkpt lat="46.8619" lon="6.62953">
        <ele>1216.7766113281</ele>
        <time>2010-05-29T10:37:21Z</time>
      </trkpt>
      <trkpt lat="46.86188" lon="6.62951">
        <ele>1216.6048583984</ele>
        <time>2010-05-29T10:37:22Z</time>
      </trkpt>
      <trkpt lat="46.86177" lon="6.62932">
        <ele>1216.1778564453</ele>
        <time>2010-05-29T10:37:27Z</time>
      </trkpt>
      <trkpt lat="46.86169" lon="6.62913">
        <ele>1215.7941894531</ele>
        <time>2010-05-29T10:37:32Z</time>
      </trkpt>
      <trkpt lat="46.86164" lon="6.62894">
        <ele>1216.9979248047</ele>
        <time>2010-05-29T10:37:37Z</time>
      </trkpt>
      <trkpt lat="46.86163" lon="6.62889">
        <ele>1217.1654052734</ele>
        <time>2010-05-29T10:37:41Z</time>
      </trkpt>
      <trkpt lat="46.86164" lon="6.6288">
        <ele>1217.7047119141</ele>
        <time>2010-05-29T10:38:23Z</time>
      </trkpt>
      <trkpt lat="46.86163" lon="6.62875">
        <ele>1217.6967773438</ele>
        <time>2010-05-29T10:38:24Z</time>
      </trkpt>
      <trkpt lat="46.86158" lon="6.6286">
        <ele>1217.6322021484</ele>
        <time>2010-05-29T10:38:27Z</time>
      </trkpt>
      <trkpt lat="46.86153" lon="6.62844">
        <ele>1218.1864013672</ele>
        <time>2010-05-29T10:38:30Z</time>
      </trkpt>
      <trkpt lat="46.86142" lon="6.62813">
        <ele>1218.2392578125</ele>
        <time>2010-05-29T10:38:35Z</time>
      </trkpt>
      <trkpt lat="46.86139" lon="6.62806">
        <ele>1218.0778808594</ele>
        <time>2010-05-29T10:38:36Z</time>
      </trkpt>
      <trkpt lat="46.86117" lon="6.62779">
        <ele>1215.9895019531</ele>
        <time>2010-05-29T10:38:41Z</time>
      </trkpt>
      <trkpt lat="46.86106" lon="6.62773">
        <ele>1214.5338134766</ele>
        <time>2010-05-29T10:38:43Z</time>
      </trkpt>
      <trkpt lat="46.86082" lon="6.62743">
        <ele>1212.5559082031</ele>
        <time>2010-05-29T10:38:49Z</time>
      </trkpt>
      <trkpt lat="46.86078" lon="6.62728">
        <ele>1212.7825927734</ele>
        <time>2010-05-29T10:38:51Z</time>
      </trkpt>
      <trkpt lat="46.86071" lon="6.6269">
        <ele>1214.0399169922</ele>
        <time>2010-05-29T10:38:56Z</time>
      </trkpt>
      <trkpt lat="46.86056" lon="6.62651">
        <ele>1213.1983642578</ele>
        <time>2010-05-29T10:39:02Z</time>
      </trkpt>
      <trkpt lat="46.86036" lon="6.62611">
        <ele>1212.6667480469</ele>
        <time>2010-05-29T10:39:08Z</time>
      </trkpt>
      <trkpt lat="46.86008" lon="6.6256">
        <ele>1211.388671875</ele>
        <time>2010-05-29T10:39:15Z</time>
      </trkpt>
      <trkpt lat="46.85978" lon="6.62496">
        <ele>1210.8175048828</ele>
        <time>2010-05-29T10:39:23Z</time>
      </trkpt>
      <trkpt lat="46.85951" lon="6.62444">
        <ele>1207.4378662109</ele>
        <time>2010-05-29T10:39:30Z</time>
      </trkpt>
      <trkpt lat="46.85934" lon="6.6241">
        <ele>1205.1572265625</ele>
        <time>2010-05-29T10:39:35Z</time>
      </trkpt>
      <trkpt lat="46.8591" lon="6.62362">
        <ele>1204.1682128906</ele>
        <time>2010-05-29T10:39:42Z</time>
      </trkpt>
      <trkpt lat="46.85896" lon="6.62334">
        <ele>1202.2308349609</ele>
        <time>2010-05-29T10:39:46Z</time>
      </trkpt>
      <trkpt lat="46.85883" lon="6.62308">
        <ele>1201.2987060547</ele>
        <time>2010-05-29T10:39:50Z</time>
      </trkpt>
      <trkpt lat="46.85868" lon="6.62271">
        <ele>1200.2512207031</ele>
        <time>2010-05-29T10:39:55Z</time>
      </trkpt>
      <trkpt lat="46.85855" lon="6.62214">
        <ele>1200.3016357422</ele>
        <time>2010-05-29T10:40:02Z</time>
      </trkpt>
      <trkpt lat="46.85846" lon="6.62166">
        <ele>1202.6987304688</ele>
        <time>2010-05-29T10:40:08Z</time>
      </trkpt>
      <trkpt lat="46.85843" lon="6.62158">
        <ele>1202.8420410156</ele>
        <time>2010-05-29T10:40:09Z</time>
      </trkpt>
      <trkpt lat="46.8582" lon="6.62119">
        <ele>1200.6663818359</ele>
        <time>2010-05-29T10:40:15Z</time>
      </trkpt>
      <trkpt lat="46.85808" lon="6.62098">
        <ele>1199.4436035156</ele>
        <time>2010-05-29T10:40:18Z</time>
      </trkpt>
      <trkpt lat="46.85795" lon="6.62051">
        <ele>1199.5629882812</ele>
        <time>2010-05-29T10:40:24Z</time>
      </trkpt>
      <trkpt lat="46.85782" lon="6.61987">
        <ele>1201.6936035156</ele>
        <time>2010-05-29T10:40:32Z</time>
      </trkpt>
      <trkpt lat="46.85776" lon="6.61918">
        <ele>1203.6374511719</ele>
        <time>2010-05-29T10:40:40Z</time>
      </trkpt>
      <trkpt lat="46.85765" lon="6.61863">
        <ele>1204.6262207031</ele>
        <time>2010-05-29T10:40:47Z</time>
      </trkpt>
      <trkpt lat="46.85749" lon="6.61814">
        <ele>1203.4213867188</ele>
        <time>2010-05-29T10:40:53Z</time>
      </trkpt>
      <trkpt lat="46.85724" lon="6.61763">
        <ele>1199.8791503906</ele>
        <time>2010-05-29T10:40:59Z</time>
      </trkpt>
      <trkpt lat="46.857" lon="6.61719">
        <ele>1196.2495117188</ele>
        <time>2010-05-29T10:41:04Z</time>
      </trkpt>
      <trkpt lat="46.85696" lon="6.61711">
        <ele>1196.1224365234</ele>
        <time>2010-05-29T10:41:05Z</time>
      </trkpt>
      <trkpt lat="46.85675" lon="6.6167">
        <ele>1192.5981445312</ele>
        <time>2010-05-29T10:41:10Z</time>
      </trkpt>
      <trkpt lat="46.85654" lon="6.61625">
        <ele>1187.9831542969</ele>
        <time>2010-05-29T10:41:16Z</time>
      </trkpt>
      <trkpt lat="46.85646" lon="6.61606">
        <ele>1186.4610595703</ele>
        <time>2010-05-29T10:41:20Z</time>
      </trkpt>
      <trkpt lat="46.85644" lon="6.616">
        <ele>1186.2298583984</ele>
        <time>2010-05-29T10:41:24Z</time>
      </trkpt>
      <trkpt lat="46.85644" lon="6.616">
        <ele>1186.1961669922</ele>
        <time>2010-05-29T10:41:25Z</time>
      </trkpt>
      <trkpt lat="46.85635" lon="6.6159">
        <ele>1184.4576416016</ele>
        <time>2010-05-29T10:41:59Z</time>
      </trkpt>
      <trkpt lat="46.85612" lon="6.61577">
        <ele>1180.6856689453</ele>
        <time>2010-05-29T10:42:04Z</time>
      </trkpt>
      <trkpt lat="46.85599" lon="6.61576">
        <ele>1178.6268310547</ele>
        <time>2010-05-29T10:42:08Z</time>
      </trkpt>
      <trkpt lat="46.85593" lon="6.61585">
        <ele>1177.3311767578</ele>
        <time>2010-05-29T10:42:11Z</time>
      </trkpt>
      <trkpt lat="46.85588" lon="6.61615">
        <ele>1174.7788085938</ele>
        <time>2010-05-29T10:42:16Z</time>
      </trkpt>
      <trkpt lat="46.85578" lon="6.61676">
        <ele>1169.7327880859</ele>
        <time>2010-05-29T10:42:25Z</time>
      </trkpt>
      <trkpt lat="46.85575" lon="6.61707">
        <ele>1167.5445556641</ele>
        <time>2010-05-29T10:42:29Z</time>
      </trkpt>
      <trkpt lat="46.85577" lon="6.61756">
        <ele>1165.3482666016</ele>
        <time>2010-05-29T10:42:35Z</time>
      </trkpt>
      <trkpt lat="46.8559" lon="6.61806">
        <ele>1165.3515625</ele>
        <time>2010-05-29T10:42:40Z</time>
      </trkpt>
      <trkpt lat="46.85596" lon="6.61829">
        <ele>1165.0598144531</ele>
        <time>2010-05-29T10:42:42Z</time>
      </trkpt>
      <trkpt lat="46.85601" lon="6.61901">
        <ele>1162.54296875</ele>
        <time>2010-05-29T10:42:47Z</time>
      </trkpt>
      <trkpt lat="46.85593" lon="6.61964">
        <ele>1157.3760986328</ele>
        <time>2010-05-29T10:42:51Z</time>
      </trkpt>
      <trkpt lat="46.85587" lon="6.62014">
        <ele>1153.2885742188</ele>
        <time>2010-05-29T10:42:54Z</time>
      </trkpt>
      <trkpt lat="46.85592" lon="6.62077">
        <ele>1150.9508056641</ele>
        <time>2010-05-29T10:42:58Z</time>
      </trkpt>
      <trkpt lat="46.85593" lon="6.62089">
        <ele>1150.5251464844</ele>
        <time>2010-05-29T10:42:59Z</time>
      </trkpt>
      <trkpt lat="46.85585" lon="6.62106">
        <ele>1146.7658691406</ele>
        <time>2010-05-29T10:43:02Z</time>
      </trkpt>
      <trkpt lat="46.85574" lon="6.62094">
        <ele>1145.3757324219</ele>
        <time>2010-05-29T10:43:04Z</time>
      </trkpt>
      <trkpt lat="46.8557" lon="6.62084">
        <ele>1145.5914306641</ele>
        <time>2010-05-29T10:43:05Z</time>
      </trkpt>
      <trkpt lat="46.85543" lon="6.62005">
        <ele>1144.5847167969</ele>
        <time>2010-05-29T10:43:12Z</time>
      </trkpt>
      <trkpt lat="46.85503" lon="6.61923">
        <ele>1142.2531738281</ele>
        <time>2010-05-29T10:43:19Z</time>
      </trkpt>
      <trkpt lat="46.85458" lon="6.61841">
        <ele>1134.9611816406</ele>
        <time>2010-05-29T10:43:26Z</time>
      </trkpt>
      <trkpt lat="46.85424" lon="6.61772">
        <ele>1129.4428710938</ele>
        <time>2010-05-29T10:43:32Z</time>
      </trkpt>
      <trkpt lat="46.85383" lon="6.61676">
        <ele>1126.0472412109</ele>
        <time>2010-05-29T10:43:39Z</time>
      </trkpt>
      <trkpt lat="46.85373" lon="6.61646">
        <ele>1125.1046142578</ele>
        <time>2010-05-29T10:43:41Z</time>
      </trkpt>
      <trkpt lat="46.8533" lon="6.61581">
        <ele>1118.0943603516</ele>
        <time>2010-05-29T10:43:46Z</time>
      </trkpt>
      <trkpt lat="46.85297" lon="6.61524">
        <ele>1113.4689941406</ele>
        <time>2010-05-29T10:43:50Z</time>
      </trkpt>
      <trkpt lat="46.8526" lon="6.61435">
        <ele>1108.4873046875</ele>
        <time>2010-05-29T10:43:56Z</time>
      </trkpt>
      <trkpt lat="46.85218" lon="6.61346">
        <ele>1102.1076660156</ele>
        <time>2010-05-29T10:44:02Z</time>
      </trkpt>
      <trkpt lat="46.85183" lon="6.6127">
        <ele>1094.2928466797</ele>
        <time>2010-05-29T10:44:07Z</time>
      </trkpt>
      <trkpt lat="46.85148" lon="6.61194">
        <ele>1084.7437744141</ele>
        <time>2010-05-29T10:44:12Z</time>
      </trkpt>
      <trkpt lat="46.85115" lon="6.61104">
        <ele>1076.1973876953</ele>
        <time>2010-05-29T10:44:18Z</time>
      </trkpt>
      <trkpt lat="46.85095" lon="6.61029">
        <ele>1073.6733398438</ele>
        <time>2010-05-29T10:44:23Z</time>
      </trkpt>
      <trkpt lat="46.85075" lon="6.60941">
        <ele>1066.5091552734</ele>
        <time>2010-05-29T10:44:29Z</time>
      </trkpt>
      <trkpt lat="46.85055" lon="6.6086">
        <ele>1063.9362792969</ele>
        <time>2010-05-29T10:44:35Z</time>
      </trkpt>
      <trkpt lat="46.85038" lon="6.60835">
        <ele>1058.7590332031</ele>
        <time>2010-05-29T10:44:38Z</time>
      </trkpt>
      <trkpt lat="46.8502" lon="6.60838">
        <ele>1052.796875</ele>
        <time>2010-05-29T10:44:40Z</time>
      </trkpt>
      <trkpt lat="46.84994" lon="6.60841">
        <ele>1045.953125</ele>
        <time>2010-05-29T10:44:43Z</time>
      </trkpt>
      <trkpt lat="46.84968" lon="6.60826">
        <ele>1041.5124511719</ele>
        <time>2010-05-29T10:44:46Z</time>
      </trkpt>
      <trkpt lat="46.84906" lon="6.60774">
        <ele>1033.25</ele>
        <time>2010-05-29T10:44:53Z</time>
      </trkpt>
      <trkpt lat="46.84867" lon="6.60733">
        <ele>1027.1049804688</ele>
        <time>2010-05-29T10:44:58Z</time>
      </trkpt>
      <trkpt lat="46.84846" lon="6.60708">
        <ele>1026.2174072266</ele>
        <time>2010-05-29T10:45:01Z</time>
      </trkpt>
      <trkpt lat="46.84818" lon="6.60663">
        <ele>1026.3114013672</ele>
        <time>2010-05-29T10:45:06Z</time>
      </trkpt>
      <trkpt lat="46.848" lon="6.60651">
        <ele>1021.1223754883</ele>
        <time>2010-05-29T10:45:09Z</time>
      </trkpt>
      <trkpt lat="46.84795" lon="6.60639">
        <ele>1021.5412597656</ele>
        <time>2010-05-29T10:45:11Z</time>
      </trkpt>
      <trkpt lat="46.84787" lon="6.60617">
        <ele>1023.8989257812</ele>
        <time>2010-05-29T10:45:17Z</time>
      </trkpt>
      <trkpt lat="46.84785" lon="6.60608">
        <ele>1024.3970947266</ele>
        <time>2010-05-29T10:45:20Z</time>
      </trkpt>
      <trkpt lat="46.84777" lon="6.60588">
        <ele>1025.5441894531</ele>
        <time>2010-05-29T10:45:28Z</time>
      </trkpt>
      <trkpt lat="46.84771" lon="6.60571">
        <ele>1028.8260498047</ele>
        <time>2010-05-29T10:45:35Z</time>
      </trkpt>
      <trkpt lat="46.84765" lon="6.60558">
        <ele>1031.5490722656</ele>
        <time>2010-05-29T10:45:41Z</time>
      </trkpt>
      <trkpt lat="46.84757" lon="6.60539">
        <ele>1033.5031738281</ele>
        <time>2010-05-29T10:45:47Z</time>
      </trkpt>
      <trkpt lat="46.84756" lon="6.60537">
        <ele>1033.94140625</ele>
        <time>2010-05-29T10:45:48Z</time>
      </trkpt>
      <trkpt lat="46.84752" lon="6.60525">
        <ele>1035.3662109375</ele>
        <time>2010-05-29T10:45:52Z</time>
      </trkpt>
      <trkpt lat="46.84748" lon="6.60513">
        <ele>1037.8321533203</ele>
        <time>2010-05-29T10:45:56Z</time>
      </trkpt>
      <trkpt lat="46.84743" lon="6.60496">
        <ele>1039.6882324219</ele>
        <time>2010-05-29T10:46:02Z</time>
      </trkpt>
      <trkpt lat="46.84738" lon="6.60481">
        <ele>1039.9365234375</ele>
        <time>2010-05-29T10:46:07Z</time>
      </trkpt>
      <trkpt lat="46.8473" lon="6.6046">
        <ele>1041.4958496094</ele>
        <time>2010-05-29T10:46:15Z</time>
      </trkpt>
      <trkpt lat="46.84723" lon="6.60441">
        <ele>1044.1319580078</ele>
        <time>2010-05-29T10:46:22Z</time>
      </trkpt>
      <trkpt lat="46.84718" lon="6.60427">
        <ele>1044.3637695312</ele>
        <time>2010-05-29T10:46:27Z</time>
      </trkpt>
      <trkpt lat="46.84717" lon="6.60416">
        <ele>1045.8660888672</ele>
        <time>2010-05-29T10:46:31Z</time>
      </trkpt>
      <trkpt lat="46.84708" lon="6.60395">
        <ele>1046.9014892578</ele>
        <time>2010-05-29T10:46:38Z</time>
      </trkpt>
      <trkpt lat="46.84699" lon="6.60369">
        <ele>1047.7041015625</ele>
        <time>2010-05-29T10:46:47Z</time>
      </trkpt>
      <trkpt lat="46.84687" lon="6.60341">
        <ele>1051.6179199219</ele>
        <time>2010-05-29T10:46:58Z</time>
      </trkpt>
      <trkpt lat="46.84678" lon="6.60324">
        <ele>1053.4783935547</ele>
        <time>2010-05-29T10:47:05Z</time>
      </trkpt>
      <trkpt lat="46.84668" lon="6.60304">
        <ele>1054.5303955078</ele>
        <time>2010-05-29T10:47:13Z</time>
      </trkpt>
      <trkpt lat="46.84661" lon="6.60284">
        <ele>1055.3902587891</ele>
        <time>2010-05-29T10:47:20Z</time>
      </trkpt>
      <trkpt lat="46.84655" lon="6.60265">
        <ele>1055.7541503906</ele>
        <time>2010-05-29T10:47:27Z</time>
      </trkpt>
      <trkpt lat="46.84643" lon="6.60239">
        <ele>1056.2550048828</ele>
        <time>2010-05-29T10:47:37Z</time>
      </trkpt>
      <trkpt lat="46.84634" lon="6.60209">
        <ele>1060.2319335938</ele>
        <time>2010-05-29T10:47:47Z</time>
      </trkpt>
      <trkpt lat="46.84624" lon="6.60181">
        <ele>1062.1848144531</ele>
        <time>2010-05-29T10:47:57Z</time>
      </trkpt>
      <trkpt lat="46.84616" lon="6.60159">
        <ele>1063.9827880859</ele>
        <time>2010-05-29T10:48:05Z</time>
      </trkpt>
      <trkpt lat="46.84613" lon="6.60141">
        <ele>1066.1254882812</ele>
        <time>2010-05-29T10:48:11Z</time>
      </trkpt>
      <trkpt lat="46.84606" lon="6.60118">
        <ele>1070.6501464844</ele>
        <time>2010-05-29T10:48:19Z</time>
      </trkpt>
      <trkpt lat="46.84596" lon="6.60096">
        <ele>1071.6915283203</ele>
        <time>2010-05-29T10:48:28Z</time>
      </trkpt>
      <trkpt lat="46.84591" lon="6.60085">
        <ele>1071.4245605469</ele>
        <time>2010-05-29T10:48:33Z</time>
      </trkpt>
      <trkpt lat="46.84582" lon="6.60061">
        <ele>1075.6368408203</ele>
        <time>2010-05-29T10:48:43Z</time>
      </trkpt>
      <trkpt lat="46.84578" lon="6.60046">
        <ele>1076.8209228516</ele>
        <time>2010-05-29T10:48:48Z</time>
      </trkpt>
      <trkpt lat="46.84574" lon="6.60028">
        <ele>1078.3577880859</ele>
        <time>2010-05-29T10:48:54Z</time>
      </trkpt>
      <trkpt lat="46.84565" lon="6.59999">
        <ele>1082.0831298828</ele>
        <time>2010-05-29T10:49:03Z</time>
      </trkpt>
      <trkpt lat="46.8456" lon="6.59977">
        <ele>1083.0749511719</ele>
        <time>2010-05-29T10:49:10Z</time>
      </trkpt>
      <trkpt lat="46.84549" lon="6.59951">
        <ele>1084.5427246094</ele>
        <time>2010-05-29T10:49:19Z</time>
      </trkpt>
      <trkpt lat="46.8454" lon="6.59931">
        <ele>1085.5354003906</ele>
        <time>2010-05-29T10:49:26Z</time>
      </trkpt>
      <trkpt lat="46.84533" lon="6.59915">
        <ele>1085.7811279297</ele>
        <time>2010-05-29T10:49:33Z</time>
      </trkpt>
      <trkpt lat="46.84532" lon="6.59914">
        <ele>1085.8360595703</ele>
        <time>2010-05-29T10:49:35Z</time>
      </trkpt>
      <trkpt lat="46.84529" lon="6.59911">
        <ele>1085.7364501953</ele>
        <time>2010-05-29T10:52:03Z</time>
      </trkpt>
      <trkpt lat="46.84528" lon="6.59908">
        <ele>1085.9665527344</ele>
        <time>2010-05-29T10:52:04Z</time>
      </trkpt>
      <trkpt lat="46.8452" lon="6.59893">
        <ele>1085.3623046875</ele>
        <time>2010-05-29T10:52:08Z</time>
      </trkpt>
      <trkpt lat="46.84504" lon="6.59861">
        <ele>1084.7150878906</ele>
        <time>2010-05-29T10:52:15Z</time>
      </trkpt>
      <trkpt lat="46.845" lon="6.59852">
        <ele>1084.9180908203</ele>
        <time>2010-05-29T10:52:17Z</time>
      </trkpt>
      <trkpt lat="46.84478" lon="6.59823">
        <ele>1081.5386962891</ele>
        <time>2010-05-29T10:52:24Z</time>
      </trkpt>
      <trkpt lat="46.84475" lon="6.59819">
        <ele>1080.8812255859</ele>
        <time>2010-05-29T10:52:25Z</time>
      </trkpt>
      <trkpt lat="46.8445" lon="6.59787">
        <ele>1078.0361328125</ele>
        <time>2010-05-29T10:52:32Z</time>
      </trkpt>
      <trkpt lat="46.84423" lon="6.59744">
        <ele>1073.8809814453</ele>
        <time>2010-05-29T10:52:39Z</time>
      </trkpt>
      <trkpt lat="46.84394" lon="6.597">
        <ele>1068.2501220703</ele>
        <time>2010-05-29T10:52:46Z</time>
      </trkpt>
      <trkpt lat="46.84371" lon="6.59664">
        <ele>1064.4915771484</ele>
        <time>2010-05-29T10:52:51Z</time>
      </trkpt>
      <trkpt lat="46.84349" lon="6.5963">
        <ele>1061.0396728516</ele>
        <time>2010-05-29T10:52:55Z</time>
      </trkpt>
      <trkpt lat="46.84332" lon="6.59596">
        <ele>1060.0469970703</ele>
        <time>2010-05-29T10:52:58Z</time>
      </trkpt>
      <trkpt lat="46.84313" lon="6.59563">
        <ele>1060.9158935547</ele>
        <time>2010-05-29T10:53:01Z</time>
      </trkpt>
      <trkpt lat="46.84296" lon="6.5953">
        <ele>1057.7462158203</ele>
        <time>2010-05-29T10:53:04Z</time>
      </trkpt>
      <trkpt lat="46.84285" lon="6.59509">
        <ele>1059.7305908203</ele>
        <time>2010-05-29T10:53:06Z</time>
      </trkpt>
      <trkpt lat="46.84266" lon="6.59469">
        <ele>1056.1154785156</ele>
        <time>2010-05-29T10:53:10Z</time>
      </trkpt>
      <trkpt lat="46.84227" lon="6.59387">
        <ele>1054.8758544922</ele>
        <time>2010-05-29T10:53:19Z</time>
      </trkpt>
      <trkpt lat="46.84205" lon="6.59349">
        <ele>1050.8471679688</ele>
        <time>2010-05-29T10:53:24Z</time>
      </trkpt>
      <trkpt lat="46.84185" lon="6.59315">
        <ele>1048.8388671875</ele>
        <time>2010-05-29T10:53:31Z</time>
      </trkpt>
      <trkpt lat="46.84163" lon="6.59276">
        <ele>1043.1298828125</ele>
        <time>2010-05-29T10:53:37Z</time>
      </trkpt>
      <trkpt lat="46.84155" lon="6.59262">
        <ele>1040.0056152344</ele>
        <time>2010-05-29T10:53:39Z</time>
      </trkpt>
      <trkpt lat="46.84123" lon="6.59206">
        <ele>1032.6053466797</ele>
        <time>2010-05-29T10:53:46Z</time>
      </trkpt>
      <trkpt lat="46.84098" lon="6.59162">
        <ele>1026.8298339844</ele>
        <time>2010-05-29T10:53:51Z</time>
      </trkpt>
      <trkpt lat="46.8409" lon="6.59144">
        <ele>1024.3846435547</ele>
        <time>2010-05-29T10:53:53Z</time>
      </trkpt>
      <trkpt lat="46.84084" lon="6.59123">
        <ele>1022.3765258789</ele>
        <time>2010-05-29T10:53:55Z</time>
      </trkpt>
      <trkpt lat="46.8408" lon="6.59102">
        <ele>1024.1342773438</ele>
        <time>2010-05-29T10:53:57Z</time>
      </trkpt>
      <trkpt lat="46.84067" lon="6.59057">
        <ele>1028.8508300781</ele>
        <time>2010-05-29T10:54:01Z</time>
      </trkpt>
      <trkpt lat="46.84061" lon="6.59033">
        <ele>1032.7895507812</ele>
        <time>2010-05-29T10:54:03Z</time>
      </trkpt>
      <trkpt lat="46.84046" lon="6.59009">
        <ele>1030.9403076172</ele>
        <time>2010-05-29T10:54:07Z</time>
      </trkpt>
      <trkpt lat="46.84043" lon="6.59009">
        <ele>1029.5477294922</ele>
        <time>2010-05-29T10:54:08Z</time>
      </trkpt>
      <trkpt lat="46.84045" lon="6.5901">
        <ele>1030.3343505859</ele>
        <time>2010-05-29T10:54:10Z</time>
      </trkpt>
      <trkpt lat="46.84048" lon="6.59011">
        <ele>1031.6779785156</ele>
        <time>2010-05-29T10:54:14Z</time>
      </trkpt>
      <trkpt lat="46.84039" lon="6.59009">
        <ele>1027.0257568359</ele>
        <time>2010-05-29T10:54:18Z</time>
      </trkpt>
      <trkpt lat="46.84018" lon="6.5898">
        <ele>1022.0521850586</ele>
        <time>2010-05-29T10:54:23Z</time>
      </trkpt>
      <trkpt lat="46.84009" lon="6.58948">
        <ele>1022.896484375</ele>
        <time>2010-05-29T10:54:26Z</time>
      </trkpt>
      <trkpt lat="46.84009" lon="6.58937">
        <ele>1025.1561279297</ele>
        <time>2010-05-29T10:54:27Z</time>
      </trkpt>
      <trkpt lat="46.84009" lon="6.58902">
        <ele>1032.4587402344</ele>
        <time>2010-05-29T10:54:30Z</time>
      </trkpt>
      <trkpt lat="46.83999" lon="6.58833">
        <ele>1039.8365478516</ele>
        <time>2010-05-29T10:54:36Z</time>
      </trkpt>
      <trkpt lat="46.83988" lon="6.58772">
        <ele>1046.9287109375</ele>
        <time>2010-05-29T10:54:41Z</time>
      </trkpt>
      <trkpt lat="46.83982" lon="6.58749">
        <ele>1048.8858642578</ele>
        <time>2010-05-29T10:54:43Z</time>
      </trkpt>
      <trkpt lat="46.83952" lon="6.5868">
        <ele>1045.6350097656</ele>
        <time>2010-05-29T10:54:49Z</time>
      </trkpt>
      <trkpt lat="46.83924" lon="6.58615">
        <ele>1038.8441162109</ele>
        <time>2010-05-29T10:54:54Z</time>
      </trkpt>
      <trkpt lat="46.83915" lon="6.58589">
        <ele>1038.0444335938</ele>
        <time>2010-05-29T10:54:56Z</time>
      </trkpt>
      <trkpt lat="46.83903" lon="6.58548">
        <ele>1041.0310058594</ele>
        <time>2010-05-29T10:55:00Z</time>
      </trkpt>
      <trkpt lat="46.839" lon="6.58523">
        <ele>1044.7375488281</ele>
        <time>2010-05-29T10:55:04Z</time>
      </trkpt>
      <trkpt lat="46.83898" lon="6.58508">
        <ele>1045.7941894531</ele>
        <time>2010-05-29T10:55:09Z</time>
      </trkpt>
      <trkpt lat="46.83891" lon="6.58496">
        <ele>1045.3972167969</ele>
        <time>2010-05-29T10:55:15Z</time>
      </trkpt>
      <trkpt lat="46.83889" lon="6.58492">
        <ele>1045.6164550781</ele>
        <time>2010-05-29T10:55:17Z</time>
      </trkpt>
      <trkpt lat="46.83886" lon="6.58479">
        <ele>1047.099609375</ele>
        <time>2010-05-29T10:55:21Z</time>
      </trkpt>
      <trkpt lat="46.8388" lon="6.58459">
        <ele>1048.3731689453</ele>
        <time>2010-05-29T10:55:28Z</time>
      </trkpt>
      <trkpt lat="46.83876" lon="6.58442">
        <ele>1049.5236816406</ele>
        <time>2010-05-29T10:55:34Z</time>
      </trkpt>
      <trkpt lat="46.83874" lon="6.58429">
        <ele>1051.2987060547</ele>
        <time>2010-05-29T10:55:41Z</time>
      </trkpt>
      <trkpt lat="46.8387" lon="6.58415">
        <ele>1052.7521972656</ele>
        <time>2010-05-29T10:55:46Z</time>
      </trkpt>
      <trkpt lat="46.83868" lon="6.584">
        <ele>1054.6726074219</ele>
        <time>2010-05-29T10:55:53Z</time>
      </trkpt>
      <trkpt lat="46.83865" lon="6.58384">
        <ele>1056.8231201172</ele>
        <time>2010-05-29T10:56:00Z</time>
      </trkpt>
      <trkpt lat="46.83864" lon="6.58379">
        <ele>1057.34375</ele>
        <time>2010-05-29T10:56:02Z</time>
      </trkpt>
      <trkpt lat="46.83863" lon="6.58369">
        <ele>1059.0310058594</ele>
        <time>2010-05-29T10:56:06Z</time>
      </trkpt>
      <trkpt lat="46.83858" lon="6.58346">
        <ele>1059.9611816406</ele>
        <time>2010-05-29T10:56:13Z</time>
      </trkpt>
      <trkpt lat="46.83853" lon="6.58327">
        <ele>1061.0458984375</ele>
        <time>2010-05-29T10:56:19Z</time>
      </trkpt>
      <trkpt lat="46.83848" lon="6.58302">
        <ele>1064.9201660156</ele>
        <time>2010-05-29T10:56:27Z</time>
      </trkpt>
      <trkpt lat="46.83844" lon="6.58286">
        <ele>1064.6090087891</ele>
        <time>2010-05-29T10:56:33Z</time>
      </trkpt>
      <trkpt lat="46.83839" lon="6.58274">
        <ele>1064.1437988281</ele>
        <time>2010-05-29T10:56:39Z</time>
      </trkpt>
      <trkpt lat="46.83834" lon="6.58266">
        <ele>1063.5483398438</ele>
        <time>2010-05-29T10:56:44Z</time>
      </trkpt>
      <trkpt lat="46.83826" lon="6.58244">
        <ele>1066.3354492188</ele>
        <time>2010-05-29T10:56:53Z</time>
      </trkpt>
      <trkpt lat="46.83821" lon="6.58229">
        <ele>1067.1745605469</ele>
        <time>2010-05-29T10:57:00Z</time>
      </trkpt>
      <trkpt lat="46.83814" lon="6.5821">
        <ele>1068.1477050781</ele>
        <time>2010-05-29T10:57:08Z</time>
      </trkpt>
      <trkpt lat="46.8381" lon="6.58203">
        <ele>1067.9266357422</ele>
        <time>2010-05-29T10:57:13Z</time>
      </trkpt>
      <trkpt lat="46.83803" lon="6.58198">
        <ele>1066.0172119141</ele>
        <time>2010-05-29T10:57:20Z</time>
      </trkpt>
      <trkpt lat="46.83796" lon="6.58191">
        <ele>1063.8482666016</ele>
        <time>2010-05-29T10:57:27Z</time>
      </trkpt>
      <trkpt lat="46.83794" lon="6.58175">
        <ele>1064.7340087891</ele>
        <time>2010-05-29T10:57:34Z</time>
      </trkpt>
      <trkpt lat="46.83792" lon="6.58161">
        <ele>1066.4724121094</ele>
        <time>2010-05-29T10:57:40Z</time>
      </trkpt>
      <trkpt lat="46.83789" lon="6.58145">
        <ele>1067.4249267578</ele>
        <time>2010-05-29T10:57:46Z</time>
      </trkpt>
      <trkpt lat="46.83784" lon="6.58127">
        <ele>1067.0050048828</ele>
        <time>2010-05-29T10:57:53Z</time>
      </trkpt>
      <trkpt lat="46.8378" lon="6.58114">
        <ele>1066.880859375</ele>
        <time>2010-05-29T10:57:58Z</time>
      </trkpt>
      <trkpt lat="46.83773" lon="6.58093">
        <ele>1068.0399169922</ele>
        <time>2010-05-29T10:58:07Z</time>
      </trkpt>
      <trkpt lat="46.8377" lon="6.58083">
        <ele>1068.5390625</ele>
        <time>2010-05-29T10:58:13Z</time>
      </trkpt>
      <trkpt lat="46.83763" lon="6.5807">
        <ele>1067.2830810547</ele>
        <time>2010-05-29T10:58:20Z</time>
      </trkpt>
      <trkpt lat="46.83752" lon="6.58044">
        <ele>1065.8471679688</ele>
        <time>2010-05-29T10:58:29Z</time>
      </trkpt>
      <trkpt lat="46.83744" lon="6.58016">
        <ele>1066.3474121094</ele>
        <time>2010-05-29T10:58:38Z</time>
      </trkpt>
      <trkpt lat="46.83738" lon="6.57993">
        <ele>1066.912109375</ele>
        <time>2010-05-29T10:58:46Z</time>
      </trkpt>
      <trkpt lat="46.83735" lon="6.57977">
        <ele>1067.9464111328</ele>
        <time>2010-05-29T10:58:51Z</time>
      </trkpt>
      <trkpt lat="46.83731" lon="6.57956">
        <ele>1068.6893310547</ele>
        <time>2010-05-29T10:58:57Z</time>
      </trkpt>
      <trkpt lat="46.83728" lon="6.57937">
        <ele>1069.6009521484</ele>
        <time>2010-05-29T10:59:03Z</time>
      </trkpt>
      <trkpt lat="46.83726" lon="6.57918">
        <ele>1070.9650878906</ele>
        <time>2010-05-29T10:59:08Z</time>
      </trkpt>
      <trkpt lat="46.83724" lon="6.5791">
        <ele>1070.9864501953</ele>
        <time>2010-05-29T10:59:10Z</time>
      </trkpt>
      <trkpt lat="46.83721" lon="6.57889">
        <ele>1071.5947265625</ele>
        <time>2010-05-29T10:59:16Z</time>
      </trkpt>
      <trkpt lat="46.83719" lon="6.57868">
        <ele>1073.4006347656</ele>
        <time>2010-05-29T10:59:22Z</time>
      </trkpt>
      <trkpt lat="46.83717" lon="6.57844">
        <ele>1074.7164306641</ele>
        <time>2010-05-29T10:59:28Z</time>
      </trkpt>
      <trkpt lat="46.83716" lon="6.57829">
        <ele>1075.6037597656</ele>
        <time>2010-05-29T10:59:32Z</time>
      </trkpt>
      <trkpt lat="46.83711" lon="6.57812">
        <ele>1076.1754150391</ele>
        <time>2010-05-29T10:59:38Z</time>
      </trkpt>
      <trkpt lat="46.83709" lon="6.57791">
        <ele>1076.7749023438</ele>
        <time>2010-05-29T10:59:43Z</time>
      </trkpt>
      <trkpt lat="46.83706" lon="6.57765">
        <ele>1078.2727050781</ele>
        <time>2010-05-29T10:59:50Z</time>
      </trkpt>
      <trkpt lat="46.837" lon="6.57733">
        <ele>1079.9094238281</ele>
        <time>2010-05-29T11:00:00Z</time>
      </trkpt>
      <trkpt lat="46.83693" lon="6.57712">
        <ele>1079.1247558594</ele>
        <time>2010-05-29T11:00:08Z</time>
      </trkpt>
      <trkpt lat="46.83686" lon="6.57691">
        <ele>1078.8896484375</ele>
        <time>2010-05-29T11:00:15Z</time>
      </trkpt>
      <trkpt lat="46.8368" lon="6.57678">
        <ele>1079.5925292969</ele>
        <time>2010-05-29T11:00:21Z</time>
      </trkpt>
      <trkpt lat="46.83676" lon="6.57668">
        <ele>1080.1151123047</ele>
        <time>2010-05-29T11:00:31Z</time>
      </trkpt>
      <trkpt lat="46.83664" lon="6.57638">
        <ele>1079.1076660156</ele>
        <time>2010-05-29T11:00:37Z</time>
      </trkpt>
      <trkpt lat="46.83654" lon="6.57601">
        <ele>1078.2515869141</ele>
        <time>2010-05-29T11:00:45Z</time>
      </trkpt>
      <trkpt lat="46.83649" lon="6.57568">
        <ele>1080.0731201172</ele>
        <time>2010-05-29T11:00:52Z</time>
      </trkpt>
      <trkpt lat="46.83649" lon="6.57541">
        <ele>1083.2413330078</ele>
        <time>2010-05-29T11:00:58Z</time>
      </trkpt>
      <trkpt lat="46.83646" lon="6.57497">
        <ele>1088.3049316406</ele>
        <time>2010-05-29T11:01:08Z</time>
      </trkpt>
      <trkpt lat="46.83641" lon="6.57465">
        <ele>1090.4621582031</ele>
        <time>2010-05-29T11:01:15Z</time>
      </trkpt>
      <trkpt lat="46.83635" lon="6.57429">
        <ele>1094.3129882812</ele>
        <time>2010-05-29T11:01:23Z</time>
      </trkpt>
      <trkpt lat="46.83633" lon="6.57407">
        <ele>1096.61328125</ele>
        <time>2010-05-29T11:01:28Z</time>
      </trkpt>
      <trkpt lat="46.83625" lon="6.57372">
        <ele>1097.9450683594</ele>
        <time>2010-05-29T11:01:36Z</time>
      </trkpt>
      <trkpt lat="46.83613" lon="6.57344">
        <ele>1096.3402099609</ele>
        <time>2010-05-29T11:01:43Z</time>
      </trkpt>
      <trkpt lat="46.83594" lon="6.57315">
        <ele>1094.7097167969</ele>
        <time>2010-05-29T11:01:51Z</time>
      </trkpt>
      <trkpt lat="46.83589" lon="6.57303">
        <ele>1094.8071289062</ele>
        <time>2010-05-29T11:01:56Z</time>
      </trkpt>
      <trkpt lat="46.83583" lon="6.57288">
        <ele>1095.3729248047</ele>
        <time>2010-05-29T11:02:02Z</time>
      </trkpt>
      <trkpt lat="46.83577" lon="6.57271">
        <ele>1094.5831298828</ele>
        <time>2010-05-29T11:02:07Z</time>
      </trkpt>
      <trkpt lat="46.8358" lon="6.57265">
        <ele>1096.6602783203</ele>
        <time>2010-05-29T11:02:11Z</time>
      </trkpt>
      <trkpt lat="46.8358" lon="6.57265">
        <ele>1096.8387451172</ele>
        <time>2010-05-29T11:02:12Z</time>
      </trkpt>
      <trkpt lat="46.83574" lon="6.57266">
        <ele>1093.8432617188</ele>
        <time>2010-05-29T11:02:25Z</time>
      </trkpt>
      <trkpt lat="46.83572" lon="6.57262">
        <ele>1093.6029052734</ele>
        <time>2010-05-29T11:02:26Z</time>
      </trkpt>
      <trkpt lat="46.83557" lon="6.57222">
        <ele>1092.5838623047</ele>
        <time>2010-05-29T11:02:34Z</time>
      </trkpt>
      <trkpt lat="46.83548" lon="6.57191">
        <ele>1091.4799804688</ele>
        <time>2010-05-29T11:02:40Z</time>
      </trkpt>
      <trkpt lat="46.83538" lon="6.57152">
        <ele>1092.9760742188</ele>
        <time>2010-05-29T11:02:49Z</time>
      </trkpt>
      <trkpt lat="46.83531" lon="6.5713">
        <ele>1092.9996337891</ele>
        <time>2010-05-29T11:02:55Z</time>
      </trkpt>
      <trkpt lat="46.83529" lon="6.57125">
        <ele>1092.8952636719</ele>
        <time>2010-05-29T11:02:59Z</time>
      </trkpt>
      <trkpt lat="46.83529" lon="6.57119">
        <ele>1093.9307861328</ele>
        <time>2010-05-29T11:03:42Z</time>
      </trkpt>
      <trkpt lat="46.83524" lon="6.57098">
        <ele>1095.4516601562</ele>
        <time>2010-05-29T11:03:48Z</time>
      </trkpt>
      <trkpt lat="46.83518" lon="6.57077">
        <ele>1097.1281738281</ele>
        <time>2010-05-29T11:03:54Z</time>
      </trkpt>
      <trkpt lat="46.83509" lon="6.57045">
        <ele>1099.7004394531</ele>
        <time>2010-05-29T11:04:01Z</time>
      </trkpt>
      <trkpt lat="46.83503" lon="6.57022">
        <ele>1101.2867431641</ele>
        <time>2010-05-29T11:04:07Z</time>
      </trkpt>
      <trkpt lat="46.83494" lon="6.56997">
        <ele>1102.9575195312</ele>
        <time>2010-05-29T11:04:13Z</time>
      </trkpt>
      <trkpt lat="46.83489" lon="6.56977">
        <ele>1104.3067626953</ele>
        <time>2010-05-29T11:04:19Z</time>
      </trkpt>
      <trkpt lat="46.83484" lon="6.56952">
        <ele>1108.5427246094</ele>
        <time>2010-05-29T11:04:26Z</time>
      </trkpt>
      <trkpt lat="46.83481" lon="6.56936">
        <ele>1110.6732177734</ele>
        <time>2010-05-29T11:04:31Z</time>
      </trkpt>
      <trkpt lat="46.83479" lon="6.56917">
        <ele>1113.1807861328</ele>
        <time>2010-05-29T11:04:37Z</time>
      </trkpt>
      <trkpt lat="46.83477" lon="6.56898">
        <ele>1117.4874267578</ele>
        <time>2010-05-29T11:04:43Z</time>
      </trkpt>
      <trkpt lat="46.83475" lon="6.56879">
        <ele>1121.0076904297</ele>
        <time>2010-05-29T11:04:49Z</time>
      </trkpt>
      <trkpt lat="46.83474" lon="6.56868">
        <ele>1122.9108886719</ele>
        <time>2010-05-29T11:04:53Z</time>
      </trkpt>
      <trkpt lat="46.83474" lon="6.56846">
        <ele>1128.6411132812</ele>
        <time>2010-05-29T11:05:01Z</time>
      </trkpt>
      <trkpt lat="46.83472" lon="6.56825">
        <ele>1133.6514892578</ele>
        <time>2010-05-29T11:05:08Z</time>
      </trkpt>
      <trkpt lat="46.83471" lon="6.56809">
        <ele>1136.6599121094</ele>
        <time>2010-05-29T11:05:14Z</time>
      </trkpt>
      <trkpt lat="46.8347" lon="6.56791">
        <ele>1139.6008300781</ele>
        <time>2010-05-29T11:05:21Z</time>
      </trkpt>
      <trkpt lat="46.83467" lon="6.56778">
        <ele>1141.1166992188</ele>
        <time>2010-05-29T11:05:28Z</time>
      </trkpt>
      <trkpt lat="46.83461" lon="6.5676">
        <ele>1142.4792480469</ele>
        <time>2010-05-29T11:05:36Z</time>
      </trkpt>
      <trkpt lat="46.83457" lon="6.56745">
        <ele>1144.2034912109</ele>
        <time>2010-05-29T11:05:43Z</time>
      </trkpt>
      <trkpt lat="46.83452" lon="6.56736">
        <ele>1143.9468994141</ele>
        <time>2010-05-29T11:05:48Z</time>
      </trkpt>
      <trkpt lat="46.83446" lon="6.56719">
        <ele>1144.4201660156</ele>
        <time>2010-05-29T11:05:56Z</time>
      </trkpt>
      <trkpt lat="46.83443" lon="6.56708">
        <ele>1145.7993164062</ele>
        <time>2010-05-29T11:06:01Z</time>
      </trkpt>
      <trkpt lat="46.83438" lon="6.56697">
        <ele>1146.4995117188</ele>
        <time>2010-05-29T11:06:08Z</time>
      </trkpt>
      <trkpt lat="46.83431" lon="6.56682">
        <ele>1149.0280761719</ele>
        <time>2010-05-29T11:06:15Z</time>
      </trkpt>
      <trkpt lat="46.83429" lon="6.56681">
        <ele>1148.7525634766</ele>
        <time>2010-05-29T11:06:16Z</time>
      </trkpt>
      <trkpt lat="46.83419" lon="6.56669">
        <ele>1149.9104003906</ele>
        <time>2010-05-29T11:06:25Z</time>
      </trkpt>
      <trkpt lat="46.83411" lon="6.56658">
        <ele>1149.7989501953</ele>
        <time>2010-05-29T11:06:32Z</time>
      </trkpt>
      <trkpt lat="46.83407" lon="6.56656">
        <ele>1148.5919189453</ele>
        <time>2010-05-29T11:06:36Z</time>
      </trkpt>
      <trkpt lat="46.83402" lon="6.5665">
        <ele>1147.3731689453</ele>
        <time>2010-05-29T11:06:42Z</time>
      </trkpt>
      <trkpt lat="46.83397" lon="6.56646">
        <ele>1146.1849365234</ele>
        <time>2010-05-29T11:06:47Z</time>
      </trkpt>
      <trkpt lat="46.83397" lon="6.56645">
        <ele>1146.4573974609</ele>
        <time>2010-05-29T11:07:05Z</time>
      </trkpt>
      <trkpt lat="46.83388" lon="6.56643">
        <ele>1142.8546142578</ele>
        <time>2010-05-29T11:07:10Z</time>
      </trkpt>
      <trkpt lat="46.83378" lon="6.56639">
        <ele>1141.1009521484</ele>
        <time>2010-05-29T11:07:17Z</time>
      </trkpt>
      <trkpt lat="46.83371" lon="6.56635">
        <ele>1140.8237304688</ele>
        <time>2010-05-29T11:07:23Z</time>
      </trkpt>
      <trkpt lat="46.8336" lon="6.56631">
        <ele>1139.2679443359</ele>
        <time>2010-05-29T11:07:31Z</time>
      </trkpt>
      <trkpt lat="46.83351" lon="6.56626">
        <ele>1138.4228515625</ele>
        <time>2010-05-29T11:07:38Z</time>
      </trkpt>
      <trkpt lat="46.8334" lon="6.56625">
        <ele>1135.6046142578</ele>
        <time>2010-05-29T11:07:45Z</time>
      </trkpt>
      <trkpt lat="46.83329" lon="6.56621">
        <ele>1133.1335449219</ele>
        <time>2010-05-29T11:07:52Z</time>
      </trkpt>
      <trkpt lat="46.83318" lon="6.56619">
        <ele>1129.4635009766</ele>
        <time>2010-05-29T11:07:58Z</time>
      </trkpt>
      <trkpt lat="46.83305" lon="6.56616">
        <ele>1125.2685546875</ele>
        <time>2010-05-29T11:08:05Z</time>
      </trkpt>
      <trkpt lat="46.83295" lon="6.56608">
        <ele>1125.248046875</ele>
        <time>2010-05-29T11:08:11Z</time>
      </trkpt>
      <trkpt lat="46.8329" lon="6.56599">
        <ele>1126.3884277344</ele>
        <time>2010-05-29T11:08:17Z</time>
      </trkpt>
      <trkpt lat="46.83278" lon="6.56579">
        <ele>1130.1129150391</ele>
        <time>2010-05-29T11:08:27Z</time>
      </trkpt>
      <trkpt lat="46.83267" lon="6.56554">
        <ele>1137.3493652344</ele>
        <time>2010-05-29T11:08:36Z</time>
      </trkpt>
      <trkpt lat="46.8326" lon="6.56532">
        <ele>1141.5520019531</ele>
        <time>2010-05-29T11:08:43Z</time>
      </trkpt>
      <trkpt lat="46.83258" lon="6.56512">
        <ele>1147.4688720703</ele>
        <time>2010-05-29T11:08:49Z</time>
      </trkpt>
      <trkpt lat="46.83255" lon="6.56489">
        <ele>1153.7215576172</ele>
        <time>2010-05-29T11:08:57Z</time>
      </trkpt>
      <trkpt lat="46.83253" lon="6.56473">
        <ele>1157.2325439453</ele>
        <time>2010-05-29T11:09:03Z</time>
      </trkpt>
      <trkpt lat="46.83245" lon="6.56441">
        <ele>1160.5709228516</ele>
        <time>2010-05-29T11:09:13Z</time>
      </trkpt>
      <trkpt lat="46.83241" lon="6.56412">
        <ele>1161.1180419922</ele>
        <time>2010-05-29T11:09:22Z</time>
      </trkpt>
      <trkpt lat="46.83236" lon="6.56383">
        <ele>1161.6989746094</ele>
        <time>2010-05-29T11:09:31Z</time>
      </trkpt>
      <trkpt lat="46.83227" lon="6.56348">
        <ele>1162.1639404297</ele>
        <time>2010-05-29T11:09:40Z</time>
      </trkpt>
      <trkpt lat="46.8322" lon="6.56318">
        <ele>1162.5078125</ele>
        <time>2010-05-29T11:09:47Z</time>
      </trkpt>
      <trkpt lat="46.83212" lon="6.56283">
        <ele>1163.4542236328</ele>
        <time>2010-05-29T11:09:55Z</time>
      </trkpt>
      <trkpt lat="46.83206" lon="6.56243">
        <ele>1163.6678466797</ele>
        <time>2010-05-29T11:10:04Z</time>
      </trkpt>
      <trkpt lat="46.832" lon="6.56203">
        <ele>1164.2163085938</ele>
        <time>2010-05-29T11:10:13Z</time>
      </trkpt>
      <trkpt lat="46.83194" lon="6.56158">
        <ele>1164.2575683594</ele>
        <time>2010-05-29T11:10:23Z</time>
      </trkpt>
      <trkpt lat="46.83196" lon="6.56119">
        <ele>1165.1130371094</ele>
        <time>2010-05-29T11:10:32Z</time>
      </trkpt>
      <trkpt lat="46.83199" lon="6.56067">
        <ele>1166.3503417969</ele>
        <time>2010-05-29T11:10:43Z</time>
      </trkpt>
      <trkpt lat="46.83203" lon="6.56039">
        <ele>1167.2313232422</ele>
        <time>2010-05-29T11:10:50Z</time>
      </trkpt>
      <trkpt lat="46.83205" lon="6.56015">
        <ele>1167.7348632812</ele>
        <time>2010-05-29T11:10:56Z</time>
      </trkpt>
      <trkpt lat="46.83207" lon="6.55991">
        <ele>1168.2482910156</ele>
        <time>2010-05-29T11:11:03Z</time>
      </trkpt>
      <trkpt lat="46.83212" lon="6.55955">
        <ele>1169.2292480469</ele>
        <time>2010-05-29T11:11:11Z</time>
      </trkpt>
      <trkpt lat="46.83214" lon="6.55934">
        <ele>1169.0592041016</ele>
        <time>2010-05-29T11:11:16Z</time>
      </trkpt>
      <trkpt lat="46.83221" lon="6.55909">
        <ele>1168.943359375</ele>
        <time>2010-05-29T11:11:23Z</time>
      </trkpt>
      <trkpt lat="46.83228" lon="6.55893">
        <ele>1169.3828125</ele>
        <time>2010-05-29T11:11:29Z</time>
      </trkpt>
      <trkpt lat="46.83225" lon="6.55867">
        <ele>1169.2180175781</ele>
        <time>2010-05-29T11:11:34Z</time>
      </trkpt>
      <trkpt lat="46.83224" lon="6.55848">
        <ele>1168.6285400391</ele>
        <time>2010-05-29T11:11:38Z</time>
      </trkpt>
      <trkpt lat="46.83224" lon="6.55847">
        <ele>1168.6044921875</ele>
        <time>2010-05-29T11:11:40Z</time>
      </trkpt>
      <trkpt lat="46.83225" lon="6.55844">
        <ele>1168.5872802734</ele>
        <time>2010-05-29T11:11:52Z</time>
      </trkpt>
      <trkpt lat="46.83228" lon="6.5584">
        <ele>1168.6611328125</ele>
        <time>2010-05-29T11:11:54Z</time>
      </trkpt>
      <trkpt lat="46.83238" lon="6.55837">
        <ele>1169.2413330078</ele>
        <time>2010-05-29T11:12:00Z</time>
      </trkpt>
      <trkpt lat="46.83246" lon="6.55836">
        <ele>1169.8095703125</ele>
        <time>2010-05-29T11:12:06Z</time>
      </trkpt>
      <trkpt lat="46.8326" lon="6.55832">
        <ele>1170.7052001953</ele>
        <time>2010-05-29T11:12:13Z</time>
      </trkpt>
      <trkpt lat="46.83263" lon="6.55833">
        <ele>1170.9364013672</ele>
        <time>2010-05-29T11:12:15Z</time>
      </trkpt>
      <trkpt lat="46.83274" lon="6.55828">
        <ele>1171.5671386719</ele>
        <time>2010-05-29T11:12:22Z</time>
      </trkpt>
      <trkpt lat="46.83291" lon="6.55821">
        <ele>1172.5321044922</ele>
        <time>2010-05-29T11:12:32Z</time>
      </trkpt>
      <trkpt lat="46.83307" lon="6.55813">
        <ele>1173.3629150391</ele>
        <time>2010-05-29T11:12:41Z</time>
      </trkpt>
      <trkpt lat="46.83316" lon="6.55807">
        <ele>1173.7766113281</ele>
        <time>2010-05-29T11:12:46Z</time>
      </trkpt>
      <trkpt lat="46.83325" lon="6.55801">
        <ele>1174.3865966797</ele>
        <time>2010-05-29T11:12:51Z</time>
      </trkpt>
      <trkpt lat="46.83334" lon="6.55794">
        <ele>1175.0732421875</ele>
        <time>2010-05-29T11:12:56Z</time>
      </trkpt>
      <trkpt lat="46.83344" lon="6.55788">
        <ele>1175.732421875</ele>
        <time>2010-05-29T11:13:02Z</time>
      </trkpt>
      <trkpt lat="46.83359" lon="6.55778">
        <ele>1176.8310546875</ele>
        <time>2010-05-29T11:13:11Z</time>
      </trkpt>
      <trkpt lat="46.83376" lon="6.55766">
        <ele>1178.0944824219</ele>
        <time>2010-05-29T11:13:21Z</time>
      </trkpt>
      <trkpt lat="46.83395" lon="6.55754">
        <ele>1179.4677734375</ele>
        <time>2010-05-29T11:13:32Z</time>
      </trkpt>
      <trkpt lat="46.83418" lon="6.55738">
        <ele>1181.1735839844</ele>
        <time>2010-05-29T11:13:46Z</time>
      </trkpt>
      <trkpt lat="46.83432" lon="6.55727">
        <ele>1182.6567382812</ele>
        <time>2010-05-29T11:13:55Z</time>
      </trkpt>
      <trkpt lat="46.83446" lon="6.55721">
        <ele>1184.2855224609</ele>
        <time>2010-05-29T11:14:03Z</time>
      </trkpt>
      <trkpt lat="46.83463" lon="6.5572">
        <ele>1186.6871337891</ele>
        <time>2010-05-29T11:14:12Z</time>
      </trkpt>
      <trkpt lat="46.8348" lon="6.55724">
        <ele>1189.1853027344</ele>
        <time>2010-05-29T11:14:22Z</time>
      </trkpt>
      <trkpt lat="46.83491" lon="6.55729">
        <ele>1190.7233886719</ele>
        <time>2010-05-29T11:14:29Z</time>
      </trkpt>
      <trkpt lat="46.83501" lon="6.5573">
        <ele>1192.0725097656</ele>
        <time>2010-05-29T11:14:35Z</time>
      </trkpt>
      <trkpt lat="46.83515" lon="6.5573">
        <ele>1193.6380615234</ele>
        <time>2010-05-29T11:14:44Z</time>
      </trkpt>
      <trkpt lat="46.83518" lon="6.5573">
        <ele>1193.9676513672</ele>
        <time>2010-05-29T11:14:46Z</time>
      </trkpt>
      <trkpt lat="46.83529" lon="6.5573">
        <ele>1195.1066894531</ele>
        <time>2010-05-29T11:14:53Z</time>
      </trkpt>
      <trkpt lat="46.83536" lon="6.55732">
        <ele>1196.150390625</ele>
        <time>2010-05-29T11:14:58Z</time>
      </trkpt>
      <trkpt lat="46.83549" lon="6.5573">
        <ele>1198.0729980469</ele>
        <time>2010-05-29T11:15:06Z</time>
      </trkpt>
      <trkpt lat="46.83564" lon="6.55732">
        <ele>1200.9274902344</ele>
        <time>2010-05-29T11:15:15Z</time>
      </trkpt>
      <trkpt lat="46.83575" lon="6.55737">
        <ele>1203.5430908203</ele>
        <time>2010-05-29T11:15:22Z</time>
      </trkpt>
      <trkpt lat="46.83594" lon="6.55739">
        <ele>1206.1280517578</ele>
        <time>2010-05-29T11:15:32Z</time>
      </trkpt>
      <trkpt lat="46.83617" lon="6.5574">
        <ele>1207.5838623047</ele>
        <time>2010-05-29T11:15:43Z</time>
      </trkpt>
      <trkpt lat="46.83631" lon="6.55742">
        <ele>1208.0198974609</ele>
        <time>2010-05-29T11:15:50Z</time>
      </trkpt>
      <trkpt lat="46.83648" lon="6.55745">
        <ele>1208.7767333984</ele>
        <time>2010-05-29T11:15:58Z</time>
      </trkpt>
      <trkpt lat="46.83654" lon="6.55748">
        <ele>1209.1506347656</ele>
        <time>2010-05-29T11:16:01Z</time>
      </trkpt>
      <trkpt lat="46.83662" lon="6.55756">
        <ele>1209.4993896484</ele>
        <time>2010-05-29T11:16:06Z</time>
      </trkpt>
      <trkpt lat="46.83685" lon="6.55767">
        <ele>1210.0516357422</ele>
        <time>2010-05-29T11:16:13Z</time>
      </trkpt>
      <trkpt lat="46.83718" lon="6.55782">
        <ele>1210.8381347656</ele>
        <time>2010-05-29T11:16:20Z</time>
      </trkpt>
      <trkpt lat="46.83739" lon="6.55789">
        <ele>1211.5935058594</ele>
        <time>2010-05-29T11:16:25Z</time>
      </trkpt>
      <trkpt lat="46.83747" lon="6.55794">
        <ele>1211.8956298828</ele>
        <time>2010-05-29T11:16:30Z</time>
      </trkpt>
      <trkpt lat="46.83754" lon="6.55796">
        <ele>1212.0461425781</ele>
        <time>2010-05-29T11:16:34Z</time>
      </trkpt>
      <trkpt lat="46.8377" lon="6.55802">
        <ele>1212.0900878906</ele>
        <time>2010-05-29T11:16:40Z</time>
      </trkpt>
      <trkpt lat="46.83789" lon="6.5581">
        <ele>1212.40625</ele>
        <time>2010-05-29T11:16:47Z</time>
      </trkpt>
      <trkpt lat="46.83811" lon="6.55819">
        <ele>1213.099609375</ele>
        <time>2010-05-29T11:16:54Z</time>
      </trkpt>
      <trkpt lat="46.83814" lon="6.5582">
        <ele>1213.15234375</ele>
        <time>2010-05-29T11:16:55Z</time>
      </trkpt>
      <trkpt lat="46.83844" lon="6.55834">
        <ele>1213.3974609375</ele>
        <time>2010-05-29T11:17:01Z</time>
      </trkpt>
      <trkpt lat="46.8386" lon="6.55839">
        <ele>1213.9605712891</ele>
        <time>2010-05-29T11:17:05Z</time>
      </trkpt>
      <trkpt lat="46.83883" lon="6.55848">
        <ele>1214.7707519531</ele>
        <time>2010-05-29T11:17:12Z</time>
      </trkpt>
      <trkpt lat="46.83898" lon="6.55854">
        <ele>1215.3200683594</ele>
        <time>2010-05-29T11:17:18Z</time>
      </trkpt>
      <trkpt lat="46.83914" lon="6.55862">
        <ele>1215.8856201172</ele>
        <time>2010-05-29T11:17:25Z</time>
      </trkpt>
      <trkpt lat="46.83925" lon="6.55872">
        <ele>1215.90625</ele>
        <time>2010-05-29T11:17:30Z</time>
      </trkpt>
      <trkpt lat="46.83937" lon="6.55877">
        <ele>1216.1447753906</ele>
        <time>2010-05-29T11:17:34Z</time>
      </trkpt>
      <trkpt lat="46.83979" lon="6.55886">
        <ele>1217.3601074219</ele>
        <time>2010-05-29T11:17:43Z</time>
      </trkpt>
      <trkpt lat="46.83995" lon="6.5589">
        <ele>1217.7652587891</ele>
        <time>2010-05-29T11:17:47Z</time>
      </trkpt>
      <trkpt lat="46.84007" lon="6.55895">
        <ele>1217.8427734375</ele>
        <time>2010-05-29T11:17:50Z</time>
      </trkpt>
      <trkpt lat="46.84019" lon="6.559">
        <ele>1217.8762207031</ele>
        <time>2010-05-29T11:17:53Z</time>
      </trkpt>
      <trkpt lat="46.84028" lon="6.55905">
        <ele>1218.0030517578</ele>
        <time>2010-05-29T11:17:55Z</time>
      </trkpt>
      <trkpt lat="46.8406" lon="6.55919">
        <ele>1218.9046630859</ele>
        <time>2010-05-29T11:18:02Z</time>
      </trkpt>
      <trkpt lat="46.84084" lon="6.55931">
        <ele>1218.5059814453</ele>
        <time>2010-05-29T11:18:07Z</time>
      </trkpt>
      <trkpt lat="46.841" lon="6.55935">
        <ele>1218.91796875</ele>
        <time>2010-05-29T11:18:11Z</time>
      </trkpt>
      <trkpt lat="46.8412" lon="6.55938">
        <ele>1219.2283935547</ele>
        <time>2010-05-29T11:18:17Z</time>
      </trkpt>
      <trkpt lat="46.84137" lon="6.55952">
        <ele>1218.7322998047</ele>
        <time>2010-05-29T11:18:23Z</time>
      </trkpt>
      <trkpt lat="46.84153" lon="6.55957">
        <ele>1219.0423583984</ele>
        <time>2010-05-29T11:18:28Z</time>
      </trkpt>
      <trkpt lat="46.84176" lon="6.55964">
        <ele>1219.5480957031</ele>
        <time>2010-05-29T11:18:34Z</time>
      </trkpt>
      <trkpt lat="46.8418" lon="6.55965">
        <ele>1219.6256103516</ele>
        <time>2010-05-29T11:18:35Z</time>
      </trkpt>
      <trkpt lat="46.84192" lon="6.55973">
        <ele>1219.8410644531</ele>
        <time>2010-05-29T11:18:38Z</time>
      </trkpt>
      <trkpt lat="46.8421" lon="6.55991">
        <ele>1219.0281982422</ele>
        <time>2010-05-29T11:18:44Z</time>
      </trkpt>
      <trkpt lat="46.84211" lon="6.55993">
        <ele>1218.9791259766</ele>
        <time>2010-05-29T11:18:45Z</time>
      </trkpt>
      <trkpt lat="46.84212" lon="6.55996">
        <ele>1218.8470458984</ele>
        <time>2010-05-29T11:18:48Z</time>
      </trkpt>
      <trkpt lat="46.84209" lon="6.56">
        <ele>1218.5401611328</ele>
        <time>2010-05-29T13:06:15Z</time>
      </trkpt>
      <trkpt lat="46.84209" lon="6.55999">
        <ele>1218.5777587891</ele>
        <time>2010-05-29T13:06:16Z</time>
      </trkpt>
      <trkpt lat="46.84209" lon="6.55999">
        <ele>1218.5979003906</ele>
        <time>2010-05-29T13:06:17Z</time>
      </trkpt>
      <trkpt lat="46.84202" lon="6.55995">
        <ele>1218.6072998047</ele>
        <time>2010-05-29T13:07:39Z</time>
      </trkpt>
      <trkpt lat="46.84195" lon="6.55989">
        <ele>1218.8397216797</ele>
        <time>2010-05-29T13:07:44Z</time>
      </trkpt>
      <trkpt lat="46.84194" lon="6.55988">
        <ele>1218.8956298828</ele>
        <time>2010-05-29T13:07:45Z</time>
      </trkpt>
      <trkpt lat="46.84192" lon="6.55985">
        <ele>1219.0289306641</ele>
        <time>2010-05-29T13:07:49Z</time>
      </trkpt>
      <trkpt lat="46.84184" lon="6.55972">
        <ele>1219.6047363281</ele>
        <time>2010-05-29T13:08:01Z</time>
      </trkpt>
      <trkpt lat="46.84188" lon="6.55963">
        <ele>1219.8411865234</ele>
        <time>2010-05-29T13:08:06Z</time>
      </trkpt>
      <trkpt lat="46.84193" lon="6.55961">
        <ele>1219.9698486328</ele>
        <time>2010-05-29T13:08:09Z</time>
      </trkpt>
      <trkpt lat="46.84213" lon="6.55965">
        <ele>1220.5286865234</ele>
        <time>2010-05-29T13:08:19Z</time>
      </trkpt>
      <trkpt lat="46.84228" lon="6.55972">
        <ele>1220.8360595703</ele>
        <time>2010-05-29T13:08:26Z</time>
      </trkpt>
      <trkpt lat="46.84238" lon="6.55986">
        <ele>1220.9400634766</ele>
        <time>2010-05-29T13:08:33Z</time>
      </trkpt>
      <trkpt lat="46.8424" lon="6.55993">
        <ele>1220.3748779297</ele>
        <time>2010-05-29T13:08:36Z</time>
      </trkpt>
      <trkpt lat="46.84238" lon="6.56003">
        <ele>1219.5308837891</ele>
        <time>2010-05-29T13:08:40Z</time>
      </trkpt>
      <trkpt lat="46.84238" lon="6.56003">
        <ele>1219.5142822266</ele>
        <time>2010-05-29T13:08:42Z</time>
      </trkpt>
      <trkpt lat="46.84248" lon="6.56006">
        <ele>1219.8935546875</ele>
        <time>2010-05-29T13:09:39Z</time>
      </trkpt>
      <trkpt lat="46.84258" lon="6.56008">
        <ele>1221.1918945312</ele>
        <time>2010-05-29T13:09:44Z</time>
      </trkpt>
      <trkpt lat="46.84259" lon="6.56009">
        <ele>1221.4106445312</ele>
        <time>2010-05-29T13:09:45Z</time>
      </trkpt>
      <trkpt lat="46.84262" lon="6.56004">
        <ele>1222.0440673828</ele>
        <time>2010-05-29T13:09:50Z</time>
      </trkpt>
      <trkpt lat="46.84257" lon="6.55997">
        <ele>1221.6597900391</ele>
        <time>2010-05-29T13:09:55Z</time>
      </trkpt>
      <trkpt lat="46.84256" lon="6.55996">
        <ele>1221.6315917969</ele>
        <time>2010-05-29T13:09:56Z</time>
      </trkpt>
      <trkpt lat="46.84251" lon="6.55995">
        <ele>1220.8330078125</ele>
        <time>2010-05-29T13:10:39Z</time>
      </trkpt>
      <trkpt lat="46.84252" lon="6.55987">
        <ele>1222.1463623047</ele>
        <time>2010-05-29T13:10:45Z</time>
      </trkpt>
      <trkpt lat="46.84253" lon="6.55993">
        <ele>1221.4322509766</ele>
        <time>2010-05-29T13:11:04Z</time>
      </trkpt>
      <trkpt lat="46.84253" lon="6.55995">
        <ele>1221.3095703125</ele>
        <time>2010-05-29T13:11:07Z</time>
      </trkpt>
      <trkpt lat="46.84254" lon="6.55999">
        <ele>1220.9259033203</ele>
        <time>2010-05-29T13:11:30Z</time>
      </trkpt>
      <trkpt lat="46.84254" lon="6.56001">
        <ele>1220.794921875</ele>
        <time>2010-05-29T13:11:31Z</time>
      </trkpt>
      <trkpt lat="46.84261" lon="6.55998">
        <ele>1222.1623535156</ele>
        <time>2010-05-29T13:11:35Z</time>
      </trkpt>
      <trkpt lat="46.84261" lon="6.55995">
        <ele>1222.6614990234</ele>
        <time>2010-05-29T13:11:36Z</time>
      </trkpt>
      <trkpt lat="46.84262" lon="6.55988">
        <ele>1223.7426757812</ele>
        <time>2010-05-29T13:11:39Z</time>
      </trkpt>
      <trkpt lat="46.84262" lon="6.55986">
        <ele>1224.0612792969</ele>
        <time>2010-05-29T13:11:40Z</time>
      </trkpt>
      <trkpt lat="46.84266" lon="6.55979">
        <ele>1225.4747314453</ele>
        <time>2010-05-29T13:11:44Z</time>
      </trkpt>
      <trkpt lat="46.84267" lon="6.55978">
        <ele>1225.8468017578</ele>
        <time>2010-05-29T13:11:46Z</time>
      </trkpt>
      <trkpt lat="46.84268" lon="6.55976">
        <ele>1226.1055908203</ele>
        <time>2010-05-29T13:11:48Z</time>
      </trkpt>
      <trkpt lat="46.8427" lon="6.55976">
        <ele>1226.4696044922</ele>
        <time>2010-05-29T13:11:51Z</time>
      </trkpt>
      <trkpt lat="46.84276" lon="6.55971">
        <ele>1227.7780761719</ele>
        <time>2010-05-29T13:11:59Z</time>
      </trkpt>
      <trkpt lat="46.84282" lon="6.55968">
        <ele>1228.6472167969</ele>
        <time>2010-05-29T13:12:03Z</time>
      </trkpt>
      <trkpt lat="46.84287" lon="6.55963">
        <ele>1229.4608154297</ele>
        <time>2010-05-29T13:12:06Z</time>
      </trkpt>
      <trkpt lat="46.8429" lon="6.55956">
        <ele>1230.2896728516</ele>
        <time>2010-05-29T13:12:12Z</time>
      </trkpt>
      <trkpt lat="46.84296" lon="6.55944">
        <ele>1232.0389404297</ele>
        <time>2010-05-29T13:12:34Z</time>
      </trkpt>
      <trkpt lat="46.84298" lon="6.55944">
        <ele>1232.2144775391</ele>
        <time>2010-05-29T13:12:36Z</time>
      </trkpt>
      <trkpt lat="46.84307" lon="6.55954">
        <ele>1232.1104736328</ele>
        <time>2010-05-29T13:12:43Z</time>
      </trkpt>
      <trkpt lat="46.84315" lon="6.55961">
        <ele>1232.4810791016</ele>
        <time>2010-05-29T13:12:49Z</time>
      </trkpt>
      <trkpt lat="46.84325" lon="6.5597">
        <ele>1232.9260253906</ele>
        <time>2010-05-29T13:12:55Z</time>
      </trkpt>
      <trkpt lat="46.84328" lon="6.55975">
        <ele>1232.9738769531</ele>
        <time>2010-05-29T13:12:58Z</time>
      </trkpt>
      <trkpt lat="46.84335" lon="6.55973">
        <ele>1234.1763916016</ele>
        <time>2010-05-29T13:13:02Z</time>
      </trkpt>
      <trkpt lat="46.84346" lon="6.55979">
        <ele>1234.8638916016</ele>
        <time>2010-05-29T13:13:09Z</time>
      </trkpt>
      <trkpt lat="46.84359" lon="6.55986">
        <ele>1236.1430664062</ele>
        <time>2010-05-29T13:13:18Z</time>
      </trkpt>
      <trkpt lat="46.84367" lon="6.55991">
        <ele>1236.4177246094</ele>
        <time>2010-05-29T13:13:24Z</time>
      </trkpt>
      <trkpt lat="46.84371" lon="6.55991">
        <ele>1236.6529541016</ele>
        <time>2010-05-29T13:13:27Z</time>
      </trkpt>
      <trkpt lat="46.84373" lon="6.55989">
        <ele>1237.0460205078</ele>
        <time>2010-05-29T13:13:30Z</time>
      </trkpt>
      <trkpt lat="46.84377" lon="6.55991">
        <ele>1237.0374755859</ele>
        <time>2010-05-29T13:13:34Z</time>
      </trkpt>
      <trkpt lat="46.84386" lon="6.55991">
        <ele>1237.7069091797</ele>
        <time>2010-05-29T13:13:43Z</time>
      </trkpt>
      <trkpt lat="46.84392" lon="6.55992">
        <ele>1238.1809082031</ele>
        <time>2010-05-29T13:13:50Z</time>
      </trkpt>
      <trkpt lat="46.84392" lon="6.55992">
        <ele>1238.203125</ele>
        <time>2010-05-29T13:13:52Z</time>
      </trkpt>
      <trkpt lat="46.84392" lon="6.55989">
        <ele>1238.4428710938</ele>
        <time>2010-05-29T13:13:59Z</time>
      </trkpt>
      <trkpt lat="46.84393" lon="6.55984">
        <ele>1239.1296386719</ele>
        <time>2010-05-29T13:14:52Z</time>
      </trkpt>
      <trkpt lat="46.84398" lon="6.55988">
        <ele>1239.2495117188</ele>
        <time>2010-05-29T13:14:57Z</time>
      </trkpt>
      <trkpt lat="46.84402" lon="6.55991">
        <ele>1239.2867431641</ele>
        <time>2010-05-29T13:15:03Z</time>
      </trkpt>
      <trkpt lat="46.84411" lon="6.55995">
        <ele>1239.4085693359</ele>
        <time>2010-05-29T13:15:09Z</time>
      </trkpt>
      <trkpt lat="46.84418" lon="6.55999">
        <ele>1239.3264160156</ele>
        <time>2010-05-29T13:15:15Z</time>
      </trkpt>
      <trkpt lat="46.84418" lon="6.55999">
        <ele>1239.3264160156</ele>
        <time>2010-05-29T13:15:16Z</time>
      </trkpt>
      <trkpt lat="46.84426" lon="6.56002">
        <ele>1239.8845214844</ele>
        <time>2010-05-29T13:15:45Z</time>
      </trkpt>
      <trkpt lat="46.84438" lon="6.56007">
        <ele>1240.6190185547</ele>
        <time>2010-05-29T13:15:51Z</time>
      </trkpt>
      <trkpt lat="46.8445" lon="6.56013">
        <ele>1241.6319580078</ele>
        <time>2010-05-29T13:15:58Z</time>
      </trkpt>
      <trkpt lat="46.84459" lon="6.56018">
        <ele>1242.5709228516</ele>
        <time>2010-05-29T13:16:05Z</time>
      </trkpt>
      <trkpt lat="46.8447" lon="6.56022">
        <ele>1244.1862792969</ele>
        <time>2010-05-29T13:16:12Z</time>
      </trkpt>
      <trkpt lat="46.84477" lon="6.56022">
        <ele>1245.1265869141</ele>
        <time>2010-05-29T13:16:19Z</time>
      </trkpt>
      <trkpt lat="46.84478" lon="6.56021">
        <ele>1245.3428955078</ele>
        <time>2010-05-29T13:16:29Z</time>
      </trkpt>
      <trkpt lat="46.8448" lon="6.56024">
        <ele>1245.2913818359</ele>
        <time>2010-05-29T13:16:33Z</time>
      </trkpt>
      <trkpt lat="46.84488" lon="6.56034">
        <ele>1244.6276855469</ele>
        <time>2010-05-29T13:16:41Z</time>
      </trkpt>
      <trkpt lat="46.84499" lon="6.56037">
        <ele>1245.1546630859</ele>
        <time>2010-05-29T13:16:46Z</time>
      </trkpt>
      <trkpt lat="46.84509" lon="6.56031">
        <ele>1247.4926757812</ele>
        <time>2010-05-29T13:16:50Z</time>
      </trkpt>
      <trkpt lat="46.84517" lon="6.56031">
        <ele>1248.2719726562</ele>
        <time>2010-05-29T13:16:53Z</time>
      </trkpt>
      <trkpt lat="46.84523" lon="6.56032">
        <ele>1248.6856689453</ele>
        <time>2010-05-29T13:16:55Z</time>
      </trkpt>
      <trkpt lat="46.84536" lon="6.56045">
        <ele>1247.7330322266</ele>
        <time>2010-05-29T13:17:01Z</time>
      </trkpt>
      <trkpt lat="46.84548" lon="6.56053">
        <ele>1247.7209472656</ele>
        <time>2010-05-29T13:17:06Z</time>
      </trkpt>
      <trkpt lat="46.84551" lon="6.56056">
        <ele>1247.5194091797</ele>
        <time>2010-05-29T13:17:10Z</time>
      </trkpt>
      <trkpt lat="46.84557" lon="6.56072">
        <ele>1246.3770751953</ele>
        <time>2010-05-29T13:18:04Z</time>
      </trkpt>
      <trkpt lat="46.84575" lon="6.56091">
        <ele>1244.9222412109</ele>
        <time>2010-05-29T13:18:10Z</time>
      </trkpt>
      <trkpt lat="46.84591" lon="6.5612">
        <ele>1241.6530761719</ele>
        <time>2010-05-29T13:18:16Z</time>
      </trkpt>
      <trkpt lat="46.84602" lon="6.56139">
        <ele>1239.7435302734</ele>
        <time>2010-05-29T13:18:20Z</time>
      </trkpt>
      <trkpt lat="46.84608" lon="6.56172">
        <ele>1238.2583007812</ele>
        <time>2010-05-29T13:18:25Z</time>
      </trkpt>
      <trkpt lat="46.84599" lon="6.56191">
        <ele>1235.4653320312</ele>
        <time>2010-05-29T13:18:28Z</time>
      </trkpt>
      <trkpt lat="46.84582" lon="6.56207">
        <ele>1232.92578125</ele>
        <time>2010-05-29T13:18:31Z</time>
      </trkpt>
      <trkpt lat="46.84566" lon="6.56219">
        <ele>1230.4709472656</ele>
        <time>2010-05-29T13:18:35Z</time>
      </trkpt>
      <trkpt lat="46.84566" lon="6.56228">
        <ele>1229.4322509766</ele>
        <time>2010-05-29T13:18:39Z</time>
      </trkpt>
      <trkpt lat="46.84575" lon="6.56229">
        <ele>1230.3797607422</ele>
        <time>2010-05-29T13:18:42Z</time>
      </trkpt>
      <trkpt lat="46.84587" lon="6.56231">
        <ele>1231.3103027344</ele>
        <time>2010-05-29T13:18:45Z</time>
      </trkpt>
      <trkpt lat="46.84597" lon="6.56233">
        <ele>1231.7772216797</ele>
        <time>2010-05-29T13:18:47Z</time>
      </trkpt>
      <trkpt lat="46.84612" lon="6.5624">
        <ele>1232.2174072266</ele>
        <time>2010-05-29T13:18:50Z</time>
      </trkpt>
      <trkpt lat="46.84617" lon="6.56242">
        <ele>1232.4799804688</ele>
        <time>2010-05-29T13:18:51Z</time>
      </trkpt>
      <trkpt lat="46.84628" lon="6.56246">
        <ele>1233.185546875</ele>
        <time>2010-05-29T13:18:53Z</time>
      </trkpt>
      <trkpt lat="46.84644" lon="6.56252">
        <ele>1234.6375732422</ele>
        <time>2010-05-29T13:18:56Z</time>
      </trkpt>
      <trkpt lat="46.84654" lon="6.56256">
        <ele>1235.8327636719</ele>
        <time>2010-05-29T13:18:58Z</time>
      </trkpt>
      <trkpt lat="46.84658" lon="6.56257">
        <ele>1236.3959960938</ele>
        <time>2010-05-29T13:18:59Z</time>
      </trkpt>
      <trkpt lat="46.84663" lon="6.56258">
        <ele>1236.9984130859</ele>
        <time>2010-05-29T13:19:00Z</time>
      </trkpt>
      <trkpt lat="46.84676" lon="6.56262">
        <ele>1237.9274902344</ele>
        <time>2010-05-29T13:19:03Z</time>
      </trkpt>
      <trkpt lat="46.8468" lon="6.56263">
        <ele>1238.2373046875</ele>
        <time>2010-05-29T13:19:04Z</time>
      </trkpt>
      <trkpt lat="46.84686" lon="6.56266">
        <ele>1238.6303710938</ele>
        <time>2010-05-29T13:19:07Z</time>
      </trkpt>
      <trkpt lat="46.84698" lon="6.56274">
        <ele>1239.7384033203</ele>
        <time>2010-05-29T13:19:14Z</time>
      </trkpt>
      <trkpt lat="46.84705" lon="6.56278">
        <ele>1240.5841064453</ele>
        <time>2010-05-29T13:19:17Z</time>
      </trkpt>
      <trkpt lat="46.84709" lon="6.56292">
        <ele>1239.6293945312</ele>
        <time>2010-05-29T13:19:23Z</time>
      </trkpt>
      <trkpt lat="46.84715" lon="6.56299">
        <ele>1239.6534423828</ele>
        <time>2010-05-29T13:19:27Z</time>
      </trkpt>
      <trkpt lat="46.84726" lon="6.56312">
        <ele>1239.8923339844</ele>
        <time>2010-05-29T13:19:33Z</time>
      </trkpt>
      <trkpt lat="46.84741" lon="6.56334">
        <ele>1239.2502441406</ele>
        <time>2010-05-29T13:19:40Z</time>
      </trkpt>
      <trkpt lat="46.8476" lon="6.56355">
        <ele>1239.5517578125</ele>
        <time>2010-05-29T13:19:46Z</time>
      </trkpt>
      <trkpt lat="46.84781" lon="6.56383">
        <ele>1240.6118164062</ele>
        <time>2010-05-29T13:19:52Z</time>
      </trkpt>
      <trkpt lat="46.84795" lon="6.56408">
        <ele>1239.8189697266</ele>
        <time>2010-05-29T13:19:57Z</time>
      </trkpt>
      <trkpt lat="46.84823" lon="6.56436">
        <ele>1241.3708496094</ele>
        <time>2010-05-29T13:20:04Z</time>
      </trkpt>
      <trkpt lat="46.84842" lon="6.56455">
        <ele>1241.7716064453</ele>
        <time>2010-05-29T13:20:09Z</time>
      </trkpt>
      <trkpt lat="46.84869" lon="6.56489">
        <ele>1241.3233642578</ele>
        <time>2010-05-29T13:20:17Z</time>
      </trkpt>
      <trkpt lat="46.84881" lon="6.56501">
        <ele>1241.9898681641</ele>
        <time>2010-05-29T13:20:22Z</time>
      </trkpt>
      <trkpt lat="46.84893" lon="6.56515">
        <ele>1241.8353271484</ele>
        <time>2010-05-29T13:20:27Z</time>
      </trkpt>
      <trkpt lat="46.84914" lon="6.5653">
        <ele>1242.5114746094</ele>
        <time>2010-05-29T13:20:34Z</time>
      </trkpt>
      <trkpt lat="46.84945" lon="6.56549">
        <ele>1243.4801025391</ele>
        <time>2010-05-29T13:20:43Z</time>
      </trkpt>
      <trkpt lat="46.84969" lon="6.56562">
        <ele>1244.1203613281</ele>
        <time>2010-05-29T13:20:51Z</time>
      </trkpt>
      <trkpt lat="46.84993" lon="6.56564">
        <ele>1245.6137695312</ele>
        <time>2010-05-29T13:20:59Z</time>
      </trkpt>
      <trkpt lat="46.85015" lon="6.56552">
        <ele>1248.3449707031</ele>
        <time>2010-05-29T13:21:07Z</time>
      </trkpt>
      <trkpt lat="46.85026" lon="6.5655">
        <ele>1249.2857666016</ele>
        <time>2010-05-29T13:21:13Z</time>
      </trkpt>
      <trkpt lat="46.85044" lon="6.56545">
        <ele>1250.5588378906</ele>
        <time>2010-05-29T13:21:22Z</time>
      </trkpt>
      <trkpt lat="46.85049" lon="6.56545">
        <ele>1250.8199462891</ele>
        <time>2010-05-29T13:21:26Z</time>
      </trkpt>
      <trkpt lat="46.85051" lon="6.56546">
        <ele>1250.806640625</ele>
        <time>2010-05-29T13:21:30Z</time>
      </trkpt>
      <trkpt lat="46.85054" lon="6.56552">
        <ele>1250.359375</ele>
        <time>2010-05-29T13:21:46Z</time>
      </trkpt>
      <trkpt lat="46.85057" lon="6.56555">
        <ele>1250.2235107422</ele>
        <time>2010-05-29T13:21:47Z</time>
      </trkpt>
      <trkpt lat="46.85075" lon="6.56576">
        <ele>1249.4006347656</ele>
        <time>2010-05-29T13:21:53Z</time>
      </trkpt>
      <trkpt lat="46.85093" lon="6.56596">
        <ele>1249.1451416016</ele>
        <time>2010-05-29T13:21:58Z</time>
      </trkpt>
      <trkpt lat="46.85119" lon="6.56612">
        <ele>1250.7913818359</ele>
        <time>2010-05-29T13:22:03Z</time>
      </trkpt>
      <trkpt lat="46.85143" lon="6.56621">
        <ele>1252.3479003906</ele>
        <time>2010-05-29T13:22:08Z</time>
      </trkpt>
      <trkpt lat="46.85147" lon="6.56625">
        <ele>1252.5340576172</ele>
        <time>2010-05-29T13:22:11Z</time>
      </trkpt>
      <trkpt lat="46.85146" lon="6.56625">
        <ele>1252.4580078125</ele>
        <time>2010-05-29T13:22:12Z</time>
      </trkpt>
      <trkpt lat="46.85144" lon="6.56629">
        <ele>1251.6756591797</ele>
        <time>2010-05-29T13:22:21Z</time>
      </trkpt>
      <trkpt lat="46.85144" lon="6.5663">
        <ele>1251.5833740234</ele>
        <time>2010-05-29T13:22:22Z</time>
      </trkpt>
      <trkpt lat="46.85144" lon="6.56645">
        <ele>1250.4088134766</ele>
        <time>2010-05-29T13:22:27Z</time>
      </trkpt>
      <trkpt lat="46.85146" lon="6.56667">
        <ele>1249.7810058594</ele>
        <time>2010-05-29T13:22:31Z</time>
      </trkpt>
      <trkpt lat="46.85155" lon="6.56696">
        <ele>1248.2104492188</ele>
        <time>2010-05-29T13:22:36Z</time>
      </trkpt>
      <trkpt lat="46.85159" lon="6.56719">
        <ele>1247.0947265625</ele>
        <time>2010-05-29T13:22:39Z</time>
      </trkpt>
      <trkpt lat="46.85163" lon="6.56767">
        <ele>1244.1871337891</ele>
        <time>2010-05-29T13:22:44Z</time>
      </trkpt>
      <trkpt lat="46.85165" lon="6.56785">
        <ele>1243.2786865234</ele>
        <time>2010-05-29T13:22:46Z</time>
      </trkpt>
      <trkpt lat="46.85168" lon="6.56811">
        <ele>1241.7969970703</ele>
        <time>2010-05-29T13:22:49Z</time>
      </trkpt>
      <trkpt lat="46.85176" lon="6.56839">
        <ele>1240.7799072266</ele>
        <time>2010-05-29T13:22:53Z</time>
      </trkpt>
      <trkpt lat="46.8519" lon="6.56873">
        <ele>1239.5474853516</ele>
        <time>2010-05-29T13:22:58Z</time>
      </trkpt>
      <trkpt lat="46.85192" lon="6.5688">
        <ele>1239.3792724609</ele>
        <time>2010-05-29T13:22:59Z</time>
      </trkpt>
      <trkpt lat="46.85204" lon="6.5691">
        <ele>1238.0668945312</ele>
        <time>2010-05-29T13:23:04Z</time>
      </trkpt>
      <trkpt lat="46.85207" lon="6.56932">
        <ele>1236.7416992188</ele>
        <time>2010-05-29T13:23:08Z</time>
      </trkpt>
      <trkpt lat="46.85212" lon="6.56948">
        <ele>1236.0373535156</ele>
        <time>2010-05-29T13:23:10Z</time>
      </trkpt>
      <trkpt lat="46.85223" lon="6.56971">
        <ele>1235.1728515625</ele>
        <time>2010-05-29T13:23:13Z</time>
      </trkpt>
      <trkpt lat="46.85232" lon="6.56992">
        <ele>1233.9162597656</ele>
        <time>2010-05-29T13:23:16Z</time>
      </trkpt>
      <trkpt lat="46.85237" lon="6.57006">
        <ele>1232.9068603516</ele>
        <time>2010-05-29T13:23:18Z</time>
      </trkpt>
      <trkpt lat="46.85249" lon="6.57034">
        <ele>1231.2177734375</ele>
        <time>2010-05-29T13:23:23Z</time>
      </trkpt>
      <trkpt lat="46.85253" lon="6.57038">
        <ele>1231.5263671875</ele>
        <time>2010-05-29T13:23:24Z</time>
      </trkpt>
      <trkpt lat="46.85276" lon="6.5706">
        <ele>1233.7645263672</ele>
        <time>2010-05-29T13:23:30Z</time>
      </trkpt>
      <trkpt lat="46.85294" lon="6.57076">
        <ele>1234.125</ele>
        <time>2010-05-29T13:23:35Z</time>
      </trkpt>
      <trkpt lat="46.85307" lon="6.57086">
        <ele>1234.9521484375</ele>
        <time>2010-05-29T13:23:40Z</time>
      </trkpt>
      <trkpt lat="46.85328" lon="6.57107">
        <ele>1235.6319580078</ele>
        <time>2010-05-29T13:23:46Z</time>
      </trkpt>
      <trkpt lat="46.8534" lon="6.5712">
        <ele>1235.7260742188</ele>
        <time>2010-05-29T13:23:50Z</time>
      </trkpt>
      <trkpt lat="46.85355" lon="6.57132">
        <ele>1236.0418701172</ele>
        <time>2010-05-29T13:23:55Z</time>
      </trkpt>
      <trkpt lat="46.85371" lon="6.5715">
        <ele>1236.8952636719</ele>
        <time>2010-05-29T13:24:00Z</time>
      </trkpt>
      <trkpt lat="46.85387" lon="6.57165">
        <ele>1238.8214111328</ele>
        <time>2010-05-29T13:24:04Z</time>
      </trkpt>
      <trkpt lat="46.85394" lon="6.57172">
        <ele>1238.7789306641</ele>
        <time>2010-05-29T13:24:07Z</time>
      </trkpt>
      <trkpt lat="46.85396" lon="6.57176">
        <ele>1238.3325195312</ele>
        <time>2010-05-29T13:24:09Z</time>
      </trkpt>
      <trkpt lat="46.85403" lon="6.5719">
        <ele>1237.0690917969</ele>
        <time>2010-05-29T13:24:15Z</time>
      </trkpt>
      <trkpt lat="46.85408" lon="6.57203">
        <ele>1236.1723632812</ele>
        <time>2010-05-29T13:24:19Z</time>
      </trkpt>
      <trkpt lat="46.85412" lon="6.57208">
        <ele>1236.0642089844</ele>
        <time>2010-05-29T13:24:21Z</time>
      </trkpt>
      <trkpt lat="46.85421" lon="6.57225">
        <ele>1235.8076171875</ele>
        <time>2010-05-29T13:24:25Z</time>
      </trkpt>
      <trkpt lat="46.85439" lon="6.57248">
        <ele>1237.0526123047</ele>
        <time>2010-05-29T13:24:30Z</time>
      </trkpt>
      <trkpt lat="46.85455" lon="6.57264">
        <ele>1238.0241699219</ele>
        <time>2010-05-29T13:24:35Z</time>
      </trkpt>
      <trkpt lat="46.85466" lon="6.57289">
        <ele>1236.9255371094</ele>
        <time>2010-05-29T13:24:40Z</time>
      </trkpt>
      <trkpt lat="46.85468" lon="6.57307">
        <ele>1235.2672119141</ele>
        <time>2010-05-29T13:24:43Z</time>
      </trkpt>
      <trkpt lat="46.8548" lon="6.57341">
        <ele>1234.1510009766</ele>
        <time>2010-05-29T13:24:49Z</time>
      </trkpt>
      <trkpt lat="46.8549" lon="6.57359">
        <ele>1234.7294921875</ele>
        <time>2010-05-29T13:24:53Z</time>
      </trkpt>
      <trkpt lat="46.85503" lon="6.57379">
        <ele>1235.6135253906</ele>
        <time>2010-05-29T13:24:57Z</time>
      </trkpt>
      <trkpt lat="46.85518" lon="6.57395">
        <ele>1237.0296630859</ele>
        <time>2010-05-29T13:25:03Z</time>
      </trkpt>
      <trkpt lat="46.85527" lon="6.57408">
        <ele>1237.7165527344</ele>
        <time>2010-05-29T13:25:08Z</time>
      </trkpt>
      <trkpt lat="46.85532" lon="6.57412">
        <ele>1238.2283935547</ele>
        <time>2010-05-29T13:25:10Z</time>
      </trkpt>
      <trkpt lat="46.8554" lon="6.57424">
        <ele>1238.5554199219</ele>
        <time>2010-05-29T13:25:15Z</time>
      </trkpt>
      <trkpt lat="46.85543" lon="6.57428">
        <ele>1238.8018798828</ele>
        <time>2010-05-29T13:25:16Z</time>
      </trkpt>
      <trkpt lat="46.85552" lon="6.57438">
        <ele>1239.1682128906</ele>
        <time>2010-05-29T13:25:21Z</time>
      </trkpt>
      <trkpt lat="46.85555" lon="6.57443">
        <ele>1239.0379638672</ele>
        <time>2010-05-29T13:25:23Z</time>
      </trkpt>
      <trkpt lat="46.85562" lon="6.57452">
        <ele>1240.2974853516</ele>
        <time>2010-05-29T13:25:28Z</time>
      </trkpt>
      <trkpt lat="46.85571" lon="6.57471">
        <ele>1240.9528808594</ele>
        <time>2010-05-29T13:25:34Z</time>
      </trkpt>
      <trkpt lat="46.85582" lon="6.57486">
        <ele>1243.6823730469</ele>
        <time>2010-05-29T13:25:39Z</time>
      </trkpt>
      <trkpt lat="46.85594" lon="6.57501">
        <ele>1245.5362548828</ele>
        <time>2010-05-29T13:25:44Z</time>
      </trkpt>
      <trkpt lat="46.85603" lon="6.57516">
        <ele>1245.5843505859</ele>
        <time>2010-05-29T13:25:50Z</time>
      </trkpt>
      <trkpt lat="46.85613" lon="6.57532">
        <ele>1245.9207763672</ele>
        <time>2010-05-29T13:25:55Z</time>
      </trkpt>
      <trkpt lat="46.85619" lon="6.57551">
        <ele>1245.5296630859</ele>
        <time>2010-05-29T13:26:00Z</time>
      </trkpt>
      <trkpt lat="46.85621" lon="6.57561">
        <ele>1244.8616943359</ele>
        <time>2010-05-29T13:26:03Z</time>
      </trkpt>
      <trkpt lat="46.85626" lon="6.57565">
        <ele>1245.4478759766</ele>
        <time>2010-05-29T13:26:06Z</time>
      </trkpt>
      <trkpt lat="46.85628" lon="6.57569">
        <ele>1245.4221191406</ele>
        <time>2010-05-29T13:26:09Z</time>
      </trkpt>
      <trkpt lat="46.8563" lon="6.57571">
        <ele>1245.78125</ele>
        <time>2010-05-29T13:26:11Z</time>
      </trkpt>
      <trkpt lat="46.85638" lon="6.57579">
        <ele>1246.5091552734</ele>
        <time>2010-05-29T13:26:17Z</time>
      </trkpt>
      <trkpt lat="46.85643" lon="6.57581">
        <ele>1247.7935791016</ele>
        <time>2010-05-29T13:26:20Z</time>
      </trkpt>
      <trkpt lat="46.85649" lon="6.57583">
        <ele>1249.3302001953</ele>
        <time>2010-05-29T13:26:23Z</time>
      </trkpt>
      <trkpt lat="46.85655" lon="6.5759">
        <ele>1250.5782470703</ele>
        <time>2010-05-29T13:26:27Z</time>
      </trkpt>
      <trkpt lat="46.85666" lon="6.57601">
        <ele>1252.9781494141</ele>
        <time>2010-05-29T13:26:33Z</time>
      </trkpt>
      <trkpt lat="46.8567" lon="6.57607">
        <ele>1253.4251708984</ele>
        <time>2010-05-29T13:26:35Z</time>
      </trkpt>
      <trkpt lat="46.8568" lon="6.57623">
        <ele>1254.0671386719</ele>
        <time>2010-05-29T13:26:40Z</time>
      </trkpt>
      <trkpt lat="46.85684" lon="6.57629">
        <ele>1254.4448242188</ele>
        <time>2010-05-29T13:26:44Z</time>
      </trkpt>
      <trkpt lat="46.85685" lon="6.57647">
        <ele>1253.0130615234</ele>
        <time>2010-05-29T13:27:40Z</time>
      </trkpt>
      <trkpt lat="46.85686" lon="6.57649">
        <ele>1253.0556640625</ele>
        <time>2010-05-29T13:27:41Z</time>
      </trkpt>
      <trkpt lat="46.85686" lon="6.57664">
        <ele>1251.7882080078</ele>
        <time>2010-05-29T13:27:45Z</time>
      </trkpt>
      <trkpt lat="46.85688" lon="6.57688">
        <ele>1249.8044433594</ele>
        <time>2010-05-29T13:27:49Z</time>
      </trkpt>
      <trkpt lat="46.8569" lon="6.57699">
        <ele>1249.2259521484</ele>
        <time>2010-05-29T13:27:50Z</time>
      </trkpt>
      <trkpt lat="46.857" lon="6.5774">
        <ele>1247.49609375</ele>
        <time>2010-05-29T13:27:54Z</time>
      </trkpt>
      <trkpt lat="46.85705" lon="6.5776">
        <ele>1246.3005371094</ele>
        <time>2010-05-29T13:27:56Z</time>
      </trkpt>
      <trkpt lat="46.85704" lon="6.57785">
        <ele>1243.4376220703</ele>
        <time>2010-05-29T13:28:00Z</time>
      </trkpt>
      <trkpt lat="46.85707" lon="6.57783">
        <ele>1243.9239501953</ele>
        <time>2010-05-29T13:28:02Z</time>
      </trkpt>
      <trkpt lat="46.85704" lon="6.57781">
        <ele>1243.7667236328</ele>
        <time>2010-05-29T13:28:10Z</time>
      </trkpt>
      <trkpt lat="46.85698" lon="6.57792">
        <ele>1241.8676757812</ele>
        <time>2010-05-29T13:28:15Z</time>
      </trkpt>
      <trkpt lat="46.85694" lon="6.57803">
        <ele>1240.1384277344</ele>
        <time>2010-05-29T13:28:17Z</time>
      </trkpt>
      <trkpt lat="46.85677" lon="6.57831">
        <ele>1233.7369384766</ele>
        <time>2010-05-29T13:28:23Z</time>
      </trkpt>
      <trkpt lat="46.85674" lon="6.5785">
        <ele>1232.1607666016</ele>
        <time>2010-05-29T13:28:26Z</time>
      </trkpt>
      <trkpt lat="46.85678" lon="6.57867">
        <ele>1232.0238037109</ele>
        <time>2010-05-29T13:28:29Z</time>
      </trkpt>
      <trkpt lat="46.85688" lon="6.579">
        <ele>1231.6632080078</ele>
        <time>2010-05-29T13:28:36Z</time>
      </trkpt>
      <trkpt lat="46.85692" lon="6.57924">
        <ele>1230.8356933594</ele>
        <time>2010-05-29T13:28:40Z</time>
      </trkpt>
      <trkpt lat="46.85699" lon="6.57953">
        <ele>1229.9377441406</ele>
        <time>2010-05-29T13:28:46Z</time>
      </trkpt>
      <trkpt lat="46.85709" lon="6.57971">
        <ele>1230.2052001953</ele>
        <time>2010-05-29T13:28:52Z</time>
      </trkpt>
      <trkpt lat="46.85717" lon="6.57986">
        <ele>1229.7283935547</ele>
        <time>2010-05-29T13:28:57Z</time>
      </trkpt>
      <trkpt lat="46.85719" lon="6.5799">
        <ele>1229.6030273438</ele>
        <time>2010-05-29T13:28:58Z</time>
      </trkpt>
      <trkpt lat="46.85722" lon="6.58013">
        <ele>1228.4781494141</ele>
        <time>2010-05-29T13:29:05Z</time>
      </trkpt>
      <trkpt lat="46.85725" lon="6.58033">
        <ele>1228.0096435547</ele>
        <time>2010-05-29T13:29:10Z</time>
      </trkpt>
      <trkpt lat="46.85733" lon="6.58059">
        <ele>1226.8981933594</ele>
        <time>2010-05-29T13:29:18Z</time>
      </trkpt>
      <trkpt lat="46.8574" lon="6.58077">
        <ele>1227.4852294922</ele>
        <time>2010-05-29T13:29:24Z</time>
      </trkpt>
      <trkpt lat="46.85748" lon="6.58093">
        <ele>1227.5462646484</ele>
        <time>2010-05-29T13:29:30Z</time>
      </trkpt>
      <trkpt lat="46.8576" lon="6.5812">
        <ele>1226.9899902344</ele>
        <time>2010-05-29T13:29:39Z</time>
      </trkpt>
      <trkpt lat="46.85767" lon="6.58138">
        <ele>1226.8447265625</ele>
        <time>2010-05-29T13:29:45Z</time>
      </trkpt>
      <trkpt lat="46.85775" lon="6.58157">
        <ele>1226.2424316406</ele>
        <time>2010-05-29T13:29:52Z</time>
      </trkpt>
      <trkpt lat="46.85787" lon="6.58187">
        <ele>1225.5668945312</ele>
        <time>2010-05-29T13:30:02Z</time>
      </trkpt>
      <trkpt lat="46.85795" lon="6.58201">
        <ele>1225.2736816406</ele>
        <time>2010-05-29T13:30:08Z</time>
      </trkpt>
      <trkpt lat="46.85806" lon="6.58225">
        <ele>1223.8562011719</ele>
        <time>2010-05-29T13:30:16Z</time>
      </trkpt>
      <trkpt lat="46.85816" lon="6.58238">
        <ele>1224.0003662109</ele>
        <time>2010-05-29T13:30:21Z</time>
      </trkpt>
      <trkpt lat="46.85824" lon="6.58257">
        <ele>1223.3433837891</ele>
        <time>2010-05-29T13:30:27Z</time>
      </trkpt>
      <trkpt lat="46.8583" lon="6.58273">
        <ele>1222.2514648438</ele>
        <time>2010-05-29T13:30:33Z</time>
      </trkpt>
      <trkpt lat="46.85833" lon="6.58281">
        <ele>1221.7703857422</ele>
        <time>2010-05-29T13:30:37Z</time>
      </trkpt>
      <trkpt lat="46.85833" lon="6.58281">
        <ele>1221.7772216797</ele>
        <time>2010-05-29T13:30:38Z</time>
      </trkpt>
      <trkpt lat="46.85833" lon="6.58282">
        <ele>1221.6639404297</ele>
        <time>2010-05-29T13:30:47Z</time>
      </trkpt>
      <trkpt lat="46.85834" lon="6.58285">
        <ele>1221.5310058594</ele>
        <time>2010-05-29T13:30:56Z</time>
      </trkpt>
      <trkpt lat="46.85835" lon="6.58287">
        <ele>1221.4829101562</ele>
        <time>2010-05-29T13:30:57Z</time>
      </trkpt>
      <trkpt lat="46.85836" lon="6.58292">
        <ele>1221.3009033203</ele>
        <time>2010-05-29T13:30:59Z</time>
      </trkpt>
      <trkpt lat="46.85841" lon="6.58315">
        <ele>1219.7222900391</ele>
        <time>2010-05-29T13:31:04Z</time>
      </trkpt>
      <trkpt lat="46.85845" lon="6.58344">
        <ele>1217.0659179688</ele>
        <time>2010-05-29T13:31:08Z</time>
      </trkpt>
      <trkpt lat="46.8585" lon="6.58361">
        <ele>1216.1805419922</ele>
        <time>2010-05-29T13:31:11Z</time>
      </trkpt>
      <trkpt lat="46.85857" lon="6.58381">
        <ele>1214.6098632812</ele>
        <time>2010-05-29T13:31:14Z</time>
      </trkpt>
      <trkpt lat="46.85877" lon="6.58419">
        <ele>1213.4166259766</ele>
        <time>2010-05-29T13:31:19Z</time>
      </trkpt>
      <trkpt lat="46.85882" lon="6.58428">
        <ele>1212.6907958984</ele>
        <time>2010-05-29T13:31:20Z</time>
      </trkpt>
      <trkpt lat="46.85897" lon="6.58475">
        <ele>1209.4464111328</ele>
        <time>2010-05-29T13:31:24Z</time>
      </trkpt>
      <trkpt lat="46.85913" lon="6.58551">
        <ele>1203.1282958984</ele>
        <time>2010-05-29T13:31:30Z</time>
      </trkpt>
      <trkpt lat="46.85932" lon="6.58617">
        <ele>1201.2933349609</ele>
        <time>2010-05-29T13:31:35Z</time>
      </trkpt>
      <trkpt lat="46.85944" lon="6.58659">
        <ele>1199.9979248047</ele>
        <time>2010-05-29T13:31:39Z</time>
      </trkpt>
      <trkpt lat="46.85953" lon="6.58686">
        <ele>1202.9102783203</ele>
        <time>2010-05-29T13:31:43Z</time>
      </trkpt>
      <trkpt lat="46.85955" lon="6.58692">
        <ele>1203.4719238281</ele>
        <time>2010-05-29T13:31:44Z</time>
      </trkpt>
      <trkpt lat="46.8597" lon="6.58731">
        <ele>1205.7270507812</ele>
        <time>2010-05-29T13:31:51Z</time>
      </trkpt>
      <trkpt lat="46.85981" lon="6.58756">
        <ele>1206.8352050781</ele>
        <time>2010-05-29T13:31:55Z</time>
      </trkpt>
      <trkpt lat="46.85988" lon="6.58768">
        <ele>1208.0145263672</ele>
        <time>2010-05-29T13:31:59Z</time>
      </trkpt>
      <trkpt lat="46.85989" lon="6.58768">
        <ele>1208.2873535156</ele>
        <time>2010-05-29T13:32:01Z</time>
      </trkpt>
      <trkpt lat="46.85992" lon="6.5877">
        <ele>1208.8614501953</ele>
        <time>2010-05-29T13:32:09Z</time>
      </trkpt>
      <trkpt lat="46.85994" lon="6.58778">
        <ele>1208.6225585938</ele>
        <time>2010-05-29T13:32:15Z</time>
      </trkpt>
      <trkpt lat="46.85994" lon="6.58793">
        <ele>1208.0959472656</ele>
        <time>2010-05-29T13:32:19Z</time>
      </trkpt>
      <trkpt lat="46.86002" lon="6.58808">
        <ele>1209.1385498047</ele>
        <time>2010-05-29T13:32:24Z</time>
      </trkpt>
      <trkpt lat="46.86005" lon="6.58814">
        <ele>1209.2758789062</ele>
        <time>2010-05-29T13:32:26Z</time>
      </trkpt>
      <trkpt lat="46.86014" lon="6.58835">
        <ele>1209.4681396484</ele>
        <time>2010-05-29T13:32:32Z</time>
      </trkpt>
      <trkpt lat="46.86028" lon="6.58845">
        <ele>1210.5899658203</ele>
        <time>2010-05-29T13:32:38Z</time>
      </trkpt>
      <trkpt lat="46.86036" lon="6.58853">
        <ele>1211.7469482422</ele>
        <time>2010-05-29T13:32:43Z</time>
      </trkpt>
      <trkpt lat="46.86042" lon="6.5886">
        <ele>1212.6756591797</ele>
        <time>2010-05-29T13:32:48Z</time>
      </trkpt>
      <trkpt lat="46.86051" lon="6.58874">
        <ele>1213.3193359375</ele>
        <time>2010-05-29T13:32:56Z</time>
      </trkpt>
      <trkpt lat="46.8606" lon="6.58891">
        <ele>1213.6013183594</ele>
        <time>2010-05-29T13:33:04Z</time>
      </trkpt>
      <trkpt lat="46.86068" lon="6.58905">
        <ele>1214.2072753906</ele>
        <time>2010-05-29T13:33:10Z</time>
      </trkpt>
      <trkpt lat="46.86078" lon="6.58918">
        <ele>1215.1257324219</ele>
        <time>2010-05-29T13:33:17Z</time>
      </trkpt>
      <trkpt lat="46.86094" lon="6.58938">
        <ele>1215.6379394531</ele>
        <time>2010-05-29T13:33:27Z</time>
      </trkpt>
      <trkpt lat="46.8611" lon="6.58956">
        <ele>1216.4282226562</ele>
        <time>2010-05-29T13:33:36Z</time>
      </trkpt>
      <trkpt lat="46.86121" lon="6.5897">
        <ele>1217.1199951172</ele>
        <time>2010-05-29T13:33:43Z</time>
      </trkpt>
      <trkpt lat="46.86132" lon="6.58977">
        <ele>1217.9322509766</ele>
        <time>2010-05-29T13:33:49Z</time>
      </trkpt>
      <trkpt lat="46.86142" lon="6.58983">
        <ele>1218.6584472656</ele>
        <time>2010-05-29T13:33:55Z</time>
      </trkpt>
      <trkpt lat="46.86152" lon="6.58994">
        <ele>1219.0269775391</ele>
        <time>2010-05-29T13:34:02Z</time>
      </trkpt>
      <trkpt lat="46.86162" lon="6.59004">
        <ele>1219.3148193359</ele>
        <time>2010-05-29T13:34:09Z</time>
      </trkpt>
      <trkpt lat="46.86172" lon="6.59009">
        <ele>1220.6044921875</ele>
        <time>2010-05-29T13:34:15Z</time>
      </trkpt>
      <trkpt lat="46.8618" lon="6.59013">
        <ele>1221.7943115234</ele>
        <time>2010-05-29T13:34:20Z</time>
      </trkpt>
      <trkpt lat="46.86182" lon="6.59014">
        <ele>1222.0250244141</ele>
        <time>2010-05-29T13:34:24Z</time>
      </trkpt>
      <trkpt lat="46.86183" lon="6.59014">
        <ele>1222.1673583984</ele>
        <time>2010-05-29T13:34:31Z</time>
      </trkpt>
      <trkpt lat="46.86185" lon="6.59017">
        <ele>1222.3077392578</ele>
        <time>2010-05-29T13:34:36Z</time>
      </trkpt>
      <trkpt lat="46.8619" lon="6.59025">
        <ele>1222.517578125</ele>
        <time>2010-05-29T13:34:41Z</time>
      </trkpt>
      <trkpt lat="46.86196" lon="6.59048">
        <ele>1221.1282958984</ele>
        <time>2010-05-29T13:34:46Z</time>
      </trkpt>
      <trkpt lat="46.86198" lon="6.59055">
        <ele>1220.7647705078</ele>
        <time>2010-05-29T13:34:47Z</time>
      </trkpt>
      <trkpt lat="46.86205" lon="6.59094">
        <ele>1218.6734619141</ele>
        <time>2010-05-29T13:34:52Z</time>
      </trkpt>
      <trkpt lat="46.86208" lon="6.59115">
        <ele>1217.3134765625</ele>
        <time>2010-05-29T13:34:55Z</time>
      </trkpt>
      <trkpt lat="46.86218" lon="6.59144">
        <ele>1216.8446044922</ele>
        <time>2010-05-29T13:35:00Z</time>
      </trkpt>
      <trkpt lat="46.86224" lon="6.59157">
        <ele>1216.2626953125</ele>
        <time>2010-05-29T13:35:02Z</time>
      </trkpt>
      <trkpt lat="46.86239" lon="6.59189">
        <ele>1216.1551513672</ele>
        <time>2010-05-29T13:35:07Z</time>
      </trkpt>
      <trkpt lat="46.86255" lon="6.59211">
        <ele>1216.2999267578</ele>
        <time>2010-05-29T13:35:11Z</time>
      </trkpt>
      <trkpt lat="46.8627" lon="6.59232">
        <ele>1216.3591308594</ele>
        <time>2010-05-29T13:35:14Z</time>
      </trkpt>
      <trkpt lat="46.86295" lon="6.59291">
        <ele>1216.8233642578</ele>
        <time>2010-05-29T13:35:20Z</time>
      </trkpt>
      <trkpt lat="46.86302" lon="6.59312">
        <ele>1217.2932128906</ele>
        <time>2010-05-29T13:35:22Z</time>
      </trkpt>
      <trkpt lat="46.86317" lon="6.59376">
        <ele>1217.2718505859</ele>
        <time>2010-05-29T13:35:28Z</time>
      </trkpt>
      <trkpt lat="46.86321" lon="6.59421">
        <ele>1216.1306152344</ele>
        <time>2010-05-29T13:35:33Z</time>
      </trkpt>
      <trkpt lat="46.86323" lon="6.59437">
        <ele>1216.2679443359</ele>
        <time>2010-05-29T13:35:35Z</time>
      </trkpt>
      <trkpt lat="46.8633" lon="6.59461">
        <ele>1216.1278076172</ele>
        <time>2010-05-29T13:35:39Z</time>
      </trkpt>
      <trkpt lat="46.8634" lon="6.59524">
        <ele>1214.8331298828</ele>
        <time>2010-05-29T13:35:49Z</time>
      </trkpt>
      <trkpt lat="46.86343" lon="6.59561">
        <ele>1214.5426025391</ele>
        <time>2010-05-29T13:35:54Z</time>
      </trkpt>
      <trkpt lat="46.86343" lon="6.59605">
        <ele>1213.2307128906</ele>
        <time>2010-05-29T13:36:01Z</time>
      </trkpt>
      <trkpt lat="46.86342" lon="6.5964">
        <ele>1211.9526367188</ele>
        <time>2010-05-29T13:36:07Z</time>
      </trkpt>
      <trkpt lat="46.86345" lon="6.59681">
        <ele>1211.5307617188</ele>
        <time>2010-05-29T13:36:13Z</time>
      </trkpt>
      <trkpt lat="46.86349" lon="6.59731">
        <ele>1210.8297119141</ele>
        <time>2010-05-29T13:36:20Z</time>
      </trkpt>
      <trkpt lat="46.8635" lon="6.59779">
        <ele>1209.7786865234</ele>
        <time>2010-05-29T13:36:27Z</time>
      </trkpt>
      <trkpt lat="46.8635" lon="6.59832">
        <ele>1208.2514648438</ele>
        <time>2010-05-29T13:36:35Z</time>
      </trkpt>
      <trkpt lat="46.86351" lon="6.59877">
        <ele>1207.330078125</ele>
        <time>2010-05-29T13:36:42Z</time>
      </trkpt>
      <trkpt lat="46.86351" lon="6.59943">
        <ele>1205.9506835938</ele>
        <time>2010-05-29T13:36:52Z</time>
      </trkpt>
      <trkpt lat="46.86352" lon="6.59986">
        <ele>1204.5329589844</ele>
        <time>2010-05-29T13:36:57Z</time>
      </trkpt>
      <trkpt lat="46.86353" lon="6.60041">
        <ele>1203.5845947266</ele>
        <time>2010-05-29T13:37:04Z</time>
      </trkpt>
      <trkpt lat="46.86353" lon="6.60102">
        <ele>1202.1566162109</ele>
        <time>2010-05-29T13:37:11Z</time>
      </trkpt>
      <trkpt lat="46.86354" lon="6.60185">
        <ele>1200.2485351562</ele>
        <time>2010-05-29T13:37:20Z</time>
      </trkpt>
      <trkpt lat="46.86355" lon="6.60249">
        <ele>1200</ele>
        <time>2010-05-29T13:37:27Z</time>
      </trkpt>
      <trkpt lat="46.86356" lon="6.6033">
        <ele>1200</ele>
        <time>2010-05-29T13:37:36Z</time>
      </trkpt>
      <trkpt lat="46.86356" lon="6.60383">
        <ele>1200</ele>
        <time>2010-05-29T13:37:42Z</time>
      </trkpt>
      <trkpt lat="46.86353" lon="6.60442">
        <ele>1200</ele>
        <time>2010-05-29T13:37:49Z</time>
      </trkpt>
      <trkpt lat="46.86349" lon="6.60496">
        <ele>1200</ele>
        <time>2010-05-29T13:37:57Z</time>
      </trkpt>
      <trkpt lat="46.86343" lon="6.60523">
        <ele>1200.2744140625</ele>
        <time>2010-05-29T13:38:03Z</time>
      </trkpt>
      <trkpt lat="46.8634" lon="6.60528">
        <ele>1200.2496337891</ele>
        <time>2010-05-29T13:38:04Z</time>
      </trkpt>
      <trkpt lat="46.86326" lon="6.60539">
        <ele>1200</ele>
        <time>2010-05-29T13:38:08Z</time>
      </trkpt>
      <trkpt lat="46.86304" lon="6.60545">
        <ele>1199.9793701172</ele>
        <time>2010-05-29T13:38:14Z</time>
      </trkpt>
      <trkpt lat="46.86302" lon="6.60546">
        <ele>1199.9549560547</ele>
        <time>2010-05-29T13:38:17Z</time>
      </trkpt>
      <trkpt lat="46.86301" lon="6.60543">
        <ele>1199.9266357422</ele>
        <time>2010-05-29T13:38:48Z</time>
      </trkpt>
      <trkpt lat="46.86301" lon="6.60543">
        <ele>1199.9240722656</ele>
        <time>2010-05-29T13:38:49Z</time>
      </trkpt>
      <trkpt lat="46.86301" lon="6.60542">
        <ele>1199.9300537109</ele>
        <time>2010-05-29T13:38:50Z</time>
      </trkpt>
      <trkpt lat="46.86296" lon="6.6053">
        <ele>1199.6802978516</ele>
        <time>2010-05-29T13:38:57Z</time>
      </trkpt>
      <trkpt lat="46.8628" lon="6.60517">
        <ele>1199.068359375</ele>
        <time>2010-05-29T13:39:02Z</time>
      </trkpt>
      <trkpt lat="46.8625" lon="6.60501">
        <ele>1199</ele>
        <time>2010-05-29T13:39:08Z</time>
      </trkpt>
      <trkpt lat="46.86209" lon="6.60479">
        <ele>1199</ele>
        <time>2010-05-29T13:39:16Z</time>
      </trkpt>
      <trkpt lat="46.86173" lon="6.6046">
        <ele>1199</ele>
        <time>2010-05-29T13:39:23Z</time>
      </trkpt>
      <trkpt lat="46.86141" lon="6.60448">
        <ele>1199</ele>
        <time>2010-05-29T13:39:29Z</time>
      </trkpt>
      <trkpt lat="46.86099" lon="6.60442">
        <ele>1199</ele>
        <time>2010-05-29T13:39:37Z</time>
      </trkpt>
      <trkpt lat="46.86065" lon="6.60437">
        <ele>1199.4656982422</ele>
        <time>2010-05-29T13:39:44Z</time>
      </trkpt>
      <trkpt lat="46.86036" lon="6.60432">
        <ele>1201.0770263672</ele>
        <time>2010-05-29T13:39:51Z</time>
      </trkpt>
      <trkpt lat="46.86019" lon="6.60429">
        <ele>1201.8469238281</ele>
        <time>2010-05-29T13:39:55Z</time>
      </trkpt>
      <trkpt lat="46.85983" lon="6.60415">
        <ele>1202.7299804688</ele>
        <time>2010-05-29T13:40:04Z</time>
      </trkpt>
      <trkpt lat="46.85953" lon="6.60393">
        <ele>1201.2514648438</ele>
        <time>2010-05-29T13:40:12Z</time>
      </trkpt>
      <trkpt lat="46.85925" lon="6.60381">
        <ele>1201.7822265625</ele>
        <time>2010-05-29T13:40:19Z</time>
      </trkpt>
      <trkpt lat="46.85886" lon="6.60366">
        <ele>1202.7401123047</ele>
        <time>2010-05-29T13:40:29Z</time>
      </trkpt>
      <trkpt lat="46.85859" lon="6.60363">
        <ele>1205.2556152344</ele>
        <time>2010-05-29T13:40:36Z</time>
      </trkpt>
      <trkpt lat="46.8585" lon="6.60365">
        <ele>1205.6373291016</ele>
        <time>2010-05-29T13:40:38Z</time>
      </trkpt>
      <trkpt lat="46.85841" lon="6.60368">
        <ele>1206.0266113281</ele>
        <time>2010-05-29T13:40:40Z</time>
      </trkpt>
      <trkpt lat="46.85812" lon="6.60391">
        <ele>1208.5982666016</ele>
        <time>2010-05-29T13:40:46Z</time>
      </trkpt>
      <trkpt lat="46.85772" lon="6.60428">
        <ele>1209.0362548828</ele>
        <time>2010-05-29T13:40:53Z</time>
      </trkpt>
      <trkpt lat="46.85765" lon="6.60433">
        <ele>1208.2032470703</ele>
        <time>2010-05-29T13:40:54Z</time>
      </trkpt>
      <trkpt lat="46.85736" lon="6.60448">
        <ele>1202.9377441406</ele>
        <time>2010-05-29T13:40:58Z</time>
      </trkpt>
      <trkpt lat="46.85703" lon="6.60449">
        <ele>1199.9344482422</ele>
        <time>2010-05-29T13:41:02Z</time>
      </trkpt>
      <trkpt lat="46.8569" lon="6.60434">
        <ele>1199.7122802734</ele>
        <time>2010-05-29T13:41:04Z</time>
      </trkpt>
      <trkpt lat="46.85679" lon="6.60416">
        <ele>1199.4625244141</ele>
        <time>2010-05-29T13:41:06Z</time>
      </trkpt>
      <trkpt lat="46.8565" lon="6.60393">
        <ele>1199.7900390625</ele>
        <time>2010-05-29T13:41:10Z</time>
      </trkpt>
      <trkpt lat="46.85583" lon="6.60381">
        <ele>1198.4862060547</ele>
        <time>2010-05-29T13:41:18Z</time>
      </trkpt>
      <trkpt lat="46.85574" lon="6.60379">
        <ele>1197.8975830078</ele>
        <time>2010-05-29T13:41:19Z</time>
      </trkpt>
      <trkpt lat="46.85552" lon="6.60363">
        <ele>1197.3419189453</ele>
        <time>2010-05-29T13:41:22Z</time>
      </trkpt>
      <trkpt lat="46.85545" lon="6.60357">
        <ele>1197.3413085938</ele>
        <time>2010-05-29T13:41:23Z</time>
      </trkpt>
      <trkpt lat="46.85531" lon="6.60342">
        <ele>1197.9643554688</ele>
        <time>2010-05-29T13:41:25Z</time>
      </trkpt>
      <trkpt lat="46.85508" lon="6.60307">
        <ele>1192.2094726562</ele>
        <time>2010-05-29T13:41:29Z</time>
      </trkpt>
      <trkpt lat="46.85496" lon="6.60276">
        <ele>1190.0516357422</ele>
        <time>2010-05-29T13:41:32Z</time>
      </trkpt>
      <trkpt lat="46.85487" lon="6.60241">
        <ele>1189.5872802734</ele>
        <time>2010-05-29T13:41:35Z</time>
      </trkpt>
      <trkpt lat="46.85483" lon="6.60215">
        <ele>1188.6446533203</ele>
        <time>2010-05-29T13:41:37Z</time>
      </trkpt>
      <trkpt lat="46.85484" lon="6.60158">
        <ele>1187.3939208984</ele>
        <time>2010-05-29T13:41:41Z</time>
      </trkpt>
      <trkpt lat="46.85484" lon="6.60076">
        <ele>1181.5595703125</ele>
        <time>2010-05-29T13:41:47Z</time>
      </trkpt>
      <trkpt lat="46.85489" lon="6.59999">
        <ele>1178.4720458984</ele>
        <time>2010-05-29T13:41:53Z</time>
      </trkpt>
      <trkpt lat="46.855" lon="6.59937">
        <ele>1179.9577636719</ele>
        <time>2010-05-29T13:41:58Z</time>
      </trkpt>
      <trkpt lat="46.85501" lon="6.5986">
        <ele>1180.0532226562</ele>
        <time>2010-05-29T13:42:04Z</time>
      </trkpt>
      <trkpt lat="46.85507" lon="6.59788">
        <ele>1181.5925292969</ele>
        <time>2010-05-29T13:42:10Z</time>
      </trkpt>
      <trkpt lat="46.85521" lon="6.597">
        <ele>1185.7858886719</ele>
        <time>2010-05-29T13:42:18Z</time>
      </trkpt>
      <trkpt lat="46.85528" lon="6.59654">
        <ele>1187.4348144531</ele>
        <time>2010-05-29T13:42:23Z</time>
      </trkpt>
      <trkpt lat="46.85529" lon="6.59587">
        <ele>1189.7976074219</ele>
        <time>2010-05-29T13:42:31Z</time>
      </trkpt>
      <trkpt lat="46.85524" lon="6.59535">
        <ele>1192.3358154297</ele>
        <time>2010-05-29T13:42:38Z</time>
      </trkpt>
      <trkpt lat="46.85514" lon="6.59477">
        <ele>1196.2950439453</ele>
        <time>2010-05-29T13:42:46Z</time>
      </trkpt>
      <trkpt lat="46.85508" lon="6.59442">
        <ele>1196.0653076172</ele>
        <time>2010-05-29T13:42:51Z</time>
      </trkpt>
      <trkpt lat="46.855" lon="6.59396">
        <ele>1195.2568359375</ele>
        <time>2010-05-29T13:42:58Z</time>
      </trkpt>
      <trkpt lat="46.8549" lon="6.5934">
        <ele>1193.8569335938</ele>
        <time>2010-05-29T13:43:07Z</time>
      </trkpt>
      <trkpt lat="46.85482" lon="6.59293">
        <ele>1193.3809814453</ele>
        <time>2010-05-29T13:43:15Z</time>
      </trkpt>
      <trkpt lat="46.85477" lon="6.5927">
        <ele>1192.9847412109</ele>
        <time>2010-05-29T13:43:21Z</time>
      </trkpt>
      <trkpt lat="46.85472" lon="6.59247">
        <ele>1192.8714599609</ele>
        <time>2010-05-29T13:43:28Z</time>
      </trkpt>
      <trkpt lat="46.85464" lon="6.59218">
        <ele>1192.7102050781</ele>
        <time>2010-05-29T13:43:35Z</time>
      </trkpt>
      <trkpt lat="46.85448" lon="6.59174">
        <ele>1191.9859619141</ele>
        <time>2010-05-29T13:43:44Z</time>
      </trkpt>
      <trkpt lat="46.85434" lon="6.59128">
        <ele>1194.4080810547</ele>
        <time>2010-05-29T13:43:53Z</time>
      </trkpt>
      <trkpt lat="46.85415" lon="6.59071">
        <ele>1197.4903564453</ele>
        <time>2010-05-29T13:44:04Z</time>
      </trkpt>
      <trkpt lat="46.85401" lon="6.59029">
        <ele>1198.572265625</ele>
        <time>2010-05-29T13:44:12Z</time>
      </trkpt>
      <trkpt lat="46.85385" lon="6.58981">
        <ele>1199.6723632812</ele>
        <time>2010-05-29T13:44:21Z</time>
      </trkpt>
      <trkpt lat="46.85369" lon="6.58933">
        <ele>1200.2904052734</ele>
        <time>2010-05-29T13:44:30Z</time>
      </trkpt>
      <trkpt lat="46.85353" lon="6.58886">
        <ele>1201.2751464844</ele>
        <time>2010-05-29T13:44:39Z</time>
      </trkpt>
      <trkpt lat="46.85339" lon="6.58841">
        <ele>1201.783203125</ele>
        <time>2010-05-29T13:44:48Z</time>
      </trkpt>
      <trkpt lat="46.85329" lon="6.58808">
        <ele>1202</ele>
        <time>2010-05-29T13:44:55Z</time>
      </trkpt>
      <trkpt lat="46.85317" lon="6.58786">
        <ele>1201.29296875</ele>
        <time>2010-05-29T13:45:01Z</time>
      </trkpt>
      <trkpt lat="46.85303" lon="6.58761">
        <ele>1201.1481933594</ele>
        <time>2010-05-29T13:45:07Z</time>
      </trkpt>
      <trkpt lat="46.85284" lon="6.58729">
        <ele>1202.5489501953</ele>
        <time>2010-05-29T13:45:14Z</time>
      </trkpt>
      <trkpt lat="46.85264" lon="6.58698">
        <ele>1200.1336669922</ele>
        <time>2010-05-29T13:45:19Z</time>
      </trkpt>
      <trkpt lat="46.85234" lon="6.58656">
        <ele>1197.0417480469</ele>
        <time>2010-05-29T13:45:25Z</time>
      </trkpt>
      <trkpt lat="46.85213" lon="6.58624">
        <ele>1195.3110351562</ele>
        <time>2010-05-29T13:45:29Z</time>
      </trkpt>
      <trkpt lat="46.85197" lon="6.58595">
        <ele>1193.8729248047</ele>
        <time>2010-05-29T13:45:32Z</time>
      </trkpt>
      <trkpt lat="46.85177" lon="6.58534">
        <ele>1190.9709472656</ele>
        <time>2010-05-29T13:45:37Z</time>
      </trkpt>
      <trkpt lat="46.85173" lon="6.58507">
        <ele>1189.7418212891</ele>
        <time>2010-05-29T13:45:39Z</time>
      </trkpt>
      <trkpt lat="46.85163" lon="6.58376">
        <ele>1184.4005126953</ele>
        <time>2010-05-29T13:45:48Z</time>
      </trkpt>
      <trkpt lat="46.85156" lon="6.58275">
        <ele>1180.5592041016</ele>
        <time>2010-05-29T13:45:55Z</time>
      </trkpt>
      <trkpt lat="46.85153" lon="6.58246">
        <ele>1180</ele>
        <time>2010-05-29T13:45:57Z</time>
      </trkpt>
      <trkpt lat="46.85142" lon="6.58128">
        <ele>1180</ele>
        <time>2010-05-29T13:46:05Z</time>
      </trkpt>
      <trkpt lat="46.8514" lon="6.58114">
        <ele>1180</ele>
        <time>2010-05-29T13:46:06Z</time>
      </trkpt>
      <trkpt lat="46.8512" lon="6.58065">
        <ele>1180</ele>
        <time>2010-05-29T13:46:10Z</time>
      </trkpt>
      <trkpt lat="46.85104" lon="6.58048">
        <ele>1180</ele>
        <time>2010-05-29T13:46:12Z</time>
      </trkpt>
      <trkpt lat="46.85095" lon="6.58042">
        <ele>1180</ele>
        <time>2010-05-29T13:46:13Z</time>
      </trkpt>
      <trkpt lat="46.85022" lon="6.58007">
        <ele>1180</ele>
        <time>2010-05-29T13:46:21Z</time>
      </trkpt>
      <trkpt lat="46.84951" lon="6.57974">
        <ele>1180</ele>
        <time>2010-05-29T13:46:29Z</time>
      </trkpt>
      <trkpt lat="46.84883" lon="6.57943">
        <ele>1180</ele>
        <time>2010-05-29T13:46:37Z</time>
      </trkpt>
      <trkpt lat="46.8483" lon="6.57918">
        <ele>1180</ele>
        <time>2010-05-29T13:46:44Z</time>
      </trkpt>
      <trkpt lat="46.84784" lon="6.57897">
        <ele>1180</ele>
        <time>2010-05-29T13:46:51Z</time>
      </trkpt>
      <trkpt lat="46.84736" lon="6.57874">
        <ele>1180</ele>
        <time>2010-05-29T13:46:59Z</time>
      </trkpt>
      <trkpt lat="46.8471" lon="6.57857">
        <ele>1180</ele>
        <time>2010-05-29T13:47:04Z</time>
      </trkpt>
      <trkpt lat="46.84705" lon="6.57854">
        <ele>1180</ele>
        <time>2010-05-29T13:47:05Z</time>
      </trkpt>
      <trkpt lat="46.84688" lon="6.57836">
        <ele>1180</ele>
        <time>2010-05-29T13:47:09Z</time>
      </trkpt>
      <trkpt lat="46.84668" lon="6.57805">
        <ele>1180</ele>
        <time>2010-05-29T13:47:15Z</time>
      </trkpt>
      <trkpt lat="46.84649" lon="6.57764">
        <ele>1180</ele>
        <time>2010-05-29T13:47:21Z</time>
      </trkpt>
      <trkpt lat="46.84636" lon="6.57735">
        <ele>1180</ele>
        <time>2010-05-29T13:47:27Z</time>
      </trkpt>
      <trkpt lat="46.84615" lon="6.57687">
        <ele>1180</ele>
        <time>2010-05-29T13:47:37Z</time>
      </trkpt>
      <trkpt lat="46.84597" lon="6.57646">
        <ele>1180</ele>
        <time>2010-05-29T13:47:46Z</time>
      </trkpt>
      <trkpt lat="46.84586" lon="6.57623">
        <ele>1180</ele>
        <time>2010-05-29T13:47:53Z</time>
      </trkpt>
      <trkpt lat="46.84579" lon="6.57607">
        <ele>1180</ele>
        <time>2010-05-29T13:47:59Z</time>
      </trkpt>
      <trkpt lat="46.84569" lon="6.57581">
        <ele>1180.0466308594</ele>
        <time>2010-05-29T13:48:07Z</time>
      </trkpt>
      <trkpt lat="46.84554" lon="6.57542">
        <ele>1180.5578613281</ele>
        <time>2010-05-29T13:48:17Z</time>
      </trkpt>
      <trkpt lat="46.84539" lon="6.57505">
        <ele>1182.7232666016</ele>
        <time>2010-05-29T13:48:25Z</time>
      </trkpt>
      <trkpt lat="46.84527" lon="6.57474">
        <ele>1184.0357666016</ele>
        <time>2010-05-29T13:48:33Z</time>
      </trkpt>
      <trkpt lat="46.84517" lon="6.57451">
        <ele>1185.9479980469</ele>
        <time>2010-05-29T13:48:39Z</time>
      </trkpt>
      <trkpt lat="46.84509" lon="6.57433">
        <ele>1187.208984375</ele>
        <time>2010-05-29T13:48:44Z</time>
      </trkpt>
      <trkpt lat="46.84499" lon="6.57407">
        <ele>1188.4390869141</ele>
        <time>2010-05-29T13:48:50Z</time>
      </trkpt>
      <trkpt lat="46.84484" lon="6.57372">
        <ele>1190.7906494141</ele>
        <time>2010-05-29T13:48:58Z</time>
      </trkpt>
      <trkpt lat="46.84464" lon="6.57333">
        <ele>1193.6279296875</ele>
        <time>2010-05-29T13:49:07Z</time>
      </trkpt>
      <trkpt lat="46.84449" lon="6.57312">
        <ele>1194.6716308594</ele>
        <time>2010-05-29T13:49:13Z</time>
      </trkpt>
      <trkpt lat="46.84425" lon="6.57282">
        <ele>1197.23046875</ele>
        <time>2010-05-29T13:49:21Z</time>
      </trkpt>
      <trkpt lat="46.84404" lon="6.57263">
        <ele>1198.6827392578</ele>
        <time>2010-05-29T13:49:28Z</time>
      </trkpt>
      <trkpt lat="46.84387" lon="6.57246">
        <ele>1200</ele>
        <time>2010-05-29T13:49:35Z</time>
      </trkpt>
      <trkpt lat="46.84362" lon="6.57225">
        <ele>1200</ele>
        <time>2010-05-29T13:49:42Z</time>
      </trkpt>
      <trkpt lat="46.8433" lon="6.57195">
        <ele>1200</ele>
        <time>2010-05-29T13:49:50Z</time>
      </trkpt>
      <trkpt lat="46.84299" lon="6.57168">
        <ele>1200</ele>
        <time>2010-05-29T13:49:58Z</time>
      </trkpt>
      <trkpt lat="46.84272" lon="6.57143">
        <ele>1200</ele>
        <time>2010-05-29T13:50:05Z</time>
      </trkpt>
      <trkpt lat="46.84247" lon="6.57121">
        <ele>1200</ele>
        <time>2010-05-29T13:50:12Z</time>
      </trkpt>
      <trkpt lat="46.84215" lon="6.57093">
        <ele>1200</ele>
        <time>2010-05-29T13:50:20Z</time>
      </trkpt>
      <trkpt lat="46.84166" lon="6.57049">
        <ele>1200</ele>
        <time>2010-05-29T13:50:32Z</time>
      </trkpt>
      <trkpt lat="46.84122" lon="6.5701">
        <ele>1200</ele>
        <time>2010-05-29T13:50:43Z</time>
      </trkpt>
      <trkpt lat="46.84079" lon="6.56971">
        <ele>1200</ele>
        <time>2010-05-29T13:50:54Z</time>
      </trkpt>
      <trkpt lat="46.84024" lon="6.56922">
        <ele>1200</ele>
        <time>2010-05-29T13:51:07Z</time>
      </trkpt>
      <trkpt lat="46.83977" lon="6.5688">
        <ele>1200</ele>
        <time>2010-05-29T13:51:18Z</time>
      </trkpt>
      <trkpt lat="46.83937" lon="6.56845">
        <ele>1200</ele>
        <time>2010-05-29T13:51:28Z</time>
      </trkpt>
      <trkpt lat="46.839" lon="6.56811">
        <ele>1200</ele>
        <time>2010-05-29T13:51:38Z</time>
      </trkpt>
      <trkpt lat="46.8388" lon="6.56787">
        <ele>1200</ele>
        <time>2010-05-29T13:51:46Z</time>
      </trkpt>
      <trkpt lat="46.83864" lon="6.56757">
        <ele>1200</ele>
        <time>2010-05-29T13:51:54Z</time>
      </trkpt>
      <trkpt lat="46.83849" lon="6.56713">
        <ele>1200</ele>
        <time>2010-05-29T13:52:03Z</time>
      </trkpt>
      <trkpt lat="46.83831" lon="6.56658">
        <ele>1200</ele>
        <time>2010-05-29T13:52:14Z</time>
      </trkpt>
      <trkpt lat="46.83815" lon="6.56611">
        <ele>1200</ele>
        <time>2010-05-29T13:52:23Z</time>
      </trkpt>
      <trkpt lat="46.838" lon="6.5657">
        <ele>1200</ele>
        <time>2010-05-29T13:52:32Z</time>
      </trkpt>
      <trkpt lat="46.8379" lon="6.5655">
        <ele>1200</ele>
        <time>2010-05-29T13:52:37Z</time>
      </trkpt>
      <trkpt lat="46.83779" lon="6.56533">
        <ele>1200</ele>
        <time>2010-05-29T13:52:42Z</time>
      </trkpt>
      <trkpt lat="46.83762" lon="6.56512">
        <ele>1200</ele>
        <time>2010-05-29T13:52:49Z</time>
      </trkpt>
      <trkpt lat="46.83736" lon="6.5648">
        <ele>1200</ele>
        <time>2010-05-29T13:52:58Z</time>
      </trkpt>
      <trkpt lat="46.83717" lon="6.56456">
        <ele>1200</ele>
        <time>2010-05-29T13:53:04Z</time>
      </trkpt>
      <trkpt lat="46.83691" lon="6.56422">
        <ele>1200</ele>
        <time>2010-05-29T13:53:12Z</time>
      </trkpt>
      <trkpt lat="46.83664" lon="6.56388">
        <ele>1200</ele>
        <time>2010-05-29T13:53:19Z</time>
      </trkpt>
      <trkpt lat="46.83652" lon="6.56374">
        <ele>1200</ele>
        <time>2010-05-29T13:53:22Z</time>
      </trkpt>
      <trkpt lat="46.83645" lon="6.56365">
        <ele>1200</ele>
        <time>2010-05-29T13:53:24Z</time>
      </trkpt>
      <trkpt lat="46.83622" lon="6.56334">
        <ele>1199.3912353516</ele>
        <time>2010-05-29T13:53:30Z</time>
      </trkpt>
      <trkpt lat="46.83597" lon="6.56302">
        <ele>1199</ele>
        <time>2010-05-29T13:53:36Z</time>
      </trkpt>
      <trkpt lat="46.83581" lon="6.56282">
        <ele>1198.8161621094</ele>
        <time>2010-05-29T13:53:40Z</time>
      </trkpt>
      <trkpt lat="46.83577" lon="6.56277">
        <ele>1198.5415039062</ele>
        <time>2010-05-29T13:53:41Z</time>
      </trkpt>
      <trkpt lat="46.83548" lon="6.56262">
        <ele>1196.0109863281</ele>
        <time>2010-05-29T13:53:47Z</time>
      </trkpt>
      <trkpt lat="46.8353" lon="6.56267">
        <ele>1193.6662597656</ele>
        <time>2010-05-29T13:53:50Z</time>
      </trkpt>
      <trkpt lat="46.83505" lon="6.56285">
        <ele>1190.5256347656</ele>
        <time>2010-05-29T13:53:54Z</time>
      </trkpt>
      <trkpt lat="46.8346" lon="6.56318">
        <ele>1184.1369628906</ele>
        <time>2010-05-29T13:54:00Z</time>
      </trkpt>
      <trkpt lat="46.83446" lon="6.56328">
        <ele>1183.0932617188</ele>
        <time>2010-05-29T13:54:02Z</time>
      </trkpt>
      <trkpt lat="46.83413" lon="6.56331">
        <ele>1179.7390136719</ele>
        <time>2010-05-29T13:54:06Z</time>
      </trkpt>
      <trkpt lat="46.83394" lon="6.56309">
        <ele>1172.8416748047</ele>
        <time>2010-05-29T13:54:09Z</time>
      </trkpt>
      <trkpt lat="46.83386" lon="6.56287">
        <ele>1171.9538574219</ele>
        <time>2010-05-29T13:54:11Z</time>
      </trkpt>
      <trkpt lat="46.83366" lon="6.56201">
        <ele>1171.8406982422</ele>
        <time>2010-05-29T13:54:18Z</time>
      </trkpt>
      <trkpt lat="46.83337" lon="6.56148">
        <ele>1171.7977294922</ele>
        <time>2010-05-29T13:54:23Z</time>
      </trkpt>
      <trkpt lat="46.83288" lon="6.56075">
        <ele>1170.9118652344</ele>
        <time>2010-05-29T13:54:30Z</time>
      </trkpt>
      <trkpt lat="46.83271" lon="6.56038">
        <ele>1170.7431640625</ele>
        <time>2010-05-29T13:54:33Z</time>
      </trkpt>
      <trkpt lat="46.83247" lon="6.55941">
        <ele>1171.6496582031</ele>
        <time>2010-05-29T13:54:40Z</time>
      </trkpt>
      <trkpt lat="46.83228" lon="6.5586">
        <ele>1169.3735351562</ele>
        <time>2010-05-29T13:54:46Z</time>
      </trkpt>
      <trkpt lat="46.83198" lon="6.55732">
        <ele>1165.2404785156</ele>
        <time>2010-05-29T13:54:55Z</time>
      </trkpt>
      <trkpt lat="46.83191" lon="6.55687">
        <ele>1163.7735595703</ele>
        <time>2010-05-29T13:54:58Z</time>
      </trkpt>
      <trkpt lat="46.83178" lon="6.55599">
        <ele>1161.6810302734</ele>
        <time>2010-05-29T13:55:04Z</time>
      </trkpt>
      <trkpt lat="46.83173" lon="6.5557">
        <ele>1162.2580566406</ele>
        <time>2010-05-29T13:55:06Z</time>
      </trkpt>
      <trkpt lat="46.8315" lon="6.55514">
        <ele>1161.5208740234</ele>
        <time>2010-05-29T13:55:11Z</time>
      </trkpt>
      <trkpt lat="46.83123" lon="6.55479">
        <ele>1159.2399902344</ele>
        <time>2010-05-29T13:55:15Z</time>
      </trkpt>
      <trkpt lat="46.83107" lon="6.55462">
        <ele>1157.8875732422</ele>
        <time>2010-05-29T13:55:18Z</time>
      </trkpt>
      <trkpt lat="46.83103" lon="6.55458">
        <ele>1157.0943603516</ele>
        <time>2010-05-29T13:55:19Z</time>
      </trkpt>
      <trkpt lat="46.83085" lon="6.55458">
        <ele>1152.9661865234</ele>
        <time>2010-05-29T13:55:24Z</time>
      </trkpt>
      <trkpt lat="46.83086" lon="6.55465">
        <ele>1152.8647460938</ele>
        <time>2010-05-29T13:55:27Z</time>
      </trkpt>
      <trkpt lat="46.83086" lon="6.55465">
        <ele>1152.9583740234</ele>
        <time>2010-05-29T13:55:28Z</time>
      </trkpt>
      <trkpt lat="46.83087" lon="6.55469">
        <ele>1152.8572998047</ele>
        <time>2010-05-29T13:56:17Z</time>
      </trkpt>
      <trkpt lat="46.8308" lon="6.55466">
        <ele>1151.4130859375</ele>
        <time>2010-05-29T13:56:21Z</time>
      </trkpt>
      <trkpt lat="46.8307" lon="6.55468">
        <ele>1149.3599853516</ele>
        <time>2010-05-29T13:56:25Z</time>
      </trkpt>
      <trkpt lat="46.83057" lon="6.55467">
        <ele>1146.4074707031</ele>
        <time>2010-05-29T13:56:31Z</time>
      </trkpt>
      <trkpt lat="46.83053" lon="6.55467">
        <ele>1145.9582519531</ele>
        <time>2010-05-29T13:56:32Z</time>
      </trkpt>
      <trkpt lat="46.83035" lon="6.55468">
        <ele>1143.9685058594</ele>
        <time>2010-05-29T13:56:36Z</time>
      </trkpt>
      <trkpt lat="46.82986" lon="6.55476">
        <ele>1137.1326904297</ele>
        <time>2010-05-29T13:56:43Z</time>
      </trkpt>
      <trkpt lat="46.82979" lon="6.55477">
        <ele>1135.7232666016</ele>
        <time>2010-05-29T13:56:44Z</time>
      </trkpt>
      <trkpt lat="46.82949" lon="6.55465">
        <ele>1132.1627197266</ele>
        <time>2010-05-29T13:56:48Z</time>
      </trkpt>
      <trkpt lat="46.82906" lon="6.55427">
        <ele>1129.3410644531</ele>
        <time>2010-05-29T13:56:54Z</time>
      </trkpt>
      <trkpt lat="46.8286" lon="6.55384">
        <ele>1128.1896972656</ele>
        <time>2010-05-29T13:57:00Z</time>
      </trkpt>
      <trkpt lat="46.82822" lon="6.5535">
        <ele>1127.2170410156</ele>
        <time>2010-05-29T13:57:05Z</time>
      </trkpt>
      <trkpt lat="46.82781" lon="6.5531">
        <ele>1125.0406494141</ele>
        <time>2010-05-29T13:57:11Z</time>
      </trkpt>
      <trkpt lat="46.82742" lon="6.55272">
        <ele>1119.2291259766</ele>
        <time>2010-05-29T13:57:17Z</time>
      </trkpt>
      <trkpt lat="46.82732" lon="6.55262">
        <ele>1118.4909667969</ele>
        <time>2010-05-29T13:57:19Z</time>
      </trkpt>
      <trkpt lat="46.82723" lon="6.55256">
        <ele>1117.7082519531</ele>
        <time>2010-05-29T13:57:21Z</time>
      </trkpt>
      <trkpt lat="46.82713" lon="6.55252">
        <ele>1116.4859619141</ele>
        <time>2010-05-29T13:57:25Z</time>
      </trkpt>
      <trkpt lat="46.82711" lon="6.5525">
        <ele>1116.4138183594</ele>
        <time>2010-05-29T13:57:26Z</time>
      </trkpt>
      <trkpt lat="46.82708" lon="6.55236">
        <ele>1116.4353027344</ele>
        <time>2010-05-29T13:57:31Z</time>
      </trkpt>
      <trkpt lat="46.82702" lon="6.55222">
        <ele>1116.13671875</ele>
        <time>2010-05-29T13:57:34Z</time>
      </trkpt>
      <trkpt lat="46.827" lon="6.55217">
        <ele>1115.9873046875</ele>
        <time>2010-05-29T13:57:35Z</time>
      </trkpt>
      <trkpt lat="46.82673" lon="6.55177">
        <ele>1115.0953369141</ele>
        <time>2010-05-29T13:57:43Z</time>
      </trkpt>
      <trkpt lat="46.82666" lon="6.55167">
        <ele>1114.974609375</ele>
        <time>2010-05-29T13:57:45Z</time>
      </trkpt>
      <trkpt lat="46.82635" lon="6.55121">
        <ele>1115.2712402344</ele>
        <time>2010-05-29T13:57:53Z</time>
      </trkpt>
      <trkpt lat="46.82618" lon="6.55097">
        <ele>1114.8159179688</ele>
        <time>2010-05-29T13:57:57Z</time>
      </trkpt>
      <trkpt lat="46.8258" lon="6.55041">
        <ele>1112.9028320312</ele>
        <time>2010-05-29T13:58:05Z</time>
      </trkpt>
      <trkpt lat="46.82541" lon="6.54986">
        <ele>1109.7862548828</ele>
        <time>2010-05-29T13:58:12Z</time>
      </trkpt>
      <trkpt lat="46.82499" lon="6.54928">
        <ele>1105.083984375</ele>
        <time>2010-05-29T13:58:19Z</time>
      </trkpt>
      <trkpt lat="46.82477" lon="6.54897">
        <ele>1104.1295166016</ele>
        <time>2010-05-29T13:58:23Z</time>
      </trkpt>
      <trkpt lat="46.82458" lon="6.54884">
        <ele>1101.7847900391</ele>
        <time>2010-05-29T13:58:27Z</time>
      </trkpt>
      <trkpt lat="46.82433" lon="6.54879">
        <ele>1098.4625244141</ele>
        <time>2010-05-29T13:58:31Z</time>
      </trkpt>
      <trkpt lat="46.82412" lon="6.54872">
        <ele>1096.2286376953</ele>
        <time>2010-05-29T13:58:34Z</time>
      </trkpt>
      <trkpt lat="46.82372" lon="6.54846">
        <ele>1091.1059570312</ele>
        <time>2010-05-29T13:58:39Z</time>
      </trkpt>
      <trkpt lat="46.82326" lon="6.5481">
        <ele>1084.6147460938</ele>
        <time>2010-05-29T13:58:44Z</time>
      </trkpt>
      <trkpt lat="46.8229" lon="6.54767">
        <ele>1081.3266601562</ele>
        <time>2010-05-29T13:58:48Z</time>
      </trkpt>
      <trkpt lat="46.82222" lon="6.54683">
        <ele>1076.6616210938</ele>
        <time>2010-05-29T13:58:55Z</time>
      </trkpt>
      <trkpt lat="46.82186" lon="6.54626">
        <ele>1074.0635986328</ele>
        <time>2010-05-29T13:58:59Z</time>
      </trkpt>
      <trkpt lat="46.82169" lon="6.54595">
        <ele>1073.2053222656</ele>
        <time>2010-05-29T13:59:01Z</time>
      </trkpt>
      <trkpt lat="46.82129" lon="6.54548">
        <ele>1067.3070068359</ele>
        <time>2010-05-29T13:59:05Z</time>
      </trkpt>
      <trkpt lat="46.82108" lon="6.54529">
        <ele>1064.5504150391</ele>
        <time>2010-05-29T13:59:08Z</time>
      </trkpt>
      <trkpt lat="46.82102" lon="6.54524">
        <ele>1064.3966064453</ele>
        <time>2010-05-29T13:59:09Z</time>
      </trkpt>
      <trkpt lat="46.82067" lon="6.54507">
        <ele>1059.2895507812</ele>
        <time>2010-05-29T13:59:14Z</time>
      </trkpt>
      <trkpt lat="46.82051" lon="6.54501">
        <ele>1054.9279785156</ele>
        <time>2010-05-29T13:59:16Z</time>
      </trkpt>
      <trkpt lat="46.82021" lon="6.54477">
        <ele>1045.7788085938</ele>
        <time>2010-05-29T13:59:20Z</time>
      </trkpt>
      <trkpt lat="46.8198" lon="6.54434">
        <ele>1041.7891845703</ele>
        <time>2010-05-29T13:59:25Z</time>
      </trkpt>
      <trkpt lat="46.81941" lon="6.54395">
        <ele>1038.5231933594</ele>
        <time>2010-05-29T13:59:30Z</time>
      </trkpt>
      <trkpt lat="46.81915" lon="6.54352">
        <ele>1035.1290283203</ele>
        <time>2010-05-29T13:59:34Z</time>
      </trkpt>
      <trkpt lat="46.81903" lon="6.54329">
        <ele>1033.8016357422</ele>
        <time>2010-05-29T13:59:36Z</time>
      </trkpt>
      <trkpt lat="46.81884" lon="6.54257">
        <ele>1033.4991455078</ele>
        <time>2010-05-29T13:59:42Z</time>
      </trkpt>
      <trkpt lat="46.81869" lon="6.54202">
        <ele>1033.4699707031</ele>
        <time>2010-05-29T13:59:47Z</time>
      </trkpt>
      <trkpt lat="46.81852" lon="6.54145">
        <ele>1032.615234375</ele>
        <time>2010-05-29T13:59:52Z</time>
      </trkpt>
      <trkpt lat="46.81843" lon="6.5411">
        <ele>1030.4826660156</ele>
        <time>2010-05-29T13:59:55Z</time>
      </trkpt>
      <trkpt lat="46.81822" lon="6.54028">
        <ele>1024.0993652344</ele>
        <time>2010-05-29T14:00:02Z</time>
      </trkpt>
      <trkpt lat="46.81819" lon="6.54015">
        <ele>1023.3303833008</ele>
        <time>2010-05-29T14:00:03Z</time>
      </trkpt>
      <trkpt lat="46.81813" lon="6.53978">
        <ele>1021.9845581055</ele>
        <time>2010-05-29T14:00:06Z</time>
      </trkpt>
      <trkpt lat="46.81814" lon="6.53903">
        <ele>1016.184753418</ele>
        <time>2010-05-29T14:00:12Z</time>
      </trkpt>
      <trkpt lat="46.81821" lon="6.53824">
        <ele>1009.5740966797</ele>
        <time>2010-05-29T14:00:18Z</time>
      </trkpt>
      <trkpt lat="46.8183" lon="6.53752">
        <ele>1003.9002075195</ele>
        <time>2010-05-29T14:00:23Z</time>
      </trkpt>
      <trkpt lat="46.81829" lon="6.53704">
        <ele>997.18334960938</ele>
        <time>2010-05-29T14:00:27Z</time>
      </trkpt>
      <trkpt lat="46.81819" lon="6.53652">
        <ele>983.58172607422</ele>
        <time>2010-05-29T14:00:33Z</time>
      </trkpt>
      <trkpt lat="46.81816" lon="6.53641">
        <ele>980.73846435547</ele>
        <time>2010-05-29T14:00:35Z</time>
      </trkpt>
      <trkpt lat="46.81822" lon="6.53614">
        <ele>976.04888916016</ele>
        <time>2010-05-29T14:00:39Z</time>
      </trkpt>
      <trkpt lat="46.81843" lon="6.53572">
        <ele>978.60137939453</ele>
        <time>2010-05-29T14:00:45Z</time>
      </trkpt>
      <trkpt lat="46.81858" lon="6.53542">
        <ele>981.44226074219</ele>
        <time>2010-05-29T14:00:49Z</time>
      </trkpt>
      <trkpt lat="46.81863" lon="6.53518">
        <ele>980.04522705078</ele>
        <time>2010-05-29T14:00:52Z</time>
      </trkpt>
      <trkpt lat="46.81872" lon="6.53497">
        <ele>980.03393554688</ele>
        <time>2010-05-29T14:00:55Z</time>
      </trkpt>
      <trkpt lat="46.81876" lon="6.53486">
        <ele>980.28271484375</ele>
        <time>2010-05-29T14:00:57Z</time>
      </trkpt>
      <trkpt lat="46.81873" lon="6.53473">
        <ele>977.25872802734</ele>
        <time>2010-05-29T14:00:59Z</time>
      </trkpt>
      <trkpt lat="46.81861" lon="6.53451">
        <ele>967.64733886719</ele>
        <time>2010-05-29T14:01:03Z</time>
      </trkpt>
      <trkpt lat="46.81847" lon="6.53434">
        <ele>957.79309082031</ele>
        <time>2010-05-29T14:01:07Z</time>
      </trkpt>
      <trkpt lat="46.81823" lon="6.53406">
        <ele>942.67828369141</ele>
        <time>2010-05-29T14:01:14Z</time>
      </trkpt>
      <trkpt lat="46.81812" lon="6.53375">
        <ele>937.32739257812</ele>
        <time>2010-05-29T14:01:20Z</time>
      </trkpt>
      <trkpt lat="46.8181" lon="6.53362">
        <ele>936.88104248047</ele>
        <time>2010-05-29T14:01:22Z</time>
      </trkpt>
      <trkpt lat="46.81806" lon="6.53337">
        <ele>936.74719238281</ele>
        <time>2010-05-29T14:01:25Z</time>
      </trkpt>
      <trkpt lat="46.8179" lon="6.5329">
        <ele>932.32220458984</ele>
        <time>2010-05-29T14:01:30Z</time>
      </trkpt>
      <trkpt lat="46.81787" lon="6.53282">
        <ele>931.626953125</ele>
        <time>2010-05-29T14:01:31Z</time>
      </trkpt>
      <trkpt lat="46.81784" lon="6.53261">
        <ele>930.90515136719</ele>
        <time>2010-05-29T14:01:35Z</time>
      </trkpt>
      <trkpt lat="46.81784" lon="6.5326">
        <ele>930.97381591797</ele>
        <time>2010-05-29T14:01:36Z</time>
      </trkpt>
      <trkpt lat="46.81783" lon="6.53259">
        <ele>930.57855224609</ele>
        <time>2010-05-29T14:01:38Z</time>
      </trkpt>
      <trkpt lat="46.81783" lon="6.5325">
        <ele>930.94464111328</ele>
        <time>2010-05-29T14:01:43Z</time>
      </trkpt>
      <trkpt lat="46.81788" lon="6.53244">
        <ele>934.53051757812</ele>
        <time>2010-05-29T14:01:47Z</time>
      </trkpt>
      <trkpt lat="46.81808" lon="6.5323">
        <ele>947.1650390625</ele>
        <time>2010-05-29T14:01:51Z</time>
      </trkpt>
      <trkpt lat="46.81845" lon="6.532">
        <ele>969.57940673828</ele>
        <time>2010-05-29T14:01:56Z</time>
      </trkpt>
      <trkpt lat="46.81872" lon="6.53175">
        <ele>977.01696777344</ele>
        <time>2010-05-29T14:02:00Z</time>
      </trkpt>
      <trkpt lat="46.81883" lon="6.53146">
        <ele>977.3212890625</ele>
        <time>2010-05-29T14:02:04Z</time>
      </trkpt>
      <trkpt lat="46.81883" lon="6.53139">
        <ele>976.78228759766</ele>
        <time>2010-05-29T14:02:05Z</time>
      </trkpt>
      <trkpt lat="46.81878" lon="6.53105">
        <ele>970.66870117188</ele>
        <time>2010-05-29T14:02:10Z</time>
      </trkpt>
      <trkpt lat="46.81861" lon="6.53059">
        <ele>962.45440673828</ele>
        <time>2010-05-29T14:02:15Z</time>
      </trkpt>
      <trkpt lat="46.81845" lon="6.53025">
        <ele>955.94158935547</ele>
        <time>2010-05-29T14:02:18Z</time>
      </trkpt>
      <trkpt lat="46.81842" lon="6.5299">
        <ele>947.90783691406</ele>
        <time>2010-05-29T14:02:22Z</time>
      </trkpt>
      <trkpt lat="46.81855" lon="6.52977">
        <ele>947.54736328125</ele>
        <time>2010-05-29T14:02:24Z</time>
      </trkpt>
      <trkpt lat="46.81873" lon="6.52943">
        <ele>945.32769775391</ele>
        <time>2010-05-29T14:02:29Z</time>
      </trkpt>
      <trkpt lat="46.81871" lon="6.52933">
        <ele>942.98278808594</ele>
        <time>2010-05-29T14:02:30Z</time>
      </trkpt>
      <trkpt lat="46.81863" lon="6.52907">
        <ele>936.88171386719</ele>
        <time>2010-05-29T14:02:33Z</time>
      </trkpt>
      <trkpt lat="46.81859" lon="6.52884">
        <ele>932.49291992188</ele>
        <time>2010-05-29T14:02:37Z</time>
      </trkpt>
      <trkpt lat="46.81858" lon="6.52882">
        <ele>931.91613769531</ele>
        <time>2010-05-29T14:02:40Z</time>
      </trkpt>
      <trkpt lat="46.81844" lon="6.52877">
        <ele>927.64178466797</ele>
        <time>2010-05-29T14:02:48Z</time>
      </trkpt>
      <trkpt lat="46.81832" lon="6.52864">
        <ele>922.17370605469</ele>
        <time>2010-05-29T14:02:52Z</time>
      </trkpt>
      <trkpt lat="46.81815" lon="6.52836">
        <ele>909.61657714844</ele>
        <time>2010-05-29T14:02:58Z</time>
      </trkpt>
      <trkpt lat="46.8181" lon="6.52809">
        <ele>900.85656738281</ele>
        <time>2010-05-29T14:03:02Z</time>
      </trkpt>
      <trkpt lat="46.81799" lon="6.52779">
        <ele>892.38012695312</ele>
        <time>2010-05-29T14:03:08Z</time>
      </trkpt>
      <trkpt lat="46.81794" lon="6.52767">
        <ele>888.52429199219</ele>
        <time>2010-05-29T14:03:12Z</time>
      </trkpt>
      <trkpt lat="46.81784" lon="6.52753">
        <ele>882.88323974609</ele>
        <time>2010-05-29T14:03:16Z</time>
      </trkpt>
      <trkpt lat="46.81782" lon="6.52749">
        <ele>881.35833740234</ele>
        <time>2010-05-29T14:03:17Z</time>
      </trkpt>
      <trkpt lat="46.8177" lon="6.52718">
        <ele>875.43054199219</ele>
        <time>2010-05-29T14:03:22Z</time>
      </trkpt>
      <trkpt lat="46.8176" lon="6.52693">
        <ele>869.90576171875</ele>
        <time>2010-05-29T14:03:27Z</time>
      </trkpt>
      <trkpt lat="46.81759" lon="6.52688">
        <ele>869.05773925781</ele>
        <time>2010-05-29T14:03:29Z</time>
      </trkpt>
      <trkpt lat="46.81755" lon="6.52676">
        <ele>867.13854980469</ele>
        <time>2010-05-29T14:03:35Z</time>
      </trkpt>
      <trkpt lat="46.81755" lon="6.52676">
        <ele>867.13171386719</ele>
        <time>2010-05-29T14:03:36Z</time>
      </trkpt>
      <trkpt lat="46.81754" lon="6.52669">
        <ele>866.41418457031</ele>
        <time>2010-05-29T14:03:43Z</time>
      </trkpt>
      <trkpt lat="46.81754" lon="6.52657">
        <ele>866.01953125</ele>
        <time>2010-05-29T14:03:47Z</time>
      </trkpt>
      <trkpt lat="46.81752" lon="6.52641">
        <ele>865.47021484375</ele>
        <time>2010-05-29T14:03:51Z</time>
      </trkpt>
      <trkpt lat="46.81752" lon="6.52639">
        <ele>865.68994140625</ele>
        <time>2010-05-29T14:03:53Z</time>
      </trkpt>
      <trkpt lat="46.81739" lon="6.52634">
        <ele>862.82702636719</ele>
        <time>2010-05-29T14:05:08Z</time>
      </trkpt>
      <trkpt lat="46.81726" lon="6.52652">
        <ele>859.41876220703</ele>
        <time>2010-05-29T14:05:13Z</time>
      </trkpt>
      <trkpt lat="46.81723" lon="6.52659">
        <ele>858.39471435547</ele>
        <time>2010-05-29T14:05:14Z</time>
      </trkpt>
      <trkpt lat="46.81711" lon="6.52685">
        <ele>856.07904052734</ele>
        <time>2010-05-29T14:05:18Z</time>
      </trkpt>
      <trkpt lat="46.81702" lon="6.52698">
        <ele>854.23291015625</ele>
        <time>2010-05-29T14:05:20Z</time>
      </trkpt>
      <trkpt lat="46.81677" lon="6.52725">
        <ele>847.51629638672</ele>
        <time>2010-05-29T14:05:24Z</time>
      </trkpt>
      <trkpt lat="46.81667" lon="6.52739">
        <ele>843.95941162109</ele>
        <time>2010-05-29T14:05:26Z</time>
      </trkpt>
      <trkpt lat="46.81643" lon="6.52762">
        <ele>842.75897216797</ele>
        <time>2010-05-29T14:05:31Z</time>
      </trkpt>
      <trkpt lat="46.81625" lon="6.52776">
        <ele>842.26019287109</ele>
        <time>2010-05-29T14:05:36Z</time>
      </trkpt>
      <trkpt lat="46.81619" lon="6.52782">
        <ele>842.30603027344</ele>
        <time>2010-05-29T14:05:38Z</time>
      </trkpt>
      <trkpt lat="46.81627" lon="6.52809">
        <ele>838.41326904297</ele>
        <time>2010-05-29T14:05:43Z</time>
      </trkpt>
      <trkpt lat="46.81628" lon="6.52831">
        <ele>835.30487060547</ele>
        <time>2010-05-29T14:05:46Z</time>
      </trkpt>
      <trkpt lat="46.81628" lon="6.52867">
        <ele>831.20715332031</ele>
        <time>2010-05-29T14:05:51Z</time>
      </trkpt>
      <trkpt lat="46.81633" lon="6.52867">
        <ele>831.72998046875</ele>
        <time>2010-05-29T14:05:53Z</time>
      </trkpt>
      <trkpt lat="46.81637" lon="6.52867">
        <ele>832.01690673828</ele>
        <time>2010-05-29T14:06:17Z</time>
      </trkpt>
      <trkpt lat="46.81628" lon="6.52887">
        <ele>828.19519042969</ele>
        <time>2010-05-29T14:06:22Z</time>
      </trkpt>
      <trkpt lat="46.81612" lon="6.52926">
        <ele>821.50299072266</ele>
        <time>2010-05-29T14:06:28Z</time>
      </trkpt>
      <trkpt lat="46.81604" lon="6.5294">
        <ele>820.39538574219</ele>
        <time>2010-05-29T14:06:30Z</time>
      </trkpt>
      <trkpt lat="46.81586" lon="6.52975">
        <ele>818.02398681641</ele>
        <time>2010-05-29T14:06:35Z</time>
      </trkpt>
      <trkpt lat="46.81572" lon="6.52996">
        <ele>816.34558105469</ele>
        <time>2010-05-29T14:06:40Z</time>
      </trkpt>
      <trkpt lat="46.81564" lon="6.53005">
        <ele>815.39831542969</ele>
        <time>2010-05-29T14:06:45Z</time>
      </trkpt>
      <trkpt lat="46.81563" lon="6.53005">
        <ele>815.3681640625</ele>
        <time>2010-05-29T14:06:46Z</time>
      </trkpt>
      <trkpt lat="46.81559" lon="6.53009">
        <ele>814.81683349609</ele>
        <time>2010-05-29T14:06:50Z</time>
      </trkpt>
      <trkpt lat="46.81549" lon="6.53025">
        <ele>813.64343261719</ele>
        <time>2010-05-29T14:06:55Z</time>
      </trkpt>
      <trkpt lat="46.81541" lon="6.53032">
        <ele>814.11627197266</ele>
        <time>2010-05-29T14:06:59Z</time>
      </trkpt>
      <trkpt lat="46.81541" lon="6.53035">
        <ele>813.81530761719</ele>
        <time>2010-05-29T14:07:00Z</time>
      </trkpt>
      <trkpt lat="46.81541" lon="6.53052">
        <ele>811.91357421875</ele>
        <time>2010-05-29T14:07:05Z</time>
      </trkpt>
      <trkpt lat="46.81533" lon="6.53053">
        <ele>812.72021484375</ele>
        <time>2010-05-29T14:07:10Z</time>
      </trkpt>
      <trkpt lat="46.8155" lon="6.53065">
        <ele>809.1279296875</ele>
        <time>2010-05-29T14:07:26Z</time>
      </trkpt>
      <trkpt lat="46.81556" lon="6.53089">
        <ele>805.68029785156</ele>
        <time>2010-05-29T14:08:12Z</time>
      </trkpt>
      <trkpt lat="46.81557" lon="6.53107">
        <ele>804.50622558594</ele>
        <time>2010-05-29T14:08:16Z</time>
      </trkpt>
      <trkpt lat="46.81553" lon="6.53125">
        <ele>801.96264648438</ele>
        <time>2010-05-29T14:08:21Z</time>
      </trkpt>
      <trkpt lat="46.81548" lon="6.53121">
        <ele>802.36010742188</ele>
        <time>2010-05-29T14:08:24Z</time>
      </trkpt>
      <trkpt lat="46.81548" lon="6.53119">
        <ele>802.63909912109</ele>
        <time>2010-05-29T14:08:26Z</time>
      </trkpt>
      <trkpt lat="46.81548" lon="6.53118">
        <ele>802.95147705078</ele>
        <time>2010-05-29T14:08:30Z</time>
      </trkpt>
      <trkpt lat="46.81548" lon="6.53117">
        <ele>802.9765625</ele>
        <time>2010-05-29T14:08:31Z</time>
      </trkpt>
      <trkpt lat="46.81536" lon="6.53119">
        <ele>802.51593017578</ele>
        <time>2010-05-29T14:08:52Z</time>
      </trkpt>
      <trkpt lat="46.81534" lon="6.53125">
        <ele>801.19818115234</ele>
        <time>2010-05-29T14:08:54Z</time>
      </trkpt>
      <trkpt lat="46.8154" lon="6.53136">
        <ele>799.34149169922</ele>
        <time>2010-05-29T14:08:59Z</time>
      </trkpt>
      <trkpt lat="46.81545" lon="6.53141">
        <ele>799.10626220703</ele>
        <time>2010-05-29T14:09:01Z</time>
      </trkpt>
      <trkpt lat="46.81546" lon="6.53159">
        <ele>797.56164550781</ele>
        <time>2010-05-29T14:09:06Z</time>
      </trkpt>
      <trkpt lat="46.81546" lon="6.53176">
        <ele>795.18084716797</ele>
        <time>2010-05-29T14:09:09Z</time>
      </trkpt>
      <trkpt lat="46.81535" lon="6.53201">
        <ele>786.71362304688</ele>
        <time>2010-05-29T14:09:14Z</time>
      </trkpt>
      <trkpt lat="46.81517" lon="6.53203">
        <ele>783.12927246094</ele>
        <time>2010-05-29T14:09:21Z</time>
      </trkpt>
      <trkpt lat="46.81515" lon="6.532">
        <ele>783.79046630859</ele>
        <time>2010-05-29T14:09:41Z</time>
      </trkpt>
      <trkpt lat="46.81506" lon="6.53208">
        <ele>781.81207275391</ele>
        <time>2010-05-29T14:09:47Z</time>
      </trkpt>
      <trkpt lat="46.81498" lon="6.53218">
        <ele>779.8984375</ele>
        <time>2010-05-29T14:09:51Z</time>
      </trkpt>
      <trkpt lat="46.81503" lon="6.53221">
        <ele>778.40356445312</ele>
        <time>2010-05-29T14:09:53Z</time>
      </trkpt>
      <trkpt lat="46.81513" lon="6.53238">
        <ele>775.48022460938</ele>
        <time>2010-05-29T14:09:56Z</time>
      </trkpt>
      <trkpt lat="46.81527" lon="6.53259">
        <ele>775.64819335938</ele>
        <time>2010-05-29T14:10:00Z</time>
      </trkpt>
      <trkpt lat="46.81527" lon="6.53261">
        <ele>775.49017333984</ele>
        <time>2010-05-29T14:10:01Z</time>
      </trkpt>
      <trkpt lat="46.81522" lon="6.53271">
        <ele>772.41204833984</ele>
        <time>2010-05-29T14:10:06Z</time>
      </trkpt>
      <trkpt lat="46.8153" lon="6.53296">
        <ele>773.00439453125</ele>
        <time>2010-05-29T14:10:09Z</time>
      </trkpt>
      <trkpt lat="46.81529" lon="6.53301">
        <ele>771.53961181641</ele>
        <time>2010-05-29T14:10:10Z</time>
      </trkpt>
      <trkpt lat="46.81524" lon="6.53311">
        <ele>768.56146240234</ele>
        <time>2010-05-29T14:10:13Z</time>
      </trkpt>
      <trkpt lat="46.81464" lon="6.53296">
        <ele>757.75891113281</ele>
        <time>2010-05-29T14:10:18Z</time>
      </trkpt>
      <trkpt lat="46.81454" lon="6.53308">
        <ele>754.44299316406</ele>
        <time>2010-05-29T14:10:21Z</time>
      </trkpt>
      <trkpt lat="46.81452" lon="6.53315">
        <ele>753.10809326172</ele>
        <time>2010-05-29T14:10:22Z</time>
      </trkpt>
      <trkpt lat="46.81443" lon="6.53339">
        <ele>747.69274902344</ele>
        <time>2010-05-29T14:10:29Z</time>
      </trkpt>
      <trkpt lat="46.81442" lon="6.53342">
        <ele>747.77502441406</ele>
        <time>2010-05-29T14:10:30Z</time>
      </trkpt>
      <trkpt lat="46.81438" lon="6.53342">
        <ele>749.78393554688</ele>
        <time>2010-05-29T14:10:33Z</time>
      </trkpt>
      <trkpt lat="46.81438" lon="6.53341">
        <ele>750.52069091797</ele>
        <time>2010-05-29T14:10:35Z</time>
      </trkpt>
      <trkpt lat="46.81435" lon="6.53358">
        <ele>745.47296142578</ele>
        <time>2010-05-29T14:10:41Z</time>
      </trkpt>
      <trkpt lat="46.81433" lon="6.53364">
        <ele>744.62622070312</ele>
        <time>2010-05-29T14:10:42Z</time>
      </trkpt>
      <trkpt lat="46.81423" lon="6.53399">
        <ele>740.87054443359</ele>
        <time>2010-05-29T14:10:48Z</time>
      </trkpt>
      <trkpt lat="46.81415" lon="6.53429">
        <ele>735.54022216797</ele>
        <time>2010-05-29T14:10:53Z</time>
      </trkpt>
      <trkpt lat="46.81406" lon="6.53451">
        <ele>733.67150878906</ele>
        <time>2010-05-29T14:10:58Z</time>
      </trkpt>
      <trkpt lat="46.81401" lon="6.5346">
        <ele>732.69860839844</ele>
        <time>2010-05-29T14:11:00Z</time>
      </trkpt>
      <trkpt lat="46.8139" lon="6.53484">
        <ele>729.61810302734</ele>
        <time>2010-05-29T14:11:05Z</time>
      </trkpt>
      <trkpt lat="46.81384" lon="6.53496">
        <ele>728.65972900391</ele>
        <time>2010-05-29T14:11:07Z</time>
      </trkpt>
      <trkpt lat="46.8137" lon="6.53522">
        <ele>725.15313720703</ele>
        <time>2010-05-29T14:11:12Z</time>
      </trkpt>
      <trkpt lat="46.81367" lon="6.53527">
        <ele>724.10522460938</ele>
        <time>2010-05-29T14:11:13Z</time>
      </trkpt>
      <trkpt lat="46.81362" lon="6.53561">
        <ele>718.00213623047</ele>
        <time>2010-05-29T14:11:18Z</time>
      </trkpt>
      <trkpt lat="46.81354" lon="6.53591">
        <ele>709.92095947266</ele>
        <time>2010-05-29T14:11:21Z</time>
      </trkpt>
      <trkpt lat="46.81347" lon="6.53648">
        <ele>699.822265625</ele>
        <time>2010-05-29T14:11:26Z</time>
      </trkpt>
      <trkpt lat="46.81344" lon="6.5369">
        <ele>698.02453613281</ele>
        <time>2010-05-29T14:11:30Z</time>
      </trkpt>
      <trkpt lat="46.81322" lon="6.53719">
        <ele>694.59216308594</ele>
        <time>2010-05-29T14:11:35Z</time>
      </trkpt>
      <trkpt lat="46.81304" lon="6.53723">
        <ele>692.15142822266</ele>
        <time>2010-05-29T14:11:38Z</time>
      </trkpt>
      <trkpt lat="46.81288" lon="6.53732">
        <ele>692.56604003906</ele>
        <time>2010-05-29T14:11:41Z</time>
      </trkpt>
      <trkpt lat="46.81276" lon="6.5375">
        <ele>689.92761230469</ele>
        <time>2010-05-29T14:11:44Z</time>
      </trkpt>
      <trkpt lat="46.81269" lon="6.5376">
        <ele>690.93786621094</ele>
        <time>2010-05-29T14:11:46Z</time>
      </trkpt>
      <trkpt lat="46.81257" lon="6.53782">
        <ele>691.39685058594</ele>
        <time>2010-05-29T14:11:49Z</time>
      </trkpt>
      <trkpt lat="46.81228" lon="6.53819">
        <ele>688.98028564453</ele>
        <time>2010-05-29T14:11:55Z</time>
      </trkpt>
      <trkpt lat="46.8121" lon="6.53859">
        <ele>687.47644042969</ele>
        <time>2010-05-29T14:12:00Z</time>
      </trkpt>
      <trkpt lat="46.81199" lon="6.53886">
        <ele>684.96820068359</ele>
        <time>2010-05-29T14:12:05Z</time>
      </trkpt>
      <trkpt lat="46.81185" lon="6.53911">
        <ele>687.45141601562</ele>
        <time>2010-05-29T14:12:10Z</time>
      </trkpt>
      <trkpt lat="46.81183" lon="6.53914">
        <ele>687.76788330078</ele>
        <time>2010-05-29T14:12:12Z</time>
      </trkpt>
      <trkpt lat="46.8118" lon="6.53922">
        <ele>687.99212646484</ele>
        <time>2010-05-29T14:12:19Z</time>
      </trkpt>
      <trkpt lat="46.81181" lon="6.53927">
        <ele>687.22619628906</ele>
        <time>2010-05-29T14:12:25Z</time>
      </trkpt>
      <trkpt lat="46.81181" lon="6.5393">
        <ele>686.84814453125</ele>
        <time>2010-05-29T14:12:28Z</time>
      </trkpt>
      <trkpt lat="46.81182" lon="6.53934">
        <ele>685.75463867188</ele>
        <time>2010-05-29T14:12:32Z</time>
      </trkpt>
      <trkpt lat="46.81168" lon="6.53971">
        <ele>680.41156005859</ele>
        <time>2010-05-29T14:12:54Z</time>
      </trkpt>
      <trkpt lat="46.81162" lon="6.53999">
        <ele>681.15777587891</ele>
        <time>2010-05-29T14:12:57Z</time>
      </trkpt>
      <trkpt lat="46.81142" lon="6.54052">
        <ele>680</ele>
        <time>2010-05-29T14:13:02Z</time>
      </trkpt>
      <trkpt lat="46.81114" lon="6.54114">
        <ele>677.04461669922</ele>
        <time>2010-05-29T14:13:07Z</time>
      </trkpt>
      <trkpt lat="46.81103" lon="6.54138">
        <ele>674.16760253906</ele>
        <time>2010-05-29T14:13:09Z</time>
      </trkpt>
      <trkpt lat="46.81079" lon="6.54167">
        <ele>667.92755126953</ele>
        <time>2010-05-29T14:13:13Z</time>
      </trkpt>
      <trkpt lat="46.81067" lon="6.54178">
        <ele>664.93420410156</ele>
        <time>2010-05-29T14:13:16Z</time>
      </trkpt>
      <trkpt lat="46.81052" lon="6.5421">
        <ele>659.98876953125</ele>
        <time>2010-05-29T14:13:21Z</time>
      </trkpt>
      <trkpt lat="46.8105" lon="6.54218">
        <ele>659.53979492188</ele>
        <time>2010-05-29T14:13:22Z</time>
      </trkpt>
      <trkpt lat="46.81046" lon="6.54239">
        <ele>657.43902587891</ele>
        <time>2010-05-29T14:13:26Z</time>
      </trkpt>
      <trkpt lat="46.81035" lon="6.54254">
        <ele>653.82666015625</ele>
        <time>2010-05-29T14:13:31Z</time>
      </trkpt>
      <trkpt lat="46.81023" lon="6.54259">
        <ele>651.5068359375</ele>
        <time>2010-05-29T14:13:34Z</time>
      </trkpt>
      <trkpt lat="46.81007" lon="6.54272">
        <ele>648.65936279297</ele>
        <time>2010-05-29T14:13:38Z</time>
      </trkpt>
      <trkpt lat="46.80996" lon="6.54281">
        <ele>646.07208251953</ele>
        <time>2010-05-29T14:13:41Z</time>
      </trkpt>
      <trkpt lat="46.80977" lon="6.54295">
        <ele>642.0048828125</ele>
        <time>2010-05-29T14:13:46Z</time>
      </trkpt>
      <trkpt lat="46.80972" lon="6.54306">
        <ele>638.98767089844</ele>
        <time>2010-05-29T14:13:48Z</time>
      </trkpt>
      <trkpt lat="46.80955" lon="6.54336">
        <ele>635.8017578125</ele>
        <time>2010-05-29T14:13:54Z</time>
      </trkpt>
      <trkpt lat="46.80937" lon="6.54338">
        <ele>634.02923583984</ele>
        <time>2010-05-29T14:13:58Z</time>
      </trkpt>
      <trkpt lat="46.80931" lon="6.54346">
        <ele>632.35754394531</ele>
        <time>2010-05-29T14:14:01Z</time>
      </trkpt>
      <trkpt lat="46.80935" lon="6.54357">
        <ele>630.16986083984</ele>
        <time>2010-05-29T14:14:03Z</time>
      </trkpt>
      <trkpt lat="46.80937" lon="6.54377">
        <ele>626.94189453125</ele>
        <time>2010-05-29T14:14:07Z</time>
      </trkpt>
      <trkpt lat="46.80922" lon="6.54392">
        <ele>622.99499511719</ele>
        <time>2010-05-29T14:14:13Z</time>
      </trkpt>
      <trkpt lat="46.80917" lon="6.544">
        <ele>621.39685058594</ele>
        <time>2010-05-29T14:14:15Z</time>
      </trkpt>
      <trkpt lat="46.80915" lon="6.5441">
        <ele>619.97857666016</ele>
        <time>2010-05-29T14:14:19Z</time>
      </trkpt>
      <trkpt lat="46.80909" lon="6.54426">
        <ele>617.95483398438</ele>
        <time>2010-05-29T14:14:29Z</time>
      </trkpt>
      <trkpt lat="46.80899" lon="6.54437">
        <ele>616.37561035156</ele>
        <time>2010-05-29T14:14:35Z</time>
      </trkpt>
      <trkpt lat="46.80898" lon="6.54437">
        <ele>616.37902832031</ele>
        <time>2010-05-29T14:14:36Z</time>
      </trkpt>
      <trkpt lat="46.80891" lon="6.54435">
        <ele>616.12677001953</ele>
        <time>2010-05-29T14:15:00Z</time>
      </trkpt>
      <trkpt lat="46.80899" lon="6.54428">
        <ele>617.31756591797</ele>
        <time>2010-05-29T14:15:28Z</time>
      </trkpt>
      <trkpt lat="46.80903" lon="6.54423">
        <ele>617.98486328125</ele>
        <time>2010-05-29T14:15:33Z</time>
      </trkpt>
      <trkpt lat="46.80899" lon="6.54432">
        <ele>616.86535644531</ele>
        <time>2010-05-29T14:16:11Z</time>
      </trkpt>
      <trkpt lat="46.80888" lon="6.54434">
        <ele>616.06494140625</ele>
        <time>2010-05-29T14:16:15Z</time>
      </trkpt>
      <trkpt lat="46.80863" lon="6.54428">
        <ele>615.40521240234</ele>
        <time>2010-05-29T14:16:22Z</time>
      </trkpt>
      <trkpt lat="46.8084" lon="6.54428">
        <ele>614.57690429688</ele>
        <time>2010-05-29T14:16:27Z</time>
      </trkpt>
      <trkpt lat="46.80818" lon="6.5444">
        <ele>611.72882080078</ele>
        <time>2010-05-29T14:16:32Z</time>
      </trkpt>
      <trkpt lat="46.80796" lon="6.5448">
        <ele>598.39367675781</ele>
        <time>2010-05-29T14:16:38Z</time>
      </trkpt>
      <trkpt lat="46.80789" lon="6.54496">
        <ele>595.73620605469</ele>
        <time>2010-05-29T14:16:40Z</time>
      </trkpt>
      <trkpt lat="46.80767" lon="6.54523">
        <ele>587.96472167969</ele>
        <time>2010-05-29T14:16:45Z</time>
      </trkpt>
      <trkpt lat="46.80761" lon="6.54524">
        <ele>586.97583007812</ele>
        <time>2010-05-29T14:16:46Z</time>
      </trkpt>
      <trkpt lat="46.8073" lon="6.54534">
        <ele>581.07946777344</ele>
        <time>2010-05-29T14:16:51Z</time>
      </trkpt>
      <trkpt lat="46.80705" lon="6.54527">
        <ele>580.19885253906</ele>
        <time>2010-05-29T14:16:55Z</time>
      </trkpt>
      <trkpt lat="46.80699" lon="6.54521">
        <ele>581.06060791016</ele>
        <time>2010-05-29T14:16:56Z</time>
      </trkpt>
      <trkpt lat="46.8066" lon="6.54482">
        <ele>581.91259765625</ele>
        <time>2010-05-29T14:17:01Z</time>
      </trkpt>
      <trkpt lat="46.80643" lon="6.54465">
        <ele>582.15521240234</ele>
        <time>2010-05-29T14:17:03Z</time>
      </trkpt>
      <trkpt lat="46.80598" lon="6.54433">
        <ele>583.76806640625</ele>
        <time>2010-05-29T14:17:08Z</time>
      </trkpt>
      <trkpt lat="46.80567" lon="6.54405">
        <ele>584.62768554688</ele>
        <time>2010-05-29T14:17:12Z</time>
      </trkpt>
      <trkpt lat="46.80539" lon="6.54374">
        <ele>585.85656738281</ele>
        <time>2010-05-29T14:17:16Z</time>
      </trkpt>
      <trkpt lat="46.80532" lon="6.54367">
        <ele>585.88403320312</ele>
        <time>2010-05-29T14:17:17Z</time>
      </trkpt>
      <trkpt lat="46.80505" lon="6.54317">
        <ele>592.35473632812</ele>
        <time>2010-05-29T14:17:22Z</time>
      </trkpt>
      <trkpt lat="46.805" lon="6.54306">
        <ele>593.05212402344</ele>
        <time>2010-05-29T14:17:23Z</time>
      </trkpt>
      <trkpt lat="46.80474" lon="6.54281">
        <ele>598.66003417969</ele>
        <time>2010-05-29T14:17:27Z</time>
      </trkpt>
      <trkpt lat="46.80457" lon="6.54273">
        <ele>599</ele>
        <time>2010-05-29T14:17:29Z</time>
      </trkpt>
      <trkpt lat="46.80441" lon="6.54262">
        <ele>599</ele>
        <time>2010-05-29T14:17:31Z</time>
      </trkpt>
      <trkpt lat="46.80415" lon="6.54249">
        <ele>599.02911376953</ele>
        <time>2010-05-29T14:17:34Z</time>
      </trkpt>
      <trkpt lat="46.8038" lon="6.54213">
        <ele>600</ele>
        <time>2010-05-29T14:17:39Z</time>
      </trkpt>
      <trkpt lat="46.80349" lon="6.54178">
        <ele>600</ele>
        <time>2010-05-29T14:17:44Z</time>
      </trkpt>
      <trkpt lat="46.80332" lon="6.54163">
        <ele>600</ele>
        <time>2010-05-29T14:17:47Z</time>
      </trkpt>
      <trkpt lat="46.80297" lon="6.54138">
        <ele>600</ele>
        <time>2010-05-29T14:17:55Z</time>
      </trkpt>
      <trkpt lat="46.80271" lon="6.54121">
        <ele>600</ele>
        <time>2010-05-29T14:18:01Z</time>
      </trkpt>
      <trkpt lat="46.80249" lon="6.54108">
        <ele>600</ele>
        <time>2010-05-29T14:18:06Z</time>
      </trkpt>
      <trkpt lat="46.8023" lon="6.54097">
        <ele>600</ele>
        <time>2010-05-29T14:18:10Z</time>
      </trkpt>
      <trkpt lat="46.80212" lon="6.54084">
        <ele>600</ele>
        <time>2010-05-29T14:18:14Z</time>
      </trkpt>
      <trkpt lat="46.80202" lon="6.54076">
        <ele>600</ele>
        <time>2010-05-29T14:18:16Z</time>
      </trkpt>
      <trkpt lat="46.80179" lon="6.54051">
        <ele>600</ele>
        <time>2010-05-29T14:18:21Z</time>
      </trkpt>
      <trkpt lat="46.80159" lon="6.54031">
        <ele>600</ele>
        <time>2010-05-29T14:18:26Z</time>
      </trkpt>
      <trkpt lat="46.80143" lon="6.54015">
        <ele>600</ele>
        <time>2010-05-29T14:18:30Z</time>
      </trkpt>
      <trkpt lat="46.80119" lon="6.53984">
        <ele>600</ele>
        <time>2010-05-29T14:18:37Z</time>
      </trkpt>
      <trkpt lat="46.80103" lon="6.53961">
        <ele>600</ele>
        <time>2010-05-29T14:18:41Z</time>
      </trkpt>
      <trkpt lat="46.80099" lon="6.53957">
        <ele>600</ele>
        <time>2010-05-29T14:18:42Z</time>
      </trkpt>
      <trkpt lat="46.80089" lon="6.53947">
        <ele>600</ele>
        <time>2010-05-29T14:18:44Z</time>
      </trkpt>
      <trkpt lat="46.80061" lon="6.53926">
        <ele>600</ele>
        <time>2010-05-29T14:18:50Z</time>
      </trkpt>
      <trkpt lat="46.80042" lon="6.53911">
        <ele>600</ele>
        <time>2010-05-29T14:18:54Z</time>
      </trkpt>
      <trkpt lat="46.80017" lon="6.53887">
        <ele>600</ele>
        <time>2010-05-29T14:19:01Z</time>
      </trkpt>
      <trkpt lat="46.80003" lon="6.53875">
        <ele>600</ele>
        <time>2010-05-29T14:19:05Z</time>
      </trkpt>
      <trkpt lat="46.7999" lon="6.53858">
        <ele>600</ele>
        <time>2010-05-29T14:19:11Z</time>
      </trkpt>
      <trkpt lat="46.79983" lon="6.53843">
        <ele>600</ele>
        <time>2010-05-29T14:19:15Z</time>
      </trkpt>
      <trkpt lat="46.7998" lon="6.53835">
        <ele>600</ele>
        <time>2010-05-29T14:19:19Z</time>
      </trkpt>
      <trkpt lat="46.79979" lon="6.53827">
        <ele>600</ele>
        <time>2010-05-29T14:19:23Z</time>
      </trkpt>
      <trkpt lat="46.79976" lon="6.53806">
        <ele>600</ele>
        <time>2010-05-29T14:19:30Z</time>
      </trkpt>
      <trkpt lat="46.79963" lon="6.53784">
        <ele>600</ele>
        <time>2010-05-29T14:19:36Z</time>
      </trkpt>
      <trkpt lat="46.79951" lon="6.53767">
        <ele>600</ele>
        <time>2010-05-29T14:19:41Z</time>
      </trkpt>
      <trkpt lat="46.79938" lon="6.53751">
        <ele>600</ele>
        <time>2010-05-29T14:19:46Z</time>
      </trkpt>
      <trkpt lat="46.79927" lon="6.53738">
        <ele>600</ele>
        <time>2010-05-29T14:19:51Z</time>
      </trkpt>
      <trkpt lat="46.79917" lon="6.53725">
        <ele>600</ele>
        <time>2010-05-29T14:19:55Z</time>
      </trkpt>
      <trkpt lat="46.79907" lon="6.53709">
        <ele>600</ele>
        <time>2010-05-29T14:20:00Z</time>
      </trkpt>
      <trkpt lat="46.79896" lon="6.53688">
        <ele>602.62274169922</ele>
        <time>2010-05-29T14:20:06Z</time>
      </trkpt>
      <trkpt lat="46.79884" lon="6.53666">
        <ele>609.25915527344</ele>
        <time>2010-05-29T14:20:12Z</time>
      </trkpt>
      <trkpt lat="46.79869" lon="6.53649">
        <ele>610.15606689453</ele>
        <time>2010-05-29T14:20:19Z</time>
      </trkpt>
      <trkpt lat="46.79848" lon="6.53636">
        <ele>609.71099853516</ele>
        <time>2010-05-29T14:20:28Z</time>
      </trkpt>
      <trkpt lat="46.79837" lon="6.53628">
        <ele>611.23876953125</ele>
        <time>2010-05-29T14:20:34Z</time>
      </trkpt>
      <trkpt lat="46.79821" lon="6.53618">
        <ele>612.94848632812</ele>
        <time>2010-05-29T14:20:40Z</time>
      </trkpt>
      <trkpt lat="46.79801" lon="6.53605">
        <ele>614.03314208984</ele>
        <time>2010-05-29T14:20:47Z</time>
      </trkpt>
      <trkpt lat="46.79787" lon="6.53591">
        <ele>616.33233642578</ele>
        <time>2010-05-29T14:20:53Z</time>
      </trkpt>
      <trkpt lat="46.79774" lon="6.53579">
        <ele>618.89965820312</ele>
        <time>2010-05-29T14:20:59Z</time>
      </trkpt>
      <trkpt lat="46.79765" lon="6.53567">
        <ele>621.21710205078</ele>
        <time>2010-05-29T14:21:04Z</time>
      </trkpt>
      <trkpt lat="46.7975" lon="6.53548">
        <ele>624.06518554688</ele>
        <time>2010-05-29T14:21:10Z</time>
      </trkpt>
      <trkpt lat="46.79735" lon="6.53525">
        <ele>624.86437988281</ele>
        <time>2010-05-29T14:21:17Z</time>
      </trkpt>
      <trkpt lat="46.79723" lon="6.53509">
        <ele>626.31427001953</ele>
        <time>2010-05-29T14:21:22Z</time>
      </trkpt>
      <trkpt lat="46.79709" lon="6.53488">
        <ele>628.31030273438</ele>
        <time>2010-05-29T14:21:27Z</time>
      </trkpt>
      <trkpt lat="46.79692" lon="6.53464">
        <ele>630.33575439453</ele>
        <time>2010-05-29T14:21:33Z</time>
      </trkpt>
      <trkpt lat="46.79676" lon="6.53446">
        <ele>631.78497314453</ele>
        <time>2010-05-29T14:21:39Z</time>
      </trkpt>
      <trkpt lat="46.79662" lon="6.53428">
        <ele>632.44116210938</ele>
        <time>2010-05-29T14:21:45Z</time>
      </trkpt>
      <trkpt lat="46.79648" lon="6.53413">
        <ele>633.11016845703</ele>
        <time>2010-05-29T14:21:49Z</time>
      </trkpt>
      <trkpt lat="46.79636" lon="6.53398">
        <ele>633.81616210938</ele>
        <time>2010-05-29T14:21:53Z</time>
      </trkpt>
      <trkpt lat="46.79623" lon="6.53381">
        <ele>634.45275878906</ele>
        <time>2010-05-29T14:21:59Z</time>
      </trkpt>
      <trkpt lat="46.79609" lon="6.53363">
        <ele>634.83386230469</ele>
        <time>2010-05-29T14:22:05Z</time>
      </trkpt>
      <trkpt lat="46.79603" lon="6.53351">
        <ele>635.82025146484</ele>
        <time>2010-05-29T14:22:09Z</time>
      </trkpt>
      <trkpt lat="46.79591" lon="6.53336">
        <ele>637.01843261719</ele>
        <time>2010-05-29T14:22:14Z</time>
      </trkpt>
      <trkpt lat="46.79576" lon="6.53316">
        <ele>637.55847167969</ele>
        <time>2010-05-29T14:22:20Z</time>
      </trkpt>
      <trkpt lat="46.79555" lon="6.53284">
        <ele>638.26348876953</ele>
        <time>2010-05-29T14:22:29Z</time>
      </trkpt>
      <trkpt lat="46.79531" lon="6.53251">
        <ele>638.18829345703</ele>
        <time>2010-05-29T14:22:39Z</time>
      </trkpt>
      <trkpt lat="46.79506" lon="6.53219">
        <ele>639.44921875</ele>
        <time>2010-05-29T14:22:49Z</time>
      </trkpt>
      <trkpt lat="46.79485" lon="6.5319">
        <ele>640.07116699219</ele>
        <time>2010-05-29T14:22:58Z</time>
      </trkpt>
      <trkpt lat="46.79461" lon="6.53169">
        <ele>639.03784179688</ele>
        <time>2010-05-29T14:23:07Z</time>
      </trkpt>
      <trkpt lat="46.7944" lon="6.53165">
        <ele>637.51684570312</ele>
        <time>2010-05-29T14:23:13Z</time>
      </trkpt>
      <trkpt lat="46.79411" lon="6.53158">
        <ele>634.6552734375</ele>
        <time>2010-05-29T14:23:19Z</time>
      </trkpt>
      <trkpt lat="46.79389" lon="6.5315">
        <ele>632.57928466797</ele>
        <time>2010-05-29T14:23:23Z</time>
      </trkpt>
      <trkpt lat="46.79361" lon="6.5313">
        <ele>631.63562011719</ele>
        <time>2010-05-29T14:23:28Z</time>
      </trkpt>
      <trkpt lat="46.79357" lon="6.53124">
        <ele>631.60968017578</ele>
        <time>2010-05-29T14:23:29Z</time>
      </trkpt>
      <trkpt lat="46.79337" lon="6.53087">
        <ele>631.30114746094</ele>
        <time>2010-05-29T14:23:34Z</time>
      </trkpt>
      <trkpt lat="46.7933" lon="6.5307">
        <ele>631.16381835938</ele>
        <time>2010-05-29T14:23:36Z</time>
      </trkpt>
      <trkpt lat="46.7932" lon="6.53034">
        <ele>631.71405029297</ele>
        <time>2010-05-29T14:23:40Z</time>
      </trkpt>
      <trkpt lat="46.79311" lon="6.52993">
        <ele>633.09692382812</ele>
        <time>2010-05-29T14:23:44Z</time>
      </trkpt>
      <trkpt lat="46.79308" lon="6.52983">
        <ele>633.55004882812</ele>
        <time>2010-05-29T14:23:45Z</time>
      </trkpt>
      <trkpt lat="46.79301" lon="6.52963">
        <ele>633.88824462891</ele>
        <time>2010-05-29T14:23:47Z</time>
      </trkpt>
      <trkpt lat="46.79272" lon="6.52901">
        <ele>633.22589111328</ele>
        <time>2010-05-29T14:23:54Z</time>
      </trkpt>
      <trkpt lat="46.79242" lon="6.52857">
        <ele>628.99847412109</ele>
        <time>2010-05-29T14:24:01Z</time>
      </trkpt>
      <trkpt lat="46.79221" lon="6.52829">
        <ele>625.51300048828</ele>
        <time>2010-05-29T14:24:06Z</time>
      </trkpt>
      <trkpt lat="46.79209" lon="6.52814">
        <ele>624.79315185547</ele>
        <time>2010-05-29T14:24:09Z</time>
      </trkpt>
      <trkpt lat="46.79194" lon="6.52795">
        <ele>622.71179199219</ele>
        <time>2010-05-29T14:24:13Z</time>
      </trkpt>
      <trkpt lat="46.79178" lon="6.52769">
        <ele>622.14855957031</ele>
        <time>2010-05-29T14:24:19Z</time>
      </trkpt>
      <trkpt lat="46.79173" lon="6.52749">
        <ele>621.77044677734</ele>
        <time>2010-05-29T14:24:25Z</time>
      </trkpt>
      <trkpt lat="46.79172" lon="6.52744">
        <ele>622.08117675781</ele>
        <time>2010-05-29T14:24:27Z</time>
      </trkpt>
      <trkpt lat="46.79168" lon="6.52745">
        <ele>620.80572509766</ele>
        <time>2010-05-29T14:24:32Z</time>
      </trkpt>
      <trkpt lat="46.79172" lon="6.52743">
        <ele>622.2666015625</ele>
        <time>2010-05-29T14:24:35Z</time>
      </trkpt>
      <trkpt lat="46.7917" lon="6.5273">
        <ele>623.07678222656</ele>
        <time>2010-05-29T14:24:38Z</time>
      </trkpt>
      <trkpt lat="46.79163" lon="6.52704">
        <ele>625.64245605469</ele>
        <time>2010-05-29T14:24:43Z</time>
      </trkpt>
      <trkpt lat="46.79159" lon="6.52686">
        <ele>627.16662597656</ele>
        <time>2010-05-29T14:24:47Z</time>
      </trkpt>
      <trkpt lat="46.79152" lon="6.52655">
        <ele>629.34552001953</ele>
        <time>2010-05-29T14:24:54Z</time>
      </trkpt>
      <trkpt lat="46.7915" lon="6.52634">
        <ele>631.892578125</ele>
        <time>2010-05-29T14:24:58Z</time>
      </trkpt>
      <trkpt lat="46.79157" lon="6.52599">
        <ele>637.42761230469</ele>
        <time>2010-05-29T14:25:04Z</time>
      </trkpt>
      <trkpt lat="46.79161" lon="6.52581">
        <ele>640.75396728516</ele>
        <time>2010-05-29T14:25:08Z</time>
      </trkpt>
      <trkpt lat="46.79157" lon="6.52569">
        <ele>641.39361572266</ele>
        <time>2010-05-29T14:25:12Z</time>
      </trkpt>
      <trkpt lat="46.79145" lon="6.52549">
        <ele>639.58270263672</ele>
        <time>2010-05-29T14:25:18Z</time>
      </trkpt>
      <trkpt lat="46.79121" lon="6.52531">
        <ele>636.47589111328</ele>
        <time>2010-05-29T14:25:25Z</time>
      </trkpt>
      <trkpt lat="46.79094" lon="6.52522">
        <ele>632.19097900391</ele>
        <time>2010-05-29T14:25:31Z</time>
      </trkpt>
      <trkpt lat="46.79056" lon="6.52522">
        <ele>628.21459960938</ele>
        <time>2010-05-29T14:25:39Z</time>
      </trkpt>
      <trkpt lat="46.79028" lon="6.52524">
        <ele>628.14758300781</ele>
        <time>2010-05-29T14:25:45Z</time>
      </trkpt>
      <trkpt lat="46.79016" lon="6.52523">
        <ele>628.57843017578</ele>
        <time>2010-05-29T14:25:49Z</time>
      </trkpt>
      <trkpt lat="46.79003" lon="6.52522">
        <ele>629.12261962891</ele>
        <time>2010-05-29T14:25:53Z</time>
      </trkpt>
      <trkpt lat="46.7897" lon="6.52513">
        <ele>629.54992675781</ele>
        <time>2010-05-29T14:26:00Z</time>
      </trkpt>
      <trkpt lat="46.78961" lon="6.52507">
        <ele>629.74731445312</ele>
        <time>2010-05-29T14:26:02Z</time>
      </trkpt>
      <trkpt lat="46.78938" lon="6.52481">
        <ele>631.18090820312</ele>
        <time>2010-05-29T14:26:08Z</time>
      </trkpt>
      <trkpt lat="46.78908" lon="6.52438">
        <ele>632.16650390625</ele>
        <time>2010-05-29T14:26:17Z</time>
      </trkpt>
      <trkpt lat="46.78893" lon="6.52415">
        <ele>633.17553710938</ele>
        <time>2010-05-29T14:26:22Z</time>
      </trkpt>
    </trkseg>
  </trk>
</gpx>